<?xml version="1.0" encoding="UTF-8" standalone="no" ?>
<gpx xmlns="http://www.topografix.com/GPX/1/1" xmlns:xsi="http://www.w3.org/2001/XMLSchema-instance" xsi:schemaLocation="http://www.topografix.com/GPX/1/1 http://www.topografix.com/GPX/1/1/gpx.xsd" version="1.1" creator="VisuGPX - https://www.visugpx.com">
  <metadata>
    <name>VTT Noidans avec JF</name>
    <desc><![CDATA[Parcours détrempé mais faisable. Avec JF, Christine et Jacques]]></desc>
  </metadata>
  <trk>
    <name><![CDATA[VTT Noidans avec JF]]></name>
    <desc><![CDATA[terrain très humide . JF Christine et Jacques]]></desc>
    <trkseg>
      <trkpt lat="47.5693" lon="5.95033">
        <ele>244.19999694824</ele>
        <time>2014-02-02T08:29:08.000Z</time>
      </trkpt>
      <trkpt lat="47.5693" lon="5.95033">
        <ele>244.19999694824</ele>
        <time>2014-02-02T08:29:10.000Z</time>
      </trkpt>
      <trkpt lat="47.56932" lon="5.95035">
        <ele>243.80000305176</ele>
        <time>2014-02-02T08:29:17.000Z</time>
      </trkpt>
      <trkpt lat="47.56936" lon="5.95041">
        <ele>243.80000305176</ele>
        <time>2014-02-02T08:29:19.000Z</time>
      </trkpt>
      <trkpt lat="47.56944" lon="5.95063">
        <ele>243.80000305176</ele>
        <time>2014-02-02T08:29:24.000Z</time>
      </trkpt>
      <trkpt lat="47.5695" lon="5.95075">
        <ele>243.80000305176</ele>
        <time>2014-02-02T08:29:26.000Z</time>
      </trkpt>
      <trkpt lat="47.56958" lon="5.95083">
        <ele>243.39999389648</ele>
        <time>2014-02-02T08:29:28.000Z</time>
      </trkpt>
      <trkpt lat="47.56963" lon="5.95085">
        <ele>242.80000305176</ele>
        <time>2014-02-02T08:29:29.000Z</time>
      </trkpt>
      <trkpt lat="47.56968" lon="5.95087">
        <ele>242.39999389648</ele>
        <time>2014-02-02T08:29:30.000Z</time>
      </trkpt>
      <trkpt lat="47.56973" lon="5.95087">
        <ele>241.80000305176</ele>
        <time>2014-02-02T08:29:31.000Z</time>
      </trkpt>
      <trkpt lat="47.56978" lon="5.95082">
        <ele>241.39999389648</ele>
        <time>2014-02-02T08:29:32.000Z</time>
      </trkpt>
      <trkpt lat="47.5698" lon="5.95078">
        <ele>241.39999389648</ele>
        <time>2014-02-02T08:29:33.000Z</time>
      </trkpt>
      <trkpt lat="47.56981" lon="5.95072">
        <ele>241.39999389648</ele>
        <time>2014-02-02T08:29:34.000Z</time>
      </trkpt>
      <trkpt lat="47.56984" lon="5.95057">
        <ele>241.39999389648</ele>
        <time>2014-02-02T08:29:37.000Z</time>
      </trkpt>
      <trkpt lat="47.56998" lon="5.95034">
        <ele>241.39999389648</ele>
        <time>2014-02-02T08:29:43.000Z</time>
      </trkpt>
      <trkpt lat="47.57013" lon="5.95018">
        <ele>241.39999389648</ele>
        <time>2014-02-02T08:29:49.000Z</time>
      </trkpt>
      <trkpt lat="47.5703" lon="5.95003">
        <ele>241.39999389648</ele>
        <time>2014-02-02T08:29:58.000Z</time>
      </trkpt>
      <trkpt lat="47.5704" lon="5.94996">
        <ele>241.80000305176</ele>
        <time>2014-02-02T08:30:03.000Z</time>
      </trkpt>
      <trkpt lat="47.57042" lon="5.94994">
        <ele>242.19999694824</ele>
        <time>2014-02-02T08:30:04.000Z</time>
      </trkpt>
      <trkpt lat="47.57044" lon="5.94992">
        <ele>242.80000305176</ele>
        <time>2014-02-02T08:30:05.000Z</time>
      </trkpt>
      <trkpt lat="47.57047" lon="5.94991">
        <ele>243.19999694824</ele>
        <time>2014-02-02T08:30:06.000Z</time>
      </trkpt>
      <trkpt lat="47.57049" lon="5.94989">
        <ele>243.60000610352</ele>
        <time>2014-02-02T08:30:07.000Z</time>
      </trkpt>
      <trkpt lat="47.57057" lon="5.94984">
        <ele>244</ele>
        <time>2014-02-02T08:30:11.000Z</time>
      </trkpt>
      <trkpt lat="47.57059" lon="5.94982">
        <ele>244.39999389648</ele>
        <time>2014-02-02T08:30:12.000Z</time>
      </trkpt>
      <trkpt lat="47.57061" lon="5.94981">
        <ele>245</ele>
        <time>2014-02-02T08:30:13.000Z</time>
      </trkpt>
      <trkpt lat="47.57063" lon="5.94979">
        <ele>245.39999389648</ele>
        <time>2014-02-02T08:30:14.000Z</time>
      </trkpt>
      <trkpt lat="47.57065" lon="5.94978">
        <ele>245.80000305176</ele>
        <time>2014-02-02T08:30:15.000Z</time>
      </trkpt>
      <trkpt lat="47.57069" lon="5.94975">
        <ele>245.80000305176</ele>
        <time>2014-02-02T08:30:18.000Z</time>
      </trkpt>
      <trkpt lat="47.57069" lon="5.94972">
        <ele>245.80000305176</ele>
        <time>2014-02-02T08:30:19.000Z</time>
      </trkpt>
      <trkpt lat="47.5707" lon="5.94962">
        <ele>245.80000305176</ele>
        <time>2014-02-02T08:30:22.000Z</time>
      </trkpt>
      <trkpt lat="47.57069" lon="5.94955">
        <ele>245.80000305176</ele>
        <time>2014-02-02T08:30:24.000Z</time>
      </trkpt>
      <trkpt lat="47.57067" lon="5.94948">
        <ele>246.60000610352</ele>
        <time>2014-02-02T08:30:26.000Z</time>
      </trkpt>
      <trkpt lat="47.57066" lon="5.94944">
        <ele>247</ele>
        <time>2014-02-02T08:30:27.000Z</time>
      </trkpt>
      <trkpt lat="47.57065" lon="5.94941">
        <ele>247.39999389648</ele>
        <time>2014-02-02T08:30:28.000Z</time>
      </trkpt>
      <trkpt lat="47.57064" lon="5.94938">
        <ele>248</ele>
        <time>2014-02-02T08:30:29.000Z</time>
      </trkpt>
      <trkpt lat="47.57059" lon="5.94927">
        <ele>248</ele>
        <time>2014-02-02T08:30:33.000Z</time>
      </trkpt>
      <trkpt lat="47.5706" lon="5.94923">
        <ele>248</ele>
        <time>2014-02-02T08:30:34.000Z</time>
      </trkpt>
      <trkpt lat="47.57063" lon="5.94918">
        <ele>248</ele>
        <time>2014-02-02T08:30:36.000Z</time>
      </trkpt>
      <trkpt lat="47.57066" lon="5.94914">
        <ele>248</ele>
        <time>2014-02-02T08:30:38.000Z</time>
      </trkpt>
      <trkpt lat="47.57071" lon="5.94909">
        <ele>248.39999389648</ele>
        <time>2014-02-02T08:30:41.000Z</time>
      </trkpt>
      <trkpt lat="47.57073" lon="5.94907">
        <ele>248.80000305176</ele>
        <time>2014-02-02T08:30:42.000Z</time>
      </trkpt>
      <trkpt lat="47.57075" lon="5.94905">
        <ele>249.19999694824</ele>
        <time>2014-02-02T08:30:43.000Z</time>
      </trkpt>
      <trkpt lat="47.57077" lon="5.94903">
        <ele>249.60000610352</ele>
        <time>2014-02-02T08:30:44.000Z</time>
      </trkpt>
      <trkpt lat="47.57078" lon="5.94901">
        <ele>250</ele>
        <time>2014-02-02T08:30:45.000Z</time>
      </trkpt>
      <trkpt lat="47.57091" lon="5.9489">
        <ele>250</ele>
        <time>2014-02-02T08:30:51.000Z</time>
      </trkpt>
      <trkpt lat="47.57104" lon="5.94872">
        <ele>250.39999389648</ele>
        <time>2014-02-02T08:30:59.000Z</time>
      </trkpt>
      <trkpt lat="47.57106" lon="5.9487">
        <ele>250.80000305176</ele>
        <time>2014-02-02T08:31:00.000Z</time>
      </trkpt>
      <trkpt lat="47.57107" lon="5.94867">
        <ele>251.19999694824</ele>
        <time>2014-02-02T08:31:01.000Z</time>
      </trkpt>
      <trkpt lat="47.57109" lon="5.94865">
        <ele>251.60000610352</ele>
        <time>2014-02-02T08:31:02.000Z</time>
      </trkpt>
      <trkpt lat="47.5711" lon="5.94863">
        <ele>252</ele>
        <time>2014-02-02T08:31:03.000Z</time>
      </trkpt>
      <trkpt lat="47.57122" lon="5.94849">
        <ele>252</ele>
        <time>2014-02-02T08:31:09.000Z</time>
      </trkpt>
      <trkpt lat="47.57137" lon="5.94827">
        <ele>252</ele>
        <time>2014-02-02T08:31:18.000Z</time>
      </trkpt>
      <trkpt lat="47.57143" lon="5.94823">
        <ele>252</ele>
        <time>2014-02-02T08:31:22.000Z</time>
      </trkpt>
      <trkpt lat="47.57143" lon="5.94823">
        <ele>252</ele>
        <time>2014-02-02T08:31:23.000Z</time>
      </trkpt>
      <trkpt lat="47.57146" lon="5.94818">
        <ele>252.39999389648</ele>
        <time>2014-02-02T08:31:40.000Z</time>
      </trkpt>
      <trkpt lat="47.57148" lon="5.94815">
        <ele>252.80000305176</ele>
        <time>2014-02-02T08:31:41.000Z</time>
      </trkpt>
      <trkpt lat="47.5715" lon="5.94813">
        <ele>253.19999694824</ele>
        <time>2014-02-02T08:31:42.000Z</time>
      </trkpt>
      <trkpt lat="47.57152" lon="5.94811">
        <ele>253.60000610352</ele>
        <time>2014-02-02T08:31:43.000Z</time>
      </trkpt>
      <trkpt lat="47.57154" lon="5.94809">
        <ele>254</ele>
        <time>2014-02-02T08:31:44.000Z</time>
      </trkpt>
      <trkpt lat="47.57157" lon="5.94804">
        <ele>254</ele>
        <time>2014-02-02T08:31:46.000Z</time>
      </trkpt>
      <trkpt lat="47.57167" lon="5.94793">
        <ele>254</ele>
        <time>2014-02-02T08:31:51.000Z</time>
      </trkpt>
      <trkpt lat="47.57179" lon="5.9478">
        <ele>254</ele>
        <time>2014-02-02T08:31:58.000Z</time>
      </trkpt>
      <trkpt lat="47.57182" lon="5.94777">
        <ele>254.39999389648</ele>
        <time>2014-02-02T08:32:00.000Z</time>
      </trkpt>
      <trkpt lat="47.57183" lon="5.94776">
        <ele>254.80000305176</ele>
        <time>2014-02-02T08:32:01.000Z</time>
      </trkpt>
      <trkpt lat="47.57184" lon="5.94774">
        <ele>255.60000610352</ele>
        <time>2014-02-02T08:32:02.000Z</time>
      </trkpt>
      <trkpt lat="47.57185" lon="5.94773">
        <ele>256</ele>
        <time>2014-02-02T08:32:03.000Z</time>
      </trkpt>
      <trkpt lat="47.57191" lon="5.94766">
        <ele>256</ele>
        <time>2014-02-02T08:32:07.000Z</time>
      </trkpt>
      <trkpt lat="47.57204" lon="5.94756">
        <ele>256</ele>
        <time>2014-02-02T08:32:15.000Z</time>
      </trkpt>
      <trkpt lat="47.57207" lon="5.94752">
        <ele>256.60000610352</ele>
        <time>2014-02-02T08:32:17.000Z</time>
      </trkpt>
      <trkpt lat="47.57209" lon="5.94752">
        <ele>257</ele>
        <time>2014-02-02T08:32:18.000Z</time>
      </trkpt>
      <trkpt lat="47.5721" lon="5.9475">
        <ele>257.39999389648</ele>
        <time>2014-02-02T08:32:19.000Z</time>
      </trkpt>
      <trkpt lat="47.57212" lon="5.94749">
        <ele>257.79998779297</ele>
        <time>2014-02-02T08:32:20.000Z</time>
      </trkpt>
      <trkpt lat="47.57213" lon="5.94747">
        <ele>258.20001220703</ele>
        <time>2014-02-02T08:32:21.000Z</time>
      </trkpt>
      <trkpt lat="47.57223" lon="5.94739">
        <ele>258.20001220703</ele>
        <time>2014-02-02T08:32:27.000Z</time>
      </trkpt>
      <trkpt lat="47.57236" lon="5.94727">
        <ele>258.20001220703</ele>
        <time>2014-02-02T08:32:34.000Z</time>
      </trkpt>
      <trkpt lat="47.57239" lon="5.94724">
        <ele>258.60000610352</ele>
        <time>2014-02-02T08:32:36.000Z</time>
      </trkpt>
      <trkpt lat="47.57241" lon="5.94722">
        <ele>259</ele>
        <time>2014-02-02T08:32:37.000Z</time>
      </trkpt>
      <trkpt lat="47.57242" lon="5.9472">
        <ele>259.39999389648</ele>
        <time>2014-02-02T08:32:38.000Z</time>
      </trkpt>
      <trkpt lat="47.57244" lon="5.94718">
        <ele>259.79998779297</ele>
        <time>2014-02-02T08:32:39.000Z</time>
      </trkpt>
      <trkpt lat="47.57245" lon="5.94716">
        <ele>260.20001220703</ele>
        <time>2014-02-02T08:32:40.000Z</time>
      </trkpt>
      <trkpt lat="47.57256" lon="5.94705">
        <ele>260.20001220703</ele>
        <time>2014-02-02T08:32:47.000Z</time>
      </trkpt>
      <trkpt lat="47.5726" lon="5.947">
        <ele>260.60000610352</ele>
        <time>2014-02-02T08:32:49.000Z</time>
      </trkpt>
      <trkpt lat="47.57261" lon="5.94699">
        <ele>261</ele>
        <time>2014-02-02T08:32:51.000Z</time>
      </trkpt>
      <trkpt lat="47.57263" lon="5.94697">
        <ele>261.39999389648</ele>
        <time>2014-02-02T08:32:52.000Z</time>
      </trkpt>
      <trkpt lat="47.57264" lon="5.94696">
        <ele>261.79998779297</ele>
        <time>2014-02-02T08:32:53.000Z</time>
      </trkpt>
      <trkpt lat="47.57266" lon="5.94694">
        <ele>262.20001220703</ele>
        <time>2014-02-02T08:32:54.000Z</time>
      </trkpt>
      <trkpt lat="47.57269" lon="5.94691">
        <ele>262.20001220703</ele>
        <time>2014-02-02T08:32:56.000Z</time>
      </trkpt>
      <trkpt lat="47.5728" lon="5.94679">
        <ele>262.20001220703</ele>
        <time>2014-02-02T08:33:03.000Z</time>
      </trkpt>
      <trkpt lat="47.57288" lon="5.94678">
        <ele>262.20001220703</ele>
        <time>2014-02-02T08:33:05.000Z</time>
      </trkpt>
      <trkpt lat="47.57296" lon="5.94683">
        <ele>262.60000610352</ele>
        <time>2014-02-02T08:33:09.000Z</time>
      </trkpt>
      <trkpt lat="47.57298" lon="5.94685">
        <ele>263.20001220703</ele>
        <time>2014-02-02T08:33:12.000Z</time>
      </trkpt>
      <trkpt lat="47.57301" lon="5.94692">
        <ele>264.39999389648</ele>
        <time>2014-02-02T08:33:13.000Z</time>
      </trkpt>
      <trkpt lat="47.57304" lon="5.947">
        <ele>264.39999389648</ele>
        <time>2014-02-02T08:33:18.000Z</time>
      </trkpt>
      <trkpt lat="47.57313" lon="5.9472">
        <ele>264.39999389648</ele>
        <time>2014-02-02T08:33:25.000Z</time>
      </trkpt>
      <trkpt lat="47.57326" lon="5.94744">
        <ele>264.39999389648</ele>
        <time>2014-02-02T08:33:34.000Z</time>
      </trkpt>
      <trkpt lat="47.57341" lon="5.94765">
        <ele>264.39999389648</ele>
        <time>2014-02-02T08:33:41.000Z</time>
      </trkpt>
      <trkpt lat="47.57362" lon="5.9479">
        <ele>264.39999389648</ele>
        <time>2014-02-02T08:33:48.000Z</time>
      </trkpt>
      <trkpt lat="47.57378" lon="5.94823">
        <ele>264.39999389648</ele>
        <time>2014-02-02T08:33:55.000Z</time>
      </trkpt>
      <trkpt lat="47.57386" lon="5.94839">
        <ele>264.39999389648</ele>
        <time>2014-02-02T08:33:59.000Z</time>
      </trkpt>
      <trkpt lat="47.57389" lon="5.94841">
        <ele>264.39999389648</ele>
        <time>2014-02-02T08:34:00.000Z</time>
      </trkpt>
      <trkpt lat="47.57402" lon="5.94834">
        <ele>264.39999389648</ele>
        <time>2014-02-02T08:34:02.000Z</time>
      </trkpt>
      <trkpt lat="47.57402" lon="5.94834">
        <ele>264.39999389648</ele>
        <time>2014-02-02T08:34:04.000Z</time>
      </trkpt>
      <trkpt lat="47.57405" lon="5.9483">
        <ele>264.39999389648</ele>
        <time>2014-02-02T08:34:05.000Z</time>
      </trkpt>
      <trkpt lat="47.57431" lon="5.94799">
        <ele>264.39999389648</ele>
        <time>2014-02-02T08:34:13.000Z</time>
      </trkpt>
      <trkpt lat="47.57456" lon="5.94772">
        <ele>264.39999389648</ele>
        <time>2014-02-02T08:34:20.000Z</time>
      </trkpt>
      <trkpt lat="47.57483" lon="5.94743">
        <ele>264.39999389648</ele>
        <time>2014-02-02T08:34:28.000Z</time>
      </trkpt>
      <trkpt lat="47.57511" lon="5.94717">
        <ele>264.39999389648</ele>
        <time>2014-02-02T08:34:35.000Z</time>
      </trkpt>
      <trkpt lat="47.5755" lon="5.94679">
        <ele>264.39999389648</ele>
        <time>2014-02-02T08:34:45.000Z</time>
      </trkpt>
      <trkpt lat="47.5758" lon="5.94649">
        <ele>264.39999389648</ele>
        <time>2014-02-02T08:34:53.000Z</time>
      </trkpt>
      <trkpt lat="47.57618" lon="5.94617">
        <ele>264.39999389648</ele>
        <time>2014-02-02T08:35:03.000Z</time>
      </trkpt>
      <trkpt lat="47.57641" lon="5.94599">
        <ele>264.39999389648</ele>
        <time>2014-02-02T08:35:09.000Z</time>
      </trkpt>
      <trkpt lat="47.57655" lon="5.94587">
        <ele>264.39999389648</ele>
        <time>2014-02-02T08:35:13.000Z</time>
      </trkpt>
      <trkpt lat="47.57662" lon="5.94582">
        <ele>264.39999389648</ele>
        <time>2014-02-02T08:35:15.000Z</time>
      </trkpt>
      <trkpt lat="47.5767" lon="5.94583">
        <ele>264.39999389648</ele>
        <time>2014-02-02T08:35:17.000Z</time>
      </trkpt>
      <trkpt lat="47.57675" lon="5.94592">
        <ele>264.39999389648</ele>
        <time>2014-02-02T08:35:19.000Z</time>
      </trkpt>
      <trkpt lat="47.57678" lon="5.946">
        <ele>264.39999389648</ele>
        <time>2014-02-02T08:35:21.000Z</time>
      </trkpt>
      <trkpt lat="47.57695" lon="5.9464">
        <ele>264.39999389648</ele>
        <time>2014-02-02T08:35:30.000Z</time>
      </trkpt>
      <trkpt lat="47.57712" lon="5.9468">
        <ele>264.79998779297</ele>
        <time>2014-02-02T08:35:39.000Z</time>
      </trkpt>
      <trkpt lat="47.57714" lon="5.94684">
        <ele>265.20001220703</ele>
        <time>2014-02-02T08:35:40.000Z</time>
      </trkpt>
      <trkpt lat="47.57716" lon="5.94688">
        <ele>265.60000610352</ele>
        <time>2014-02-02T08:35:41.000Z</time>
      </trkpt>
      <trkpt lat="47.57717" lon="5.94692">
        <ele>266</ele>
        <time>2014-02-02T08:35:42.000Z</time>
      </trkpt>
      <trkpt lat="47.57719" lon="5.94697">
        <ele>266.39999389648</ele>
        <time>2014-02-02T08:35:43.000Z</time>
      </trkpt>
      <trkpt lat="47.57733" lon="5.94729">
        <ele>266.39999389648</ele>
        <time>2014-02-02T08:35:51.000Z</time>
      </trkpt>
      <trkpt lat="47.57747" lon="5.94763">
        <ele>266.79998779297</ele>
        <time>2014-02-02T08:35:59.000Z</time>
      </trkpt>
      <trkpt lat="47.57749" lon="5.94767">
        <ele>267.39999389648</ele>
        <time>2014-02-02T08:36:00.000Z</time>
      </trkpt>
      <trkpt lat="47.57751" lon="5.94771">
        <ele>267.79998779297</ele>
        <time>2014-02-02T08:36:01.000Z</time>
      </trkpt>
      <trkpt lat="47.57753" lon="5.94774">
        <ele>268.20001220703</ele>
        <time>2014-02-02T08:36:02.000Z</time>
      </trkpt>
      <trkpt lat="47.57755" lon="5.94778">
        <ele>268.60000610352</ele>
        <time>2014-02-02T08:36:03.000Z</time>
      </trkpt>
      <trkpt lat="47.57764" lon="5.94799">
        <ele>268.60000610352</ele>
        <time>2014-02-02T08:36:08.000Z</time>
      </trkpt>
      <trkpt lat="47.57778" lon="5.94831">
        <ele>268.60000610352</ele>
        <time>2014-02-02T08:36:16.000Z</time>
      </trkpt>
      <trkpt lat="47.57779" lon="5.94835">
        <ele>269.20001220703</ele>
        <time>2014-02-02T08:36:17.000Z</time>
      </trkpt>
      <trkpt lat="47.57781" lon="5.94839">
        <ele>269.79998779297</ele>
        <time>2014-02-02T08:36:18.000Z</time>
      </trkpt>
      <trkpt lat="47.57783" lon="5.94843">
        <ele>270.39999389648</ele>
        <time>2014-02-02T08:36:19.000Z</time>
      </trkpt>
      <trkpt lat="47.57785" lon="5.94847">
        <ele>271</ele>
        <time>2014-02-02T08:36:20.000Z</time>
      </trkpt>
      <trkpt lat="47.57787" lon="5.94851">
        <ele>271.39999389648</ele>
        <time>2014-02-02T08:36:21.000Z</time>
      </trkpt>
      <trkpt lat="47.57793" lon="5.94863">
        <ele>271.39999389648</ele>
        <time>2014-02-02T08:36:24.000Z</time>
      </trkpt>
      <trkpt lat="47.57806" lon="5.94892">
        <ele>271.39999389648</ele>
        <time>2014-02-02T08:36:32.000Z</time>
      </trkpt>
      <trkpt lat="47.57818" lon="5.94918">
        <ele>271.39999389648</ele>
        <time>2014-02-02T08:36:40.000Z</time>
      </trkpt>
      <trkpt lat="47.57827" lon="5.94936">
        <ele>271.39999389648</ele>
        <time>2014-02-02T08:36:46.000Z</time>
      </trkpt>
      <trkpt lat="47.57839" lon="5.94965">
        <ele>271.39999389648</ele>
        <time>2014-02-02T08:36:54.000Z</time>
      </trkpt>
      <trkpt lat="47.57849" lon="5.94987">
        <ele>271.39999389648</ele>
        <time>2014-02-02T08:37:00.000Z</time>
      </trkpt>
      <trkpt lat="47.57865" lon="5.95023">
        <ele>271.39999389648</ele>
        <time>2014-02-02T08:37:09.000Z</time>
      </trkpt>
      <trkpt lat="47.57879" lon="5.95056">
        <ele>271.39999389648</ele>
        <time>2014-02-02T08:37:16.000Z</time>
      </trkpt>
      <trkpt lat="47.57886" lon="5.95075">
        <ele>271.39999389648</ele>
        <time>2014-02-02T08:37:22.000Z</time>
      </trkpt>
      <trkpt lat="47.57896" lon="5.95102">
        <ele>271.39999389648</ele>
        <time>2014-02-02T08:37:27.000Z</time>
      </trkpt>
      <trkpt lat="47.5791" lon="5.95135">
        <ele>271</ele>
        <time>2014-02-02T08:37:33.000Z</time>
      </trkpt>
      <trkpt lat="47.57912" lon="5.9514">
        <ele>270.60000610352</ele>
        <time>2014-02-02T08:37:34.000Z</time>
      </trkpt>
      <trkpt lat="47.57915" lon="5.95146">
        <ele>270.20001220703</ele>
        <time>2014-02-02T08:37:35.000Z</time>
      </trkpt>
      <trkpt lat="47.57917" lon="5.95151">
        <ele>269.79998779297</ele>
        <time>2014-02-02T08:37:36.000Z</time>
      </trkpt>
      <trkpt lat="47.5792" lon="5.95157">
        <ele>269.39999389648</ele>
        <time>2014-02-02T08:37:37.000Z</time>
      </trkpt>
      <trkpt lat="47.57929" lon="5.9518">
        <ele>269.39999389648</ele>
        <time>2014-02-02T08:37:41.000Z</time>
      </trkpt>
      <trkpt lat="47.57946" lon="5.95221">
        <ele>269.39999389648</ele>
        <time>2014-02-02T08:37:48.000Z</time>
      </trkpt>
      <trkpt lat="47.57954" lon="5.9524">
        <ele>268.79998779297</ele>
        <time>2014-02-02T08:37:51.000Z</time>
      </trkpt>
      <trkpt lat="47.57957" lon="5.95248">
        <ele>268.39999389648</ele>
        <time>2014-02-02T08:37:52.000Z</time>
      </trkpt>
      <trkpt lat="47.5796" lon="5.95256">
        <ele>267.60000610352</ele>
        <time>2014-02-02T08:37:53.000Z</time>
      </trkpt>
      <trkpt lat="47.57963" lon="5.95265">
        <ele>267</ele>
        <time>2014-02-02T08:37:54.000Z</time>
      </trkpt>
      <trkpt lat="47.57969" lon="5.9528">
        <ele>267</ele>
        <time>2014-02-02T08:37:56.000Z</time>
      </trkpt>
      <trkpt lat="47.57975" lon="5.95289">
        <ele>266.60000610352</ele>
        <time>2014-02-02T08:37:58.000Z</time>
      </trkpt>
      <trkpt lat="47.57978" lon="5.95292">
        <ele>266.20001220703</ele>
        <time>2014-02-02T08:37:59.000Z</time>
      </trkpt>
      <trkpt lat="47.57982" lon="5.95292">
        <ele>265.60000610352</ele>
        <time>2014-02-02T08:38:00.000Z</time>
      </trkpt>
      <trkpt lat="47.57986" lon="5.9529">
        <ele>265.20001220703</ele>
        <time>2014-02-02T08:38:01.000Z</time>
      </trkpt>
      <trkpt lat="47.57989" lon="5.95288">
        <ele>264.60000610352</ele>
        <time>2014-02-02T08:38:02.000Z</time>
      </trkpt>
      <trkpt lat="47.57999" lon="5.95282">
        <ele>264.60000610352</ele>
        <time>2014-02-02T08:38:05.000Z</time>
      </trkpt>
      <trkpt lat="47.58006" lon="5.95277">
        <ele>264.60000610352</ele>
        <time>2014-02-02T08:38:07.000Z</time>
      </trkpt>
      <trkpt lat="47.58031" lon="5.95262">
        <ele>264.60000610352</ele>
        <time>2014-02-02T08:38:14.000Z</time>
      </trkpt>
      <trkpt lat="47.58053" lon="5.95249">
        <ele>264.20001220703</ele>
        <time>2014-02-02T08:38:18.000Z</time>
      </trkpt>
      <trkpt lat="47.58058" lon="5.95246">
        <ele>263.79998779297</ele>
        <time>2014-02-02T08:38:19.000Z</time>
      </trkpt>
      <trkpt lat="47.58063" lon="5.95244">
        <ele>263.39999389648</ele>
        <time>2014-02-02T08:38:20.000Z</time>
      </trkpt>
      <trkpt lat="47.58068" lon="5.95243">
        <ele>263</ele>
        <time>2014-02-02T08:38:21.000Z</time>
      </trkpt>
      <trkpt lat="47.58071" lon="5.95241">
        <ele>262.39999389648</ele>
        <time>2014-02-02T08:38:22.000Z</time>
      </trkpt>
      <trkpt lat="47.58074" lon="5.9524">
        <ele>262</ele>
        <time>2014-02-02T08:38:23.000Z</time>
      </trkpt>
      <trkpt lat="47.58078" lon="5.95238">
        <ele>261.39999389648</ele>
        <time>2014-02-02T08:38:24.000Z</time>
      </trkpt>
      <trkpt lat="47.58082" lon="5.95236">
        <ele>261</ele>
        <time>2014-02-02T08:38:25.000Z</time>
      </trkpt>
      <trkpt lat="47.58085" lon="5.95234">
        <ele>260.39999389648</ele>
        <time>2014-02-02T08:38:26.000Z</time>
      </trkpt>
      <trkpt lat="47.581" lon="5.95228">
        <ele>260.39999389648</ele>
        <time>2014-02-02T08:38:30.000Z</time>
      </trkpt>
      <trkpt lat="47.58118" lon="5.95224">
        <ele>260.39999389648</ele>
        <time>2014-02-02T08:38:36.000Z</time>
      </trkpt>
      <trkpt lat="47.58131" lon="5.95226">
        <ele>260.79998779297</ele>
        <time>2014-02-02T08:38:40.000Z</time>
      </trkpt>
      <trkpt lat="47.58134" lon="5.95227">
        <ele>261.20001220703</ele>
        <time>2014-02-02T08:38:41.000Z</time>
      </trkpt>
      <trkpt lat="47.58137" lon="5.95228">
        <ele>262.20001220703</ele>
        <time>2014-02-02T08:38:42.000Z</time>
      </trkpt>
      <trkpt lat="47.5814" lon="5.95229">
        <ele>262.60000610352</ele>
        <time>2014-02-02T08:38:43.000Z</time>
      </trkpt>
      <trkpt lat="47.58149" lon="5.95232">
        <ele>262.60000610352</ele>
        <time>2014-02-02T08:38:46.000Z</time>
      </trkpt>
      <trkpt lat="47.5817" lon="5.9523">
        <ele>263.20001220703</ele>
        <time>2014-02-02T08:38:53.000Z</time>
      </trkpt>
      <trkpt lat="47.58173" lon="5.95229">
        <ele>263.79998779297</ele>
        <time>2014-02-02T08:38:54.000Z</time>
      </trkpt>
      <trkpt lat="47.58175" lon="5.95227">
        <ele>264.39999389648</ele>
        <time>2014-02-02T08:38:55.000Z</time>
      </trkpt>
      <trkpt lat="47.58178" lon="5.95225">
        <ele>265</ele>
        <time>2014-02-02T08:38:56.000Z</time>
      </trkpt>
      <trkpt lat="47.5818" lon="5.95223">
        <ele>265.60000610352</ele>
        <time>2014-02-02T08:38:57.000Z</time>
      </trkpt>
      <trkpt lat="47.58182" lon="5.95221">
        <ele>265.60000610352</ele>
        <time>2014-02-02T08:38:58.000Z</time>
      </trkpt>
      <trkpt lat="47.58195" lon="5.95209">
        <ele>265.60000610352</ele>
        <time>2014-02-02T08:39:04.000Z</time>
      </trkpt>
      <trkpt lat="47.58197" lon="5.95207">
        <ele>265.60000610352</ele>
        <time>2014-02-02T08:39:05.000Z</time>
      </trkpt>
      <trkpt lat="47.58216" lon="5.95191">
        <ele>265.60000610352</ele>
        <time>2014-02-02T08:39:13.000Z</time>
      </trkpt>
      <trkpt lat="47.58223" lon="5.95185">
        <ele>265.60000610352</ele>
        <time>2014-02-02T08:39:16.000Z</time>
      </trkpt>
      <trkpt lat="47.58226" lon="5.95187">
        <ele>265.60000610352</ele>
        <time>2014-02-02T08:39:17.000Z</time>
      </trkpt>
      <trkpt lat="47.58237" lon="5.95197">
        <ele>265.60000610352</ele>
        <time>2014-02-02T08:39:22.000Z</time>
      </trkpt>
      <trkpt lat="47.58239" lon="5.95203">
        <ele>265</ele>
        <time>2014-02-02T08:39:24.000Z</time>
      </trkpt>
      <trkpt lat="47.5824" lon="5.95208">
        <ele>264.60000610352</ele>
        <time>2014-02-02T08:39:25.000Z</time>
      </trkpt>
      <trkpt lat="47.58242" lon="5.95211">
        <ele>264.20001220703</ele>
        <time>2014-02-02T08:39:26.000Z</time>
      </trkpt>
      <trkpt lat="47.58243" lon="5.95215">
        <ele>263.79998779297</ele>
        <time>2014-02-02T08:39:27.000Z</time>
      </trkpt>
      <trkpt lat="47.58244" lon="5.9522">
        <ele>263.39999389648</ele>
        <time>2014-02-02T08:39:28.000Z</time>
      </trkpt>
      <trkpt lat="47.58252" lon="5.95246">
        <ele>263.39999389648</ele>
        <time>2014-02-02T08:39:34.000Z</time>
      </trkpt>
      <trkpt lat="47.58256" lon="5.95262">
        <ele>263</ele>
        <time>2014-02-02T08:39:38.000Z</time>
      </trkpt>
      <trkpt lat="47.58257" lon="5.95266">
        <ele>262.60000610352</ele>
        <time>2014-02-02T08:39:39.000Z</time>
      </trkpt>
      <trkpt lat="47.58258" lon="5.95271">
        <ele>262.20001220703</ele>
        <time>2014-02-02T08:39:40.000Z</time>
      </trkpt>
      <trkpt lat="47.58259" lon="5.95275">
        <ele>261.79998779297</ele>
        <time>2014-02-02T08:39:41.000Z</time>
      </trkpt>
      <trkpt lat="47.5826" lon="5.95278">
        <ele>261.20001220703</ele>
        <time>2014-02-02T08:39:42.000Z</time>
      </trkpt>
      <trkpt lat="47.58268" lon="5.95303">
        <ele>261.20001220703</ele>
        <time>2014-02-02T08:39:47.000Z</time>
      </trkpt>
      <trkpt lat="47.58272" lon="5.95316">
        <ele>260.79998779297</ele>
        <time>2014-02-02T08:39:49.000Z</time>
      </trkpt>
      <trkpt lat="47.58274" lon="5.95323">
        <ele>260.39999389648</ele>
        <time>2014-02-02T08:39:50.000Z</time>
      </trkpt>
      <trkpt lat="47.58276" lon="5.9533">
        <ele>260</ele>
        <time>2014-02-02T08:39:51.000Z</time>
      </trkpt>
      <trkpt lat="47.58278" lon="5.95338">
        <ele>259.60000610352</ele>
        <time>2014-02-02T08:39:52.000Z</time>
      </trkpt>
      <trkpt lat="47.58281" lon="5.95345">
        <ele>259.20001220703</ele>
        <time>2014-02-02T08:39:53.000Z</time>
      </trkpt>
      <trkpt lat="47.58284" lon="5.95352">
        <ele>259.20001220703</ele>
        <time>2014-02-02T08:39:54.000Z</time>
      </trkpt>
      <trkpt lat="47.58291" lon="5.95373">
        <ele>258.79998779297</ele>
        <time>2014-02-02T08:39:57.000Z</time>
      </trkpt>
      <trkpt lat="47.58293" lon="5.95379">
        <ele>258.39999389648</ele>
        <time>2014-02-02T08:39:58.000Z</time>
      </trkpt>
      <trkpt lat="47.58296" lon="5.95385">
        <ele>258</ele>
        <time>2014-02-02T08:39:59.000Z</time>
      </trkpt>
      <trkpt lat="47.58297" lon="5.95392">
        <ele>257.60000610352</ele>
        <time>2014-02-02T08:40:00.000Z</time>
      </trkpt>
      <trkpt lat="47.58299" lon="5.95399">
        <ele>257.20001220703</ele>
        <time>2014-02-02T08:40:01.000Z</time>
      </trkpt>
      <trkpt lat="47.58313" lon="5.95444">
        <ele>256.79998779297</ele>
        <time>2014-02-02T08:40:07.000Z</time>
      </trkpt>
      <trkpt lat="47.58315" lon="5.95454">
        <ele>256.39999389648</ele>
        <time>2014-02-02T08:40:08.000Z</time>
      </trkpt>
      <trkpt lat="47.58317" lon="5.95462">
        <ele>256</ele>
        <time>2014-02-02T08:40:09.000Z</time>
      </trkpt>
      <trkpt lat="47.58319" lon="5.95472">
        <ele>255.39999389648</ele>
        <time>2014-02-02T08:40:10.000Z</time>
      </trkpt>
      <trkpt lat="47.58321" lon="5.95481">
        <ele>255</ele>
        <time>2014-02-02T08:40:11.000Z</time>
      </trkpt>
      <trkpt lat="47.58326" lon="5.95507">
        <ele>255</ele>
        <time>2014-02-02T08:40:14.000Z</time>
      </trkpt>
      <trkpt lat="47.58329" lon="5.95522">
        <ele>255</ele>
        <time>2014-02-02T08:40:16.000Z</time>
      </trkpt>
      <trkpt lat="47.58333" lon="5.95534">
        <ele>254.60000610352</ele>
        <time>2014-02-02T08:40:18.000Z</time>
      </trkpt>
      <trkpt lat="47.58334" lon="5.9554">
        <ele>254.19999694824</ele>
        <time>2014-02-02T08:40:19.000Z</time>
      </trkpt>
      <trkpt lat="47.58335" lon="5.95546">
        <ele>253.80000305176</ele>
        <time>2014-02-02T08:40:20.000Z</time>
      </trkpt>
      <trkpt lat="47.58336" lon="5.95551">
        <ele>253.39999389648</ele>
        <time>2014-02-02T08:40:21.000Z</time>
      </trkpt>
      <trkpt lat="47.58337" lon="5.95556">
        <ele>253</ele>
        <time>2014-02-02T08:40:22.000Z</time>
      </trkpt>
      <trkpt lat="47.58342" lon="5.95577">
        <ele>253</ele>
        <time>2014-02-02T08:40:26.000Z</time>
      </trkpt>
      <trkpt lat="47.58349" lon="5.95602">
        <ele>253</ele>
        <time>2014-02-02T08:40:32.000Z</time>
      </trkpt>
      <trkpt lat="47.58354" lon="5.95619">
        <ele>253</ele>
        <time>2014-02-02T08:40:37.000Z</time>
      </trkpt>
      <trkpt lat="47.5836" lon="5.9564">
        <ele>253.39999389648</ele>
        <time>2014-02-02T08:40:43.000Z</time>
      </trkpt>
      <trkpt lat="47.58361" lon="5.95644">
        <ele>253.80000305176</ele>
        <time>2014-02-02T08:40:44.000Z</time>
      </trkpt>
      <trkpt lat="47.58362" lon="5.95648">
        <ele>254.19999694824</ele>
        <time>2014-02-02T08:40:45.000Z</time>
      </trkpt>
      <trkpt lat="47.58363" lon="5.95651">
        <ele>254.60000610352</ele>
        <time>2014-02-02T08:40:46.000Z</time>
      </trkpt>
      <trkpt lat="47.58364" lon="5.95655">
        <ele>255</ele>
        <time>2014-02-02T08:40:47.000Z</time>
      </trkpt>
      <trkpt lat="47.58369" lon="5.95671">
        <ele>255</ele>
        <time>2014-02-02T08:40:50.000Z</time>
      </trkpt>
      <trkpt lat="47.58372" lon="5.95681">
        <ele>255.39999389648</ele>
        <time>2014-02-02T08:40:55.000Z</time>
      </trkpt>
      <trkpt lat="47.58373" lon="5.95685">
        <ele>256</ele>
        <time>2014-02-02T08:40:56.000Z</time>
      </trkpt>
      <trkpt lat="47.58374" lon="5.95688">
        <ele>256.39999389648</ele>
        <time>2014-02-02T08:40:57.000Z</time>
      </trkpt>
      <trkpt lat="47.58375" lon="5.95692">
        <ele>256.79998779297</ele>
        <time>2014-02-02T08:40:58.000Z</time>
      </trkpt>
      <trkpt lat="47.58375" lon="5.95695">
        <ele>257.20001220703</ele>
        <time>2014-02-02T08:40:59.000Z</time>
      </trkpt>
      <trkpt lat="47.58383" lon="5.95723">
        <ele>257.20001220703</ele>
        <time>2014-02-02T08:41:07.000Z</time>
      </trkpt>
      <trkpt lat="47.58385" lon="5.95729">
        <ele>257.60000610352</ele>
        <time>2014-02-02T08:41:09.000Z</time>
      </trkpt>
      <trkpt lat="47.58386" lon="5.95733">
        <ele>258</ele>
        <time>2014-02-02T08:41:10.000Z</time>
      </trkpt>
      <trkpt lat="47.58387" lon="5.95736">
        <ele>258.39999389648</ele>
        <time>2014-02-02T08:41:11.000Z</time>
      </trkpt>
      <trkpt lat="47.58388" lon="5.95739">
        <ele>259.39999389648</ele>
        <time>2014-02-02T08:41:12.000Z</time>
      </trkpt>
      <trkpt lat="47.5839" lon="5.95746">
        <ele>259.39999389648</ele>
        <time>2014-02-02T08:41:14.000Z</time>
      </trkpt>
      <trkpt lat="47.58396" lon="5.95765">
        <ele>259.79998779297</ele>
        <time>2014-02-02T08:41:20.000Z</time>
      </trkpt>
      <trkpt lat="47.58398" lon="5.95768">
        <ele>260.20001220703</ele>
        <time>2014-02-02T08:41:21.000Z</time>
      </trkpt>
      <trkpt lat="47.58399" lon="5.95771">
        <ele>260.60000610352</ele>
        <time>2014-02-02T08:41:22.000Z</time>
      </trkpt>
      <trkpt lat="47.58399" lon="5.95774">
        <ele>261</ele>
        <time>2014-02-02T08:41:23.000Z</time>
      </trkpt>
      <trkpt lat="47.584" lon="5.95778">
        <ele>261.39999389648</ele>
        <time>2014-02-02T08:41:24.000Z</time>
      </trkpt>
      <trkpt lat="47.58404" lon="5.95792">
        <ele>261.39999389648</ele>
        <time>2014-02-02T08:41:29.000Z</time>
      </trkpt>
      <trkpt lat="47.58409" lon="5.95809">
        <ele>261.39999389648</ele>
        <time>2014-02-02T08:41:35.000Z</time>
      </trkpt>
      <trkpt lat="47.5841" lon="5.95811">
        <ele>261.79998779297</ele>
        <time>2014-02-02T08:41:36.000Z</time>
      </trkpt>
      <trkpt lat="47.58411" lon="5.95814">
        <ele>262.20001220703</ele>
        <time>2014-02-02T08:41:37.000Z</time>
      </trkpt>
      <trkpt lat="47.58411" lon="5.95817">
        <ele>262.79998779297</ele>
        <time>2014-02-02T08:41:38.000Z</time>
      </trkpt>
      <trkpt lat="47.58412" lon="5.9582">
        <ele>263.20001220703</ele>
        <time>2014-02-02T08:41:39.000Z</time>
      </trkpt>
      <trkpt lat="47.58413" lon="5.95822">
        <ele>263.60000610352</ele>
        <time>2014-02-02T08:41:40.000Z</time>
      </trkpt>
      <trkpt lat="47.58415" lon="5.95828">
        <ele>263.60000610352</ele>
        <time>2014-02-02T08:41:42.000Z</time>
      </trkpt>
      <trkpt lat="47.5842" lon="5.9585">
        <ele>263.60000610352</ele>
        <time>2014-02-02T08:41:49.000Z</time>
      </trkpt>
      <trkpt lat="47.58428" lon="5.95869">
        <ele>263.60000610352</ele>
        <time>2014-02-02T08:41:56.000Z</time>
      </trkpt>
      <trkpt lat="47.58436" lon="5.95887">
        <ele>263.60000610352</ele>
        <time>2014-02-02T08:42:03.000Z</time>
      </trkpt>
      <trkpt lat="47.58446" lon="5.95911">
        <ele>263.60000610352</ele>
        <time>2014-02-02T08:42:11.000Z</time>
      </trkpt>
      <trkpt lat="47.58447" lon="5.95914">
        <ele>264</ele>
        <time>2014-02-02T08:42:12.000Z</time>
      </trkpt>
      <trkpt lat="47.58448" lon="5.95917">
        <ele>264.39999389648</ele>
        <time>2014-02-02T08:42:13.000Z</time>
      </trkpt>
      <trkpt lat="47.5845" lon="5.95919">
        <ele>264.79998779297</ele>
        <time>2014-02-02T08:42:14.000Z</time>
      </trkpt>
      <trkpt lat="47.58451" lon="5.95922">
        <ele>265.20001220703</ele>
        <time>2014-02-02T08:42:15.000Z</time>
      </trkpt>
      <trkpt lat="47.58453" lon="5.95926">
        <ele>265.60000610352</ele>
        <time>2014-02-02T08:42:16.000Z</time>
      </trkpt>
      <trkpt lat="47.58454" lon="5.95929">
        <ele>265.60000610352</ele>
        <time>2014-02-02T08:42:17.000Z</time>
      </trkpt>
      <trkpt lat="47.58468" lon="5.95959">
        <ele>265.60000610352</ele>
        <time>2014-02-02T08:42:25.000Z</time>
      </trkpt>
      <trkpt lat="47.58485" lon="5.95995">
        <ele>265.60000610352</ele>
        <time>2014-02-02T08:42:34.000Z</time>
      </trkpt>
      <trkpt lat="47.58503" lon="5.96031">
        <ele>265.60000610352</ele>
        <time>2014-02-02T08:42:43.000Z</time>
      </trkpt>
      <trkpt lat="47.58525" lon="5.96068">
        <ele>265.60000610352</ele>
        <time>2014-02-02T08:42:52.000Z</time>
      </trkpt>
      <trkpt lat="47.58551" lon="5.96111">
        <ele>265.60000610352</ele>
        <time>2014-02-02T08:43:02.000Z</time>
      </trkpt>
      <trkpt lat="47.58574" lon="5.96145">
        <ele>265.60000610352</ele>
        <time>2014-02-02T08:43:10.000Z</time>
      </trkpt>
      <trkpt lat="47.586" lon="5.96181">
        <ele>265.60000610352</ele>
        <time>2014-02-02T08:43:18.000Z</time>
      </trkpt>
      <trkpt lat="47.58631" lon="5.9622">
        <ele>265.60000610352</ele>
        <time>2014-02-02T08:43:25.000Z</time>
      </trkpt>
      <trkpt lat="47.5864" lon="5.96232">
        <ele>265.20001220703</ele>
        <time>2014-02-02T08:43:27.000Z</time>
      </trkpt>
      <trkpt lat="47.58645" lon="5.96237">
        <ele>264.79998779297</ele>
        <time>2014-02-02T08:43:28.000Z</time>
      </trkpt>
      <trkpt lat="47.5865" lon="5.96243">
        <ele>264.39999389648</ele>
        <time>2014-02-02T08:43:29.000Z</time>
      </trkpt>
      <trkpt lat="47.58655" lon="5.9625">
        <ele>263.79998779297</ele>
        <time>2014-02-02T08:43:30.000Z</time>
      </trkpt>
      <trkpt lat="47.5866" lon="5.96256">
        <ele>263.39999389648</ele>
        <time>2014-02-02T08:43:31.000Z</time>
      </trkpt>
      <trkpt lat="47.58665" lon="5.96261">
        <ele>263.39999389648</ele>
        <time>2014-02-02T08:43:32.000Z</time>
      </trkpt>
      <trkpt lat="47.58688" lon="5.9629">
        <ele>263.39999389648</ele>
        <time>2014-02-02T08:43:38.000Z</time>
      </trkpt>
      <trkpt lat="47.58713" lon="5.96321">
        <ele>263.39999389648</ele>
        <time>2014-02-02T08:43:44.000Z</time>
      </trkpt>
      <trkpt lat="47.58734" lon="5.96346">
        <ele>263.39999389648</ele>
        <time>2014-02-02T08:43:50.000Z</time>
      </trkpt>
      <trkpt lat="47.58756" lon="5.96373">
        <ele>263.39999389648</ele>
        <time>2014-02-02T08:43:57.000Z</time>
      </trkpt>
      <trkpt lat="47.58784" lon="5.96404">
        <ele>263.39999389648</ele>
        <time>2014-02-02T08:44:05.000Z</time>
      </trkpt>
      <trkpt lat="47.58796" lon="5.96418">
        <ele>263.39999389648</ele>
        <time>2014-02-02T08:44:10.000Z</time>
      </trkpt>
      <trkpt lat="47.58809" lon="5.96429">
        <ele>263.39999389648</ele>
        <time>2014-02-02T08:44:15.000Z</time>
      </trkpt>
      <trkpt lat="47.58812" lon="5.96415">
        <ele>263.39999389648</ele>
        <time>2014-02-02T08:44:18.000Z</time>
      </trkpt>
      <trkpt lat="47.58812" lon="5.96404">
        <ele>263.39999389648</ele>
        <time>2014-02-02T08:44:20.000Z</time>
      </trkpt>
      <trkpt lat="47.58811" lon="5.96362">
        <ele>263.39999389648</ele>
        <time>2014-02-02T08:44:27.000Z</time>
      </trkpt>
      <trkpt lat="47.58817" lon="5.96317">
        <ele>263.39999389648</ele>
        <time>2014-02-02T08:44:35.000Z</time>
      </trkpt>
      <trkpt lat="47.58831" lon="5.96265">
        <ele>263.39999389648</ele>
        <time>2014-02-02T08:44:45.000Z</time>
      </trkpt>
      <trkpt lat="47.58835" lon="5.9624">
        <ele>263.79998779297</ele>
        <time>2014-02-02T08:44:51.000Z</time>
      </trkpt>
      <trkpt lat="47.58836" lon="5.96235">
        <ele>264.39999389648</ele>
        <time>2014-02-02T08:44:52.000Z</time>
      </trkpt>
      <trkpt lat="47.58837" lon="5.96231">
        <ele>264.79998779297</ele>
        <time>2014-02-02T08:44:53.000Z</time>
      </trkpt>
      <trkpt lat="47.58838" lon="5.96227">
        <ele>265.60000610352</ele>
        <time>2014-02-02T08:44:54.000Z</time>
      </trkpt>
      <trkpt lat="47.58841" lon="5.96204">
        <ele>265.60000610352</ele>
        <time>2014-02-02T08:44:59.000Z</time>
      </trkpt>
      <trkpt lat="47.58842" lon="5.96194">
        <ele>266</ele>
        <time>2014-02-02T08:45:01.000Z</time>
      </trkpt>
      <trkpt lat="47.58843" lon="5.96189">
        <ele>266.39999389648</ele>
        <time>2014-02-02T08:45:02.000Z</time>
      </trkpt>
      <trkpt lat="47.58844" lon="5.96185">
        <ele>266.79998779297</ele>
        <time>2014-02-02T08:45:03.000Z</time>
      </trkpt>
      <trkpt lat="47.58845" lon="5.96179">
        <ele>267.20001220703</ele>
        <time>2014-02-02T08:45:04.000Z</time>
      </trkpt>
      <trkpt lat="47.58845" lon="5.96175">
        <ele>267.60000610352</ele>
        <time>2014-02-02T08:45:05.000Z</time>
      </trkpt>
      <trkpt lat="47.58847" lon="5.96161">
        <ele>267.60000610352</ele>
        <time>2014-02-02T08:45:08.000Z</time>
      </trkpt>
      <trkpt lat="47.5885" lon="5.96132">
        <ele>268.20001220703</ele>
        <time>2014-02-02T08:45:14.000Z</time>
      </trkpt>
      <trkpt lat="47.58851" lon="5.96127">
        <ele>268.60000610352</ele>
        <time>2014-02-02T08:45:15.000Z</time>
      </trkpt>
      <trkpt lat="47.58851" lon="5.96122">
        <ele>269</ele>
        <time>2014-02-02T08:45:16.000Z</time>
      </trkpt>
      <trkpt lat="47.58852" lon="5.96117">
        <ele>269.39999389648</ele>
        <time>2014-02-02T08:45:17.000Z</time>
      </trkpt>
      <trkpt lat="47.58852" lon="5.96113">
        <ele>269.79998779297</ele>
        <time>2014-02-02T08:45:18.000Z</time>
      </trkpt>
      <trkpt lat="47.58853" lon="5.96098">
        <ele>269.79998779297</ele>
        <time>2014-02-02T08:45:21.000Z</time>
      </trkpt>
      <trkpt lat="47.58859" lon="5.96064">
        <ele>269.79998779297</ele>
        <time>2014-02-02T08:45:28.000Z</time>
      </trkpt>
      <trkpt lat="47.58867" lon="5.9603">
        <ele>269.79998779297</ele>
        <time>2014-02-02T08:45:35.000Z</time>
      </trkpt>
      <trkpt lat="47.58876" lon="5.96001">
        <ele>269.79998779297</ele>
        <time>2014-02-02T08:45:41.000Z</time>
      </trkpt>
      <trkpt lat="47.58882" lon="5.95982">
        <ele>269.79998779297</ele>
        <time>2014-02-02T08:45:46.000Z</time>
      </trkpt>
      <trkpt lat="47.58888" lon="5.95961">
        <ele>269.79998779297</ele>
        <time>2014-02-02T08:45:51.000Z</time>
      </trkpt>
      <trkpt lat="47.58893" lon="5.95943">
        <ele>270.20001220703</ele>
        <time>2014-02-02T08:45:55.000Z</time>
      </trkpt>
      <trkpt lat="47.58894" lon="5.95938">
        <ele>270.60000610352</ele>
        <time>2014-02-02T08:45:56.000Z</time>
      </trkpt>
      <trkpt lat="47.58895" lon="5.95934">
        <ele>271</ele>
        <time>2014-02-02T08:45:57.000Z</time>
      </trkpt>
      <trkpt lat="47.58897" lon="5.9593">
        <ele>271.39999389648</ele>
        <time>2014-02-02T08:45:58.000Z</time>
      </trkpt>
      <trkpt lat="47.58899" lon="5.95925">
        <ele>271.79998779297</ele>
        <time>2014-02-02T08:45:59.000Z</time>
      </trkpt>
      <trkpt lat="47.58909" lon="5.95904">
        <ele>271.79998779297</ele>
        <time>2014-02-02T08:46:03.000Z</time>
      </trkpt>
      <trkpt lat="47.58923" lon="5.95874">
        <ele>271.79998779297</ele>
        <time>2014-02-02T08:46:09.000Z</time>
      </trkpt>
      <trkpt lat="47.58931" lon="5.95854">
        <ele>271.79998779297</ele>
        <time>2014-02-02T08:46:13.000Z</time>
      </trkpt>
      <trkpt lat="47.58933" lon="5.95849">
        <ele>271.79998779297</ele>
        <time>2014-02-02T08:46:14.000Z</time>
      </trkpt>
      <trkpt lat="47.58939" lon="5.95827">
        <ele>271.79998779297</ele>
        <time>2014-02-02T08:46:18.000Z</time>
      </trkpt>
      <trkpt lat="47.58945" lon="5.95805">
        <ele>271.79998779297</ele>
        <time>2014-02-02T08:46:22.000Z</time>
      </trkpt>
      <trkpt lat="47.58955" lon="5.95761">
        <ele>271.79998779297</ele>
        <time>2014-02-02T08:46:29.000Z</time>
      </trkpt>
      <trkpt lat="47.58963" lon="5.95737">
        <ele>271.79998779297</ele>
        <time>2014-02-02T08:46:34.000Z</time>
      </trkpt>
      <trkpt lat="47.58965" lon="5.95735">
        <ele>271.79998779297</ele>
        <time>2014-02-02T08:46:35.000Z</time>
      </trkpt>
      <trkpt lat="47.58977" lon="5.95724">
        <ele>270.79998779297</ele>
        <time>2014-02-02T08:46:38.000Z</time>
      </trkpt>
      <trkpt lat="47.58977" lon="5.95724">
        <ele>270.79998779297</ele>
        <time>2014-02-02T08:46:40.000Z</time>
      </trkpt>
      <trkpt lat="47.5898" lon="5.95722">
        <ele>270.39999389648</ele>
        <time>2014-02-02T08:46:41.000Z</time>
      </trkpt>
      <trkpt lat="47.58982" lon="5.95719">
        <ele>270</ele>
        <time>2014-02-02T08:46:42.000Z</time>
      </trkpt>
      <trkpt lat="47.58985" lon="5.95717">
        <ele>269.60000610352</ele>
        <time>2014-02-02T08:46:43.000Z</time>
      </trkpt>
      <trkpt lat="47.58997" lon="5.95704">
        <ele>269.60000610352</ele>
        <time>2014-02-02T08:46:47.000Z</time>
      </trkpt>
      <trkpt lat="47.59004" lon="5.95698">
        <ele>269.20001220703</ele>
        <time>2014-02-02T08:46:49.000Z</time>
      </trkpt>
      <trkpt lat="47.59007" lon="5.95695">
        <ele>268.79998779297</ele>
        <time>2014-02-02T08:46:50.000Z</time>
      </trkpt>
      <trkpt lat="47.5901" lon="5.95692">
        <ele>268.39999389648</ele>
        <time>2014-02-02T08:46:51.000Z</time>
      </trkpt>
      <trkpt lat="47.59013" lon="5.95689">
        <ele>267.79998779297</ele>
        <time>2014-02-02T08:46:52.000Z</time>
      </trkpt>
      <trkpt lat="47.59017" lon="5.95686">
        <ele>267.39999389648</ele>
        <time>2014-02-02T08:46:53.000Z</time>
      </trkpt>
      <trkpt lat="47.5902" lon="5.95683">
        <ele>267</ele>
        <time>2014-02-02T08:46:54.000Z</time>
      </trkpt>
      <trkpt lat="47.59023" lon="5.95681">
        <ele>266.60000610352</ele>
        <time>2014-02-02T08:46:55.000Z</time>
      </trkpt>
      <trkpt lat="47.59025" lon="5.95679">
        <ele>266.20001220703</ele>
        <time>2014-02-02T08:46:56.000Z</time>
      </trkpt>
      <trkpt lat="47.59028" lon="5.95678">
        <ele>265.79998779297</ele>
        <time>2014-02-02T08:46:57.000Z</time>
      </trkpt>
      <trkpt lat="47.59031" lon="5.95675">
        <ele>264.79998779297</ele>
        <time>2014-02-02T08:46:58.000Z</time>
      </trkpt>
      <trkpt lat="47.59033" lon="5.95672">
        <ele>264.20001220703</ele>
        <time>2014-02-02T08:46:59.000Z</time>
      </trkpt>
      <trkpt lat="47.59036" lon="5.9567">
        <ele>263.79998779297</ele>
        <time>2014-02-02T08:47:00.000Z</time>
      </trkpt>
      <trkpt lat="47.59038" lon="5.95668">
        <ele>263.20001220703</ele>
        <time>2014-02-02T08:47:01.000Z</time>
      </trkpt>
      <trkpt lat="47.5904" lon="5.95665">
        <ele>262.60000610352</ele>
        <time>2014-02-02T08:47:02.000Z</time>
      </trkpt>
      <trkpt lat="47.59043" lon="5.95662">
        <ele>262</ele>
        <time>2014-02-02T08:47:03.000Z</time>
      </trkpt>
      <trkpt lat="47.59046" lon="5.9566">
        <ele>261.60000610352</ele>
        <time>2014-02-02T08:47:04.000Z</time>
      </trkpt>
      <trkpt lat="47.59048" lon="5.95659">
        <ele>261</ele>
        <time>2014-02-02T08:47:05.000Z</time>
      </trkpt>
      <trkpt lat="47.5905" lon="5.95658">
        <ele>260.60000610352</ele>
        <time>2014-02-02T08:47:06.000Z</time>
      </trkpt>
      <trkpt lat="47.59052" lon="5.95658">
        <ele>260.20001220703</ele>
        <time>2014-02-02T08:47:07.000Z</time>
      </trkpt>
      <trkpt lat="47.59054" lon="5.95658">
        <ele>259.60000610352</ele>
        <time>2014-02-02T08:47:08.000Z</time>
      </trkpt>
      <trkpt lat="47.59056" lon="5.95658">
        <ele>259.20001220703</ele>
        <time>2014-02-02T08:47:09.000Z</time>
      </trkpt>
      <trkpt lat="47.59058" lon="5.95659">
        <ele>258.79998779297</ele>
        <time>2014-02-02T08:47:10.000Z</time>
      </trkpt>
      <trkpt lat="47.59061" lon="5.9566">
        <ele>258.79998779297</ele>
        <time>2014-02-02T08:47:11.000Z</time>
      </trkpt>
      <trkpt lat="47.59067" lon="5.95666">
        <ele>258.79998779297</ele>
        <time>2014-02-02T08:47:15.000Z</time>
      </trkpt>
      <trkpt lat="47.59077" lon="5.9568">
        <ele>258.79998779297</ele>
        <time>2014-02-02T08:47:20.000Z</time>
      </trkpt>
      <trkpt lat="47.59087" lon="5.95694">
        <ele>258.79998779297</ele>
        <time>2014-02-02T08:47:25.000Z</time>
      </trkpt>
      <trkpt lat="47.59088" lon="5.95697">
        <ele>258.79998779297</ele>
        <time>2014-02-02T08:47:26.000Z</time>
      </trkpt>
      <trkpt lat="47.59093" lon="5.95707">
        <ele>258.79998779297</ele>
        <time>2014-02-02T08:47:29.000Z</time>
      </trkpt>
      <trkpt lat="47.59104" lon="5.95731">
        <ele>258.79998779297</ele>
        <time>2014-02-02T08:47:36.000Z</time>
      </trkpt>
      <trkpt lat="47.59111" lon="5.95748">
        <ele>258.79998779297</ele>
        <time>2014-02-02T08:47:41.000Z</time>
      </trkpt>
      <trkpt lat="47.59121" lon="5.95768">
        <ele>258.79998779297</ele>
        <time>2014-02-02T08:47:47.000Z</time>
      </trkpt>
      <trkpt lat="47.59125" lon="5.95777">
        <ele>259.20001220703</ele>
        <time>2014-02-02T08:47:50.000Z</time>
      </trkpt>
      <trkpt lat="47.59126" lon="5.9578">
        <ele>259.60000610352</ele>
        <time>2014-02-02T08:47:51.000Z</time>
      </trkpt>
      <trkpt lat="47.59127" lon="5.95782">
        <ele>260</ele>
        <time>2014-02-02T08:47:52.000Z</time>
      </trkpt>
      <trkpt lat="47.59127" lon="5.95784">
        <ele>260.39999389648</ele>
        <time>2014-02-02T08:47:53.000Z</time>
      </trkpt>
      <trkpt lat="47.59128" lon="5.95785">
        <ele>260.79998779297</ele>
        <time>2014-02-02T08:47:54.000Z</time>
      </trkpt>
      <trkpt lat="47.59129" lon="5.95786">
        <ele>260.79998779297</ele>
        <time>2014-02-02T08:47:55.000Z</time>
      </trkpt>
      <trkpt lat="47.59129" lon="5.95787">
        <ele>260.79998779297</ele>
        <time>2014-02-02T08:48:49.000Z</time>
      </trkpt>
      <trkpt lat="47.59127" lon="5.95784">
        <ele>260.79998779297</ele>
        <time>2014-02-02T08:48:51.000Z</time>
      </trkpt>
      <trkpt lat="47.59122" lon="5.95779">
        <ele>260.79998779297</ele>
        <time>2014-02-02T08:48:55.000Z</time>
      </trkpt>
      <trkpt lat="47.59119" lon="5.95774">
        <ele>260.79998779297</ele>
        <time>2014-02-02T08:48:57.000Z</time>
      </trkpt>
      <trkpt lat="47.5911" lon="5.95754">
        <ele>260.79998779297</ele>
        <time>2014-02-02T08:49:03.000Z</time>
      </trkpt>
      <trkpt lat="47.59101" lon="5.95734">
        <ele>260.79998779297</ele>
        <time>2014-02-02T08:49:08.000Z</time>
      </trkpt>
      <trkpt lat="47.59091" lon="5.95711">
        <ele>260.79998779297</ele>
        <time>2014-02-02T08:49:14.000Z</time>
      </trkpt>
      <trkpt lat="47.59086" lon="5.95691">
        <ele>260.79998779297</ele>
        <time>2014-02-02T08:49:19.000Z</time>
      </trkpt>
      <trkpt lat="47.59078" lon="5.9567">
        <ele>260.79998779297</ele>
        <time>2014-02-02T08:49:24.000Z</time>
      </trkpt>
      <trkpt lat="47.59075" lon="5.95664">
        <ele>260.39999389648</ele>
        <time>2014-02-02T08:49:26.000Z</time>
      </trkpt>
      <trkpt lat="47.59073" lon="5.95661">
        <ele>260</ele>
        <time>2014-02-02T08:49:27.000Z</time>
      </trkpt>
      <trkpt lat="47.59072" lon="5.95659">
        <ele>259.60000610352</ele>
        <time>2014-02-02T08:49:28.000Z</time>
      </trkpt>
      <trkpt lat="47.5907" lon="5.95658">
        <ele>259.20001220703</ele>
        <time>2014-02-02T08:49:29.000Z</time>
      </trkpt>
      <trkpt lat="47.59069" lon="5.95658">
        <ele>258.79998779297</ele>
        <time>2014-02-02T08:49:30.000Z</time>
      </trkpt>
      <trkpt lat="47.59063" lon="5.9566">
        <ele>258.79998779297</ele>
        <time>2014-02-02T08:49:35.000Z</time>
      </trkpt>
      <trkpt lat="47.59057" lon="5.95663">
        <ele>259.20001220703</ele>
        <time>2014-02-02T08:49:39.000Z</time>
      </trkpt>
      <trkpt lat="47.59056" lon="5.95664">
        <ele>259.60000610352</ele>
        <time>2014-02-02T08:49:40.000Z</time>
      </trkpt>
      <trkpt lat="47.59054" lon="5.95665">
        <ele>260</ele>
        <time>2014-02-02T08:49:41.000Z</time>
      </trkpt>
      <trkpt lat="47.59053" lon="5.95666">
        <ele>260.39999389648</ele>
        <time>2014-02-02T08:49:42.000Z</time>
      </trkpt>
      <trkpt lat="47.59051" lon="5.95667">
        <ele>260.79998779297</ele>
        <time>2014-02-02T08:49:43.000Z</time>
      </trkpt>
      <trkpt lat="47.59047" lon="5.9567">
        <ele>261.20001220703</ele>
        <time>2014-02-02T08:49:46.000Z</time>
      </trkpt>
      <trkpt lat="47.59045" lon="5.95672">
        <ele>261.60000610352</ele>
        <time>2014-02-02T08:49:47.000Z</time>
      </trkpt>
      <trkpt lat="47.59044" lon="5.95673">
        <ele>262.39999389648</ele>
        <time>2014-02-02T08:49:48.000Z</time>
      </trkpt>
      <trkpt lat="47.59042" lon="5.95674">
        <ele>262.79998779297</ele>
        <time>2014-02-02T08:49:49.000Z</time>
      </trkpt>
      <trkpt lat="47.59041" lon="5.95676">
        <ele>262.79998779297</ele>
        <time>2014-02-02T08:49:50.000Z</time>
      </trkpt>
      <trkpt lat="47.5904" lon="5.95677">
        <ele>262.79998779297</ele>
        <time>2014-02-02T08:49:51.000Z</time>
      </trkpt>
      <trkpt lat="47.59029" lon="5.95683">
        <ele>265.20001220703</ele>
        <time>2014-02-02T08:49:57.000Z</time>
      </trkpt>
      <trkpt lat="47.59024" lon="5.95687">
        <ele>265.20001220703</ele>
        <time>2014-02-02T08:49:59.000Z</time>
      </trkpt>
      <trkpt lat="47.59021" lon="5.95688">
        <ele>265.20001220703</ele>
        <time>2014-02-02T08:50:00.000Z</time>
      </trkpt>
      <trkpt lat="47.59019" lon="5.9569">
        <ele>265.60000610352</ele>
        <time>2014-02-02T08:50:01.000Z</time>
      </trkpt>
      <trkpt lat="47.59017" lon="5.95691">
        <ele>266</ele>
        <time>2014-02-02T08:50:02.000Z</time>
      </trkpt>
      <trkpt lat="47.59015" lon="5.95692">
        <ele>266.60000610352</ele>
        <time>2014-02-02T08:50:03.000Z</time>
      </trkpt>
      <trkpt lat="47.59013" lon="5.95693">
        <ele>267</ele>
        <time>2014-02-02T08:50:04.000Z</time>
      </trkpt>
      <trkpt lat="47.59011" lon="5.95695">
        <ele>267.39999389648</ele>
        <time>2014-02-02T08:50:05.000Z</time>
      </trkpt>
      <trkpt lat="47.59005" lon="5.95701">
        <ele>267.39999389648</ele>
        <time>2014-02-02T08:50:08.000Z</time>
      </trkpt>
      <trkpt lat="47.59002" lon="5.95705">
        <ele>267.39999389648</ele>
        <time>2014-02-02T08:50:10.000Z</time>
      </trkpt>
      <trkpt lat="47.58999" lon="5.95708">
        <ele>267.79998779297</ele>
        <time>2014-02-02T08:50:12.000Z</time>
      </trkpt>
      <trkpt lat="47.58996" lon="5.9571">
        <ele>268.20001220703</ele>
        <time>2014-02-02T08:50:13.000Z</time>
      </trkpt>
      <trkpt lat="47.58995" lon="5.95711">
        <ele>268.79998779297</ele>
        <time>2014-02-02T08:50:14.000Z</time>
      </trkpt>
      <trkpt lat="47.58993" lon="5.95712">
        <ele>269.20001220703</ele>
        <time>2014-02-02T08:50:15.000Z</time>
      </trkpt>
      <trkpt lat="47.5899" lon="5.95715">
        <ele>269.60000610352</ele>
        <time>2014-02-02T08:50:18.000Z</time>
      </trkpt>
      <trkpt lat="47.58981" lon="5.95724">
        <ele>269.60000610352</ele>
        <time>2014-02-02T08:50:22.000Z</time>
      </trkpt>
      <trkpt lat="47.58975" lon="5.95728">
        <ele>270</ele>
        <time>2014-02-02T08:50:24.000Z</time>
      </trkpt>
      <trkpt lat="47.58972" lon="5.95731">
        <ele>270.39999389648</ele>
        <time>2014-02-02T08:50:25.000Z</time>
      </trkpt>
      <trkpt lat="47.5897" lon="5.95734">
        <ele>270.79998779297</ele>
        <time>2014-02-02T08:50:26.000Z</time>
      </trkpt>
      <trkpt lat="47.58968" lon="5.95737">
        <ele>271.20001220703</ele>
        <time>2014-02-02T08:50:27.000Z</time>
      </trkpt>
      <trkpt lat="47.58967" lon="5.95741">
        <ele>271.60000610352</ele>
        <time>2014-02-02T08:50:28.000Z</time>
      </trkpt>
      <trkpt lat="47.58963" lon="5.95756">
        <ele>271.60000610352</ele>
        <time>2014-02-02T08:50:32.000Z</time>
      </trkpt>
      <trkpt lat="47.58952" lon="5.95787">
        <ele>271.60000610352</ele>
        <time>2014-02-02T08:50:38.000Z</time>
      </trkpt>
      <trkpt lat="47.58945" lon="5.95812">
        <ele>272</ele>
        <time>2014-02-02T08:50:45.000Z</time>
      </trkpt>
      <trkpt lat="47.58943" lon="5.95818">
        <ele>272.60000610352</ele>
        <time>2014-02-02T08:50:46.000Z</time>
      </trkpt>
      <trkpt lat="47.58941" lon="5.95824">
        <ele>273</ele>
        <time>2014-02-02T08:50:47.000Z</time>
      </trkpt>
      <trkpt lat="47.5894" lon="5.9583">
        <ele>273.39999389648</ele>
        <time>2014-02-02T08:50:48.000Z</time>
      </trkpt>
      <trkpt lat="47.58938" lon="5.95837">
        <ele>273.79998779297</ele>
        <time>2014-02-02T08:50:49.000Z</time>
      </trkpt>
      <trkpt lat="47.58934" lon="5.95848">
        <ele>273.79998779297</ele>
        <time>2014-02-02T08:50:51.000Z</time>
      </trkpt>
      <trkpt lat="47.58924" lon="5.95871">
        <ele>273.79998779297</ele>
        <time>2014-02-02T08:50:55.000Z</time>
      </trkpt>
      <trkpt lat="47.58921" lon="5.95876">
        <ele>273.79998779297</ele>
        <time>2014-02-02T08:50:56.000Z</time>
      </trkpt>
      <trkpt lat="47.58912" lon="5.95892">
        <ele>273.79998779297</ele>
        <time>2014-02-02T08:50:59.000Z</time>
      </trkpt>
      <trkpt lat="47.58906" lon="5.95902">
        <ele>273.79998779297</ele>
        <time>2014-02-02T08:51:01.000Z</time>
      </trkpt>
      <trkpt lat="47.58898" lon="5.95926">
        <ele>273.79998779297</ele>
        <time>2014-02-02T08:51:05.000Z</time>
      </trkpt>
      <trkpt lat="47.5889" lon="5.95957">
        <ele>273.79998779297</ele>
        <time>2014-02-02T08:51:10.000Z</time>
      </trkpt>
      <trkpt lat="47.58886" lon="5.95971">
        <ele>273.79998779297</ele>
        <time>2014-02-02T08:51:12.000Z</time>
      </trkpt>
      <trkpt lat="47.5888" lon="5.95997">
        <ele>273.79998779297</ele>
        <time>2014-02-02T08:51:16.000Z</time>
      </trkpt>
      <trkpt lat="47.58877" lon="5.96011">
        <ele>273.79998779297</ele>
        <time>2014-02-02T08:51:18.000Z</time>
      </trkpt>
      <trkpt lat="47.58869" lon="5.96042">
        <ele>273.79998779297</ele>
        <time>2014-02-02T08:51:22.000Z</time>
      </trkpt>
      <trkpt lat="47.58865" lon="5.96058">
        <ele>273.79998779297</ele>
        <time>2014-02-02T08:51:24.000Z</time>
      </trkpt>
      <trkpt lat="47.5886" lon="5.96096">
        <ele>273.79998779297</ele>
        <time>2014-02-02T08:51:29.000Z</time>
      </trkpt>
      <trkpt lat="47.58854" lon="5.96132">
        <ele>273.79998779297</ele>
        <time>2014-02-02T08:51:34.000Z</time>
      </trkpt>
      <trkpt lat="47.58853" lon="5.96139">
        <ele>273.79998779297</ele>
        <time>2014-02-02T08:51:35.000Z</time>
      </trkpt>
      <trkpt lat="47.5885" lon="5.96162">
        <ele>273.79998779297</ele>
        <time>2014-02-02T08:51:38.000Z</time>
      </trkpt>
      <trkpt lat="47.58844" lon="5.96204">
        <ele>273.39999389648</ele>
        <time>2014-02-02T08:51:43.000Z</time>
      </trkpt>
      <trkpt lat="47.58843" lon="5.96211">
        <ele>272.79998779297</ele>
        <time>2014-02-02T08:51:44.000Z</time>
      </trkpt>
      <trkpt lat="47.58842" lon="5.96219">
        <ele>272.39999389648</ele>
        <time>2014-02-02T08:51:45.000Z</time>
      </trkpt>
      <trkpt lat="47.58841" lon="5.96224">
        <ele>272</ele>
        <time>2014-02-02T08:51:46.000Z</time>
      </trkpt>
      <trkpt lat="47.58841" lon="5.96227">
        <ele>271.39999389648</ele>
        <time>2014-02-02T08:51:47.000Z</time>
      </trkpt>
      <trkpt lat="47.58841" lon="5.96228">
        <ele>271</ele>
        <time>2014-02-02T08:51:48.000Z</time>
      </trkpt>
      <trkpt lat="47.58841" lon="5.96217">
        <ele>269</ele>
        <time>2014-02-02T08:53:16.000Z</time>
      </trkpt>
      <trkpt lat="47.58842" lon="5.96209">
        <ele>269</ele>
        <time>2014-02-02T08:53:18.000Z</time>
      </trkpt>
      <trkpt lat="47.58846" lon="5.96183">
        <ele>269</ele>
        <time>2014-02-02T08:53:24.000Z</time>
      </trkpt>
      <trkpt lat="47.58851" lon="5.96147">
        <ele>269</ele>
        <time>2014-02-02T08:53:30.000Z</time>
      </trkpt>
      <trkpt lat="47.58851" lon="5.96141">
        <ele>269.39999389648</ele>
        <time>2014-02-02T08:53:31.000Z</time>
      </trkpt>
      <trkpt lat="47.58851" lon="5.96134">
        <ele>270</ele>
        <time>2014-02-02T08:53:32.000Z</time>
      </trkpt>
      <trkpt lat="47.58851" lon="5.96128">
        <ele>270.39999389648</ele>
        <time>2014-02-02T08:53:33.000Z</time>
      </trkpt>
      <trkpt lat="47.58852" lon="5.96122">
        <ele>270.79998779297</ele>
        <time>2014-02-02T08:53:34.000Z</time>
      </trkpt>
      <trkpt lat="47.58853" lon="5.96116">
        <ele>271.20001220703</ele>
        <time>2014-02-02T08:53:35.000Z</time>
      </trkpt>
      <trkpt lat="47.58853" lon="5.9611">
        <ele>271.20001220703</ele>
        <time>2014-02-02T08:53:36.000Z</time>
      </trkpt>
      <trkpt lat="47.58856" lon="5.96092">
        <ele>271.20001220703</ele>
        <time>2014-02-02T08:53:39.000Z</time>
      </trkpt>
      <trkpt lat="47.5886" lon="5.96074">
        <ele>271.20001220703</ele>
        <time>2014-02-02T08:53:42.000Z</time>
      </trkpt>
      <trkpt lat="47.58866" lon="5.96047">
        <ele>271.20001220703</ele>
        <time>2014-02-02T08:53:46.000Z</time>
      </trkpt>
      <trkpt lat="47.58872" lon="5.96027">
        <ele>271.20001220703</ele>
        <time>2014-02-02T08:53:49.000Z</time>
      </trkpt>
      <trkpt lat="47.58886" lon="5.95983">
        <ele>271.20001220703</ele>
        <time>2014-02-02T08:53:56.000Z</time>
      </trkpt>
      <trkpt lat="47.58894" lon="5.95959">
        <ele>271.79998779297</ele>
        <time>2014-02-02T08:54:01.000Z</time>
      </trkpt>
      <trkpt lat="47.58896" lon="5.95954">
        <ele>272.20001220703</ele>
        <time>2014-02-02T08:54:02.000Z</time>
      </trkpt>
      <trkpt lat="47.58897" lon="5.95946">
        <ele>272.60000610352</ele>
        <time>2014-02-02T08:54:03.000Z</time>
      </trkpt>
      <trkpt lat="47.58899" lon="5.95938">
        <ele>273</ele>
        <time>2014-02-02T08:54:04.000Z</time>
      </trkpt>
      <trkpt lat="47.589" lon="5.9593">
        <ele>273.39999389648</ele>
        <time>2014-02-02T08:54:05.000Z</time>
      </trkpt>
      <trkpt lat="47.58901" lon="5.95923">
        <ele>273.39999389648</ele>
        <time>2014-02-02T08:54:06.000Z</time>
      </trkpt>
      <trkpt lat="47.58903" lon="5.95916">
        <ele>273.39999389648</ele>
        <time>2014-02-02T08:54:07.000Z</time>
      </trkpt>
      <trkpt lat="47.58911" lon="5.95894">
        <ele>273.39999389648</ele>
        <time>2014-02-02T08:54:10.000Z</time>
      </trkpt>
      <trkpt lat="47.58914" lon="5.95887">
        <ele>273.39999389648</ele>
        <time>2014-02-02T08:54:11.000Z</time>
      </trkpt>
      <trkpt lat="47.58937" lon="5.95838">
        <ele>273.39999389648</ele>
        <time>2014-02-02T08:54:18.000Z</time>
      </trkpt>
      <trkpt lat="47.58947" lon="5.95808">
        <ele>273.39999389648</ele>
        <time>2014-02-02T08:54:22.000Z</time>
      </trkpt>
      <trkpt lat="47.58949" lon="5.958">
        <ele>273.39999389648</ele>
        <time>2014-02-02T08:54:23.000Z</time>
      </trkpt>
      <trkpt lat="47.58957" lon="5.95754">
        <ele>273.39999389648</ele>
        <time>2014-02-02T08:54:29.000Z</time>
      </trkpt>
      <trkpt lat="47.58961" lon="5.95725">
        <ele>273.39999389648</ele>
        <time>2014-02-02T08:54:33.000Z</time>
      </trkpt>
      <trkpt lat="47.58963" lon="5.95709">
        <ele>273.39999389648</ele>
        <time>2014-02-02T08:54:35.000Z</time>
      </trkpt>
      <trkpt lat="47.58967" lon="5.95676">
        <ele>273</ele>
        <time>2014-02-02T08:54:39.000Z</time>
      </trkpt>
      <trkpt lat="47.58967" lon="5.95666">
        <ele>272.60000610352</ele>
        <time>2014-02-02T08:54:40.000Z</time>
      </trkpt>
      <trkpt lat="47.58968" lon="5.95656">
        <ele>272.20001220703</ele>
        <time>2014-02-02T08:54:41.000Z</time>
      </trkpt>
      <trkpt lat="47.58968" lon="5.95646">
        <ele>271.79998779297</ele>
        <time>2014-02-02T08:54:42.000Z</time>
      </trkpt>
      <trkpt lat="47.58967" lon="5.95633">
        <ele>271.39999389648</ele>
        <time>2014-02-02T08:54:43.000Z</time>
      </trkpt>
      <trkpt lat="47.58965" lon="5.95609">
        <ele>271.39999389648</ele>
        <time>2014-02-02T08:54:45.000Z</time>
      </trkpt>
      <trkpt lat="47.58957" lon="5.95526">
        <ele>271.39999389648</ele>
        <time>2014-02-02T08:54:52.000Z</time>
      </trkpt>
      <trkpt lat="47.58957" lon="5.95515">
        <ele>271</ele>
        <time>2014-02-02T08:54:53.000Z</time>
      </trkpt>
      <trkpt lat="47.58957" lon="5.95504">
        <ele>270.60000610352</ele>
        <time>2014-02-02T08:54:54.000Z</time>
      </trkpt>
      <trkpt lat="47.58958" lon="5.95493">
        <ele>270.20001220703</ele>
        <time>2014-02-02T08:54:55.000Z</time>
      </trkpt>
      <trkpt lat="47.58958" lon="5.95482">
        <ele>269.79998779297</ele>
        <time>2014-02-02T08:54:56.000Z</time>
      </trkpt>
      <trkpt lat="47.58959" lon="5.95472">
        <ele>269.20001220703</ele>
        <time>2014-02-02T08:54:57.000Z</time>
      </trkpt>
      <trkpt lat="47.58959" lon="5.95462">
        <ele>269.20001220703</ele>
        <time>2014-02-02T08:54:58.000Z</time>
      </trkpt>
      <trkpt lat="47.58962" lon="5.95421">
        <ele>269.20001220703</ele>
        <time>2014-02-02T08:55:03.000Z</time>
      </trkpt>
      <trkpt lat="47.58964" lon="5.954">
        <ele>269.20001220703</ele>
        <time>2014-02-02T08:55:06.000Z</time>
      </trkpt>
      <trkpt lat="47.58965" lon="5.95389">
        <ele>269.20001220703</ele>
        <time>2014-02-02T08:55:08.000Z</time>
      </trkpt>
      <trkpt lat="47.58965" lon="5.95387">
        <ele>269.20001220703</ele>
        <time>2014-02-02T08:55:10.000Z</time>
      </trkpt>
      <trkpt lat="47.58965" lon="5.95388">
        <ele>269.20001220703</ele>
        <time>2014-02-02T08:55:48.000Z</time>
      </trkpt>
      <trkpt lat="47.58966" lon="5.95392">
        <ele>269.20001220703</ele>
        <time>2014-02-02T08:55:50.000Z</time>
      </trkpt>
      <trkpt lat="47.58966" lon="5.95394">
        <ele>269.20001220703</ele>
        <time>2014-02-02T08:55:51.000Z</time>
      </trkpt>
      <trkpt lat="47.58966" lon="5.95399">
        <ele>269.20001220703</ele>
        <time>2014-02-02T08:55:53.000Z</time>
      </trkpt>
      <trkpt lat="47.58965" lon="5.9541">
        <ele>269.20001220703</ele>
        <time>2014-02-02T08:55:56.000Z</time>
      </trkpt>
      <trkpt lat="47.58965" lon="5.9542">
        <ele>269.20001220703</ele>
        <time>2014-02-02T08:55:58.000Z</time>
      </trkpt>
      <trkpt lat="47.58962" lon="5.95459">
        <ele>269.20001220703</ele>
        <time>2014-02-02T08:56:06.000Z</time>
      </trkpt>
      <trkpt lat="47.58961" lon="5.95495">
        <ele>269.20001220703</ele>
        <time>2014-02-02T08:56:13.000Z</time>
      </trkpt>
      <trkpt lat="47.58961" lon="5.9553">
        <ele>269.20001220703</ele>
        <time>2014-02-02T08:56:20.000Z</time>
      </trkpt>
      <trkpt lat="47.58963" lon="5.95558">
        <ele>269.20001220703</ele>
        <time>2014-02-02T08:56:26.000Z</time>
      </trkpt>
      <trkpt lat="47.58968" lon="5.95596">
        <ele>269.20001220703</ele>
        <time>2014-02-02T08:56:34.000Z</time>
      </trkpt>
      <trkpt lat="47.58972" lon="5.95627">
        <ele>269.20001220703</ele>
        <time>2014-02-02T08:56:40.000Z</time>
      </trkpt>
      <trkpt lat="47.58973" lon="5.95653">
        <ele>269.20001220703</ele>
        <time>2014-02-02T08:56:46.000Z</time>
      </trkpt>
      <trkpt lat="47.58966" lon="5.95688">
        <ele>269.20001220703</ele>
        <time>2014-02-02T08:56:53.000Z</time>
      </trkpt>
      <trkpt lat="47.58965" lon="5.95703">
        <ele>269.79998779297</ele>
        <time>2014-02-02T08:56:56.000Z</time>
      </trkpt>
      <trkpt lat="47.58965" lon="5.95707">
        <ele>270.20001220703</ele>
        <time>2014-02-02T08:56:57.000Z</time>
      </trkpt>
      <trkpt lat="47.58965" lon="5.95711">
        <ele>270.60000610352</ele>
        <time>2014-02-02T08:56:58.000Z</time>
      </trkpt>
      <trkpt lat="47.58965" lon="5.95714">
        <ele>271</ele>
        <time>2014-02-02T08:56:59.000Z</time>
      </trkpt>
      <trkpt lat="47.58964" lon="5.95718">
        <ele>271.39999389648</ele>
        <time>2014-02-02T08:57:00.000Z</time>
      </trkpt>
      <trkpt lat="47.58965" lon="5.95726">
        <ele>271.39999389648</ele>
        <time>2014-02-02T08:57:03.000Z</time>
      </trkpt>
      <trkpt lat="47.58966" lon="5.95727">
        <ele>271.39999389648</ele>
        <time>2014-02-02T08:57:04.000Z</time>
      </trkpt>
      <trkpt lat="47.58967" lon="5.95726">
        <ele>271.39999389648</ele>
        <time>2014-02-02T08:57:06.000Z</time>
      </trkpt>
      <trkpt lat="47.58982" lon="5.95713">
        <ele>271.39999389648</ele>
        <time>2014-02-02T08:57:12.000Z</time>
      </trkpt>
      <trkpt lat="47.59001" lon="5.95697">
        <ele>270.79998779297</ele>
        <time>2014-02-02T08:57:17.000Z</time>
      </trkpt>
      <trkpt lat="47.59004" lon="5.95694">
        <ele>270.39999389648</ele>
        <time>2014-02-02T08:57:18.000Z</time>
      </trkpt>
      <trkpt lat="47.59008" lon="5.95692">
        <ele>270</ele>
        <time>2014-02-02T08:57:19.000Z</time>
      </trkpt>
      <trkpt lat="47.59011" lon="5.9569">
        <ele>269.39999389648</ele>
        <time>2014-02-02T08:57:20.000Z</time>
      </trkpt>
      <trkpt lat="47.59014" lon="5.95688">
        <ele>269</ele>
        <time>2014-02-02T08:57:21.000Z</time>
      </trkpt>
      <trkpt lat="47.5902" lon="5.95682">
        <ele>268.60000610352</ele>
        <time>2014-02-02T08:57:23.000Z</time>
      </trkpt>
      <trkpt lat="47.59022" lon="5.95679">
        <ele>268.20001220703</ele>
        <time>2014-02-02T08:57:24.000Z</time>
      </trkpt>
      <trkpt lat="47.59026" lon="5.95676">
        <ele>267.60000610352</ele>
        <time>2014-02-02T08:57:25.000Z</time>
      </trkpt>
      <trkpt lat="47.59029" lon="5.95673">
        <ele>267.20001220703</ele>
        <time>2014-02-02T08:57:26.000Z</time>
      </trkpt>
      <trkpt lat="47.59032" lon="5.9567">
        <ele>266.79998779297</ele>
        <time>2014-02-02T08:57:27.000Z</time>
      </trkpt>
      <trkpt lat="47.59035" lon="5.95667">
        <ele>266.20001220703</ele>
        <time>2014-02-02T08:57:28.000Z</time>
      </trkpt>
      <trkpt lat="47.59037" lon="5.95665">
        <ele>265.79998779297</ele>
        <time>2014-02-02T08:57:29.000Z</time>
      </trkpt>
      <trkpt lat="47.5904" lon="5.95662">
        <ele>265.20001220703</ele>
        <time>2014-02-02T08:57:30.000Z</time>
      </trkpt>
      <trkpt lat="47.59043" lon="5.95659">
        <ele>264.79998779297</ele>
        <time>2014-02-02T08:57:31.000Z</time>
      </trkpt>
      <trkpt lat="47.59046" lon="5.95658">
        <ele>264.20001220703</ele>
        <time>2014-02-02T08:57:32.000Z</time>
      </trkpt>
      <trkpt lat="47.59049" lon="5.95656">
        <ele>263.60000610352</ele>
        <time>2014-02-02T08:57:33.000Z</time>
      </trkpt>
      <trkpt lat="47.59051" lon="5.95655">
        <ele>262.39999389648</ele>
        <time>2014-02-02T08:57:34.000Z</time>
      </trkpt>
      <trkpt lat="47.59054" lon="5.95655">
        <ele>262</ele>
        <time>2014-02-02T08:57:35.000Z</time>
      </trkpt>
      <trkpt lat="47.59057" lon="5.95655">
        <ele>261.39999389648</ele>
        <time>2014-02-02T08:57:36.000Z</time>
      </trkpt>
      <trkpt lat="47.5906" lon="5.95656">
        <ele>261</ele>
        <time>2014-02-02T08:57:37.000Z</time>
      </trkpt>
      <trkpt lat="47.59062" lon="5.95657">
        <ele>260.39999389648</ele>
        <time>2014-02-02T08:57:38.000Z</time>
      </trkpt>
      <trkpt lat="47.59064" lon="5.9566">
        <ele>259.79998779297</ele>
        <time>2014-02-02T08:57:39.000Z</time>
      </trkpt>
      <trkpt lat="47.59069" lon="5.95669">
        <ele>259.79998779297</ele>
        <time>2014-02-02T08:57:43.000Z</time>
      </trkpt>
      <trkpt lat="47.59071" lon="5.95671">
        <ele>259.79998779297</ele>
        <time>2014-02-02T08:57:44.000Z</time>
      </trkpt>
      <trkpt lat="47.59077" lon="5.95684">
        <ele>259.79998779297</ele>
        <time>2014-02-02T08:57:49.000Z</time>
      </trkpt>
      <trkpt lat="47.59085" lon="5.95704">
        <ele>259.79998779297</ele>
        <time>2014-02-02T08:57:55.000Z</time>
      </trkpt>
      <trkpt lat="47.59093" lon="5.9572">
        <ele>259.79998779297</ele>
        <time>2014-02-02T08:58:00.000Z</time>
      </trkpt>
      <trkpt lat="47.59102" lon="5.95741">
        <ele>259.79998779297</ele>
        <time>2014-02-02T08:58:05.000Z</time>
      </trkpt>
      <trkpt lat="47.59109" lon="5.95757">
        <ele>259.79998779297</ele>
        <time>2014-02-02T08:58:10.000Z</time>
      </trkpt>
      <trkpt lat="47.59112" lon="5.95762">
        <ele>259.79998779297</ele>
        <time>2014-02-02T08:58:12.000Z</time>
      </trkpt>
      <trkpt lat="47.59115" lon="5.95768">
        <ele>259.79998779297</ele>
        <time>2014-02-02T08:58:14.000Z</time>
      </trkpt>
      <trkpt lat="47.59119" lon="5.95775">
        <ele>260.20001220703</ele>
        <time>2014-02-02T08:58:17.000Z</time>
      </trkpt>
      <trkpt lat="47.5912" lon="5.95777">
        <ele>260.79998779297</ele>
        <time>2014-02-02T08:58:18.000Z</time>
      </trkpt>
      <trkpt lat="47.59121" lon="5.95778">
        <ele>261.20001220703</ele>
        <time>2014-02-02T08:58:19.000Z</time>
      </trkpt>
      <trkpt lat="47.59122" lon="5.9578">
        <ele>261.60000610352</ele>
        <time>2014-02-02T08:58:20.000Z</time>
      </trkpt>
      <trkpt lat="47.59123" lon="5.95782">
        <ele>262</ele>
        <time>2014-02-02T08:58:21.000Z</time>
      </trkpt>
      <trkpt lat="47.59129" lon="5.9579">
        <ele>262</ele>
        <time>2014-02-02T08:58:25.000Z</time>
      </trkpt>
      <trkpt lat="47.59133" lon="5.95788">
        <ele>262</ele>
        <time>2014-02-02T08:58:37.000Z</time>
      </trkpt>
      <trkpt lat="47.59134" lon="5.95787">
        <ele>262</ele>
        <time>2014-02-02T08:58:38.000Z</time>
      </trkpt>
      <trkpt lat="47.59139" lon="5.95778">
        <ele>262</ele>
        <time>2014-02-02T08:58:42.000Z</time>
      </trkpt>
      <trkpt lat="47.59141" lon="5.95775">
        <ele>262</ele>
        <time>2014-02-02T08:58:43.000Z</time>
      </trkpt>
      <trkpt lat="47.59148" lon="5.95769">
        <ele>261.60000610352</ele>
        <time>2014-02-02T08:58:45.000Z</time>
      </trkpt>
      <trkpt lat="47.59151" lon="5.95767">
        <ele>261.20001220703</ele>
        <time>2014-02-02T08:58:46.000Z</time>
      </trkpt>
      <trkpt lat="47.59154" lon="5.95765">
        <ele>260.79998779297</ele>
        <time>2014-02-02T08:58:47.000Z</time>
      </trkpt>
      <trkpt lat="47.59157" lon="5.95762">
        <ele>260</ele>
        <time>2014-02-02T08:58:48.000Z</time>
      </trkpt>
      <trkpt lat="47.5917" lon="5.95749">
        <ele>260</ele>
        <time>2014-02-02T08:58:53.000Z</time>
      </trkpt>
      <trkpt lat="47.59183" lon="5.95736">
        <ele>259.39999389648</ele>
        <time>2014-02-02T08:58:58.000Z</time>
      </trkpt>
      <trkpt lat="47.59186" lon="5.95733">
        <ele>259</ele>
        <time>2014-02-02T08:58:59.000Z</time>
      </trkpt>
      <trkpt lat="47.59189" lon="5.95731">
        <ele>258.60000610352</ele>
        <time>2014-02-02T08:59:00.000Z</time>
      </trkpt>
      <trkpt lat="47.59192" lon="5.95729">
        <ele>258.20001220703</ele>
        <time>2014-02-02T08:59:01.000Z</time>
      </trkpt>
      <trkpt lat="47.59194" lon="5.95728">
        <ele>257.79998779297</ele>
        <time>2014-02-02T08:59:02.000Z</time>
      </trkpt>
      <trkpt lat="47.59199" lon="5.95723">
        <ele>257.79998779297</ele>
        <time>2014-02-02T08:59:05.000Z</time>
      </trkpt>
      <trkpt lat="47.59204" lon="5.9572">
        <ele>257.39999389648</ele>
        <time>2014-02-02T08:59:08.000Z</time>
      </trkpt>
      <trkpt lat="47.59207" lon="5.95719">
        <ele>257</ele>
        <time>2014-02-02T08:59:09.000Z</time>
      </trkpt>
      <trkpt lat="47.5921" lon="5.95717">
        <ele>256.39999389648</ele>
        <time>2014-02-02T08:59:10.000Z</time>
      </trkpt>
      <trkpt lat="47.59212" lon="5.95715">
        <ele>255.60000610352</ele>
        <time>2014-02-02T08:59:11.000Z</time>
      </trkpt>
      <trkpt lat="47.5923" lon="5.95699">
        <ele>255.19999694824</ele>
        <time>2014-02-02T08:59:16.000Z</time>
      </trkpt>
      <trkpt lat="47.59234" lon="5.95696">
        <ele>254.80000305176</ele>
        <time>2014-02-02T08:59:17.000Z</time>
      </trkpt>
      <trkpt lat="47.59238" lon="5.95693">
        <ele>254.39999389648</ele>
        <time>2014-02-02T08:59:18.000Z</time>
      </trkpt>
      <trkpt lat="47.59241" lon="5.9569">
        <ele>254</ele>
        <time>2014-02-02T08:59:19.000Z</time>
      </trkpt>
      <trkpt lat="47.59243" lon="5.95688">
        <ele>253.60000610352</ele>
        <time>2014-02-02T08:59:20.000Z</time>
      </trkpt>
      <trkpt lat="47.59251" lon="5.95682">
        <ele>253.60000610352</ele>
        <time>2014-02-02T08:59:24.000Z</time>
      </trkpt>
      <trkpt lat="47.59285" lon="5.95675">
        <ele>251.39999389648</ele>
        <time>2014-02-02T08:59:45.000Z</time>
      </trkpt>
      <trkpt lat="47.59286" lon="5.95673">
        <ele>251.39999389648</ele>
        <time>2014-02-02T08:59:46.000Z</time>
      </trkpt>
      <trkpt lat="47.59293" lon="5.95669">
        <ele>251.39999389648</ele>
        <time>2014-02-02T09:00:29.000Z</time>
      </trkpt>
      <trkpt lat="47.59293" lon="5.95667">
        <ele>251.39999389648</ele>
        <time>2014-02-02T09:00:30.000Z</time>
      </trkpt>
      <trkpt lat="47.59294" lon="5.95665">
        <ele>251.39999389648</ele>
        <time>2014-02-02T09:00:31.000Z</time>
      </trkpt>
      <trkpt lat="47.59295" lon="5.95662">
        <ele>251.39999389648</ele>
        <time>2014-02-02T09:00:32.000Z</time>
      </trkpt>
      <trkpt lat="47.59305" lon="5.95647">
        <ele>250</ele>
        <time>2014-02-02T09:00:35.000Z</time>
      </trkpt>
      <trkpt lat="47.59308" lon="5.95644">
        <ele>249.60000610352</ele>
        <time>2014-02-02T09:00:38.000Z</time>
      </trkpt>
      <trkpt lat="47.5931" lon="5.95641">
        <ele>249.19999694824</ele>
        <time>2014-02-02T09:00:39.000Z</time>
      </trkpt>
      <trkpt lat="47.59327" lon="5.95626">
        <ele>249.19999694824</ele>
        <time>2014-02-02T09:00:46.000Z</time>
      </trkpt>
      <trkpt lat="47.59338" lon="5.9562">
        <ele>249.19999694824</ele>
        <time>2014-02-02T09:00:51.000Z</time>
      </trkpt>
      <trkpt lat="47.5935" lon="5.9561">
        <ele>249.19999694824</ele>
        <time>2014-02-02T09:00:57.000Z</time>
      </trkpt>
      <trkpt lat="47.59352" lon="5.95606">
        <ele>249.19999694824</ele>
        <time>2014-02-02T09:00:59.000Z</time>
      </trkpt>
      <trkpt lat="47.59357" lon="5.95601">
        <ele>249.19999694824</ele>
        <time>2014-02-02T09:01:02.000Z</time>
      </trkpt>
      <trkpt lat="47.59362" lon="5.95597">
        <ele>249.19999694824</ele>
        <time>2014-02-02T09:01:04.000Z</time>
      </trkpt>
      <trkpt lat="47.59363" lon="5.95596">
        <ele>249.19999694824</ele>
        <time>2014-02-02T09:01:05.000Z</time>
      </trkpt>
      <trkpt lat="47.59372" lon="5.95586">
        <ele>249.19999694824</ele>
        <time>2014-02-02T09:01:10.000Z</time>
      </trkpt>
      <trkpt lat="47.59379" lon="5.9558">
        <ele>249.19999694824</ele>
        <time>2014-02-02T09:01:13.000Z</time>
      </trkpt>
      <trkpt lat="47.59393" lon="5.95569">
        <ele>249.19999694824</ele>
        <time>2014-02-02T09:01:19.000Z</time>
      </trkpt>
      <trkpt lat="47.59407" lon="5.9556">
        <ele>249.19999694824</ele>
        <time>2014-02-02T09:01:26.000Z</time>
      </trkpt>
      <trkpt lat="47.59409" lon="5.95559">
        <ele>249.19999694824</ele>
        <time>2014-02-02T09:01:27.000Z</time>
      </trkpt>
      <trkpt lat="47.59423" lon="5.95546">
        <ele>251.19999694824</ele>
        <time>2014-02-02T09:01:37.000Z</time>
      </trkpt>
      <trkpt lat="47.59426" lon="5.95542">
        <ele>251.19999694824</ele>
        <time>2014-02-02T09:01:39.000Z</time>
      </trkpt>
      <trkpt lat="47.59456" lon="5.95515">
        <ele>251.19999694824</ele>
        <time>2014-02-02T09:02:03.000Z</time>
      </trkpt>
      <trkpt lat="47.59457" lon="5.95513">
        <ele>251.19999694824</ele>
        <time>2014-02-02T09:02:04.000Z</time>
      </trkpt>
      <trkpt lat="47.59461" lon="5.95509">
        <ele>251.19999694824</ele>
        <time>2014-02-02T09:02:07.000Z</time>
      </trkpt>
      <trkpt lat="47.59465" lon="5.95512">
        <ele>251.19999694824</ele>
        <time>2014-02-02T09:02:10.000Z</time>
      </trkpt>
      <trkpt lat="47.59467" lon="5.95513">
        <ele>251.19999694824</ele>
        <time>2014-02-02T09:02:11.000Z</time>
      </trkpt>
      <trkpt lat="47.59469" lon="5.95515">
        <ele>251.19999694824</ele>
        <time>2014-02-02T09:02:13.000Z</time>
      </trkpt>
      <trkpt lat="47.5949" lon="5.95516">
        <ele>251.19999694824</ele>
        <time>2014-02-02T09:03:02.000Z</time>
      </trkpt>
      <trkpt lat="47.59493" lon="5.95513">
        <ele>251.19999694824</ele>
        <time>2014-02-02T09:03:03.000Z</time>
      </trkpt>
      <trkpt lat="47.595" lon="5.95506">
        <ele>251.19999694824</ele>
        <time>2014-02-02T09:03:06.000Z</time>
      </trkpt>
      <trkpt lat="47.59506" lon="5.955">
        <ele>251.19999694824</ele>
        <time>2014-02-02T09:03:09.000Z</time>
      </trkpt>
      <trkpt lat="47.59521" lon="5.95487">
        <ele>251.19999694824</ele>
        <time>2014-02-02T09:03:15.000Z</time>
      </trkpt>
      <trkpt lat="47.59539" lon="5.95477">
        <ele>251.19999694824</ele>
        <time>2014-02-02T09:03:21.000Z</time>
      </trkpt>
      <trkpt lat="47.59546" lon="5.9547">
        <ele>251.19999694824</ele>
        <time>2014-02-02T09:03:25.000Z</time>
      </trkpt>
      <trkpt lat="47.59549" lon="5.95468">
        <ele>251.19999694824</ele>
        <time>2014-02-02T09:03:26.000Z</time>
      </trkpt>
      <trkpt lat="47.59554" lon="5.95463">
        <ele>251.19999694824</ele>
        <time>2014-02-02T09:03:29.000Z</time>
      </trkpt>
      <trkpt lat="47.59556" lon="5.95461">
        <ele>251.19999694824</ele>
        <time>2014-02-02T09:03:30.000Z</time>
      </trkpt>
      <trkpt lat="47.59558" lon="5.95459">
        <ele>251.19999694824</ele>
        <time>2014-02-02T09:03:32.000Z</time>
      </trkpt>
      <trkpt lat="47.59574" lon="5.95447">
        <ele>251.19999694824</ele>
        <time>2014-02-02T09:03:38.000Z</time>
      </trkpt>
      <trkpt lat="47.59588" lon="5.95431">
        <ele>251.19999694824</ele>
        <time>2014-02-02T09:03:44.000Z</time>
      </trkpt>
      <trkpt lat="47.59595" lon="5.95424">
        <ele>250.80000305176</ele>
        <time>2014-02-02T09:03:48.000Z</time>
      </trkpt>
      <trkpt lat="47.59599" lon="5.95425">
        <ele>249.60000610352</ele>
        <time>2014-02-02T09:03:51.000Z</time>
      </trkpt>
      <trkpt lat="47.59602" lon="5.95426">
        <ele>249.19999694824</ele>
        <time>2014-02-02T09:03:52.000Z</time>
      </trkpt>
      <trkpt lat="47.5961" lon="5.95426">
        <ele>249.19999694824</ele>
        <time>2014-02-02T09:03:56.000Z</time>
      </trkpt>
      <trkpt lat="47.59612" lon="5.95426">
        <ele>249.19999694824</ele>
        <time>2014-02-02T09:03:57.000Z</time>
      </trkpt>
      <trkpt lat="47.59618" lon="5.95422">
        <ele>249.19999694824</ele>
        <time>2014-02-02T09:04:00.000Z</time>
      </trkpt>
      <trkpt lat="47.59619" lon="5.95421">
        <ele>249.19999694824</ele>
        <time>2014-02-02T09:04:01.000Z</time>
      </trkpt>
      <trkpt lat="47.59623" lon="5.95418">
        <ele>249.19999694824</ele>
        <time>2014-02-02T09:04:03.000Z</time>
      </trkpt>
      <trkpt lat="47.59626" lon="5.95415">
        <ele>249.19999694824</ele>
        <time>2014-02-02T09:04:05.000Z</time>
      </trkpt>
      <trkpt lat="47.59631" lon="5.95409">
        <ele>249.19999694824</ele>
        <time>2014-02-02T09:04:08.000Z</time>
      </trkpt>
      <trkpt lat="47.59645" lon="5.95402">
        <ele>249.19999694824</ele>
        <time>2014-02-02T09:04:14.000Z</time>
      </trkpt>
      <trkpt lat="47.59655" lon="5.95397">
        <ele>249.19999694824</ele>
        <time>2014-02-02T09:04:19.000Z</time>
      </trkpt>
      <trkpt lat="47.59659" lon="5.95394">
        <ele>249.19999694824</ele>
        <time>2014-02-02T09:04:21.000Z</time>
      </trkpt>
      <trkpt lat="47.59664" lon="5.95387">
        <ele>249.19999694824</ele>
        <time>2014-02-02T09:04:24.000Z</time>
      </trkpt>
      <trkpt lat="47.59681" lon="5.95375">
        <ele>249.19999694824</ele>
        <time>2014-02-02T09:04:30.000Z</time>
      </trkpt>
      <trkpt lat="47.5969" lon="5.95367">
        <ele>249.19999694824</ele>
        <time>2014-02-02T09:04:35.000Z</time>
      </trkpt>
      <trkpt lat="47.59701" lon="5.95359">
        <ele>249.19999694824</ele>
        <time>2014-02-02T09:04:41.000Z</time>
      </trkpt>
      <trkpt lat="47.59712" lon="5.95352">
        <ele>249.19999694824</ele>
        <time>2014-02-02T09:04:46.000Z</time>
      </trkpt>
      <trkpt lat="47.59713" lon="5.9535">
        <ele>249.19999694824</ele>
        <time>2014-02-02T09:04:47.000Z</time>
      </trkpt>
      <trkpt lat="47.59725" lon="5.95342">
        <ele>249.19999694824</ele>
        <time>2014-02-02T09:04:53.000Z</time>
      </trkpt>
      <trkpt lat="47.59733" lon="5.95334">
        <ele>249.19999694824</ele>
        <time>2014-02-02T09:04:59.000Z</time>
      </trkpt>
      <trkpt lat="47.5973" lon="5.95321">
        <ele>249.19999694824</ele>
        <time>2014-02-02T09:05:03.000Z</time>
      </trkpt>
      <trkpt lat="47.59729" lon="5.95317">
        <ele>249.19999694824</ele>
        <time>2014-02-02T09:05:04.000Z</time>
      </trkpt>
      <trkpt lat="47.59722" lon="5.95299">
        <ele>249.19999694824</ele>
        <time>2014-02-02T09:05:10.000Z</time>
      </trkpt>
      <trkpt lat="47.59718" lon="5.95285">
        <ele>249.19999694824</ele>
        <time>2014-02-02T09:05:14.000Z</time>
      </trkpt>
      <trkpt lat="47.59713" lon="5.95274">
        <ele>248.80000305176</ele>
        <time>2014-02-02T09:05:16.000Z</time>
      </trkpt>
      <trkpt lat="47.59712" lon="5.95269">
        <ele>248.19999694824</ele>
        <time>2014-02-02T09:05:17.000Z</time>
      </trkpt>
      <trkpt lat="47.5971" lon="5.95265">
        <ele>247.80000305176</ele>
        <time>2014-02-02T09:05:18.000Z</time>
      </trkpt>
      <trkpt lat="47.59709" lon="5.95261">
        <ele>247.39999389648</ele>
        <time>2014-02-02T09:05:19.000Z</time>
      </trkpt>
      <trkpt lat="47.59707" lon="5.95257">
        <ele>247</ele>
        <time>2014-02-02T09:05:20.000Z</time>
      </trkpt>
      <trkpt lat="47.59705" lon="5.95244">
        <ele>247</ele>
        <time>2014-02-02T09:05:23.000Z</time>
      </trkpt>
      <trkpt lat="47.59705" lon="5.95235">
        <ele>246.60000610352</ele>
        <time>2014-02-02T09:05:25.000Z</time>
      </trkpt>
      <trkpt lat="47.59706" lon="5.9523">
        <ele>246.19999694824</ele>
        <time>2014-02-02T09:05:26.000Z</time>
      </trkpt>
      <trkpt lat="47.59708" lon="5.95226">
        <ele>245.80000305176</ele>
        <time>2014-02-02T09:05:27.000Z</time>
      </trkpt>
      <trkpt lat="47.5971" lon="5.95224">
        <ele>245.19999694824</ele>
        <time>2014-02-02T09:05:28.000Z</time>
      </trkpt>
      <trkpt lat="47.59711" lon="5.95221">
        <ele>244.80000305176</ele>
        <time>2014-02-02T09:05:29.000Z</time>
      </trkpt>
      <trkpt lat="47.59717" lon="5.95215">
        <ele>244.80000305176</ele>
        <time>2014-02-02T09:05:31.000Z</time>
      </trkpt>
      <trkpt lat="47.59723" lon="5.95206">
        <ele>244.80000305176</ele>
        <time>2014-02-02T09:05:34.000Z</time>
      </trkpt>
      <trkpt lat="47.59732" lon="5.95198">
        <ele>244.39999389648</ele>
        <time>2014-02-02T09:05:38.000Z</time>
      </trkpt>
      <trkpt lat="47.59733" lon="5.95197">
        <ele>243.80000305176</ele>
        <time>2014-02-02T09:05:39.000Z</time>
      </trkpt>
      <trkpt lat="47.59734" lon="5.95196">
        <ele>243.39999389648</ele>
        <time>2014-02-02T09:05:40.000Z</time>
      </trkpt>
      <trkpt lat="47.59736" lon="5.95194">
        <ele>243</ele>
        <time>2014-02-02T09:05:41.000Z</time>
      </trkpt>
      <trkpt lat="47.59737" lon="5.95192">
        <ele>242.60000610352</ele>
        <time>2014-02-02T09:05:42.000Z</time>
      </trkpt>
      <trkpt lat="47.59741" lon="5.95188">
        <ele>242</ele>
        <time>2014-02-02T09:05:44.000Z</time>
      </trkpt>
      <trkpt lat="47.59743" lon="5.95185">
        <ele>241.60000610352</ele>
        <time>2014-02-02T09:05:45.000Z</time>
      </trkpt>
      <trkpt lat="47.59746" lon="5.95183">
        <ele>241</ele>
        <time>2014-02-02T09:05:46.000Z</time>
      </trkpt>
      <trkpt lat="47.59749" lon="5.95181">
        <ele>240.60000610352</ele>
        <time>2014-02-02T09:05:47.000Z</time>
      </trkpt>
      <trkpt lat="47.59752" lon="5.95179">
        <ele>240.19999694824</ele>
        <time>2014-02-02T09:05:48.000Z</time>
      </trkpt>
      <trkpt lat="47.59754" lon="5.95177">
        <ele>239.60000610352</ele>
        <time>2014-02-02T09:05:49.000Z</time>
      </trkpt>
      <trkpt lat="47.59756" lon="5.95175">
        <ele>239.19999694824</ele>
        <time>2014-02-02T09:05:50.000Z</time>
      </trkpt>
      <trkpt lat="47.59759" lon="5.95173">
        <ele>238.80000305176</ele>
        <time>2014-02-02T09:05:51.000Z</time>
      </trkpt>
      <trkpt lat="47.59761" lon="5.95169">
        <ele>238.39999389648</ele>
        <time>2014-02-02T09:05:52.000Z</time>
      </trkpt>
      <trkpt lat="47.59764" lon="5.95166">
        <ele>237.80000305176</ele>
        <time>2014-02-02T09:05:53.000Z</time>
      </trkpt>
      <trkpt lat="47.59767" lon="5.95165">
        <ele>237.19999694824</ele>
        <time>2014-02-02T09:05:54.000Z</time>
      </trkpt>
      <trkpt lat="47.5977" lon="5.95166">
        <ele>236.80000305176</ele>
        <time>2014-02-02T09:05:55.000Z</time>
      </trkpt>
      <trkpt lat="47.59772" lon="5.95167">
        <ele>236.19999694824</ele>
        <time>2014-02-02T09:05:56.000Z</time>
      </trkpt>
      <trkpt lat="47.59775" lon="5.95167">
        <ele>235.80000305176</ele>
        <time>2014-02-02T09:05:57.000Z</time>
      </trkpt>
      <trkpt lat="47.59786" lon="5.95172">
        <ele>235.80000305176</ele>
        <time>2014-02-02T09:06:02.000Z</time>
      </trkpt>
      <trkpt lat="47.59802" lon="5.95178">
        <ele>235.80000305176</ele>
        <time>2014-02-02T09:06:08.000Z</time>
      </trkpt>
      <trkpt lat="47.59813" lon="5.95183">
        <ele>235.80000305176</ele>
        <time>2014-02-02T09:06:15.000Z</time>
      </trkpt>
      <trkpt lat="47.59826" lon="5.95195">
        <ele>235.80000305176</ele>
        <time>2014-02-02T09:06:22.000Z</time>
      </trkpt>
      <trkpt lat="47.59836" lon="5.95204">
        <ele>235.80000305176</ele>
        <time>2014-02-02T09:06:28.000Z</time>
      </trkpt>
      <trkpt lat="47.59849" lon="5.95217">
        <ele>235.80000305176</ele>
        <time>2014-02-02T09:06:34.000Z</time>
      </trkpt>
      <trkpt lat="47.59864" lon="5.95235">
        <ele>235.80000305176</ele>
        <time>2014-02-02T09:06:41.000Z</time>
      </trkpt>
      <trkpt lat="47.59882" lon="5.95254">
        <ele>235.80000305176</ele>
        <time>2014-02-02T09:06:48.000Z</time>
      </trkpt>
      <trkpt lat="47.59907" lon="5.95282">
        <ele>235.80000305176</ele>
        <time>2014-02-02T09:06:56.000Z</time>
      </trkpt>
      <trkpt lat="47.59929" lon="5.95305">
        <ele>235.80000305176</ele>
        <time>2014-02-02T09:07:02.000Z</time>
      </trkpt>
      <trkpt lat="47.59947" lon="5.95324">
        <ele>235.80000305176</ele>
        <time>2014-02-02T09:07:07.000Z</time>
      </trkpt>
      <trkpt lat="47.59951" lon="5.95327">
        <ele>235.80000305176</ele>
        <time>2014-02-02T09:07:08.000Z</time>
      </trkpt>
      <trkpt lat="47.59975" lon="5.95354">
        <ele>235.39999389648</ele>
        <time>2014-02-02T09:07:15.000Z</time>
      </trkpt>
      <trkpt lat="47.59978" lon="5.95357">
        <ele>235</ele>
        <time>2014-02-02T09:07:16.000Z</time>
      </trkpt>
      <trkpt lat="47.59982" lon="5.9536">
        <ele>234.60000610352</ele>
        <time>2014-02-02T09:07:17.000Z</time>
      </trkpt>
      <trkpt lat="47.59991" lon="5.95365">
        <ele>233.60000610352</ele>
        <time>2014-02-02T09:07:18.000Z</time>
      </trkpt>
      <trkpt lat="47.59996" lon="5.95367">
        <ele>233.60000610352</ele>
        <time>2014-02-02T09:07:22.000Z</time>
      </trkpt>
      <trkpt lat="47.60014" lon="5.95367">
        <ele>233.60000610352</ele>
        <time>2014-02-02T09:07:27.000Z</time>
      </trkpt>
      <trkpt lat="47.60035" lon="5.95366">
        <ele>233.60000610352</ele>
        <time>2014-02-02T09:07:33.000Z</time>
      </trkpt>
      <trkpt lat="47.6006" lon="5.95365">
        <ele>233.60000610352</ele>
        <time>2014-02-02T09:07:40.000Z</time>
      </trkpt>
      <trkpt lat="47.60074" lon="5.95353">
        <ele>233.60000610352</ele>
        <time>2014-02-02T09:07:45.000Z</time>
      </trkpt>
      <trkpt lat="47.60075" lon="5.95336">
        <ele>233.60000610352</ele>
        <time>2014-02-02T09:07:49.000Z</time>
      </trkpt>
      <trkpt lat="47.60074" lon="5.95332">
        <ele>233.60000610352</ele>
        <time>2014-02-02T09:07:50.000Z</time>
      </trkpt>
      <trkpt lat="47.6007" lon="5.95311">
        <ele>233.60000610352</ele>
        <time>2014-02-02T09:07:55.000Z</time>
      </trkpt>
      <trkpt lat="47.60065" lon="5.95291">
        <ele>233.60000610352</ele>
        <time>2014-02-02T09:08:00.000Z</time>
      </trkpt>
      <trkpt lat="47.6006" lon="5.95278">
        <ele>234</ele>
        <time>2014-02-02T09:08:04.000Z</time>
      </trkpt>
      <trkpt lat="47.6006" lon="5.95274">
        <ele>234.39999389648</ele>
        <time>2014-02-02T09:08:05.000Z</time>
      </trkpt>
      <trkpt lat="47.6006" lon="5.95271">
        <ele>234.80000305176</ele>
        <time>2014-02-02T09:08:06.000Z</time>
      </trkpt>
      <trkpt lat="47.6006" lon="5.95267">
        <ele>235.19999694824</ele>
        <time>2014-02-02T09:08:07.000Z</time>
      </trkpt>
      <trkpt lat="47.6006" lon="5.95263">
        <ele>235.60000610352</ele>
        <time>2014-02-02T09:08:08.000Z</time>
      </trkpt>
      <trkpt lat="47.60059" lon="5.95254">
        <ele>235.60000610352</ele>
        <time>2014-02-02T09:08:11.000Z</time>
      </trkpt>
      <trkpt lat="47.6006" lon="5.95247">
        <ele>236.19999694824</ele>
        <time>2014-02-02T09:08:14.000Z</time>
      </trkpt>
      <trkpt lat="47.6006" lon="5.95244">
        <ele>236.60000610352</ele>
        <time>2014-02-02T09:08:15.000Z</time>
      </trkpt>
      <trkpt lat="47.6006" lon="5.95242">
        <ele>237</ele>
        <time>2014-02-02T09:08:16.000Z</time>
      </trkpt>
      <trkpt lat="47.6006" lon="5.95241">
        <ele>237.80000305176</ele>
        <time>2014-02-02T09:08:17.000Z</time>
      </trkpt>
      <trkpt lat="47.60059" lon="5.95239">
        <ele>237.80000305176</ele>
        <time>2014-02-02T09:08:18.000Z</time>
      </trkpt>
      <trkpt lat="47.60056" lon="5.95228">
        <ele>237.80000305176</ele>
        <time>2014-02-02T09:08:24.000Z</time>
      </trkpt>
      <trkpt lat="47.60054" lon="5.95221">
        <ele>237.80000305176</ele>
        <time>2014-02-02T09:08:28.000Z</time>
      </trkpt>
      <trkpt lat="47.60053" lon="5.95219">
        <ele>237.80000305176</ele>
        <time>2014-02-02T09:08:29.000Z</time>
      </trkpt>
      <trkpt lat="47.60051" lon="5.95214">
        <ele>238.19999694824</ele>
        <time>2014-02-02T09:08:31.000Z</time>
      </trkpt>
      <trkpt lat="47.60051" lon="5.95211">
        <ele>238.60000610352</ele>
        <time>2014-02-02T09:08:32.000Z</time>
      </trkpt>
      <trkpt lat="47.60051" lon="5.95209">
        <ele>239</ele>
        <time>2014-02-02T09:08:33.000Z</time>
      </trkpt>
      <trkpt lat="47.6005" lon="5.95207">
        <ele>239.60000610352</ele>
        <time>2014-02-02T09:08:34.000Z</time>
      </trkpt>
      <trkpt lat="47.60049" lon="5.95205">
        <ele>240</ele>
        <time>2014-02-02T09:08:35.000Z</time>
      </trkpt>
      <trkpt lat="47.60048" lon="5.95202">
        <ele>240</ele>
        <time>2014-02-02T09:08:36.000Z</time>
      </trkpt>
      <trkpt lat="47.60047" lon="5.95199">
        <ele>240</ele>
        <time>2014-02-02T09:08:37.000Z</time>
      </trkpt>
      <trkpt lat="47.60041" lon="5.95183">
        <ele>240</ele>
        <time>2014-02-02T09:08:43.000Z</time>
      </trkpt>
      <trkpt lat="47.60038" lon="5.95175">
        <ele>240.39999389648</ele>
        <time>2014-02-02T09:08:46.000Z</time>
      </trkpt>
      <trkpt lat="47.60038" lon="5.95172">
        <ele>240.80000305176</ele>
        <time>2014-02-02T09:08:47.000Z</time>
      </trkpt>
      <trkpt lat="47.60037" lon="5.95169">
        <ele>241.19999694824</ele>
        <time>2014-02-02T09:08:48.000Z</time>
      </trkpt>
      <trkpt lat="47.60036" lon="5.95167">
        <ele>241.60000610352</ele>
        <time>2014-02-02T09:08:49.000Z</time>
      </trkpt>
      <trkpt lat="47.60035" lon="5.95164">
        <ele>242</ele>
        <time>2014-02-02T09:08:50.000Z</time>
      </trkpt>
      <trkpt lat="47.60029" lon="5.95149">
        <ele>242</ele>
        <time>2014-02-02T09:08:56.000Z</time>
      </trkpt>
      <trkpt lat="47.60024" lon="5.95132">
        <ele>242</ele>
        <time>2014-02-02T09:09:02.000Z</time>
      </trkpt>
      <trkpt lat="47.60023" lon="5.95125">
        <ele>242.39999389648</ele>
        <time>2014-02-02T09:09:04.000Z</time>
      </trkpt>
      <trkpt lat="47.60021" lon="5.95122">
        <ele>242.80000305176</ele>
        <time>2014-02-02T09:09:05.000Z</time>
      </trkpt>
      <trkpt lat="47.60019" lon="5.95119">
        <ele>243.60000610352</ele>
        <time>2014-02-02T09:09:06.000Z</time>
      </trkpt>
      <trkpt lat="47.60018" lon="5.95115">
        <ele>244</ele>
        <time>2014-02-02T09:09:07.000Z</time>
      </trkpt>
      <trkpt lat="47.60017" lon="5.95112">
        <ele>244</ele>
        <time>2014-02-02T09:09:08.000Z</time>
      </trkpt>
      <trkpt lat="47.60011" lon="5.95092">
        <ele>244</ele>
        <time>2014-02-02T09:09:14.000Z</time>
      </trkpt>
      <trkpt lat="47.60003" lon="5.9507">
        <ele>244</ele>
        <time>2014-02-02T09:09:21.000Z</time>
      </trkpt>
      <trkpt lat="47.59999" lon="5.95057">
        <ele>244</ele>
        <time>2014-02-02T09:09:26.000Z</time>
      </trkpt>
      <trkpt lat="47.59997" lon="5.95051">
        <ele>244</ele>
        <time>2014-02-02T09:09:29.000Z</time>
      </trkpt>
      <trkpt lat="47.59996" lon="5.95048">
        <ele>244</ele>
        <time>2014-02-02T09:09:30.000Z</time>
      </trkpt>
      <trkpt lat="47.59995" lon="5.95044">
        <ele>244.39999389648</ele>
        <time>2014-02-02T09:09:31.000Z</time>
      </trkpt>
      <trkpt lat="47.59993" lon="5.95041">
        <ele>244.80000305176</ele>
        <time>2014-02-02T09:09:32.000Z</time>
      </trkpt>
      <trkpt lat="47.59991" lon="5.95037">
        <ele>245.19999694824</ele>
        <time>2014-02-02T09:09:33.000Z</time>
      </trkpt>
      <trkpt lat="47.5999" lon="5.95034">
        <ele>245.60000610352</ele>
        <time>2014-02-02T09:09:34.000Z</time>
      </trkpt>
      <trkpt lat="47.5999" lon="5.95031">
        <ele>246</ele>
        <time>2014-02-02T09:09:35.000Z</time>
      </trkpt>
      <trkpt lat="47.59989" lon="5.95027">
        <ele>246</ele>
        <time>2014-02-02T09:09:36.000Z</time>
      </trkpt>
      <trkpt lat="47.59981" lon="5.95008">
        <ele>246</ele>
        <time>2014-02-02T09:09:42.000Z</time>
      </trkpt>
      <trkpt lat="47.59976" lon="5.94992">
        <ele>246</ele>
        <time>2014-02-02T09:09:47.000Z</time>
      </trkpt>
      <trkpt lat="47.59969" lon="5.9497">
        <ele>246</ele>
        <time>2014-02-02T09:09:53.000Z</time>
      </trkpt>
      <trkpt lat="47.59964" lon="5.94951">
        <ele>246</ele>
        <time>2014-02-02T09:09:58.000Z</time>
      </trkpt>
      <trkpt lat="47.59956" lon="5.94932">
        <ele>246</ele>
        <time>2014-02-02T09:10:03.000Z</time>
      </trkpt>
      <trkpt lat="47.5995" lon="5.94908">
        <ele>246</ele>
        <time>2014-02-02T09:10:09.000Z</time>
      </trkpt>
      <trkpt lat="47.59942" lon="5.94888">
        <ele>246.39999389648</ele>
        <time>2014-02-02T09:10:14.000Z</time>
      </trkpt>
      <trkpt lat="47.5994" lon="5.94884">
        <ele>246.80000305176</ele>
        <time>2014-02-02T09:10:15.000Z</time>
      </trkpt>
      <trkpt lat="47.5994" lon="5.9488">
        <ele>247.19999694824</ele>
        <time>2014-02-02T09:10:16.000Z</time>
      </trkpt>
      <trkpt lat="47.59938" lon="5.94876">
        <ele>247.60000610352</ele>
        <time>2014-02-02T09:10:17.000Z</time>
      </trkpt>
      <trkpt lat="47.59937" lon="5.94873">
        <ele>248</ele>
        <time>2014-02-02T09:10:18.000Z</time>
      </trkpt>
      <trkpt lat="47.59932" lon="5.94861">
        <ele>248</ele>
        <time>2014-02-02T09:10:21.000Z</time>
      </trkpt>
      <trkpt lat="47.59923" lon="5.94841">
        <ele>248</ele>
        <time>2014-02-02T09:10:27.000Z</time>
      </trkpt>
      <trkpt lat="47.59917" lon="5.94815">
        <ele>248</ele>
        <time>2014-02-02T09:10:34.000Z</time>
      </trkpt>
      <trkpt lat="47.5991" lon="5.94796">
        <ele>248</ele>
        <time>2014-02-02T09:10:39.000Z</time>
      </trkpt>
      <trkpt lat="47.59899" lon="5.94769">
        <ele>248</ele>
        <time>2014-02-02T09:10:46.000Z</time>
      </trkpt>
      <trkpt lat="47.5989" lon="5.94745">
        <ele>248</ele>
        <time>2014-02-02T09:10:52.000Z</time>
      </trkpt>
      <trkpt lat="47.5988" lon="5.94718">
        <ele>248</ele>
        <time>2014-02-02T09:10:58.000Z</time>
      </trkpt>
      <trkpt lat="47.59872" lon="5.94694">
        <ele>248</ele>
        <time>2014-02-02T09:11:04.000Z</time>
      </trkpt>
      <trkpt lat="47.59862" lon="5.94668">
        <ele>248</ele>
        <time>2014-02-02T09:11:09.000Z</time>
      </trkpt>
      <trkpt lat="47.5985" lon="5.94639">
        <ele>248</ele>
        <time>2014-02-02T09:11:13.000Z</time>
      </trkpt>
      <trkpt lat="47.59848" lon="5.94632">
        <ele>247.60000610352</ele>
        <time>2014-02-02T09:11:14.000Z</time>
      </trkpt>
      <trkpt lat="47.59846" lon="5.94626">
        <ele>247.19999694824</ele>
        <time>2014-02-02T09:11:15.000Z</time>
      </trkpt>
      <trkpt lat="47.59845" lon="5.94621">
        <ele>246.80000305176</ele>
        <time>2014-02-02T09:11:16.000Z</time>
      </trkpt>
      <trkpt lat="47.59842" lon="5.94616">
        <ele>246.39999389648</ele>
        <time>2014-02-02T09:11:17.000Z</time>
      </trkpt>
      <trkpt lat="47.5984" lon="5.94611">
        <ele>246</ele>
        <time>2014-02-02T09:11:18.000Z</time>
      </trkpt>
      <trkpt lat="47.59831" lon="5.94589">
        <ele>246</ele>
        <time>2014-02-02T09:11:23.000Z</time>
      </trkpt>
      <trkpt lat="47.59821" lon="5.94561">
        <ele>246</ele>
        <time>2014-02-02T09:11:29.000Z</time>
      </trkpt>
      <trkpt lat="47.59819" lon="5.94557">
        <ele>246</ele>
        <time>2014-02-02T09:11:30.000Z</time>
      </trkpt>
      <trkpt lat="47.59812" lon="5.94539">
        <ele>246</ele>
        <time>2014-02-02T09:11:34.000Z</time>
      </trkpt>
      <trkpt lat="47.59805" lon="5.94522">
        <ele>246.39999389648</ele>
        <time>2014-02-02T09:11:38.000Z</time>
      </trkpt>
      <trkpt lat="47.59803" lon="5.94519">
        <ele>246.80000305176</ele>
        <time>2014-02-02T09:11:39.000Z</time>
      </trkpt>
      <trkpt lat="47.59801" lon="5.94516">
        <ele>247.19999694824</ele>
        <time>2014-02-02T09:11:40.000Z</time>
      </trkpt>
      <trkpt lat="47.59801" lon="5.94512">
        <ele>247.60000610352</ele>
        <time>2014-02-02T09:11:41.000Z</time>
      </trkpt>
      <trkpt lat="47.59799" lon="5.94508">
        <ele>248</ele>
        <time>2014-02-02T09:11:42.000Z</time>
      </trkpt>
      <trkpt lat="47.59794" lon="5.94495">
        <ele>248</ele>
        <time>2014-02-02T09:11:46.000Z</time>
      </trkpt>
      <trkpt lat="47.59791" lon="5.94483">
        <ele>248.60000610352</ele>
        <time>2014-02-02T09:11:50.000Z</time>
      </trkpt>
      <trkpt lat="47.59791" lon="5.9448">
        <ele>249</ele>
        <time>2014-02-02T09:11:51.000Z</time>
      </trkpt>
      <trkpt lat="47.5979" lon="5.94477">
        <ele>249.39999389648</ele>
        <time>2014-02-02T09:11:52.000Z</time>
      </trkpt>
      <trkpt lat="47.59788" lon="5.94475">
        <ele>249.80000305176</ele>
        <time>2014-02-02T09:11:53.000Z</time>
      </trkpt>
      <trkpt lat="47.59787" lon="5.94472">
        <ele>250.19999694824</ele>
        <time>2014-02-02T09:11:54.000Z</time>
      </trkpt>
      <trkpt lat="47.59784" lon="5.94462">
        <ele>250.19999694824</ele>
        <time>2014-02-02T09:11:57.000Z</time>
      </trkpt>
      <trkpt lat="47.5978" lon="5.94452">
        <ele>250.60000610352</ele>
        <time>2014-02-02T09:12:01.000Z</time>
      </trkpt>
      <trkpt lat="47.59779" lon="5.9445">
        <ele>251</ele>
        <time>2014-02-02T09:12:02.000Z</time>
      </trkpt>
      <trkpt lat="47.59778" lon="5.94447">
        <ele>251.39999389648</ele>
        <time>2014-02-02T09:12:03.000Z</time>
      </trkpt>
      <trkpt lat="47.59776" lon="5.94445">
        <ele>251.80000305176</ele>
        <time>2014-02-02T09:12:04.000Z</time>
      </trkpt>
      <trkpt lat="47.59775" lon="5.94442">
        <ele>252.19999694824</ele>
        <time>2014-02-02T09:12:05.000Z</time>
      </trkpt>
      <trkpt lat="47.59773" lon="5.94438">
        <ele>252.19999694824</ele>
        <time>2014-02-02T09:12:07.000Z</time>
      </trkpt>
      <trkpt lat="47.59771" lon="5.94433">
        <ele>252.19999694824</ele>
        <time>2014-02-02T09:12:09.000Z</time>
      </trkpt>
      <trkpt lat="47.59766" lon="5.94425">
        <ele>252.19999694824</ele>
        <time>2014-02-02T09:12:13.000Z</time>
      </trkpt>
      <trkpt lat="47.59763" lon="5.9442">
        <ele>252.60000610352</ele>
        <time>2014-02-02T09:12:16.000Z</time>
      </trkpt>
      <trkpt lat="47.59762" lon="5.94416">
        <ele>253.19999694824</ele>
        <time>2014-02-02T09:12:17.000Z</time>
      </trkpt>
      <trkpt lat="47.59761" lon="5.94413">
        <ele>253.60000610352</ele>
        <time>2014-02-02T09:12:18.000Z</time>
      </trkpt>
      <trkpt lat="47.5976" lon="5.9441">
        <ele>254</ele>
        <time>2014-02-02T09:12:19.000Z</time>
      </trkpt>
      <trkpt lat="47.5976" lon="5.94405">
        <ele>254.39999389648</ele>
        <time>2014-02-02T09:12:20.000Z</time>
      </trkpt>
      <trkpt lat="47.5976" lon="5.94402">
        <ele>254.39999389648</ele>
        <time>2014-02-02T09:12:21.000Z</time>
      </trkpt>
      <trkpt lat="47.59758" lon="5.94398">
        <ele>254.39999389648</ele>
        <time>2014-02-02T09:12:22.000Z</time>
      </trkpt>
      <trkpt lat="47.59751" lon="5.94377">
        <ele>254.39999389648</ele>
        <time>2014-02-02T09:12:28.000Z</time>
      </trkpt>
      <trkpt lat="47.59746" lon="5.94357">
        <ele>254.39999389648</ele>
        <time>2014-02-02T09:12:34.000Z</time>
      </trkpt>
      <trkpt lat="47.59745" lon="5.94354">
        <ele>254.80000305176</ele>
        <time>2014-02-02T09:12:35.000Z</time>
      </trkpt>
      <trkpt lat="47.59744" lon="5.9435">
        <ele>255.19999694824</ele>
        <time>2014-02-02T09:12:36.000Z</time>
      </trkpt>
      <trkpt lat="47.59743" lon="5.94347">
        <ele>255.60000610352</ele>
        <time>2014-02-02T09:12:37.000Z</time>
      </trkpt>
      <trkpt lat="47.59742" lon="5.94344">
        <ele>256</ele>
        <time>2014-02-02T09:12:38.000Z</time>
      </trkpt>
      <trkpt lat="47.59741" lon="5.9434">
        <ele>256.39999389648</ele>
        <time>2014-02-02T09:12:39.000Z</time>
      </trkpt>
      <trkpt lat="47.5974" lon="5.94337">
        <ele>256.39999389648</ele>
        <time>2014-02-02T09:12:40.000Z</time>
      </trkpt>
      <trkpt lat="47.59732" lon="5.94314">
        <ele>256.39999389648</ele>
        <time>2014-02-02T09:12:47.000Z</time>
      </trkpt>
      <trkpt lat="47.59728" lon="5.94297">
        <ele>256.39999389648</ele>
        <time>2014-02-02T09:12:53.000Z</time>
      </trkpt>
      <trkpt lat="47.5972" lon="5.94279">
        <ele>256.79998779297</ele>
        <time>2014-02-02T09:12:59.000Z</time>
      </trkpt>
      <trkpt lat="47.5972" lon="5.94277">
        <ele>257.20001220703</ele>
        <time>2014-02-02T09:13:00.000Z</time>
      </trkpt>
      <trkpt lat="47.59719" lon="5.94274">
        <ele>257.60000610352</ele>
        <time>2014-02-02T09:13:01.000Z</time>
      </trkpt>
      <trkpt lat="47.59717" lon="5.9427">
        <ele>258</ele>
        <time>2014-02-02T09:13:02.000Z</time>
      </trkpt>
      <trkpt lat="47.59716" lon="5.94267">
        <ele>258.39999389648</ele>
        <time>2014-02-02T09:13:03.000Z</time>
      </trkpt>
      <trkpt lat="47.59714" lon="5.94261">
        <ele>258.39999389648</ele>
        <time>2014-02-02T09:13:05.000Z</time>
      </trkpt>
      <trkpt lat="47.59706" lon="5.94238">
        <ele>258.39999389648</ele>
        <time>2014-02-02T09:13:13.000Z</time>
      </trkpt>
      <trkpt lat="47.59701" lon="5.94225">
        <ele>258.79998779297</ele>
        <time>2014-02-02T09:13:17.000Z</time>
      </trkpt>
      <trkpt lat="47.597" lon="5.94222">
        <ele>259.20001220703</ele>
        <time>2014-02-02T09:13:18.000Z</time>
      </trkpt>
      <trkpt lat="47.59699" lon="5.94219">
        <ele>259.60000610352</ele>
        <time>2014-02-02T09:13:19.000Z</time>
      </trkpt>
      <trkpt lat="47.59698" lon="5.94216">
        <ele>260</ele>
        <time>2014-02-02T09:13:20.000Z</time>
      </trkpt>
      <trkpt lat="47.59698" lon="5.94213">
        <ele>260.39999389648</ele>
        <time>2014-02-02T09:13:21.000Z</time>
      </trkpt>
      <trkpt lat="47.59697" lon="5.94209">
        <ele>260.39999389648</ele>
        <time>2014-02-02T09:13:22.000Z</time>
      </trkpt>
      <trkpt lat="47.59689" lon="5.94181">
        <ele>260.39999389648</ele>
        <time>2014-02-02T09:13:31.000Z</time>
      </trkpt>
      <trkpt lat="47.59684" lon="5.94168">
        <ele>261.39999389648</ele>
        <time>2014-02-02T09:13:36.000Z</time>
      </trkpt>
      <trkpt lat="47.59683" lon="5.94165">
        <ele>261.79998779297</ele>
        <time>2014-02-02T09:13:37.000Z</time>
      </trkpt>
      <trkpt lat="47.59682" lon="5.94162">
        <ele>262.20001220703</ele>
        <time>2014-02-02T09:13:38.000Z</time>
      </trkpt>
      <trkpt lat="47.59681" lon="5.94159">
        <ele>262.60000610352</ele>
        <time>2014-02-02T09:13:39.000Z</time>
      </trkpt>
      <trkpt lat="47.59674" lon="5.94139">
        <ele>263.20001220703</ele>
        <time>2014-02-02T09:13:47.000Z</time>
      </trkpt>
      <trkpt lat="47.59673" lon="5.94137">
        <ele>263.60000610352</ele>
        <time>2014-02-02T09:13:48.000Z</time>
      </trkpt>
      <trkpt lat="47.59672" lon="5.94135">
        <ele>264</ele>
        <time>2014-02-02T09:13:49.000Z</time>
      </trkpt>
      <trkpt lat="47.59671" lon="5.94133">
        <ele>264.39999389648</ele>
        <time>2014-02-02T09:13:50.000Z</time>
      </trkpt>
      <trkpt lat="47.59671" lon="5.9413">
        <ele>264.79998779297</ele>
        <time>2014-02-02T09:13:51.000Z</time>
      </trkpt>
      <trkpt lat="47.5967" lon="5.94128">
        <ele>264.79998779297</ele>
        <time>2014-02-02T09:13:52.000Z</time>
      </trkpt>
      <trkpt lat="47.59663" lon="5.94107">
        <ele>264.79998779297</ele>
        <time>2014-02-02T09:14:01.000Z</time>
      </trkpt>
      <trkpt lat="47.59659" lon="5.94094">
        <ele>265.20001220703</ele>
        <time>2014-02-02T09:14:07.000Z</time>
      </trkpt>
      <trkpt lat="47.59658" lon="5.94091">
        <ele>265.60000610352</ele>
        <time>2014-02-02T09:14:08.000Z</time>
      </trkpt>
      <trkpt lat="47.59657" lon="5.94088">
        <ele>266</ele>
        <time>2014-02-02T09:14:09.000Z</time>
      </trkpt>
      <trkpt lat="47.59656" lon="5.94086">
        <ele>266.39999389648</ele>
        <time>2014-02-02T09:14:10.000Z</time>
      </trkpt>
      <trkpt lat="47.59655" lon="5.94083">
        <ele>266.79998779297</ele>
        <time>2014-02-02T09:14:11.000Z</time>
      </trkpt>
      <trkpt lat="47.59653" lon="5.94075">
        <ele>266.79998779297</ele>
        <time>2014-02-02T09:14:14.000Z</time>
      </trkpt>
      <trkpt lat="47.59644" lon="5.9405">
        <ele>266.79998779297</ele>
        <time>2014-02-02T09:14:22.000Z</time>
      </trkpt>
      <trkpt lat="47.59636" lon="5.94024">
        <ele>266.79998779297</ele>
        <time>2014-02-02T09:14:30.000Z</time>
      </trkpt>
      <trkpt lat="47.59627" lon="5.93997">
        <ele>266.79998779297</ele>
        <time>2014-02-02T09:14:37.000Z</time>
      </trkpt>
      <trkpt lat="47.59617" lon="5.93971">
        <ele>266.79998779297</ele>
        <time>2014-02-02T09:14:43.000Z</time>
      </trkpt>
      <trkpt lat="47.59607" lon="5.93943">
        <ele>266.79998779297</ele>
        <time>2014-02-02T09:14:49.000Z</time>
      </trkpt>
      <trkpt lat="47.59596" lon="5.93919">
        <ele>266.79998779297</ele>
        <time>2014-02-02T09:14:54.000Z</time>
      </trkpt>
      <trkpt lat="47.59589" lon="5.93895">
        <ele>266.79998779297</ele>
        <time>2014-02-02T09:14:59.000Z</time>
      </trkpt>
      <trkpt lat="47.59583" lon="5.93877">
        <ele>266.39999389648</ele>
        <time>2014-02-02T09:15:03.000Z</time>
      </trkpt>
      <trkpt lat="47.59581" lon="5.93873">
        <ele>265.79998779297</ele>
        <time>2014-02-02T09:15:04.000Z</time>
      </trkpt>
      <trkpt lat="47.5958" lon="5.93868">
        <ele>265.39999389648</ele>
        <time>2014-02-02T09:15:05.000Z</time>
      </trkpt>
      <trkpt lat="47.59578" lon="5.93863">
        <ele>265</ele>
        <time>2014-02-02T09:15:06.000Z</time>
      </trkpt>
      <trkpt lat="47.59577" lon="5.93859">
        <ele>264.60000610352</ele>
        <time>2014-02-02T09:15:07.000Z</time>
      </trkpt>
      <trkpt lat="47.59574" lon="5.9385">
        <ele>264.60000610352</ele>
        <time>2014-02-02T09:15:09.000Z</time>
      </trkpt>
      <trkpt lat="47.59565" lon="5.93829">
        <ele>264.20001220703</ele>
        <time>2014-02-02T09:15:13.000Z</time>
      </trkpt>
      <trkpt lat="47.59563" lon="5.93823">
        <ele>263.39999389648</ele>
        <time>2014-02-02T09:15:14.000Z</time>
      </trkpt>
      <trkpt lat="47.59561" lon="5.93818">
        <ele>263</ele>
        <time>2014-02-02T09:15:15.000Z</time>
      </trkpt>
      <trkpt lat="47.59559" lon="5.93813">
        <ele>262.60000610352</ele>
        <time>2014-02-02T09:15:16.000Z</time>
      </trkpt>
      <trkpt lat="47.59551" lon="5.93792">
        <ele>262.60000610352</ele>
        <time>2014-02-02T09:15:20.000Z</time>
      </trkpt>
      <trkpt lat="47.59549" lon="5.93788">
        <ele>262</ele>
        <time>2014-02-02T09:15:21.000Z</time>
      </trkpt>
      <trkpt lat="47.59548" lon="5.93783">
        <ele>261.60000610352</ele>
        <time>2014-02-02T09:15:22.000Z</time>
      </trkpt>
      <trkpt lat="47.59546" lon="5.93779">
        <ele>261.20001220703</ele>
        <time>2014-02-02T09:15:23.000Z</time>
      </trkpt>
      <trkpt lat="47.59544" lon="5.93774">
        <ele>260.79998779297</ele>
        <time>2014-02-02T09:15:24.000Z</time>
      </trkpt>
      <trkpt lat="47.59542" lon="5.93769">
        <ele>260.39999389648</ele>
        <time>2014-02-02T09:15:25.000Z</time>
      </trkpt>
      <trkpt lat="47.59539" lon="5.93758">
        <ele>260.39999389648</ele>
        <time>2014-02-02T09:15:27.000Z</time>
      </trkpt>
      <trkpt lat="47.59531" lon="5.93738">
        <ele>260</ele>
        <time>2014-02-02T09:15:31.000Z</time>
      </trkpt>
      <trkpt lat="47.59529" lon="5.93733">
        <ele>259.60000610352</ele>
        <time>2014-02-02T09:15:32.000Z</time>
      </trkpt>
      <trkpt lat="47.59527" lon="5.93729">
        <ele>259.20001220703</ele>
        <time>2014-02-02T09:15:33.000Z</time>
      </trkpt>
      <trkpt lat="47.59525" lon="5.93723">
        <ele>258.60000610352</ele>
        <time>2014-02-02T09:15:34.000Z</time>
      </trkpt>
      <trkpt lat="47.59523" lon="5.93717">
        <ele>258.20001220703</ele>
        <time>2014-02-02T09:15:35.000Z</time>
      </trkpt>
      <trkpt lat="47.5952" lon="5.93711">
        <ele>258.20001220703</ele>
        <time>2014-02-02T09:15:36.000Z</time>
      </trkpt>
      <trkpt lat="47.59516" lon="5.93698">
        <ele>257.79998779297</ele>
        <time>2014-02-02T09:15:38.000Z</time>
      </trkpt>
      <trkpt lat="47.59513" lon="5.93691">
        <ele>257</ele>
        <time>2014-02-02T09:15:39.000Z</time>
      </trkpt>
      <trkpt lat="47.59511" lon="5.93686">
        <ele>256.60000610352</ele>
        <time>2014-02-02T09:15:40.000Z</time>
      </trkpt>
      <trkpt lat="47.59509" lon="5.9368">
        <ele>256.20001220703</ele>
        <time>2014-02-02T09:15:41.000Z</time>
      </trkpt>
      <trkpt lat="47.59504" lon="5.93666">
        <ele>255.80000305176</ele>
        <time>2014-02-02T09:15:44.000Z</time>
      </trkpt>
      <trkpt lat="47.59503" lon="5.93662">
        <ele>255.19999694824</ele>
        <time>2014-02-02T09:15:45.000Z</time>
      </trkpt>
      <trkpt lat="47.59501" lon="5.93658">
        <ele>254.80000305176</ele>
        <time>2014-02-02T09:15:46.000Z</time>
      </trkpt>
      <trkpt lat="47.59499" lon="5.93656">
        <ele>254.39999389648</ele>
        <time>2014-02-02T09:15:47.000Z</time>
      </trkpt>
      <trkpt lat="47.59497" lon="5.93653">
        <ele>254</ele>
        <time>2014-02-02T09:15:48.000Z</time>
      </trkpt>
      <trkpt lat="47.59495" lon="5.93648">
        <ele>254</ele>
        <time>2014-02-02T09:15:49.000Z</time>
      </trkpt>
      <trkpt lat="47.59494" lon="5.93643">
        <ele>254</ele>
        <time>2014-02-02T09:15:50.000Z</time>
      </trkpt>
      <trkpt lat="47.59489" lon="5.93629">
        <ele>254</ele>
        <time>2014-02-02T09:15:55.000Z</time>
      </trkpt>
      <trkpt lat="47.59487" lon="5.93624">
        <ele>253.60000610352</ele>
        <time>2014-02-02T09:15:57.000Z</time>
      </trkpt>
      <trkpt lat="47.59487" lon="5.93621">
        <ele>253.19999694824</ele>
        <time>2014-02-02T09:15:58.000Z</time>
      </trkpt>
      <trkpt lat="47.59486" lon="5.93619">
        <ele>252.80000305176</ele>
        <time>2014-02-02T09:15:59.000Z</time>
      </trkpt>
      <trkpt lat="47.59485" lon="5.93616">
        <ele>252.39999389648</ele>
        <time>2014-02-02T09:16:00.000Z</time>
      </trkpt>
      <trkpt lat="47.59483" lon="5.93614">
        <ele>251.80000305176</ele>
        <time>2014-02-02T09:16:01.000Z</time>
      </trkpt>
      <trkpt lat="47.59476" lon="5.93597">
        <ele>251.80000305176</ele>
        <time>2014-02-02T09:16:07.000Z</time>
      </trkpt>
      <trkpt lat="47.59475" lon="5.93595">
        <ele>251.80000305176</ele>
        <time>2014-02-02T09:16:08.000Z</time>
      </trkpt>
      <trkpt lat="47.59474" lon="5.9359">
        <ele>251.80000305176</ele>
        <time>2014-02-02T09:16:10.000Z</time>
      </trkpt>
      <trkpt lat="47.59471" lon="5.93579">
        <ele>251.80000305176</ele>
        <time>2014-02-02T09:16:14.000Z</time>
      </trkpt>
      <trkpt lat="47.59469" lon="5.93565">
        <ele>251.80000305176</ele>
        <time>2014-02-02T09:16:19.000Z</time>
      </trkpt>
      <trkpt lat="47.5946" lon="5.93505">
        <ele>264.39999389648</ele>
        <time>2014-02-02T09:20:13.000Z</time>
      </trkpt>
      <trkpt lat="47.59466" lon="5.93496">
        <ele>264.39999389648</ele>
        <time>2014-02-02T09:20:18.000Z</time>
      </trkpt>
      <trkpt lat="47.59478" lon="5.93482">
        <ele>264.39999389648</ele>
        <time>2014-02-02T09:20:24.000Z</time>
      </trkpt>
      <trkpt lat="47.59494" lon="5.93463">
        <ele>264</ele>
        <time>2014-02-02T09:20:30.000Z</time>
      </trkpt>
      <trkpt lat="47.59497" lon="5.9346">
        <ele>263.60000610352</ele>
        <time>2014-02-02T09:20:31.000Z</time>
      </trkpt>
      <trkpt lat="47.595" lon="5.93457">
        <ele>263.20001220703</ele>
        <time>2014-02-02T09:20:32.000Z</time>
      </trkpt>
      <trkpt lat="47.59503" lon="5.93453">
        <ele>262.79998779297</ele>
        <time>2014-02-02T09:20:33.000Z</time>
      </trkpt>
      <trkpt lat="47.59505" lon="5.9345">
        <ele>262.39999389648</ele>
        <time>2014-02-02T09:20:34.000Z</time>
      </trkpt>
      <trkpt lat="47.5951" lon="5.93441">
        <ele>262.39999389648</ele>
        <time>2014-02-02T09:20:37.000Z</time>
      </trkpt>
      <trkpt lat="47.59512" lon="5.93439">
        <ele>262</ele>
        <time>2014-02-02T09:20:38.000Z</time>
      </trkpt>
      <trkpt lat="47.59516" lon="5.93434">
        <ele>261.60000610352</ele>
        <time>2014-02-02T09:20:39.000Z</time>
      </trkpt>
      <trkpt lat="47.59519" lon="5.93429">
        <ele>261.20001220703</ele>
        <time>2014-02-02T09:20:40.000Z</time>
      </trkpt>
      <trkpt lat="47.59521" lon="5.93427">
        <ele>260.60000610352</ele>
        <time>2014-02-02T09:20:41.000Z</time>
      </trkpt>
      <trkpt lat="47.59524" lon="5.93424">
        <ele>260.20001220703</ele>
        <time>2014-02-02T09:20:42.000Z</time>
      </trkpt>
      <trkpt lat="47.59534" lon="5.9341">
        <ele>259.79998779297</ele>
        <time>2014-02-02T09:20:46.000Z</time>
      </trkpt>
      <trkpt lat="47.59537" lon="5.93407">
        <ele>259.39999389648</ele>
        <time>2014-02-02T09:20:47.000Z</time>
      </trkpt>
      <trkpt lat="47.5954" lon="5.93404">
        <ele>259</ele>
        <time>2014-02-02T09:20:48.000Z</time>
      </trkpt>
      <trkpt lat="47.59542" lon="5.93401">
        <ele>258.39999389648</ele>
        <time>2014-02-02T09:20:49.000Z</time>
      </trkpt>
      <trkpt lat="47.59545" lon="5.93398">
        <ele>258</ele>
        <time>2014-02-02T09:20:50.000Z</time>
      </trkpt>
      <trkpt lat="47.59552" lon="5.93388">
        <ele>257.60000610352</ele>
        <time>2014-02-02T09:20:53.000Z</time>
      </trkpt>
      <trkpt lat="47.59554" lon="5.93385">
        <ele>256.79998779297</ele>
        <time>2014-02-02T09:20:54.000Z</time>
      </trkpt>
      <trkpt lat="47.59556" lon="5.93383">
        <ele>256.39999389648</ele>
        <time>2014-02-02T09:20:55.000Z</time>
      </trkpt>
      <trkpt lat="47.59558" lon="5.9338">
        <ele>256</ele>
        <time>2014-02-02T09:20:56.000Z</time>
      </trkpt>
      <trkpt lat="47.59564" lon="5.93372">
        <ele>255.60000610352</ele>
        <time>2014-02-02T09:20:59.000Z</time>
      </trkpt>
      <trkpt lat="47.59566" lon="5.93369">
        <ele>255</ele>
        <time>2014-02-02T09:21:00.000Z</time>
      </trkpt>
      <trkpt lat="47.59568" lon="5.93366">
        <ele>254.60000610352</ele>
        <time>2014-02-02T09:21:01.000Z</time>
      </trkpt>
      <trkpt lat="47.5957" lon="5.93364">
        <ele>254.19999694824</ele>
        <time>2014-02-02T09:21:02.000Z</time>
      </trkpt>
      <trkpt lat="47.59572" lon="5.93361">
        <ele>253.80000305176</ele>
        <time>2014-02-02T09:21:03.000Z</time>
      </trkpt>
      <trkpt lat="47.59579" lon="5.93353">
        <ele>253.80000305176</ele>
        <time>2014-02-02T09:21:06.000Z</time>
      </trkpt>
      <trkpt lat="47.59581" lon="5.93352">
        <ele>253.19999694824</ele>
        <time>2014-02-02T09:21:07.000Z</time>
      </trkpt>
      <trkpt lat="47.59583" lon="5.93352">
        <ele>252.80000305176</ele>
        <time>2014-02-02T09:21:08.000Z</time>
      </trkpt>
      <trkpt lat="47.59585" lon="5.93352">
        <ele>252.39999389648</ele>
        <time>2014-02-02T09:21:09.000Z</time>
      </trkpt>
      <trkpt lat="47.59587" lon="5.93353">
        <ele>252</ele>
        <time>2014-02-02T09:21:10.000Z</time>
      </trkpt>
      <trkpt lat="47.59589" lon="5.93353">
        <ele>251.60000610352</ele>
        <time>2014-02-02T09:21:11.000Z</time>
      </trkpt>
      <trkpt lat="47.59591" lon="5.93353">
        <ele>251.60000610352</ele>
        <time>2014-02-02T09:21:12.000Z</time>
      </trkpt>
      <trkpt lat="47.59599" lon="5.93353">
        <ele>251.60000610352</ele>
        <time>2014-02-02T09:21:16.000Z</time>
      </trkpt>
      <trkpt lat="47.59606" lon="5.93356">
        <ele>251.60000610352</ele>
        <time>2014-02-02T09:21:20.000Z</time>
      </trkpt>
      <trkpt lat="47.59615" lon="5.93357">
        <ele>251.60000610352</ele>
        <time>2014-02-02T09:21:25.000Z</time>
      </trkpt>
      <trkpt lat="47.59618" lon="5.93358">
        <ele>251.60000610352</ele>
        <time>2014-02-02T09:21:27.000Z</time>
      </trkpt>
      <trkpt lat="47.59626" lon="5.9336">
        <ele>251.60000610352</ele>
        <time>2014-02-02T09:21:31.000Z</time>
      </trkpt>
      <trkpt lat="47.5963" lon="5.93361">
        <ele>252</ele>
        <time>2014-02-02T09:21:33.000Z</time>
      </trkpt>
      <trkpt lat="47.59632" lon="5.93361">
        <ele>252.39999389648</ele>
        <time>2014-02-02T09:21:34.000Z</time>
      </trkpt>
      <trkpt lat="47.59635" lon="5.93362">
        <ele>253.19999694824</ele>
        <time>2014-02-02T09:21:36.000Z</time>
      </trkpt>
      <trkpt lat="47.59636" lon="5.93364">
        <ele>253.60000610352</ele>
        <time>2014-02-02T09:21:37.000Z</time>
      </trkpt>
      <trkpt lat="47.59637" lon="5.93365">
        <ele>253.60000610352</ele>
        <time>2014-02-02T09:21:38.000Z</time>
      </trkpt>
      <trkpt lat="47.59639" lon="5.93366">
        <ele>253.60000610352</ele>
        <time>2014-02-02T09:21:39.000Z</time>
      </trkpt>
      <trkpt lat="47.59642" lon="5.93366">
        <ele>253.60000610352</ele>
        <time>2014-02-02T09:21:41.000Z</time>
      </trkpt>
      <trkpt lat="47.59656" lon="5.93355">
        <ele>255.60000610352</ele>
        <time>2014-02-02T09:21:51.000Z</time>
      </trkpt>
      <trkpt lat="47.59658" lon="5.93354">
        <ele>255.60000610352</ele>
        <time>2014-02-02T09:21:52.000Z</time>
      </trkpt>
      <trkpt lat="47.59663" lon="5.93341">
        <ele>255.60000610352</ele>
        <time>2014-02-02T09:21:57.000Z</time>
      </trkpt>
      <trkpt lat="47.5967" lon="5.93328">
        <ele>255.60000610352</ele>
        <time>2014-02-02T09:22:03.000Z</time>
      </trkpt>
      <trkpt lat="47.59671" lon="5.93326">
        <ele>255.60000610352</ele>
        <time>2014-02-02T09:22:04.000Z</time>
      </trkpt>
      <trkpt lat="47.59671" lon="5.93332">
        <ele>255.60000610352</ele>
        <time>2014-02-02T09:23:17.000Z</time>
      </trkpt>
      <trkpt lat="47.5967" lon="5.93335">
        <ele>255.60000610352</ele>
        <time>2014-02-02T09:23:19.000Z</time>
      </trkpt>
      <trkpt lat="47.59668" lon="5.93339">
        <ele>255.60000610352</ele>
        <time>2014-02-02T09:23:21.000Z</time>
      </trkpt>
      <trkpt lat="47.59667" lon="5.93343">
        <ele>255.60000610352</ele>
        <time>2014-02-02T09:23:23.000Z</time>
      </trkpt>
      <trkpt lat="47.59664" lon="5.93343">
        <ele>255.60000610352</ele>
        <time>2014-02-02T09:23:58.000Z</time>
      </trkpt>
      <trkpt lat="47.59667" lon="5.93332">
        <ele>255.60000610352</ele>
        <time>2014-02-02T09:24:02.000Z</time>
      </trkpt>
      <trkpt lat="47.59668" lon="5.9333">
        <ele>255.60000610352</ele>
        <time>2014-02-02T09:24:03.000Z</time>
      </trkpt>
      <trkpt lat="47.59672" lon="5.93317">
        <ele>255.60000610352</ele>
        <time>2014-02-02T09:24:09.000Z</time>
      </trkpt>
      <trkpt lat="47.59677" lon="5.93301">
        <ele>255.60000610352</ele>
        <time>2014-02-02T09:24:16.000Z</time>
      </trkpt>
      <trkpt lat="47.59678" lon="5.93299">
        <ele>255.60000610352</ele>
        <time>2014-02-02T09:24:17.000Z</time>
      </trkpt>
      <trkpt lat="47.59682" lon="5.93287">
        <ele>255.60000610352</ele>
        <time>2014-02-02T09:24:23.000Z</time>
      </trkpt>
      <trkpt lat="47.59686" lon="5.93274">
        <ele>255.60000610352</ele>
        <time>2014-02-02T09:24:29.000Z</time>
      </trkpt>
      <trkpt lat="47.59686" lon="5.93271">
        <ele>255.60000610352</ele>
        <time>2014-02-02T09:24:30.000Z</time>
      </trkpt>
      <trkpt lat="47.59688" lon="5.93257">
        <ele>255.60000610352</ele>
        <time>2014-02-02T09:24:36.000Z</time>
      </trkpt>
      <trkpt lat="47.5969" lon="5.93244">
        <ele>255.60000610352</ele>
        <time>2014-02-02T09:24:41.000Z</time>
      </trkpt>
      <trkpt lat="47.59691" lon="5.93241">
        <ele>255.60000610352</ele>
        <time>2014-02-02T09:24:42.000Z</time>
      </trkpt>
      <trkpt lat="47.59695" lon="5.93222">
        <ele>255.60000610352</ele>
        <time>2014-02-02T09:24:50.000Z</time>
      </trkpt>
      <trkpt lat="47.59697" lon="5.93205">
        <ele>255.60000610352</ele>
        <time>2014-02-02T09:24:58.000Z</time>
      </trkpt>
      <trkpt lat="47.597" lon="5.93195">
        <ele>255.60000610352</ele>
        <time>2014-02-02T09:25:03.000Z</time>
      </trkpt>
      <trkpt lat="47.59701" lon="5.93193">
        <ele>255.60000610352</ele>
        <time>2014-02-02T09:25:04.000Z</time>
      </trkpt>
      <trkpt lat="47.59701" lon="5.93189">
        <ele>255.60000610352</ele>
        <time>2014-02-02T09:25:06.000Z</time>
      </trkpt>
      <trkpt lat="47.59702" lon="5.93187">
        <ele>255.60000610352</ele>
        <time>2014-02-02T09:25:07.000Z</time>
      </trkpt>
      <trkpt lat="47.59703" lon="5.93183">
        <ele>255.60000610352</ele>
        <time>2014-02-02T09:25:09.000Z</time>
      </trkpt>
      <trkpt lat="47.59708" lon="5.93167">
        <ele>255.60000610352</ele>
        <time>2014-02-02T09:25:16.000Z</time>
      </trkpt>
      <trkpt lat="47.5971" lon="5.93159">
        <ele>255.60000610352</ele>
        <time>2014-02-02T09:25:20.000Z</time>
      </trkpt>
      <trkpt lat="47.59711" lon="5.93155">
        <ele>255.60000610352</ele>
        <time>2014-02-02T09:25:22.000Z</time>
      </trkpt>
      <trkpt lat="47.59713" lon="5.93151">
        <ele>255.60000610352</ele>
        <time>2014-02-02T09:25:24.000Z</time>
      </trkpt>
      <trkpt lat="47.59714" lon="5.93149">
        <ele>255.60000610352</ele>
        <time>2014-02-02T09:25:25.000Z</time>
      </trkpt>
      <trkpt lat="47.59715" lon="5.93146">
        <ele>255.60000610352</ele>
        <time>2014-02-02T09:25:27.000Z</time>
      </trkpt>
      <trkpt lat="47.59717" lon="5.93142">
        <ele>255.60000610352</ele>
        <time>2014-02-02T09:25:29.000Z</time>
      </trkpt>
      <trkpt lat="47.59721" lon="5.9313">
        <ele>255.60000610352</ele>
        <time>2014-02-02T09:25:35.000Z</time>
      </trkpt>
      <trkpt lat="47.59722" lon="5.93128">
        <ele>255.60000610352</ele>
        <time>2014-02-02T09:25:36.000Z</time>
      </trkpt>
      <trkpt lat="47.59724" lon="5.93124">
        <ele>255.60000610352</ele>
        <time>2014-02-02T09:25:38.000Z</time>
      </trkpt>
      <trkpt lat="47.59729" lon="5.93108">
        <ele>255.60000610352</ele>
        <time>2014-02-02T09:25:45.000Z</time>
      </trkpt>
      <trkpt lat="47.59731" lon="5.93101">
        <ele>255.60000610352</ele>
        <time>2014-02-02T09:25:49.000Z</time>
      </trkpt>
      <trkpt lat="47.59732" lon="5.93097">
        <ele>255.60000610352</ele>
        <time>2014-02-02T09:25:51.000Z</time>
      </trkpt>
      <trkpt lat="47.59733" lon="5.93095">
        <ele>255.60000610352</ele>
        <time>2014-02-02T09:25:52.000Z</time>
      </trkpt>
      <trkpt lat="47.59738" lon="5.93081">
        <ele>255.60000610352</ele>
        <time>2014-02-02T09:25:59.000Z</time>
      </trkpt>
      <trkpt lat="47.59743" lon="5.93067">
        <ele>255.19999694824</ele>
        <time>2014-02-02T09:26:06.000Z</time>
      </trkpt>
      <trkpt lat="47.59744" lon="5.93065">
        <ele>254.80000305176</ele>
        <time>2014-02-02T09:26:07.000Z</time>
      </trkpt>
      <trkpt lat="47.59745" lon="5.93062">
        <ele>254.39999389648</ele>
        <time>2014-02-02T09:26:08.000Z</time>
      </trkpt>
      <trkpt lat="47.59747" lon="5.9306">
        <ele>254</ele>
        <time>2014-02-02T09:26:09.000Z</time>
      </trkpt>
      <trkpt lat="47.59748" lon="5.93059">
        <ele>253.60000610352</ele>
        <time>2014-02-02T09:26:10.000Z</time>
      </trkpt>
      <trkpt lat="47.5975" lon="5.93054">
        <ele>253.60000610352</ele>
        <time>2014-02-02T09:26:13.000Z</time>
      </trkpt>
      <trkpt lat="47.59751" lon="5.93052">
        <ele>253.60000610352</ele>
        <time>2014-02-02T09:26:14.000Z</time>
      </trkpt>
      <trkpt lat="47.59753" lon="5.93047">
        <ele>253.60000610352</ele>
        <time>2014-02-02T09:26:17.000Z</time>
      </trkpt>
      <trkpt lat="47.59753" lon="5.93045">
        <ele>253.60000610352</ele>
        <time>2014-02-02T09:26:18.000Z</time>
      </trkpt>
      <trkpt lat="47.59754" lon="5.93038">
        <ele>253.60000610352</ele>
        <time>2014-02-02T09:26:21.000Z</time>
      </trkpt>
      <trkpt lat="47.59755" lon="5.93034">
        <ele>253.60000610352</ele>
        <time>2014-02-02T09:26:23.000Z</time>
      </trkpt>
      <trkpt lat="47.59756" lon="5.9303">
        <ele>253.60000610352</ele>
        <time>2014-02-02T09:26:25.000Z</time>
      </trkpt>
      <trkpt lat="47.59758" lon="5.93024">
        <ele>252.80000305176</ele>
        <time>2014-02-02T09:26:28.000Z</time>
      </trkpt>
      <trkpt lat="47.59759" lon="5.93021">
        <ele>252.39999389648</ele>
        <time>2014-02-02T09:26:29.000Z</time>
      </trkpt>
      <trkpt lat="47.5976" lon="5.93019">
        <ele>252</ele>
        <time>2014-02-02T09:26:30.000Z</time>
      </trkpt>
      <trkpt lat="47.59762" lon="5.93017">
        <ele>251.60000610352</ele>
        <time>2014-02-02T09:26:31.000Z</time>
      </trkpt>
      <trkpt lat="47.59764" lon="5.93015">
        <ele>251.60000610352</ele>
        <time>2014-02-02T09:26:33.000Z</time>
      </trkpt>
      <trkpt lat="47.59771" lon="5.93004">
        <ele>251.60000610352</ele>
        <time>2014-02-02T09:26:39.000Z</time>
      </trkpt>
      <trkpt lat="47.59775" lon="5.92994">
        <ele>251.19999694824</ele>
        <time>2014-02-02T09:26:43.000Z</time>
      </trkpt>
      <trkpt lat="47.59776" lon="5.92992">
        <ele>250.60000610352</ele>
        <time>2014-02-02T09:26:44.000Z</time>
      </trkpt>
      <trkpt lat="47.59777" lon="5.92989">
        <ele>250.19999694824</ele>
        <time>2014-02-02T09:26:45.000Z</time>
      </trkpt>
      <trkpt lat="47.59778" lon="5.92986">
        <ele>249.80000305176</ele>
        <time>2014-02-02T09:26:46.000Z</time>
      </trkpt>
      <trkpt lat="47.59778" lon="5.92983">
        <ele>249.39999389648</ele>
        <time>2014-02-02T09:26:47.000Z</time>
      </trkpt>
      <trkpt lat="47.59779" lon="5.92982">
        <ele>249.39999389648</ele>
        <time>2014-02-02T09:26:48.000Z</time>
      </trkpt>
      <trkpt lat="47.59782" lon="5.92977">
        <ele>249.39999389648</ele>
        <time>2014-02-02T09:26:50.000Z</time>
      </trkpt>
      <trkpt lat="47.59789" lon="5.92968">
        <ele>249</ele>
        <time>2014-02-02T09:26:54.000Z</time>
      </trkpt>
      <trkpt lat="47.5979" lon="5.92964">
        <ele>248.60000610352</ele>
        <time>2014-02-02T09:26:55.000Z</time>
      </trkpt>
      <trkpt lat="47.59792" lon="5.92961">
        <ele>248</ele>
        <time>2014-02-02T09:26:56.000Z</time>
      </trkpt>
      <trkpt lat="47.59794" lon="5.92958">
        <ele>247.60000610352</ele>
        <time>2014-02-02T09:26:57.000Z</time>
      </trkpt>
      <trkpt lat="47.59795" lon="5.92955">
        <ele>247.19999694824</ele>
        <time>2014-02-02T09:26:58.000Z</time>
      </trkpt>
      <trkpt lat="47.59803" lon="5.9294">
        <ele>246.80000305176</ele>
        <time>2014-02-02T09:27:03.000Z</time>
      </trkpt>
      <trkpt lat="47.59805" lon="5.92937">
        <ele>246.39999389648</ele>
        <time>2014-02-02T09:27:04.000Z</time>
      </trkpt>
      <trkpt lat="47.59807" lon="5.92935">
        <ele>245.39999389648</ele>
        <time>2014-02-02T09:27:05.000Z</time>
      </trkpt>
      <trkpt lat="47.59808" lon="5.92933">
        <ele>245</ele>
        <time>2014-02-02T09:27:06.000Z</time>
      </trkpt>
      <trkpt lat="47.59812" lon="5.92927">
        <ele>245</ele>
        <time>2014-02-02T09:27:09.000Z</time>
      </trkpt>
      <trkpt lat="47.59816" lon="5.92918">
        <ele>244.60000610352</ele>
        <time>2014-02-02T09:27:12.000Z</time>
      </trkpt>
      <trkpt lat="47.59817" lon="5.92916">
        <ele>244.19999694824</ele>
        <time>2014-02-02T09:27:13.000Z</time>
      </trkpt>
      <trkpt lat="47.59819" lon="5.92914">
        <ele>243.80000305176</ele>
        <time>2014-02-02T09:27:14.000Z</time>
      </trkpt>
      <trkpt lat="47.5982" lon="5.92911">
        <ele>243.19999694824</ele>
        <time>2014-02-02T09:27:15.000Z</time>
      </trkpt>
      <trkpt lat="47.59822" lon="5.92909">
        <ele>242.80000305176</ele>
        <time>2014-02-02T09:27:16.000Z</time>
      </trkpt>
      <trkpt lat="47.59829" lon="5.92896">
        <ele>242.39999389648</ele>
        <time>2014-02-02T09:27:21.000Z</time>
      </trkpt>
      <trkpt lat="47.5983" lon="5.92893">
        <ele>242</ele>
        <time>2014-02-02T09:27:22.000Z</time>
      </trkpt>
      <trkpt lat="47.59831" lon="5.9289">
        <ele>241.60000610352</ele>
        <time>2014-02-02T09:27:23.000Z</time>
      </trkpt>
      <trkpt lat="47.59832" lon="5.92887">
        <ele>241.19999694824</ele>
        <time>2014-02-02T09:27:24.000Z</time>
      </trkpt>
      <trkpt lat="47.59833" lon="5.92884">
        <ele>240.80000305176</ele>
        <time>2014-02-02T09:27:25.000Z</time>
      </trkpt>
      <trkpt lat="47.59836" lon="5.92879">
        <ele>240.80000305176</ele>
        <time>2014-02-02T09:27:27.000Z</time>
      </trkpt>
      <trkpt lat="47.59839" lon="5.92872">
        <ele>240.39999389648</ele>
        <time>2014-02-02T09:27:29.000Z</time>
      </trkpt>
      <trkpt lat="47.59841" lon="5.9287">
        <ele>239.80000305176</ele>
        <time>2014-02-02T09:27:30.000Z</time>
      </trkpt>
      <trkpt lat="47.59842" lon="5.92867">
        <ele>239.39999389648</ele>
        <time>2014-02-02T09:27:31.000Z</time>
      </trkpt>
      <trkpt lat="47.59843" lon="5.92865">
        <ele>239</ele>
        <time>2014-02-02T09:27:32.000Z</time>
      </trkpt>
      <trkpt lat="47.59845" lon="5.92863">
        <ele>238.60000610352</ele>
        <time>2014-02-02T09:27:33.000Z</time>
      </trkpt>
      <trkpt lat="47.59846" lon="5.92862">
        <ele>238.60000610352</ele>
        <time>2014-02-02T09:27:34.000Z</time>
      </trkpt>
      <trkpt lat="47.59881" lon="5.928">
        <ele>236.60000610352</ele>
        <time>2014-02-02T09:29:11.000Z</time>
      </trkpt>
      <trkpt lat="47.59885" lon="5.92806">
        <ele>236.60000610352</ele>
        <time>2014-02-02T09:29:14.000Z</time>
      </trkpt>
      <trkpt lat="47.59892" lon="5.92819">
        <ele>236.60000610352</ele>
        <time>2014-02-02T09:29:19.000Z</time>
      </trkpt>
      <trkpt lat="47.59899" lon="5.92831">
        <ele>236.60000610352</ele>
        <time>2014-02-02T09:29:23.000Z</time>
      </trkpt>
      <trkpt lat="47.59901" lon="5.92834">
        <ele>236.60000610352</ele>
        <time>2014-02-02T09:29:24.000Z</time>
      </trkpt>
      <trkpt lat="47.59908" lon="5.92852">
        <ele>236.60000610352</ele>
        <time>2014-02-02T09:29:31.000Z</time>
      </trkpt>
      <trkpt lat="47.59914" lon="5.92866">
        <ele>236.60000610352</ele>
        <time>2014-02-02T09:29:36.000Z</time>
      </trkpt>
      <trkpt lat="47.59921" lon="5.92883">
        <ele>237</ele>
        <time>2014-02-02T09:29:42.000Z</time>
      </trkpt>
      <trkpt lat="47.59922" lon="5.92886">
        <ele>237.39999389648</ele>
        <time>2014-02-02T09:29:43.000Z</time>
      </trkpt>
      <trkpt lat="47.59923" lon="5.92889">
        <ele>237.80000305176</ele>
        <time>2014-02-02T09:29:44.000Z</time>
      </trkpt>
      <trkpt lat="47.59925" lon="5.92893">
        <ele>238.19999694824</ele>
        <time>2014-02-02T09:29:45.000Z</time>
      </trkpt>
      <trkpt lat="47.59926" lon="5.92896">
        <ele>238.60000610352</ele>
        <time>2014-02-02T09:29:46.000Z</time>
      </trkpt>
      <trkpt lat="47.59932" lon="5.92909">
        <ele>238.60000610352</ele>
        <time>2014-02-02T09:29:48.000Z</time>
      </trkpt>
      <trkpt lat="47.59943" lon="5.92935">
        <ele>238.60000610352</ele>
        <time>2014-02-02T09:29:59.000Z</time>
      </trkpt>
      <trkpt lat="47.59946" lon="5.92941">
        <ele>239</ele>
        <time>2014-02-02T09:30:01.000Z</time>
      </trkpt>
      <trkpt lat="47.59947" lon="5.92944">
        <ele>239.39999389648</ele>
        <time>2014-02-02T09:30:02.000Z</time>
      </trkpt>
      <trkpt lat="47.59948" lon="5.92947">
        <ele>239.80000305176</ele>
        <time>2014-02-02T09:30:03.000Z</time>
      </trkpt>
      <trkpt lat="47.5995" lon="5.9295">
        <ele>240.19999694824</ele>
        <time>2014-02-02T09:30:04.000Z</time>
      </trkpt>
      <trkpt lat="47.59951" lon="5.92953">
        <ele>240.60000610352</ele>
        <time>2014-02-02T09:30:05.000Z</time>
      </trkpt>
      <trkpt lat="47.59961" lon="5.92977">
        <ele>240.60000610352</ele>
        <time>2014-02-02T09:30:12.000Z</time>
      </trkpt>
      <trkpt lat="47.59966" lon="5.92991">
        <ele>240.60000610352</ele>
        <time>2014-02-02T09:30:17.000Z</time>
      </trkpt>
      <trkpt lat="47.59974" lon="5.93009">
        <ele>241</ele>
        <time>2014-02-02T09:30:23.000Z</time>
      </trkpt>
      <trkpt lat="47.59975" lon="5.93012">
        <ele>241.39999389648</ele>
        <time>2014-02-02T09:30:24.000Z</time>
      </trkpt>
      <trkpt lat="47.59977" lon="5.93016">
        <ele>241.80000305176</ele>
        <time>2014-02-02T09:30:25.000Z</time>
      </trkpt>
      <trkpt lat="47.59978" lon="5.93018">
        <ele>242.19999694824</ele>
        <time>2014-02-02T09:30:26.000Z</time>
      </trkpt>
      <trkpt lat="47.5998" lon="5.93021">
        <ele>242.60000610352</ele>
        <time>2014-02-02T09:30:27.000Z</time>
      </trkpt>
      <trkpt lat="47.59988" lon="5.93039">
        <ele>242.60000610352</ele>
        <time>2014-02-02T09:30:33.000Z</time>
      </trkpt>
      <trkpt lat="47.59998" lon="5.93068">
        <ele>242.60000610352</ele>
        <time>2014-02-02T09:30:40.000Z</time>
      </trkpt>
      <trkpt lat="47.6001" lon="5.93097">
        <ele>242.60000610352</ele>
        <time>2014-02-02T09:30:52.000Z</time>
      </trkpt>
      <trkpt lat="47.60016" lon="5.93109">
        <ele>243</ele>
        <time>2014-02-02T09:30:56.000Z</time>
      </trkpt>
      <trkpt lat="47.60017" lon="5.93113">
        <ele>243.39999389648</ele>
        <time>2014-02-02T09:30:57.000Z</time>
      </trkpt>
      <trkpt lat="47.60019" lon="5.93116">
        <ele>243.80000305176</ele>
        <time>2014-02-02T09:30:58.000Z</time>
      </trkpt>
      <trkpt lat="47.6002" lon="5.9312">
        <ele>244.19999694824</ele>
        <time>2014-02-02T09:30:59.000Z</time>
      </trkpt>
      <trkpt lat="47.60022" lon="5.93123">
        <ele>244.60000610352</ele>
        <time>2014-02-02T09:31:00.000Z</time>
      </trkpt>
      <trkpt lat="47.60029" lon="5.93144">
        <ele>244.60000610352</ele>
        <time>2014-02-02T09:31:07.000Z</time>
      </trkpt>
      <trkpt lat="47.60036" lon="5.9316">
        <ele>244.60000610352</ele>
        <time>2014-02-02T09:31:12.000Z</time>
      </trkpt>
      <trkpt lat="47.60045" lon="5.9318">
        <ele>244.60000610352</ele>
        <time>2014-02-02T09:31:18.000Z</time>
      </trkpt>
      <trkpt lat="47.60055" lon="5.93206">
        <ele>244.60000610352</ele>
        <time>2014-02-02T09:31:25.000Z</time>
      </trkpt>
      <trkpt lat="47.60059" lon="5.93213">
        <ele>244.60000610352</ele>
        <time>2014-02-02T09:31:29.000Z</time>
      </trkpt>
      <trkpt lat="47.60063" lon="5.93218">
        <ele>244.60000610352</ele>
        <time>2014-02-02T09:32:01.000Z</time>
      </trkpt>
      <trkpt lat="47.60072" lon="5.93238">
        <ele>244.60000610352</ele>
        <time>2014-02-02T09:32:06.000Z</time>
      </trkpt>
      <trkpt lat="47.60085" lon="5.93268">
        <ele>244.60000610352</ele>
        <time>2014-02-02T09:32:12.000Z</time>
      </trkpt>
      <trkpt lat="47.60101" lon="5.93304">
        <ele>244.60000610352</ele>
        <time>2014-02-02T09:32:18.000Z</time>
      </trkpt>
      <trkpt lat="47.60119" lon="5.93352">
        <ele>244.60000610352</ele>
        <time>2014-02-02T09:32:26.000Z</time>
      </trkpt>
      <trkpt lat="47.60122" lon="5.93357">
        <ele>244.60000610352</ele>
        <time>2014-02-02T09:32:27.000Z</time>
      </trkpt>
      <trkpt lat="47.60128" lon="5.93372">
        <ele>244.60000610352</ele>
        <time>2014-02-02T09:32:30.000Z</time>
      </trkpt>
      <trkpt lat="47.6013" lon="5.93378">
        <ele>244.60000610352</ele>
        <time>2014-02-02T09:32:31.000Z</time>
      </trkpt>
      <trkpt lat="47.60134" lon="5.9339">
        <ele>244.60000610352</ele>
        <time>2014-02-02T09:32:33.000Z</time>
      </trkpt>
      <trkpt lat="47.60141" lon="5.93408">
        <ele>244.60000610352</ele>
        <time>2014-02-02T09:32:36.000Z</time>
      </trkpt>
      <trkpt lat="47.60156" lon="5.93446">
        <ele>244.60000610352</ele>
        <time>2014-02-02T09:32:43.000Z</time>
      </trkpt>
      <trkpt lat="47.60167" lon="5.93466">
        <ele>244.60000610352</ele>
        <time>2014-02-02T09:32:48.000Z</time>
      </trkpt>
      <trkpt lat="47.60175" lon="5.93483">
        <ele>244.60000610352</ele>
        <time>2014-02-02T09:32:53.000Z</time>
      </trkpt>
      <trkpt lat="47.60177" lon="5.93486">
        <ele>245</ele>
        <time>2014-02-02T09:32:54.000Z</time>
      </trkpt>
      <trkpt lat="47.60178" lon="5.9349">
        <ele>245.39999389648</ele>
        <time>2014-02-02T09:32:55.000Z</time>
      </trkpt>
      <trkpt lat="47.6018" lon="5.93493">
        <ele>245.80000305176</ele>
        <time>2014-02-02T09:32:56.000Z</time>
      </trkpt>
      <trkpt lat="47.60181" lon="5.93497">
        <ele>246.19999694824</ele>
        <time>2014-02-02T09:32:57.000Z</time>
      </trkpt>
      <trkpt lat="47.60183" lon="5.935">
        <ele>246.60000610352</ele>
        <time>2014-02-02T09:32:58.000Z</time>
      </trkpt>
      <trkpt lat="47.60184" lon="5.93504">
        <ele>246.60000610352</ele>
        <time>2014-02-02T09:32:59.000Z</time>
      </trkpt>
      <trkpt lat="47.60194" lon="5.93526">
        <ele>246.60000610352</ele>
        <time>2014-02-02T09:33:05.000Z</time>
      </trkpt>
      <trkpt lat="47.60205" lon="5.93549">
        <ele>246.60000610352</ele>
        <time>2014-02-02T09:33:12.000Z</time>
      </trkpt>
      <trkpt lat="47.60214" lon="5.93569">
        <ele>246.60000610352</ele>
        <time>2014-02-02T09:33:18.000Z</time>
      </trkpt>
      <trkpt lat="47.60226" lon="5.93597">
        <ele>246.60000610352</ele>
        <time>2014-02-02T09:33:26.000Z</time>
      </trkpt>
      <trkpt lat="47.60234" lon="5.93613">
        <ele>247</ele>
        <time>2014-02-02T09:33:30.000Z</time>
      </trkpt>
      <trkpt lat="47.60236" lon="5.93617">
        <ele>247.39999389648</ele>
        <time>2014-02-02T09:33:31.000Z</time>
      </trkpt>
      <trkpt lat="47.60237" lon="5.93621">
        <ele>247.80000305176</ele>
        <time>2014-02-02T09:33:32.000Z</time>
      </trkpt>
      <trkpt lat="47.60239" lon="5.93625">
        <ele>248.19999694824</ele>
        <time>2014-02-02T09:33:33.000Z</time>
      </trkpt>
      <trkpt lat="47.60241" lon="5.93629">
        <ele>248.60000610352</ele>
        <time>2014-02-02T09:33:34.000Z</time>
      </trkpt>
      <trkpt lat="47.60245" lon="5.93641">
        <ele>248.60000610352</ele>
        <time>2014-02-02T09:33:37.000Z</time>
      </trkpt>
      <trkpt lat="47.60254" lon="5.93664">
        <ele>248.60000610352</ele>
        <time>2014-02-02T09:33:44.000Z</time>
      </trkpt>
      <trkpt lat="47.6026" lon="5.93679">
        <ele>248.60000610352</ele>
        <time>2014-02-02T09:33:49.000Z</time>
      </trkpt>
      <trkpt lat="47.6027" lon="5.93701">
        <ele>248.60000610352</ele>
        <time>2014-02-02T09:33:56.000Z</time>
      </trkpt>
      <trkpt lat="47.60276" lon="5.93714">
        <ele>249</ele>
        <time>2014-02-02T09:34:00.000Z</time>
      </trkpt>
      <trkpt lat="47.60277" lon="5.93718">
        <ele>249.39999389648</ele>
        <time>2014-02-02T09:34:01.000Z</time>
      </trkpt>
      <trkpt lat="47.60279" lon="5.93722">
        <ele>249.80000305176</ele>
        <time>2014-02-02T09:34:02.000Z</time>
      </trkpt>
      <trkpt lat="47.6028" lon="5.93725">
        <ele>250.60000610352</ele>
        <time>2014-02-02T09:34:03.000Z</time>
      </trkpt>
      <trkpt lat="47.60288" lon="5.93741">
        <ele>250.60000610352</ele>
        <time>2014-02-02T09:34:08.000Z</time>
      </trkpt>
      <trkpt lat="47.60296" lon="5.93761">
        <ele>250.60000610352</ele>
        <time>2014-02-02T09:34:14.000Z</time>
      </trkpt>
      <trkpt lat="47.60307" lon="5.93787">
        <ele>251</ele>
        <time>2014-02-02T09:34:21.000Z</time>
      </trkpt>
      <trkpt lat="47.60309" lon="5.9379">
        <ele>251.39999389648</ele>
        <time>2014-02-02T09:34:22.000Z</time>
      </trkpt>
      <trkpt lat="47.60311" lon="5.93794">
        <ele>252</ele>
        <time>2014-02-02T09:34:23.000Z</time>
      </trkpt>
      <trkpt lat="47.60312" lon="5.93798">
        <ele>252.39999389648</ele>
        <time>2014-02-02T09:34:24.000Z</time>
      </trkpt>
      <trkpt lat="47.60313" lon="5.93802">
        <ele>252.80000305176</ele>
        <time>2014-02-02T09:34:25.000Z</time>
      </trkpt>
      <trkpt lat="47.60318" lon="5.93812">
        <ele>252.80000305176</ele>
        <time>2014-02-02T09:34:28.000Z</time>
      </trkpt>
      <trkpt lat="47.60326" lon="5.93835">
        <ele>252.80000305176</ele>
        <time>2014-02-02T09:34:35.000Z</time>
      </trkpt>
      <trkpt lat="47.60332" lon="5.93852">
        <ele>253.19999694824</ele>
        <time>2014-02-02T09:34:41.000Z</time>
      </trkpt>
      <trkpt lat="47.60332" lon="5.93855">
        <ele>253.60000610352</ele>
        <time>2014-02-02T09:34:42.000Z</time>
      </trkpt>
      <trkpt lat="47.60333" lon="5.93858">
        <ele>254</ele>
        <time>2014-02-02T09:34:43.000Z</time>
      </trkpt>
      <trkpt lat="47.60335" lon="5.9386">
        <ele>254.39999389648</ele>
        <time>2014-02-02T09:34:44.000Z</time>
      </trkpt>
      <trkpt lat="47.60336" lon="5.93862">
        <ele>254.80000305176</ele>
        <time>2014-02-02T09:34:45.000Z</time>
      </trkpt>
      <trkpt lat="47.60338" lon="5.93867">
        <ele>254.80000305176</ele>
        <time>2014-02-02T09:34:47.000Z</time>
      </trkpt>
      <trkpt lat="47.60347" lon="5.93886">
        <ele>254.80000305176</ele>
        <time>2014-02-02T09:34:54.000Z</time>
      </trkpt>
      <trkpt lat="47.60355" lon="5.93907">
        <ele>254.80000305176</ele>
        <time>2014-02-02T09:35:02.000Z</time>
      </trkpt>
      <trkpt lat="47.60363" lon="5.93922">
        <ele>255.19999694824</ele>
        <time>2014-02-02T09:35:08.000Z</time>
      </trkpt>
      <trkpt lat="47.60364" lon="5.93925">
        <ele>255.60000610352</ele>
        <time>2014-02-02T09:35:09.000Z</time>
      </trkpt>
      <trkpt lat="47.60365" lon="5.93928">
        <ele>256</ele>
        <time>2014-02-02T09:35:10.000Z</time>
      </trkpt>
      <trkpt lat="47.60366" lon="5.93931">
        <ele>256.39999389648</ele>
        <time>2014-02-02T09:35:11.000Z</time>
      </trkpt>
      <trkpt lat="47.60367" lon="5.93934">
        <ele>256.79998779297</ele>
        <time>2014-02-02T09:35:12.000Z</time>
      </trkpt>
      <trkpt lat="47.60368" lon="5.93936">
        <ele>256.79998779297</ele>
        <time>2014-02-02T09:35:13.000Z</time>
      </trkpt>
      <trkpt lat="47.6037" lon="5.93942">
        <ele>256.79998779297</ele>
        <time>2014-02-02T09:35:15.000Z</time>
      </trkpt>
      <trkpt lat="47.60375" lon="5.93955">
        <ele>256.79998779297</ele>
        <time>2014-02-02T09:35:19.000Z</time>
      </trkpt>
      <trkpt lat="47.6038" lon="5.93971">
        <ele>256.79998779297</ele>
        <time>2014-02-02T09:35:25.000Z</time>
      </trkpt>
      <trkpt lat="47.60386" lon="5.93987">
        <ele>256.79998779297</ele>
        <time>2014-02-02T09:35:31.000Z</time>
      </trkpt>
      <trkpt lat="47.60392" lon="5.94001">
        <ele>257.20001220703</ele>
        <time>2014-02-02T09:35:37.000Z</time>
      </trkpt>
      <trkpt lat="47.60393" lon="5.94002">
        <ele>257.60000610352</ele>
        <time>2014-02-02T09:35:38.000Z</time>
      </trkpt>
      <trkpt lat="47.60394" lon="5.94004">
        <ele>258</ele>
        <time>2014-02-02T09:35:39.000Z</time>
      </trkpt>
      <trkpt lat="47.60395" lon="5.94005">
        <ele>258.39999389648</ele>
        <time>2014-02-02T09:35:40.000Z</time>
      </trkpt>
      <trkpt lat="47.60396" lon="5.94007">
        <ele>259</ele>
        <time>2014-02-02T09:35:41.000Z</time>
      </trkpt>
      <trkpt lat="47.60397" lon="5.94009">
        <ele>259</ele>
        <time>2014-02-02T09:35:42.000Z</time>
      </trkpt>
      <trkpt lat="47.604" lon="5.94017">
        <ele>259</ele>
        <time>2014-02-02T09:35:45.000Z</time>
      </trkpt>
      <trkpt lat="47.60407" lon="5.94035">
        <ele>259</ele>
        <time>2014-02-02T09:35:53.000Z</time>
      </trkpt>
      <trkpt lat="47.60409" lon="5.94038">
        <ele>259.39999389648</ele>
        <time>2014-02-02T09:35:55.000Z</time>
      </trkpt>
      <trkpt lat="47.6041" lon="5.9404">
        <ele>259.79998779297</ele>
        <time>2014-02-02T09:35:56.000Z</time>
      </trkpt>
      <trkpt lat="47.60411" lon="5.94042">
        <ele>260.20001220703</ele>
        <time>2014-02-02T09:35:57.000Z</time>
      </trkpt>
      <trkpt lat="47.60411" lon="5.94044">
        <ele>260.60000610352</ele>
        <time>2014-02-02T09:35:58.000Z</time>
      </trkpt>
      <trkpt lat="47.60412" lon="5.94047">
        <ele>261</ele>
        <time>2014-02-02T09:35:59.000Z</time>
      </trkpt>
      <trkpt lat="47.60416" lon="5.94057">
        <ele>261</ele>
        <time>2014-02-02T09:36:04.000Z</time>
      </trkpt>
      <trkpt lat="47.60417" lon="5.94059">
        <ele>261</ele>
        <time>2014-02-02T09:36:05.000Z</time>
      </trkpt>
      <trkpt lat="47.60423" lon="5.94072">
        <ele>261</ele>
        <time>2014-02-02T09:36:11.000Z</time>
      </trkpt>
      <trkpt lat="47.60425" lon="5.94076">
        <ele>261.39999389648</ele>
        <time>2014-02-02T09:36:13.000Z</time>
      </trkpt>
      <trkpt lat="47.60425" lon="5.94079">
        <ele>261.79998779297</ele>
        <time>2014-02-02T09:36:14.000Z</time>
      </trkpt>
      <trkpt lat="47.60426" lon="5.94082">
        <ele>262.20001220703</ele>
        <time>2014-02-02T09:36:15.000Z</time>
      </trkpt>
      <trkpt lat="47.60427" lon="5.94084">
        <ele>262.60000610352</ele>
        <time>2014-02-02T09:36:16.000Z</time>
      </trkpt>
      <trkpt lat="47.60428" lon="5.94088">
        <ele>263</ele>
        <time>2014-02-02T09:36:17.000Z</time>
      </trkpt>
      <trkpt lat="47.60433" lon="5.94102">
        <ele>263</ele>
        <time>2014-02-02T09:36:23.000Z</time>
      </trkpt>
      <trkpt lat="47.60436" lon="5.9411">
        <ele>263.39999389648</ele>
        <time>2014-02-02T09:36:27.000Z</time>
      </trkpt>
      <trkpt lat="47.60437" lon="5.94113">
        <ele>263.79998779297</ele>
        <time>2014-02-02T09:36:28.000Z</time>
      </trkpt>
      <trkpt lat="47.60438" lon="5.94115">
        <ele>264.20001220703</ele>
        <time>2014-02-02T09:36:29.000Z</time>
      </trkpt>
      <trkpt lat="47.60439" lon="5.94118">
        <ele>264.60000610352</ele>
        <time>2014-02-02T09:36:30.000Z</time>
      </trkpt>
      <trkpt lat="47.6044" lon="5.94119">
        <ele>265.20001220703</ele>
        <time>2014-02-02T09:36:31.000Z</time>
      </trkpt>
      <trkpt lat="47.60443" lon="5.94126">
        <ele>265.20001220703</ele>
        <time>2014-02-02T09:36:34.000Z</time>
      </trkpt>
      <trkpt lat="47.60451" lon="5.94144">
        <ele>265.20001220703</ele>
        <time>2014-02-02T09:36:42.000Z</time>
      </trkpt>
      <trkpt lat="47.60454" lon="5.94153">
        <ele>265.60000610352</ele>
        <time>2014-02-02T09:36:46.000Z</time>
      </trkpt>
      <trkpt lat="47.60456" lon="5.94156">
        <ele>266</ele>
        <time>2014-02-02T09:36:47.000Z</time>
      </trkpt>
      <trkpt lat="47.60457" lon="5.94158">
        <ele>266.39999389648</ele>
        <time>2014-02-02T09:36:48.000Z</time>
      </trkpt>
      <trkpt lat="47.60458" lon="5.94161">
        <ele>266.79998779297</ele>
        <time>2014-02-02T09:36:49.000Z</time>
      </trkpt>
      <trkpt lat="47.60459" lon="5.94164">
        <ele>267.20001220703</ele>
        <time>2014-02-02T09:36:50.000Z</time>
      </trkpt>
      <trkpt lat="47.60466" lon="5.94176">
        <ele>267.20001220703</ele>
        <time>2014-02-02T09:36:56.000Z</time>
      </trkpt>
      <trkpt lat="47.60471" lon="5.94187">
        <ele>267.20001220703</ele>
        <time>2014-02-02T09:37:02.000Z</time>
      </trkpt>
      <trkpt lat="47.60473" lon="5.94192">
        <ele>267.60000610352</ele>
        <time>2014-02-02T09:37:04.000Z</time>
      </trkpt>
      <trkpt lat="47.60474" lon="5.94194">
        <ele>268</ele>
        <time>2014-02-02T09:37:05.000Z</time>
      </trkpt>
      <trkpt lat="47.60474" lon="5.94196">
        <ele>268.60000610352</ele>
        <time>2014-02-02T09:37:06.000Z</time>
      </trkpt>
      <trkpt lat="47.60475" lon="5.94198">
        <ele>269</ele>
        <time>2014-02-02T09:37:07.000Z</time>
      </trkpt>
      <trkpt lat="47.60476" lon="5.94199">
        <ele>269.39999389648</ele>
        <time>2014-02-02T09:37:08.000Z</time>
      </trkpt>
      <trkpt lat="47.60477" lon="5.94201">
        <ele>269.39999389648</ele>
        <time>2014-02-02T09:37:09.000Z</time>
      </trkpt>
      <trkpt lat="47.60483" lon="5.94213">
        <ele>269.39999389648</ele>
        <time>2014-02-02T09:37:15.000Z</time>
      </trkpt>
      <trkpt lat="47.60483" lon="5.94215">
        <ele>269.39999389648</ele>
        <time>2014-02-02T09:37:16.000Z</time>
      </trkpt>
      <trkpt lat="47.60486" lon="5.94224">
        <ele>269.39999389648</ele>
        <time>2014-02-02T09:37:20.000Z</time>
      </trkpt>
      <trkpt lat="47.60489" lon="5.9423">
        <ele>269.39999389648</ele>
        <time>2014-02-02T09:37:23.000Z</time>
      </trkpt>
      <trkpt lat="47.60491" lon="5.94232">
        <ele>269.39999389648</ele>
        <time>2014-02-02T09:37:24.000Z</time>
      </trkpt>
      <trkpt lat="47.60493" lon="5.94236">
        <ele>269.79998779297</ele>
        <time>2014-02-02T09:37:26.000Z</time>
      </trkpt>
      <trkpt lat="47.60494" lon="5.94239">
        <ele>270.39999389648</ele>
        <time>2014-02-02T09:37:27.000Z</time>
      </trkpt>
      <trkpt lat="47.60495" lon="5.94241">
        <ele>270.79998779297</ele>
        <time>2014-02-02T09:37:28.000Z</time>
      </trkpt>
      <trkpt lat="47.60496" lon="5.94243">
        <ele>271.20001220703</ele>
        <time>2014-02-02T09:37:29.000Z</time>
      </trkpt>
      <trkpt lat="47.60496" lon="5.94245">
        <ele>271.60000610352</ele>
        <time>2014-02-02T09:37:30.000Z</time>
      </trkpt>
      <trkpt lat="47.60499" lon="5.94252">
        <ele>271.60000610352</ele>
        <time>2014-02-02T09:37:34.000Z</time>
      </trkpt>
      <trkpt lat="47.60502" lon="5.94258">
        <ele>271.60000610352</ele>
        <time>2014-02-02T09:37:38.000Z</time>
      </trkpt>
      <trkpt lat="47.60502" lon="5.94262">
        <ele>271.60000610352</ele>
        <time>2014-02-02T09:37:40.000Z</time>
      </trkpt>
      <trkpt lat="47.60503" lon="5.94264">
        <ele>271.60000610352</ele>
        <time>2014-02-02T09:37:41.000Z</time>
      </trkpt>
      <trkpt lat="47.60508" lon="5.94278">
        <ele>272.39999389648</ele>
        <time>2014-02-02T09:37:47.000Z</time>
      </trkpt>
      <trkpt lat="47.6051" lon="5.94282">
        <ele>272.79998779297</ele>
        <time>2014-02-02T09:37:48.000Z</time>
      </trkpt>
      <trkpt lat="47.60511" lon="5.94284">
        <ele>273.20001220703</ele>
        <time>2014-02-02T09:37:49.000Z</time>
      </trkpt>
      <trkpt lat="47.60512" lon="5.94286">
        <ele>273.60000610352</ele>
        <time>2014-02-02T09:37:50.000Z</time>
      </trkpt>
      <trkpt lat="47.60516" lon="5.94297">
        <ele>273.60000610352</ele>
        <time>2014-02-02T09:37:54.000Z</time>
      </trkpt>
      <trkpt lat="47.60523" lon="5.94312">
        <ele>274.20001220703</ele>
        <time>2014-02-02T09:38:01.000Z</time>
      </trkpt>
      <trkpt lat="47.60524" lon="5.94315">
        <ele>274.60000610352</ele>
        <time>2014-02-02T09:38:02.000Z</time>
      </trkpt>
      <trkpt lat="47.60525" lon="5.94318">
        <ele>275.20001220703</ele>
        <time>2014-02-02T09:38:03.000Z</time>
      </trkpt>
      <trkpt lat="47.60526" lon="5.9432">
        <ele>275.60000610352</ele>
        <time>2014-02-02T09:38:04.000Z</time>
      </trkpt>
      <trkpt lat="47.60528" lon="5.94324">
        <ele>276</ele>
        <time>2014-02-02T09:38:05.000Z</time>
      </trkpt>
      <trkpt lat="47.6053" lon="5.94329">
        <ele>276</ele>
        <time>2014-02-02T09:38:07.000Z</time>
      </trkpt>
      <trkpt lat="47.60541" lon="5.9435">
        <ele>276</ele>
        <time>2014-02-02T09:38:15.000Z</time>
      </trkpt>
      <trkpt lat="47.6055" lon="5.94374">
        <ele>276</ele>
        <time>2014-02-02T09:38:24.000Z</time>
      </trkpt>
      <trkpt lat="47.6056" lon="5.94395">
        <ele>276</ele>
        <time>2014-02-02T09:38:31.000Z</time>
      </trkpt>
      <trkpt lat="47.60568" lon="5.94409">
        <ele>276</ele>
        <time>2014-02-02T09:38:36.000Z</time>
      </trkpt>
      <trkpt lat="47.60574" lon="5.94427">
        <ele>276</ele>
        <time>2014-02-02T09:38:41.000Z</time>
      </trkpt>
      <trkpt lat="47.60576" lon="5.9443">
        <ele>276</ele>
        <time>2014-02-02T09:38:42.000Z</time>
      </trkpt>
      <trkpt lat="47.60581" lon="5.94442">
        <ele>276</ele>
        <time>2014-02-02T09:38:45.000Z</time>
      </trkpt>
      <trkpt lat="47.60591" lon="5.9446">
        <ele>276</ele>
        <time>2014-02-02T09:38:50.000Z</time>
      </trkpt>
      <trkpt lat="47.60594" lon="5.94461">
        <ele>276</ele>
        <time>2014-02-02T09:38:52.000Z</time>
      </trkpt>
      <trkpt lat="47.60597" lon="5.94458">
        <ele>276</ele>
        <time>2014-02-02T09:38:54.000Z</time>
      </trkpt>
      <trkpt lat="47.60597" lon="5.94456">
        <ele>276</ele>
        <time>2014-02-02T09:38:55.000Z</time>
      </trkpt>
      <trkpt lat="47.60601" lon="5.94453">
        <ele>276</ele>
        <time>2014-02-02T09:38:59.000Z</time>
      </trkpt>
      <trkpt lat="47.60605" lon="5.94448">
        <ele>276</ele>
        <time>2014-02-02T09:39:03.000Z</time>
      </trkpt>
      <trkpt lat="47.60606" lon="5.94446">
        <ele>276</ele>
        <time>2014-02-02T09:39:04.000Z</time>
      </trkpt>
      <trkpt lat="47.60607" lon="5.94445">
        <ele>276</ele>
        <time>2014-02-02T09:39:05.000Z</time>
      </trkpt>
      <trkpt lat="47.60614" lon="5.94439">
        <ele>276</ele>
        <time>2014-02-02T09:39:10.000Z</time>
      </trkpt>
      <trkpt lat="47.60624" lon="5.94431">
        <ele>276</ele>
        <time>2014-02-02T09:39:15.000Z</time>
      </trkpt>
      <trkpt lat="47.60638" lon="5.94415">
        <ele>276</ele>
        <time>2014-02-02T09:39:20.000Z</time>
      </trkpt>
      <trkpt lat="47.60651" lon="5.94403">
        <ele>275.60000610352</ele>
        <time>2014-02-02T09:39:23.000Z</time>
      </trkpt>
      <trkpt lat="47.60656" lon="5.94399">
        <ele>275.20001220703</ele>
        <time>2014-02-02T09:39:24.000Z</time>
      </trkpt>
      <trkpt lat="47.60661" lon="5.94394">
        <ele>274.79998779297</ele>
        <time>2014-02-02T09:39:25.000Z</time>
      </trkpt>
      <trkpt lat="47.60668" lon="5.9439">
        <ele>274</ele>
        <time>2014-02-02T09:39:26.000Z</time>
      </trkpt>
      <trkpt lat="47.6068" lon="5.94379">
        <ele>273.60000610352</ele>
        <time>2014-02-02T09:39:28.000Z</time>
      </trkpt>
      <trkpt lat="47.60686" lon="5.94373">
        <ele>273.20001220703</ele>
        <time>2014-02-02T09:39:29.000Z</time>
      </trkpt>
      <trkpt lat="47.60694" lon="5.94367">
        <ele>272.79998779297</ele>
        <time>2014-02-02T09:39:30.000Z</time>
      </trkpt>
      <trkpt lat="47.60701" lon="5.94361">
        <ele>272.39999389648</ele>
        <time>2014-02-02T09:39:31.000Z</time>
      </trkpt>
      <trkpt lat="47.60709" lon="5.94353">
        <ele>271.79998779297</ele>
        <time>2014-02-02T09:39:32.000Z</time>
      </trkpt>
      <trkpt lat="47.60717" lon="5.94345">
        <ele>271.39999389648</ele>
        <time>2014-02-02T09:39:33.000Z</time>
      </trkpt>
      <trkpt lat="47.60726" lon="5.94337">
        <ele>270.79998779297</ele>
        <time>2014-02-02T09:39:34.000Z</time>
      </trkpt>
      <trkpt lat="47.60735" lon="5.94329">
        <ele>270</ele>
        <time>2014-02-02T09:39:35.000Z</time>
      </trkpt>
      <trkpt lat="47.60743" lon="5.9432">
        <ele>269.39999389648</ele>
        <time>2014-02-02T09:39:36.000Z</time>
      </trkpt>
      <trkpt lat="47.60752" lon="5.94312">
        <ele>268.60000610352</ele>
        <time>2014-02-02T09:39:37.000Z</time>
      </trkpt>
      <trkpt lat="47.60762" lon="5.94303">
        <ele>267.79998779297</ele>
        <time>2014-02-02T09:39:38.000Z</time>
      </trkpt>
      <trkpt lat="47.60771" lon="5.94295">
        <ele>267.20001220703</ele>
        <time>2014-02-02T09:39:39.000Z</time>
      </trkpt>
      <trkpt lat="47.60779" lon="5.94287">
        <ele>266.60000610352</ele>
        <time>2014-02-02T09:39:40.000Z</time>
      </trkpt>
      <trkpt lat="47.60788" lon="5.94279">
        <ele>266</ele>
        <time>2014-02-02T09:39:41.000Z</time>
      </trkpt>
      <trkpt lat="47.60796" lon="5.94271">
        <ele>265.39999389648</ele>
        <time>2014-02-02T09:39:42.000Z</time>
      </trkpt>
      <trkpt lat="47.60805" lon="5.94264">
        <ele>264.79998779297</ele>
        <time>2014-02-02T09:39:43.000Z</time>
      </trkpt>
      <trkpt lat="47.60828" lon="5.94244">
        <ele>264.39999389648</ele>
        <time>2014-02-02T09:39:46.000Z</time>
      </trkpt>
      <trkpt lat="47.60835" lon="5.94237">
        <ele>264</ele>
        <time>2014-02-02T09:39:47.000Z</time>
      </trkpt>
      <trkpt lat="47.60841" lon="5.94232">
        <ele>263.60000610352</ele>
        <time>2014-02-02T09:39:48.000Z</time>
      </trkpt>
      <trkpt lat="47.60847" lon="5.94227">
        <ele>263.20001220703</ele>
        <time>2014-02-02T09:39:49.000Z</time>
      </trkpt>
      <trkpt lat="47.60852" lon="5.94222">
        <ele>262.79998779297</ele>
        <time>2014-02-02T09:39:50.000Z</time>
      </trkpt>
      <trkpt lat="47.60857" lon="5.94218">
        <ele>262.79998779297</ele>
        <time>2014-02-02T09:39:51.000Z</time>
      </trkpt>
      <trkpt lat="47.60861" lon="5.94214">
        <ele>262.79998779297</ele>
        <time>2014-02-02T09:39:52.000Z</time>
      </trkpt>
      <trkpt lat="47.60872" lon="5.94204">
        <ele>262.79998779297</ele>
        <time>2014-02-02T09:39:55.000Z</time>
      </trkpt>
      <trkpt lat="47.60886" lon="5.94192">
        <ele>263.20001220703</ele>
        <time>2014-02-02T09:40:00.000Z</time>
      </trkpt>
      <trkpt lat="47.60888" lon="5.9419">
        <ele>263.60000610352</ele>
        <time>2014-02-02T09:40:01.000Z</time>
      </trkpt>
      <trkpt lat="47.6089" lon="5.94189">
        <ele>264</ele>
        <time>2014-02-02T09:40:02.000Z</time>
      </trkpt>
      <trkpt lat="47.60892" lon="5.94187">
        <ele>264.39999389648</ele>
        <time>2014-02-02T09:40:03.000Z</time>
      </trkpt>
      <trkpt lat="47.60893" lon="5.94185">
        <ele>264.79998779297</ele>
        <time>2014-02-02T09:40:04.000Z</time>
      </trkpt>
      <trkpt lat="47.60893" lon="5.94183">
        <ele>264.79998779297</ele>
        <time>2014-02-02T09:40:05.000Z</time>
      </trkpt>
      <trkpt lat="47.60895" lon="5.94182">
        <ele>264.79998779297</ele>
        <time>2014-02-02T09:40:06.000Z</time>
      </trkpt>
      <trkpt lat="47.60899" lon="5.94178">
        <ele>264.79998779297</ele>
        <time>2014-02-02T09:40:09.000Z</time>
      </trkpt>
      <trkpt lat="47.60902" lon="5.94175">
        <ele>265.20001220703</ele>
        <time>2014-02-02T09:40:11.000Z</time>
      </trkpt>
      <trkpt lat="47.60903" lon="5.94173">
        <ele>265.60000610352</ele>
        <time>2014-02-02T09:40:12.000Z</time>
      </trkpt>
      <trkpt lat="47.60904" lon="5.94171">
        <ele>266.20001220703</ele>
        <time>2014-02-02T09:40:13.000Z</time>
      </trkpt>
      <trkpt lat="47.60905" lon="5.94171">
        <ele>266.60000610352</ele>
        <time>2014-02-02T09:40:14.000Z</time>
      </trkpt>
      <trkpt lat="47.60907" lon="5.94169">
        <ele>267</ele>
        <time>2014-02-02T09:40:15.000Z</time>
      </trkpt>
      <trkpt lat="47.60909" lon="5.94167">
        <ele>267</ele>
        <time>2014-02-02T09:40:17.000Z</time>
      </trkpt>
      <trkpt lat="47.60911" lon="5.94167">
        <ele>267</ele>
        <time>2014-02-02T09:40:18.000Z</time>
      </trkpt>
      <trkpt lat="47.60913" lon="5.94167">
        <ele>267</ele>
        <time>2014-02-02T09:40:19.000Z</time>
      </trkpt>
      <trkpt lat="47.60916" lon="5.94162">
        <ele>267.39999389648</ele>
        <time>2014-02-02T09:40:22.000Z</time>
      </trkpt>
      <trkpt lat="47.60917" lon="5.9416">
        <ele>267.79998779297</ele>
        <time>2014-02-02T09:40:23.000Z</time>
      </trkpt>
      <trkpt lat="47.60919" lon="5.94159">
        <ele>268.20001220703</ele>
        <time>2014-02-02T09:40:24.000Z</time>
      </trkpt>
      <trkpt lat="47.6092" lon="5.94158">
        <ele>268.60000610352</ele>
        <time>2014-02-02T09:40:25.000Z</time>
      </trkpt>
      <trkpt lat="47.60922" lon="5.94158">
        <ele>269</ele>
        <time>2014-02-02T09:40:26.000Z</time>
      </trkpt>
      <trkpt lat="47.60923" lon="5.94157">
        <ele>269</ele>
        <time>2014-02-02T09:40:27.000Z</time>
      </trkpt>
      <trkpt lat="47.60924" lon="5.94155">
        <ele>269</ele>
        <time>2014-02-02T09:40:28.000Z</time>
      </trkpt>
      <trkpt lat="47.60925" lon="5.94151">
        <ele>269</ele>
        <time>2014-02-02T09:40:29.000Z</time>
      </trkpt>
      <trkpt lat="47.60931" lon="5.94147">
        <ele>269</ele>
        <time>2014-02-02T09:40:32.000Z</time>
      </trkpt>
      <trkpt lat="47.60932" lon="5.94145">
        <ele>269.39999389648</ele>
        <time>2014-02-02T09:40:33.000Z</time>
      </trkpt>
      <trkpt lat="47.60934" lon="5.94144">
        <ele>269.79998779297</ele>
        <time>2014-02-02T09:40:34.000Z</time>
      </trkpt>
      <trkpt lat="47.60934" lon="5.94141">
        <ele>270.20001220703</ele>
        <time>2014-02-02T09:40:35.000Z</time>
      </trkpt>
      <trkpt lat="47.60936" lon="5.9414">
        <ele>270.60000610352</ele>
        <time>2014-02-02T09:40:36.000Z</time>
      </trkpt>
      <trkpt lat="47.60938" lon="5.94141">
        <ele>271.20001220703</ele>
        <time>2014-02-02T09:40:37.000Z</time>
      </trkpt>
      <trkpt lat="47.60942" lon="5.94138">
        <ele>271.20001220703</ele>
        <time>2014-02-02T09:40:39.000Z</time>
      </trkpt>
      <trkpt lat="47.60944" lon="5.94135">
        <ele>271.20001220703</ele>
        <time>2014-02-02T09:40:41.000Z</time>
      </trkpt>
      <trkpt lat="47.60946" lon="5.94134">
        <ele>271.20001220703</ele>
        <time>2014-02-02T09:40:42.000Z</time>
      </trkpt>
      <trkpt lat="47.60946" lon="5.94133">
        <ele>271.20001220703</ele>
        <time>2014-02-02T09:40:43.000Z</time>
      </trkpt>
      <trkpt lat="47.60949" lon="5.94132">
        <ele>271.20001220703</ele>
        <time>2014-02-02T09:40:45.000Z</time>
      </trkpt>
      <trkpt lat="47.6095" lon="5.94131">
        <ele>271.20001220703</ele>
        <time>2014-02-02T09:40:46.000Z</time>
      </trkpt>
      <trkpt lat="47.60959" lon="5.94123">
        <ele>273.20001220703</ele>
        <time>2014-02-02T09:40:53.000Z</time>
      </trkpt>
      <trkpt lat="47.60963" lon="5.94119">
        <ele>273.20001220703</ele>
        <time>2014-02-02T09:40:56.000Z</time>
      </trkpt>
      <trkpt lat="47.60971" lon="5.94113">
        <ele>273.20001220703</ele>
        <time>2014-02-02T09:41:02.000Z</time>
      </trkpt>
      <trkpt lat="47.60973" lon="5.94111">
        <ele>273.60000610352</ele>
        <time>2014-02-02T09:41:04.000Z</time>
      </trkpt>
      <trkpt lat="47.60976" lon="5.94108">
        <ele>274.60000610352</ele>
        <time>2014-02-02T09:41:06.000Z</time>
      </trkpt>
      <trkpt lat="47.60977" lon="5.94106">
        <ele>275</ele>
        <time>2014-02-02T09:41:07.000Z</time>
      </trkpt>
      <trkpt lat="47.60978" lon="5.94105">
        <ele>275.39999389648</ele>
        <time>2014-02-02T09:41:08.000Z</time>
      </trkpt>
      <trkpt lat="47.60982" lon="5.94102">
        <ele>275.39999389648</ele>
        <time>2014-02-02T09:41:11.000Z</time>
      </trkpt>
      <trkpt lat="47.60983" lon="5.94101">
        <ele>275.39999389648</ele>
        <time>2014-02-02T09:41:12.000Z</time>
      </trkpt>
      <trkpt lat="47.60984" lon="5.941">
        <ele>275.39999389648</ele>
        <time>2014-02-02T09:41:13.000Z</time>
      </trkpt>
      <trkpt lat="47.60987" lon="5.94099">
        <ele>275.39999389648</ele>
        <time>2014-02-02T09:41:15.000Z</time>
      </trkpt>
      <trkpt lat="47.6099" lon="5.94096">
        <ele>275.39999389648</ele>
        <time>2014-02-02T09:41:18.000Z</time>
      </trkpt>
      <trkpt lat="47.60993" lon="5.94093">
        <ele>275.39999389648</ele>
        <time>2014-02-02T09:41:20.000Z</time>
      </trkpt>
      <trkpt lat="47.60999" lon="5.94087">
        <ele>275.79998779297</ele>
        <time>2014-02-02T09:41:22.000Z</time>
      </trkpt>
      <trkpt lat="47.61002" lon="5.94087">
        <ele>276.20001220703</ele>
        <time>2014-02-02T09:41:23.000Z</time>
      </trkpt>
      <trkpt lat="47.61003" lon="5.94082">
        <ele>276.79998779297</ele>
        <time>2014-02-02T09:41:24.000Z</time>
      </trkpt>
      <trkpt lat="47.61004" lon="5.94079">
        <ele>277.20001220703</ele>
        <time>2014-02-02T09:41:25.000Z</time>
      </trkpt>
      <trkpt lat="47.61007" lon="5.94079">
        <ele>277.60000610352</ele>
        <time>2014-02-02T09:41:26.000Z</time>
      </trkpt>
      <trkpt lat="47.61011" lon="5.94073">
        <ele>277.60000610352</ele>
        <time>2014-02-02T09:41:29.000Z</time>
      </trkpt>
      <trkpt lat="47.61019" lon="5.94066">
        <ele>277.60000610352</ele>
        <time>2014-02-02T09:41:34.000Z</time>
      </trkpt>
      <trkpt lat="47.61021" lon="5.94065">
        <ele>277.60000610352</ele>
        <time>2014-02-02T09:41:35.000Z</time>
      </trkpt>
      <trkpt lat="47.61023" lon="5.94063">
        <ele>277.60000610352</ele>
        <time>2014-02-02T09:41:36.000Z</time>
      </trkpt>
      <trkpt lat="47.61037" lon="5.94047">
        <ele>277.60000610352</ele>
        <time>2014-02-02T09:41:42.000Z</time>
      </trkpt>
      <trkpt lat="47.61056" lon="5.9403">
        <ele>277.60000610352</ele>
        <time>2014-02-02T09:41:48.000Z</time>
      </trkpt>
      <trkpt lat="47.61076" lon="5.94015">
        <ele>277.60000610352</ele>
        <time>2014-02-02T09:41:54.000Z</time>
      </trkpt>
      <trkpt lat="47.61102" lon="5.9399">
        <ele>277.60000610352</ele>
        <time>2014-02-02T09:42:01.000Z</time>
      </trkpt>
      <trkpt lat="47.61136" lon="5.93963">
        <ele>277.60000610352</ele>
        <time>2014-02-02T09:42:10.000Z</time>
      </trkpt>
      <trkpt lat="47.6116" lon="5.93942">
        <ele>277.60000610352</ele>
        <time>2014-02-02T09:42:17.000Z</time>
      </trkpt>
      <trkpt lat="47.61175" lon="5.93929">
        <ele>277.60000610352</ele>
        <time>2014-02-02T09:42:21.000Z</time>
      </trkpt>
      <trkpt lat="47.61179" lon="5.93926">
        <ele>277.60000610352</ele>
        <time>2014-02-02T09:42:22.000Z</time>
      </trkpt>
      <trkpt lat="47.61196" lon="5.93911">
        <ele>277.60000610352</ele>
        <time>2014-02-02T09:42:27.000Z</time>
      </trkpt>
      <trkpt lat="47.61224" lon="5.93886">
        <ele>277.60000610352</ele>
        <time>2014-02-02T09:42:35.000Z</time>
      </trkpt>
      <trkpt lat="47.61243" lon="5.93867">
        <ele>277.60000610352</ele>
        <time>2014-02-02T09:42:41.000Z</time>
      </trkpt>
      <trkpt lat="47.61265" lon="5.93843">
        <ele>277.60000610352</ele>
        <time>2014-02-02T09:42:48.000Z</time>
      </trkpt>
      <trkpt lat="47.61281" lon="5.93827">
        <ele>277.60000610352</ele>
        <time>2014-02-02T09:42:53.000Z</time>
      </trkpt>
      <trkpt lat="47.61306" lon="5.93805">
        <ele>277.60000610352</ele>
        <time>2014-02-02T09:43:01.000Z</time>
      </trkpt>
      <trkpt lat="47.61328" lon="5.93786">
        <ele>277.60000610352</ele>
        <time>2014-02-02T09:43:08.000Z</time>
      </trkpt>
      <trkpt lat="47.61335" lon="5.9378">
        <ele>277.60000610352</ele>
        <time>2014-02-02T09:43:10.000Z</time>
      </trkpt>
      <trkpt lat="47.61347" lon="5.93769">
        <ele>277.60000610352</ele>
        <time>2014-02-02T09:43:13.000Z</time>
      </trkpt>
      <trkpt lat="47.61352" lon="5.93765">
        <ele>277.60000610352</ele>
        <time>2014-02-02T09:43:14.000Z</time>
      </trkpt>
      <trkpt lat="47.61376" lon="5.93744">
        <ele>277.60000610352</ele>
        <time>2014-02-02T09:43:20.000Z</time>
      </trkpt>
      <trkpt lat="47.61384" lon="5.93739">
        <ele>277.20001220703</ele>
        <time>2014-02-02T09:43:22.000Z</time>
      </trkpt>
      <trkpt lat="47.61387" lon="5.93737">
        <ele>276.79998779297</ele>
        <time>2014-02-02T09:43:23.000Z</time>
      </trkpt>
      <trkpt lat="47.6139" lon="5.93735">
        <ele>276.39999389648</ele>
        <time>2014-02-02T09:43:24.000Z</time>
      </trkpt>
      <trkpt lat="47.61394" lon="5.93733">
        <ele>276</ele>
        <time>2014-02-02T09:43:25.000Z</time>
      </trkpt>
      <trkpt lat="47.61398" lon="5.93731">
        <ele>275.60000610352</ele>
        <time>2014-02-02T09:43:26.000Z</time>
      </trkpt>
      <trkpt lat="47.61402" lon="5.93729">
        <ele>275.60000610352</ele>
        <time>2014-02-02T09:43:27.000Z</time>
      </trkpt>
      <trkpt lat="47.61417" lon="5.93723">
        <ele>275.60000610352</ele>
        <time>2014-02-02T09:43:30.000Z</time>
      </trkpt>
      <trkpt lat="47.61422" lon="5.9372">
        <ele>275.60000610352</ele>
        <time>2014-02-02T09:43:31.000Z</time>
      </trkpt>
      <trkpt lat="47.61452" lon="5.93706">
        <ele>275.20001220703</ele>
        <time>2014-02-02T09:43:37.000Z</time>
      </trkpt>
      <trkpt lat="47.61457" lon="5.93704">
        <ele>274.79998779297</ele>
        <time>2014-02-02T09:43:38.000Z</time>
      </trkpt>
      <trkpt lat="47.61462" lon="5.93703">
        <ele>274.39999389648</ele>
        <time>2014-02-02T09:43:39.000Z</time>
      </trkpt>
      <trkpt lat="47.61468" lon="5.93701">
        <ele>274</ele>
        <time>2014-02-02T09:43:40.000Z</time>
      </trkpt>
      <trkpt lat="47.61473" lon="5.937">
        <ele>273.39999389648</ele>
        <time>2014-02-02T09:43:41.000Z</time>
      </trkpt>
      <trkpt lat="47.61484" lon="5.93696">
        <ele>273.39999389648</ele>
        <time>2014-02-02T09:43:43.000Z</time>
      </trkpt>
      <trkpt lat="47.61515" lon="5.93685">
        <ele>273.39999389648</ele>
        <time>2014-02-02T09:43:49.000Z</time>
      </trkpt>
      <trkpt lat="47.6152" lon="5.93684">
        <ele>273.39999389648</ele>
        <time>2014-02-02T09:43:50.000Z</time>
      </trkpt>
      <trkpt lat="47.61524" lon="5.93683">
        <ele>273</ele>
        <time>2014-02-02T09:43:51.000Z</time>
      </trkpt>
      <trkpt lat="47.61528" lon="5.93681">
        <ele>272.60000610352</ele>
        <time>2014-02-02T09:43:52.000Z</time>
      </trkpt>
      <trkpt lat="47.61533" lon="5.93679">
        <ele>272.20001220703</ele>
        <time>2014-02-02T09:43:53.000Z</time>
      </trkpt>
      <trkpt lat="47.61537" lon="5.93677">
        <ele>271.79998779297</ele>
        <time>2014-02-02T09:43:54.000Z</time>
      </trkpt>
      <trkpt lat="47.61541" lon="5.93675">
        <ele>271.39999389648</ele>
        <time>2014-02-02T09:43:55.000Z</time>
      </trkpt>
      <trkpt lat="47.61546" lon="5.93672">
        <ele>271.39999389648</ele>
        <time>2014-02-02T09:43:56.000Z</time>
      </trkpt>
      <trkpt lat="47.61577" lon="5.93653">
        <ele>271.39999389648</ele>
        <time>2014-02-02T09:44:04.000Z</time>
      </trkpt>
      <trkpt lat="47.61594" lon="5.93639">
        <ele>271.39999389648</ele>
        <time>2014-02-02T09:44:10.000Z</time>
      </trkpt>
      <trkpt lat="47.61617" lon="5.93623">
        <ele>271.39999389648</ele>
        <time>2014-02-02T09:44:17.000Z</time>
      </trkpt>
      <trkpt lat="47.61639" lon="5.93611">
        <ele>271.39999389648</ele>
        <time>2014-02-02T09:44:23.000Z</time>
      </trkpt>
      <trkpt lat="47.61658" lon="5.93598">
        <ele>271.39999389648</ele>
        <time>2014-02-02T09:44:29.000Z</time>
      </trkpt>
      <trkpt lat="47.61679" lon="5.93585">
        <ele>271.39999389648</ele>
        <time>2014-02-02T09:44:36.000Z</time>
      </trkpt>
      <trkpt lat="47.61695" lon="5.93577">
        <ele>271.39999389648</ele>
        <time>2014-02-02T09:44:42.000Z</time>
      </trkpt>
      <trkpt lat="47.61712" lon="5.93569">
        <ele>271.39999389648</ele>
        <time>2014-02-02T09:44:48.000Z</time>
      </trkpt>
      <trkpt lat="47.61733" lon="5.93558">
        <ele>271.39999389648</ele>
        <time>2014-02-02T09:44:55.000Z</time>
      </trkpt>
      <trkpt lat="47.61751" lon="5.93547">
        <ele>271.39999389648</ele>
        <time>2014-02-02T09:45:01.000Z</time>
      </trkpt>
      <trkpt lat="47.61761" lon="5.93543">
        <ele>271.79998779297</ele>
        <time>2014-02-02T09:45:04.000Z</time>
      </trkpt>
      <trkpt lat="47.61764" lon="5.93542">
        <ele>272.20001220703</ele>
        <time>2014-02-02T09:45:05.000Z</time>
      </trkpt>
      <trkpt lat="47.61767" lon="5.9354">
        <ele>272.79998779297</ele>
        <time>2014-02-02T09:45:06.000Z</time>
      </trkpt>
      <trkpt lat="47.6177" lon="5.93538">
        <ele>273.20001220703</ele>
        <time>2014-02-02T09:45:07.000Z</time>
      </trkpt>
      <trkpt lat="47.61772" lon="5.93537">
        <ele>273.60000610352</ele>
        <time>2014-02-02T09:45:08.000Z</time>
      </trkpt>
      <trkpt lat="47.61792" lon="5.93527">
        <ele>273.60000610352</ele>
        <time>2014-02-02T09:45:15.000Z</time>
      </trkpt>
      <trkpt lat="47.6181" lon="5.93519">
        <ele>273.60000610352</ele>
        <time>2014-02-02T09:45:21.000Z</time>
      </trkpt>
      <trkpt lat="47.61812" lon="5.93517">
        <ele>273.60000610352</ele>
        <time>2014-02-02T09:45:22.000Z</time>
      </trkpt>
      <trkpt lat="47.61812" lon="5.935">
        <ele>273.60000610352</ele>
        <time>2014-02-02T09:45:26.000Z</time>
      </trkpt>
      <trkpt lat="47.61807" lon="5.9349">
        <ele>274</ele>
        <time>2014-02-02T09:45:29.000Z</time>
      </trkpt>
      <trkpt lat="47.61805" lon="5.93486">
        <ele>274.39999389648</ele>
        <time>2014-02-02T09:45:30.000Z</time>
      </trkpt>
      <trkpt lat="47.61804" lon="5.93482">
        <ele>274.79998779297</ele>
        <time>2014-02-02T09:45:31.000Z</time>
      </trkpt>
      <trkpt lat="47.61802" lon="5.93478">
        <ele>275.20001220703</ele>
        <time>2014-02-02T09:45:32.000Z</time>
      </trkpt>
      <trkpt lat="47.61801" lon="5.93473">
        <ele>275.79998779297</ele>
        <time>2014-02-02T09:45:33.000Z</time>
      </trkpt>
      <trkpt lat="47.61796" lon="5.93461">
        <ele>275.79998779297</ele>
        <time>2014-02-02T09:45:36.000Z</time>
      </trkpt>
      <trkpt lat="47.61784" lon="5.9344">
        <ele>275.79998779297</ele>
        <time>2014-02-02T09:45:42.000Z</time>
      </trkpt>
      <trkpt lat="47.61771" lon="5.9342">
        <ele>275.79998779297</ele>
        <time>2014-02-02T09:45:48.000Z</time>
      </trkpt>
      <trkpt lat="47.61749" lon="5.93399">
        <ele>275.79998779297</ele>
        <time>2014-02-02T09:45:54.000Z</time>
      </trkpt>
      <trkpt lat="47.61736" lon="5.93386">
        <ele>275.79998779297</ele>
        <time>2014-02-02T09:45:57.000Z</time>
      </trkpt>
      <trkpt lat="47.61729" lon="5.93377">
        <ele>275.79998779297</ele>
        <time>2014-02-02T09:45:59.000Z</time>
      </trkpt>
      <trkpt lat="47.61714" lon="5.93358">
        <ele>274.79998779297</ele>
        <time>2014-02-02T09:46:03.000Z</time>
      </trkpt>
      <trkpt lat="47.61711" lon="5.93352">
        <ele>274.39999389648</ele>
        <time>2014-02-02T09:46:04.000Z</time>
      </trkpt>
      <trkpt lat="47.61708" lon="5.93346">
        <ele>274</ele>
        <time>2014-02-02T09:46:05.000Z</time>
      </trkpt>
      <trkpt lat="47.61705" lon="5.93341">
        <ele>273.60000610352</ele>
        <time>2014-02-02T09:46:06.000Z</time>
      </trkpt>
      <trkpt lat="47.6169" lon="5.93308">
        <ele>273.60000610352</ele>
        <time>2014-02-02T09:46:11.000Z</time>
      </trkpt>
      <trkpt lat="47.61673" lon="5.93279">
        <ele>273.20001220703</ele>
        <time>2014-02-02T09:46:16.000Z</time>
      </trkpt>
      <trkpt lat="47.61671" lon="5.93273">
        <ele>272.60000610352</ele>
        <time>2014-02-02T09:46:17.000Z</time>
      </trkpt>
      <trkpt lat="47.61667" lon="5.93267">
        <ele>272.20001220703</ele>
        <time>2014-02-02T09:46:18.000Z</time>
      </trkpt>
      <trkpt lat="47.61664" lon="5.9326">
        <ele>271.79998779297</ele>
        <time>2014-02-02T09:46:19.000Z</time>
      </trkpt>
      <trkpt lat="47.6166" lon="5.93253">
        <ele>271.39999389648</ele>
        <time>2014-02-02T09:46:20.000Z</time>
      </trkpt>
      <trkpt lat="47.61657" lon="5.93246">
        <ele>271</ele>
        <time>2014-02-02T09:46:21.000Z</time>
      </trkpt>
      <trkpt lat="47.61653" lon="5.93239">
        <ele>270.60000610352</ele>
        <time>2014-02-02T09:46:22.000Z</time>
      </trkpt>
      <trkpt lat="47.61649" lon="5.93231">
        <ele>270.20001220703</ele>
        <time>2014-02-02T09:46:23.000Z</time>
      </trkpt>
      <trkpt lat="47.61646" lon="5.93223">
        <ele>269.79998779297</ele>
        <time>2014-02-02T09:46:24.000Z</time>
      </trkpt>
      <trkpt lat="47.61643" lon="5.93216">
        <ele>269.20001220703</ele>
        <time>2014-02-02T09:46:25.000Z</time>
      </trkpt>
      <trkpt lat="47.61639" lon="5.93209">
        <ele>268.79998779297</ele>
        <time>2014-02-02T09:46:26.000Z</time>
      </trkpt>
      <trkpt lat="47.61636" lon="5.93202">
        <ele>268</ele>
        <time>2014-02-02T09:46:27.000Z</time>
      </trkpt>
      <trkpt lat="47.61632" lon="5.93196">
        <ele>267.60000610352</ele>
        <time>2014-02-02T09:46:28.000Z</time>
      </trkpt>
      <trkpt lat="47.61628" lon="5.9319">
        <ele>267.20001220703</ele>
        <time>2014-02-02T09:46:29.000Z</time>
      </trkpt>
      <trkpt lat="47.61625" lon="5.93183">
        <ele>267.20001220703</ele>
        <time>2014-02-02T09:46:30.000Z</time>
      </trkpt>
      <trkpt lat="47.61604" lon="5.9316">
        <ele>266.79998779297</ele>
        <time>2014-02-02T09:46:34.000Z</time>
      </trkpt>
      <trkpt lat="47.61599" lon="5.93155">
        <ele>266.39999389648</ele>
        <time>2014-02-02T09:46:35.000Z</time>
      </trkpt>
      <trkpt lat="47.61594" lon="5.93151">
        <ele>266</ele>
        <time>2014-02-02T09:46:36.000Z</time>
      </trkpt>
      <trkpt lat="47.61589" lon="5.93146">
        <ele>265.60000610352</ele>
        <time>2014-02-02T09:46:37.000Z</time>
      </trkpt>
      <trkpt lat="47.61584" lon="5.93141">
        <ele>265</ele>
        <time>2014-02-02T09:46:38.000Z</time>
      </trkpt>
      <trkpt lat="47.61574" lon="5.93129">
        <ele>265</ele>
        <time>2014-02-02T09:46:40.000Z</time>
      </trkpt>
      <trkpt lat="47.61556" lon="5.93108">
        <ele>264.60000610352</ele>
        <time>2014-02-02T09:46:44.000Z</time>
      </trkpt>
      <trkpt lat="47.61551" lon="5.93103">
        <ele>264.20001220703</ele>
        <time>2014-02-02T09:46:45.000Z</time>
      </trkpt>
      <trkpt lat="47.61546" lon="5.93099">
        <ele>263.79998779297</ele>
        <time>2014-02-02T09:46:46.000Z</time>
      </trkpt>
      <trkpt lat="47.6154" lon="5.93096">
        <ele>263.39999389648</ele>
        <time>2014-02-02T09:46:47.000Z</time>
      </trkpt>
      <trkpt lat="47.61534" lon="5.93092">
        <ele>262.79998779297</ele>
        <time>2014-02-02T09:46:48.000Z</time>
      </trkpt>
      <trkpt lat="47.61518" lon="5.93085">
        <ele>262.79998779297</ele>
        <time>2014-02-02T09:46:51.000Z</time>
      </trkpt>
      <trkpt lat="47.61499" lon="5.93075">
        <ele>262.39999389648</ele>
        <time>2014-02-02T09:46:55.000Z</time>
      </trkpt>
      <trkpt lat="47.61494" lon="5.93072">
        <ele>262</ele>
        <time>2014-02-02T09:46:56.000Z</time>
      </trkpt>
      <trkpt lat="47.6149" lon="5.93068">
        <ele>261.60000610352</ele>
        <time>2014-02-02T09:46:57.000Z</time>
      </trkpt>
      <trkpt lat="47.61486" lon="5.93065">
        <ele>261.20001220703</ele>
        <time>2014-02-02T09:46:58.000Z</time>
      </trkpt>
      <trkpt lat="47.61482" lon="5.93061">
        <ele>260.79998779297</ele>
        <time>2014-02-02T09:46:59.000Z</time>
      </trkpt>
      <trkpt lat="47.61467" lon="5.93047">
        <ele>260.79998779297</ele>
        <time>2014-02-02T09:47:03.000Z</time>
      </trkpt>
      <trkpt lat="47.61448" lon="5.93035">
        <ele>260.79998779297</ele>
        <time>2014-02-02T09:47:07.000Z</time>
      </trkpt>
      <trkpt lat="47.61443" lon="5.93033">
        <ele>260.79998779297</ele>
        <time>2014-02-02T09:47:08.000Z</time>
      </trkpt>
      <trkpt lat="47.61407" lon="5.93014">
        <ele>260.39999389648</ele>
        <time>2014-02-02T09:47:15.000Z</time>
      </trkpt>
      <trkpt lat="47.61402" lon="5.9301">
        <ele>259.79998779297</ele>
        <time>2014-02-02T09:47:16.000Z</time>
      </trkpt>
      <trkpt lat="47.61397" lon="5.93007">
        <ele>259</ele>
        <time>2014-02-02T09:47:17.000Z</time>
      </trkpt>
      <trkpt lat="47.61392" lon="5.93003">
        <ele>258.39999389648</ele>
        <time>2014-02-02T09:47:18.000Z</time>
      </trkpt>
      <trkpt lat="47.61374" lon="5.92986">
        <ele>258.39999389648</ele>
        <time>2014-02-02T09:47:22.000Z</time>
      </trkpt>
      <trkpt lat="47.61351" lon="5.92966">
        <ele>258</ele>
        <time>2014-02-02T09:47:27.000Z</time>
      </trkpt>
      <trkpt lat="47.61346" lon="5.92963">
        <ele>257.39999389648</ele>
        <time>2014-02-02T09:47:28.000Z</time>
      </trkpt>
      <trkpt lat="47.61341" lon="5.9296">
        <ele>257</ele>
        <time>2014-02-02T09:47:29.000Z</time>
      </trkpt>
      <trkpt lat="47.61337" lon="5.92956">
        <ele>256.60000610352</ele>
        <time>2014-02-02T09:47:30.000Z</time>
      </trkpt>
      <trkpt lat="47.61333" lon="5.92951">
        <ele>256</ele>
        <time>2014-02-02T09:47:31.000Z</time>
      </trkpt>
      <trkpt lat="47.61329" lon="5.92948">
        <ele>256</ele>
        <time>2014-02-02T09:47:32.000Z</time>
      </trkpt>
      <trkpt lat="47.61311" lon="5.92936">
        <ele>256</ele>
        <time>2014-02-02T09:47:36.000Z</time>
      </trkpt>
      <trkpt lat="47.61307" lon="5.92933">
        <ele>256</ele>
        <time>2014-02-02T09:47:37.000Z</time>
      </trkpt>
      <trkpt lat="47.61294" lon="5.92922">
        <ele>256</ele>
        <time>2014-02-02T09:47:40.000Z</time>
      </trkpt>
      <trkpt lat="47.61289" lon="5.92918">
        <ele>255.19999694824</ele>
        <time>2014-02-02T09:47:41.000Z</time>
      </trkpt>
      <trkpt lat="47.61284" lon="5.92915">
        <ele>254.80000305176</ele>
        <time>2014-02-02T09:47:42.000Z</time>
      </trkpt>
      <trkpt lat="47.6128" lon="5.92912">
        <ele>254.39999389648</ele>
        <time>2014-02-02T09:47:43.000Z</time>
      </trkpt>
      <trkpt lat="47.61276" lon="5.92909">
        <ele>253.80000305176</ele>
        <time>2014-02-02T09:47:44.000Z</time>
      </trkpt>
      <trkpt lat="47.61265" lon="5.92902">
        <ele>253.80000305176</ele>
        <time>2014-02-02T09:47:47.000Z</time>
      </trkpt>
      <trkpt lat="47.61246" lon="5.92892">
        <ele>253.80000305176</ele>
        <time>2014-02-02T09:47:52.000Z</time>
      </trkpt>
      <trkpt lat="47.61237" lon="5.92887">
        <ele>253.39999389648</ele>
        <time>2014-02-02T09:47:54.000Z</time>
      </trkpt>
      <trkpt lat="47.61232" lon="5.92885">
        <ele>253</ele>
        <time>2014-02-02T09:47:55.000Z</time>
      </trkpt>
      <trkpt lat="47.61227" lon="5.92884">
        <ele>252.60000610352</ele>
        <time>2014-02-02T09:47:56.000Z</time>
      </trkpt>
      <trkpt lat="47.61222" lon="5.92883">
        <ele>252.19999694824</ele>
        <time>2014-02-02T09:47:57.000Z</time>
      </trkpt>
      <trkpt lat="47.61218" lon="5.92883">
        <ele>251.60000610352</ele>
        <time>2014-02-02T09:47:58.000Z</time>
      </trkpt>
      <trkpt lat="47.61205" lon="5.9288">
        <ele>251.60000610352</ele>
        <time>2014-02-02T09:48:01.000Z</time>
      </trkpt>
      <trkpt lat="47.61197" lon="5.92875">
        <ele>251.60000610352</ele>
        <time>2014-02-02T09:48:03.000Z</time>
      </trkpt>
      <trkpt lat="47.61189" lon="5.92867">
        <ele>251.19999694824</ele>
        <time>2014-02-02T09:48:05.000Z</time>
      </trkpt>
      <trkpt lat="47.61185" lon="5.92863">
        <ele>250.39999389648</ele>
        <time>2014-02-02T09:48:06.000Z</time>
      </trkpt>
      <trkpt lat="47.6118" lon="5.9286">
        <ele>249.80000305176</ele>
        <time>2014-02-02T09:48:07.000Z</time>
      </trkpt>
      <trkpt lat="47.61176" lon="5.92856">
        <ele>249.39999389648</ele>
        <time>2014-02-02T09:48:08.000Z</time>
      </trkpt>
      <trkpt lat="47.61169" lon="5.92846">
        <ele>249.39999389648</ele>
        <time>2014-02-02T09:48:10.000Z</time>
      </trkpt>
      <trkpt lat="47.61159" lon="5.92831">
        <ele>249.39999389648</ele>
        <time>2014-02-02T09:48:13.000Z</time>
      </trkpt>
      <trkpt lat="47.61151" lon="5.9282">
        <ele>249.39999389648</ele>
        <time>2014-02-02T09:48:15.000Z</time>
      </trkpt>
      <trkpt lat="47.61148" lon="5.92815">
        <ele>249</ele>
        <time>2014-02-02T09:48:16.000Z</time>
      </trkpt>
      <trkpt lat="47.61144" lon="5.9281">
        <ele>248.60000610352</ele>
        <time>2014-02-02T09:48:17.000Z</time>
      </trkpt>
      <trkpt lat="47.6114" lon="5.92804">
        <ele>248.19999694824</ele>
        <time>2014-02-02T09:48:18.000Z</time>
      </trkpt>
      <trkpt lat="47.61137" lon="5.92799">
        <ele>247.80000305176</ele>
        <time>2014-02-02T09:48:19.000Z</time>
      </trkpt>
      <trkpt lat="47.61133" lon="5.92794">
        <ele>247.39999389648</ele>
        <time>2014-02-02T09:48:20.000Z</time>
      </trkpt>
      <trkpt lat="47.61129" lon="5.92789">
        <ele>247.39999389648</ele>
        <time>2014-02-02T09:48:21.000Z</time>
      </trkpt>
      <trkpt lat="47.61107" lon="5.9276">
        <ele>247.39999389648</ele>
        <time>2014-02-02T09:48:27.000Z</time>
      </trkpt>
      <trkpt lat="47.61094" lon="5.92739">
        <ele>247</ele>
        <time>2014-02-02T09:48:31.000Z</time>
      </trkpt>
      <trkpt lat="47.61091" lon="5.92734">
        <ele>246.39999389648</ele>
        <time>2014-02-02T09:48:32.000Z</time>
      </trkpt>
      <trkpt lat="47.61089" lon="5.9273">
        <ele>246</ele>
        <time>2014-02-02T09:48:33.000Z</time>
      </trkpt>
      <trkpt lat="47.61088" lon="5.92726">
        <ele>245.60000610352</ele>
        <time>2014-02-02T09:48:34.000Z</time>
      </trkpt>
      <trkpt lat="47.61085" lon="5.92722">
        <ele>245.19999694824</ele>
        <time>2014-02-02T09:48:35.000Z</time>
      </trkpt>
      <trkpt lat="47.6108" lon="5.92713">
        <ele>245.19999694824</ele>
        <time>2014-02-02T09:48:38.000Z</time>
      </trkpt>
      <trkpt lat="47.61076" lon="5.92704">
        <ele>245.19999694824</ele>
        <time>2014-02-02T09:48:43.000Z</time>
      </trkpt>
      <trkpt lat="47.61077" lon="5.927">
        <ele>245.19999694824</ele>
        <time>2014-02-02T09:48:48.000Z</time>
      </trkpt>
      <trkpt lat="47.61076" lon="5.9269">
        <ele>245.19999694824</ele>
        <time>2014-02-02T09:48:51.000Z</time>
      </trkpt>
      <trkpt lat="47.61075" lon="5.92682">
        <ele>245.19999694824</ele>
        <time>2014-02-02T09:49:01.000Z</time>
      </trkpt>
      <trkpt lat="47.61078" lon="5.9268">
        <ele>245.19999694824</ele>
        <time>2014-02-02T09:49:03.000Z</time>
      </trkpt>
      <trkpt lat="47.61092" lon="5.92675">
        <ele>245.19999694824</ele>
        <time>2014-02-02T09:49:09.000Z</time>
      </trkpt>
      <trkpt lat="47.61114" lon="5.92668">
        <ele>245.19999694824</ele>
        <time>2014-02-02T09:49:17.000Z</time>
      </trkpt>
      <trkpt lat="47.61136" lon="5.92666">
        <ele>245.19999694824</ele>
        <time>2014-02-02T09:49:25.000Z</time>
      </trkpt>
      <trkpt lat="47.61148" lon="5.92669">
        <ele>245.60000610352</ele>
        <time>2014-02-02T09:49:30.000Z</time>
      </trkpt>
      <trkpt lat="47.6115" lon="5.9267">
        <ele>246.19999694824</ele>
        <time>2014-02-02T09:49:31.000Z</time>
      </trkpt>
      <trkpt lat="47.61152" lon="5.92671">
        <ele>246.60000610352</ele>
        <time>2014-02-02T09:49:32.000Z</time>
      </trkpt>
      <trkpt lat="47.61154" lon="5.92672">
        <ele>247</ele>
        <time>2014-02-02T09:49:33.000Z</time>
      </trkpt>
      <trkpt lat="47.61156" lon="5.92672">
        <ele>247.39999389648</ele>
        <time>2014-02-02T09:49:34.000Z</time>
      </trkpt>
      <trkpt lat="47.61169" lon="5.92675">
        <ele>247.80000305176</ele>
        <time>2014-02-02T09:49:41.000Z</time>
      </trkpt>
      <trkpt lat="47.61171" lon="5.92676">
        <ele>248.19999694824</ele>
        <time>2014-02-02T09:49:42.000Z</time>
      </trkpt>
      <trkpt lat="47.61173" lon="5.92675">
        <ele>248.60000610352</ele>
        <time>2014-02-02T09:49:43.000Z</time>
      </trkpt>
      <trkpt lat="47.61174" lon="5.92675">
        <ele>249</ele>
        <time>2014-02-02T09:49:44.000Z</time>
      </trkpt>
      <trkpt lat="47.61176" lon="5.92674">
        <ele>249.60000610352</ele>
        <time>2014-02-02T09:49:45.000Z</time>
      </trkpt>
      <trkpt lat="47.61179" lon="5.92673">
        <ele>249.60000610352</ele>
        <time>2014-02-02T09:49:47.000Z</time>
      </trkpt>
      <trkpt lat="47.61185" lon="5.92671">
        <ele>250</ele>
        <time>2014-02-02T09:49:50.000Z</time>
      </trkpt>
      <trkpt lat="47.61187" lon="5.92671">
        <ele>250.39999389648</ele>
        <time>2014-02-02T09:49:51.000Z</time>
      </trkpt>
      <trkpt lat="47.61188" lon="5.9267">
        <ele>250.80000305176</ele>
        <time>2014-02-02T09:49:52.000Z</time>
      </trkpt>
      <trkpt lat="47.6119" lon="5.92669">
        <ele>251.19999694824</ele>
        <time>2014-02-02T09:49:53.000Z</time>
      </trkpt>
      <trkpt lat="47.61192" lon="5.92668">
        <ele>251.60000610352</ele>
        <time>2014-02-02T09:49:54.000Z</time>
      </trkpt>
      <trkpt lat="47.61195" lon="5.92666">
        <ele>251.60000610352</ele>
        <time>2014-02-02T09:49:56.000Z</time>
      </trkpt>
      <trkpt lat="47.61206" lon="5.9266">
        <ele>252</ele>
        <time>2014-02-02T09:50:02.000Z</time>
      </trkpt>
      <trkpt lat="47.61208" lon="5.92659">
        <ele>252.39999389648</ele>
        <time>2014-02-02T09:50:03.000Z</time>
      </trkpt>
      <trkpt lat="47.61209" lon="5.92658">
        <ele>252.80000305176</ele>
        <time>2014-02-02T09:50:04.000Z</time>
      </trkpt>
      <trkpt lat="47.61211" lon="5.92657">
        <ele>253.19999694824</ele>
        <time>2014-02-02T09:50:05.000Z</time>
      </trkpt>
      <trkpt lat="47.61213" lon="5.92656">
        <ele>253.60000610352</ele>
        <time>2014-02-02T09:50:06.000Z</time>
      </trkpt>
      <trkpt lat="47.61219" lon="5.92653">
        <ele>253.60000610352</ele>
        <time>2014-02-02T09:50:10.000Z</time>
      </trkpt>
      <trkpt lat="47.61228" lon="5.9265">
        <ele>254</ele>
        <time>2014-02-02T09:50:16.000Z</time>
      </trkpt>
      <trkpt lat="47.61229" lon="5.92649">
        <ele>254.39999389648</ele>
        <time>2014-02-02T09:50:17.000Z</time>
      </trkpt>
      <trkpt lat="47.61231" lon="5.92648">
        <ele>254.80000305176</ele>
        <time>2014-02-02T09:50:18.000Z</time>
      </trkpt>
      <trkpt lat="47.61232" lon="5.92647">
        <ele>255.19999694824</ele>
        <time>2014-02-02T09:50:19.000Z</time>
      </trkpt>
      <trkpt lat="47.61234" lon="5.92646">
        <ele>255.60000610352</ele>
        <time>2014-02-02T09:50:20.000Z</time>
      </trkpt>
      <trkpt lat="47.61243" lon="5.92645">
        <ele>255.60000610352</ele>
        <time>2014-02-02T09:50:26.000Z</time>
      </trkpt>
      <trkpt lat="47.61255" lon="5.92641">
        <ele>256</ele>
        <time>2014-02-02T09:50:33.000Z</time>
      </trkpt>
      <trkpt lat="47.61257" lon="5.92642">
        <ele>256.79998779297</ele>
        <time>2014-02-02T09:50:34.000Z</time>
      </trkpt>
      <trkpt lat="47.61259" lon="5.92642">
        <ele>257.20001220703</ele>
        <time>2014-02-02T09:50:35.000Z</time>
      </trkpt>
      <trkpt lat="47.6126" lon="5.92642">
        <ele>257.60000610352</ele>
        <time>2014-02-02T09:50:36.000Z</time>
      </trkpt>
      <trkpt lat="47.61268" lon="5.92642">
        <ele>257.60000610352</ele>
        <time>2014-02-02T09:50:40.000Z</time>
      </trkpt>
      <trkpt lat="47.61286" lon="5.92643">
        <ele>257.60000610352</ele>
        <time>2014-02-02T09:50:50.000Z</time>
      </trkpt>
      <trkpt lat="47.61288" lon="5.92644">
        <ele>258</ele>
        <time>2014-02-02T09:50:51.000Z</time>
      </trkpt>
      <trkpt lat="47.61289" lon="5.92643">
        <ele>258.60000610352</ele>
        <time>2014-02-02T09:50:52.000Z</time>
      </trkpt>
      <trkpt lat="47.61291" lon="5.92644">
        <ele>259</ele>
        <time>2014-02-02T09:50:53.000Z</time>
      </trkpt>
      <trkpt lat="47.61293" lon="5.92644">
        <ele>259.39999389648</ele>
        <time>2014-02-02T09:50:54.000Z</time>
      </trkpt>
      <trkpt lat="47.61295" lon="5.92644">
        <ele>259.79998779297</ele>
        <time>2014-02-02T09:50:55.000Z</time>
      </trkpt>
      <trkpt lat="47.61299" lon="5.92644">
        <ele>259.79998779297</ele>
        <time>2014-02-02T09:50:57.000Z</time>
      </trkpt>
      <trkpt lat="47.61313" lon="5.92646">
        <ele>259.79998779297</ele>
        <time>2014-02-02T09:51:05.000Z</time>
      </trkpt>
      <trkpt lat="47.61319" lon="5.92649">
        <ele>260.20001220703</ele>
        <time>2014-02-02T09:51:09.000Z</time>
      </trkpt>
      <trkpt lat="47.6132" lon="5.9265">
        <ele>260.60000610352</ele>
        <time>2014-02-02T09:51:10.000Z</time>
      </trkpt>
      <trkpt lat="47.61322" lon="5.92651">
        <ele>261</ele>
        <time>2014-02-02T09:51:11.000Z</time>
      </trkpt>
      <trkpt lat="47.61323" lon="5.92652">
        <ele>261.39999389648</ele>
        <time>2014-02-02T09:51:12.000Z</time>
      </trkpt>
      <trkpt lat="47.61324" lon="5.92653">
        <ele>261.79998779297</ele>
        <time>2014-02-02T09:51:13.000Z</time>
      </trkpt>
      <trkpt lat="47.61339" lon="5.9266">
        <ele>261.79998779297</ele>
        <time>2014-02-02T09:51:21.000Z</time>
      </trkpt>
      <trkpt lat="47.61344" lon="5.92663">
        <ele>262.20001220703</ele>
        <time>2014-02-02T09:51:24.000Z</time>
      </trkpt>
      <trkpt lat="47.61346" lon="5.92664">
        <ele>262.60000610352</ele>
        <time>2014-02-02T09:51:25.000Z</time>
      </trkpt>
      <trkpt lat="47.61348" lon="5.92665">
        <ele>263</ele>
        <time>2014-02-02T09:51:26.000Z</time>
      </trkpt>
      <trkpt lat="47.61352" lon="5.92667">
        <ele>263.79998779297</ele>
        <time>2014-02-02T09:51:29.000Z</time>
      </trkpt>
      <trkpt lat="47.61353" lon="5.92668">
        <ele>263.79998779297</ele>
        <time>2014-02-02T09:51:30.000Z</time>
      </trkpt>
      <trkpt lat="47.61365" lon="5.92674">
        <ele>263.79998779297</ele>
        <time>2014-02-02T09:51:37.000Z</time>
      </trkpt>
      <trkpt lat="47.61378" lon="5.9268">
        <ele>264.20001220703</ele>
        <time>2014-02-02T09:51:43.000Z</time>
      </trkpt>
      <trkpt lat="47.6138" lon="5.9268">
        <ele>264.60000610352</ele>
        <time>2014-02-02T09:51:44.000Z</time>
      </trkpt>
      <trkpt lat="47.61382" lon="5.9268">
        <ele>265</ele>
        <time>2014-02-02T09:51:45.000Z</time>
      </trkpt>
      <trkpt lat="47.61384" lon="5.92679">
        <ele>265.39999389648</ele>
        <time>2014-02-02T09:51:46.000Z</time>
      </trkpt>
      <trkpt lat="47.61386" lon="5.92679">
        <ele>265.79998779297</ele>
        <time>2014-02-02T09:51:47.000Z</time>
      </trkpt>
      <trkpt lat="47.61389" lon="5.92677">
        <ele>265.79998779297</ele>
        <time>2014-02-02T09:51:49.000Z</time>
      </trkpt>
      <trkpt lat="47.61402" lon="5.92672">
        <ele>265.79998779297</ele>
        <time>2014-02-02T09:51:56.000Z</time>
      </trkpt>
      <trkpt lat="47.6141" lon="5.92669">
        <ele>266.20001220703</ele>
        <time>2014-02-02T09:52:00.000Z</time>
      </trkpt>
      <trkpt lat="47.61412" lon="5.92669">
        <ele>266.60000610352</ele>
        <time>2014-02-02T09:52:01.000Z</time>
      </trkpt>
      <trkpt lat="47.61415" lon="5.92668">
        <ele>267</ele>
        <time>2014-02-02T09:52:02.000Z</time>
      </trkpt>
      <trkpt lat="47.61417" lon="5.92667">
        <ele>267.39999389648</ele>
        <time>2014-02-02T09:52:03.000Z</time>
      </trkpt>
      <trkpt lat="47.61419" lon="5.92666">
        <ele>267.79998779297</ele>
        <time>2014-02-02T09:52:04.000Z</time>
      </trkpt>
      <trkpt lat="47.61437" lon="5.92662">
        <ele>267.79998779297</ele>
        <time>2014-02-02T09:52:13.000Z</time>
      </trkpt>
      <trkpt lat="47.61439" lon="5.92661">
        <ele>267.79998779297</ele>
        <time>2014-02-02T09:52:14.000Z</time>
      </trkpt>
      <trkpt lat="47.61447" lon="5.92658">
        <ele>267.79998779297</ele>
        <time>2014-02-02T09:52:18.000Z</time>
      </trkpt>
      <trkpt lat="47.61454" lon="5.92656">
        <ele>267.79998779297</ele>
        <time>2014-02-02T09:52:21.000Z</time>
      </trkpt>
      <trkpt lat="47.61466" lon="5.92651">
        <ele>267.79998779297</ele>
        <time>2014-02-02T09:52:26.000Z</time>
      </trkpt>
      <trkpt lat="47.61481" lon="5.92645">
        <ele>268.20001220703</ele>
        <time>2014-02-02T09:52:32.000Z</time>
      </trkpt>
      <trkpt lat="47.61483" lon="5.92644">
        <ele>268.60000610352</ele>
        <time>2014-02-02T09:52:33.000Z</time>
      </trkpt>
      <trkpt lat="47.61486" lon="5.92642">
        <ele>269</ele>
        <time>2014-02-02T09:52:34.000Z</time>
      </trkpt>
      <trkpt lat="47.61488" lon="5.92641">
        <ele>269.39999389648</ele>
        <time>2014-02-02T09:52:35.000Z</time>
      </trkpt>
      <trkpt lat="47.61491" lon="5.9264">
        <ele>270</ele>
        <time>2014-02-02T09:52:36.000Z</time>
      </trkpt>
      <trkpt lat="47.61513" lon="5.92628">
        <ele>270</ele>
        <time>2014-02-02T09:52:44.000Z</time>
      </trkpt>
      <trkpt lat="47.61531" lon="5.92619">
        <ele>270</ele>
        <time>2014-02-02T09:52:50.000Z</time>
      </trkpt>
      <trkpt lat="47.6156" lon="5.92603">
        <ele>270</ele>
        <time>2014-02-02T09:52:59.000Z</time>
      </trkpt>
      <trkpt lat="47.61586" lon="5.92588">
        <ele>270</ele>
        <time>2014-02-02T09:53:06.000Z</time>
      </trkpt>
      <trkpt lat="47.61607" lon="5.92575">
        <ele>270</ele>
        <time>2014-02-02T09:53:12.000Z</time>
      </trkpt>
      <trkpt lat="47.61607" lon="5.9257">
        <ele>269.39999389648</ele>
        <time>2014-02-02T09:53:13.000Z</time>
      </trkpt>
      <trkpt lat="47.61606" lon="5.92565">
        <ele>269</ele>
        <time>2014-02-02T09:53:14.000Z</time>
      </trkpt>
      <trkpt lat="47.61606" lon="5.92561">
        <ele>268.60000610352</ele>
        <time>2014-02-02T09:53:15.000Z</time>
      </trkpt>
      <trkpt lat="47.61605" lon="5.92557">
        <ele>268.20001220703</ele>
        <time>2014-02-02T09:53:16.000Z</time>
      </trkpt>
      <trkpt lat="47.61604" lon="5.92553">
        <ele>267.79998779297</ele>
        <time>2014-02-02T09:53:17.000Z</time>
      </trkpt>
      <trkpt lat="47.61603" lon="5.9255">
        <ele>267.79998779297</ele>
        <time>2014-02-02T09:53:18.000Z</time>
      </trkpt>
      <trkpt lat="47.61593" lon="5.92521">
        <ele>267.79998779297</ele>
        <time>2014-02-02T09:53:24.000Z</time>
      </trkpt>
      <trkpt lat="47.61591" lon="5.92516">
        <ele>267.39999389648</ele>
        <time>2014-02-02T09:53:25.000Z</time>
      </trkpt>
      <trkpt lat="47.61589" lon="5.92512">
        <ele>267</ele>
        <time>2014-02-02T09:53:26.000Z</time>
      </trkpt>
      <trkpt lat="47.61587" lon="5.92507">
        <ele>266</ele>
        <time>2014-02-02T09:53:27.000Z</time>
      </trkpt>
      <trkpt lat="47.61585" lon="5.92503">
        <ele>265.60000610352</ele>
        <time>2014-02-02T09:53:28.000Z</time>
      </trkpt>
      <trkpt lat="47.61582" lon="5.92492">
        <ele>265.60000610352</ele>
        <time>2014-02-02T09:53:30.000Z</time>
      </trkpt>
      <trkpt lat="47.61572" lon="5.92465">
        <ele>265.20001220703</ele>
        <time>2014-02-02T09:53:35.000Z</time>
      </trkpt>
      <trkpt lat="47.6157" lon="5.92459">
        <ele>264.79998779297</ele>
        <time>2014-02-02T09:53:36.000Z</time>
      </trkpt>
      <trkpt lat="47.61568" lon="5.92454">
        <ele>264.20001220703</ele>
        <time>2014-02-02T09:53:37.000Z</time>
      </trkpt>
      <trkpt lat="47.61566" lon="5.92448">
        <ele>263.79998779297</ele>
        <time>2014-02-02T09:53:38.000Z</time>
      </trkpt>
      <trkpt lat="47.61564" lon="5.92442">
        <ele>263.39999389648</ele>
        <time>2014-02-02T09:53:39.000Z</time>
      </trkpt>
      <trkpt lat="47.61555" lon="5.92415">
        <ele>263</ele>
        <time>2014-02-02T09:53:44.000Z</time>
      </trkpt>
      <trkpt lat="47.61553" lon="5.92409">
        <ele>262.60000610352</ele>
        <time>2014-02-02T09:53:45.000Z</time>
      </trkpt>
      <trkpt lat="47.61551" lon="5.92403">
        <ele>262.20001220703</ele>
        <time>2014-02-02T09:53:46.000Z</time>
      </trkpt>
      <trkpt lat="47.6155" lon="5.92398">
        <ele>261.60000610352</ele>
        <time>2014-02-02T09:53:47.000Z</time>
      </trkpt>
      <trkpt lat="47.61548" lon="5.92392">
        <ele>261.20001220703</ele>
        <time>2014-02-02T09:53:48.000Z</time>
      </trkpt>
      <trkpt lat="47.61546" lon="5.92387">
        <ele>261.20001220703</ele>
        <time>2014-02-02T09:53:49.000Z</time>
      </trkpt>
      <trkpt lat="47.61541" lon="5.9237">
        <ele>260.39999389648</ele>
        <time>2014-02-02T09:53:52.000Z</time>
      </trkpt>
      <trkpt lat="47.61539" lon="5.92364">
        <ele>260</ele>
        <time>2014-02-02T09:53:53.000Z</time>
      </trkpt>
      <trkpt lat="47.61537" lon="5.92359">
        <ele>259.39999389648</ele>
        <time>2014-02-02T09:53:54.000Z</time>
      </trkpt>
      <trkpt lat="47.61535" lon="5.92354">
        <ele>259</ele>
        <time>2014-02-02T09:53:55.000Z</time>
      </trkpt>
      <trkpt lat="47.6153" lon="5.92338">
        <ele>258.60000610352</ele>
        <time>2014-02-02T09:53:59.000Z</time>
      </trkpt>
      <trkpt lat="47.61528" lon="5.92334">
        <ele>258.20001220703</ele>
        <time>2014-02-02T09:54:00.000Z</time>
      </trkpt>
      <trkpt lat="47.61527" lon="5.92331">
        <ele>257.79998779297</ele>
        <time>2014-02-02T09:54:01.000Z</time>
      </trkpt>
      <trkpt lat="47.61526" lon="5.92327">
        <ele>257.39999389648</ele>
        <time>2014-02-02T09:54:02.000Z</time>
      </trkpt>
      <trkpt lat="47.61525" lon="5.92323">
        <ele>257</ele>
        <time>2014-02-02T09:54:03.000Z</time>
      </trkpt>
      <trkpt lat="47.61522" lon="5.9231">
        <ele>257</ele>
        <time>2014-02-02T09:54:06.000Z</time>
      </trkpt>
      <trkpt lat="47.61513" lon="5.92283">
        <ele>256.60000610352</ele>
        <time>2014-02-02T09:54:12.000Z</time>
      </trkpt>
      <trkpt lat="47.61512" lon="5.92279">
        <ele>256.20001220703</ele>
        <time>2014-02-02T09:54:13.000Z</time>
      </trkpt>
      <trkpt lat="47.61511" lon="5.92275">
        <ele>255.80000305176</ele>
        <time>2014-02-02T09:54:14.000Z</time>
      </trkpt>
      <trkpt lat="47.61509" lon="5.9227">
        <ele>255.39999389648</ele>
        <time>2014-02-02T09:54:15.000Z</time>
      </trkpt>
      <trkpt lat="47.61507" lon="5.92267">
        <ele>255</ele>
        <time>2014-02-02T09:54:16.000Z</time>
      </trkpt>
      <trkpt lat="47.61501" lon="5.92248">
        <ele>255</ele>
        <time>2014-02-02T09:54:20.000Z</time>
      </trkpt>
      <trkpt lat="47.61496" lon="5.92235">
        <ele>254.60000610352</ele>
        <time>2014-02-02T09:54:23.000Z</time>
      </trkpt>
      <trkpt lat="47.61495" lon="5.92231">
        <ele>254.19999694824</ele>
        <time>2014-02-02T09:54:24.000Z</time>
      </trkpt>
      <trkpt lat="47.61493" lon="5.92227">
        <ele>253.60000610352</ele>
        <time>2014-02-02T09:54:25.000Z</time>
      </trkpt>
      <trkpt lat="47.61491" lon="5.92222">
        <ele>253.19999694824</ele>
        <time>2014-02-02T09:54:26.000Z</time>
      </trkpt>
      <trkpt lat="47.6149" lon="5.92218">
        <ele>252.80000305176</ele>
        <time>2014-02-02T09:54:27.000Z</time>
      </trkpt>
      <trkpt lat="47.61479" lon="5.92189">
        <ele>252</ele>
        <time>2014-02-02T09:54:33.000Z</time>
      </trkpt>
      <trkpt lat="47.61478" lon="5.92185">
        <ele>251.60000610352</ele>
        <time>2014-02-02T09:54:34.000Z</time>
      </trkpt>
      <trkpt lat="47.61476" lon="5.9218">
        <ele>251</ele>
        <time>2014-02-02T09:54:35.000Z</time>
      </trkpt>
      <trkpt lat="47.61475" lon="5.92175">
        <ele>250.60000610352</ele>
        <time>2014-02-02T09:54:36.000Z</time>
      </trkpt>
      <trkpt lat="47.61469" lon="5.92154">
        <ele>250.60000610352</ele>
        <time>2014-02-02T09:54:40.000Z</time>
      </trkpt>
      <trkpt lat="47.61465" lon="5.92143">
        <ele>250.19999694824</ele>
        <time>2014-02-02T09:54:42.000Z</time>
      </trkpt>
      <trkpt lat="47.61463" lon="5.92138">
        <ele>249.60000610352</ele>
        <time>2014-02-02T09:54:43.000Z</time>
      </trkpt>
      <trkpt lat="47.61462" lon="5.92132">
        <ele>249.19999694824</ele>
        <time>2014-02-02T09:54:44.000Z</time>
      </trkpt>
      <trkpt lat="47.6146" lon="5.92126">
        <ele>248.80000305176</ele>
        <time>2014-02-02T09:54:45.000Z</time>
      </trkpt>
      <trkpt lat="47.61458" lon="5.9212">
        <ele>248.39999389648</ele>
        <time>2014-02-02T09:54:46.000Z</time>
      </trkpt>
      <trkpt lat="47.61456" lon="5.92114">
        <ele>248.39999389648</ele>
        <time>2014-02-02T09:54:47.000Z</time>
      </trkpt>
      <trkpt lat="47.61452" lon="5.92103">
        <ele>247.80000305176</ele>
        <time>2014-02-02T09:54:49.000Z</time>
      </trkpt>
      <trkpt lat="47.6145" lon="5.92099">
        <ele>247.39999389648</ele>
        <time>2014-02-02T09:54:50.000Z</time>
      </trkpt>
      <trkpt lat="47.61447" lon="5.92095">
        <ele>247</ele>
        <time>2014-02-02T09:54:51.000Z</time>
      </trkpt>
      <trkpt lat="47.61445" lon="5.92091">
        <ele>246.39999389648</ele>
        <time>2014-02-02T09:54:52.000Z</time>
      </trkpt>
      <trkpt lat="47.61443" lon="5.92086">
        <ele>246</ele>
        <time>2014-02-02T09:54:53.000Z</time>
      </trkpt>
      <trkpt lat="47.61439" lon="5.92075">
        <ele>245.60000610352</ele>
        <time>2014-02-02T09:54:55.000Z</time>
      </trkpt>
      <trkpt lat="47.61437" lon="5.92069">
        <ele>245.19999694824</ele>
        <time>2014-02-02T09:54:56.000Z</time>
      </trkpt>
      <trkpt lat="47.61435" lon="5.92063">
        <ele>244.80000305176</ele>
        <time>2014-02-02T09:54:57.000Z</time>
      </trkpt>
      <trkpt lat="47.61433" lon="5.92058">
        <ele>244</ele>
        <time>2014-02-02T09:54:58.000Z</time>
      </trkpt>
      <trkpt lat="47.61428" lon="5.92043">
        <ele>243.60000610352</ele>
        <time>2014-02-02T09:55:01.000Z</time>
      </trkpt>
      <trkpt lat="47.61426" lon="5.92039">
        <ele>243.19999694824</ele>
        <time>2014-02-02T09:55:02.000Z</time>
      </trkpt>
      <trkpt lat="47.61425" lon="5.92034">
        <ele>242.80000305176</ele>
        <time>2014-02-02T09:55:03.000Z</time>
      </trkpt>
      <trkpt lat="47.61424" lon="5.92031">
        <ele>242.19999694824</ele>
        <time>2014-02-02T09:55:04.000Z</time>
      </trkpt>
      <trkpt lat="47.61423" lon="5.92027">
        <ele>241.80000305176</ele>
        <time>2014-02-02T09:55:05.000Z</time>
      </trkpt>
      <trkpt lat="47.61424" lon="5.92016">
        <ele>241.80000305176</ele>
        <time>2014-02-02T09:55:08.000Z</time>
      </trkpt>
      <trkpt lat="47.61425" lon="5.92014">
        <ele>241.80000305176</ele>
        <time>2014-02-02T09:55:09.000Z</time>
      </trkpt>
      <trkpt lat="47.61426" lon="5.92012">
        <ele>241.39999389648</ele>
        <time>2014-02-02T09:55:10.000Z</time>
      </trkpt>
      <trkpt lat="47.61427" lon="5.9201">
        <ele>241</ele>
        <time>2014-02-02T09:55:11.000Z</time>
      </trkpt>
      <trkpt lat="47.61429" lon="5.9201">
        <ele>240.60000610352</ele>
        <time>2014-02-02T09:55:12.000Z</time>
      </trkpt>
      <trkpt lat="47.61431" lon="5.92008">
        <ele>240.19999694824</ele>
        <time>2014-02-02T09:55:13.000Z</time>
      </trkpt>
      <trkpt lat="47.61433" lon="5.92007">
        <ele>239.80000305176</ele>
        <time>2014-02-02T09:55:14.000Z</time>
      </trkpt>
      <trkpt lat="47.61449" lon="5.91995">
        <ele>239.80000305176</ele>
        <time>2014-02-02T09:55:20.000Z</time>
      </trkpt>
      <trkpt lat="47.61467" lon="5.91973">
        <ele>239.80000305176</ele>
        <time>2014-02-02T09:55:27.000Z</time>
      </trkpt>
      <trkpt lat="47.61469" lon="5.9195">
        <ele>239.80000305176</ele>
        <time>2014-02-02T09:55:31.000Z</time>
      </trkpt>
      <trkpt lat="47.61469" lon="5.91925">
        <ele>239.80000305176</ele>
        <time>2014-02-02T09:55:35.000Z</time>
      </trkpt>
      <trkpt lat="47.61471" lon="5.91913">
        <ele>239.39999389648</ele>
        <time>2014-02-02T09:55:37.000Z</time>
      </trkpt>
      <trkpt lat="47.61472" lon="5.91907">
        <ele>239</ele>
        <time>2014-02-02T09:55:38.000Z</time>
      </trkpt>
      <trkpt lat="47.61473" lon="5.91901">
        <ele>238.39999389648</ele>
        <time>2014-02-02T09:55:39.000Z</time>
      </trkpt>
      <trkpt lat="47.61475" lon="5.91896">
        <ele>238</ele>
        <time>2014-02-02T09:55:40.000Z</time>
      </trkpt>
      <trkpt lat="47.61477" lon="5.91891">
        <ele>237.60000610352</ele>
        <time>2014-02-02T09:55:41.000Z</time>
      </trkpt>
      <trkpt lat="47.61479" lon="5.91887">
        <ele>237.60000610352</ele>
        <time>2014-02-02T09:55:42.000Z</time>
      </trkpt>
      <trkpt lat="47.61491" lon="5.91866">
        <ele>237.19999694824</ele>
        <time>2014-02-02T09:55:47.000Z</time>
      </trkpt>
      <trkpt lat="47.61493" lon="5.91863">
        <ele>236.80000305176</ele>
        <time>2014-02-02T09:55:48.000Z</time>
      </trkpt>
      <trkpt lat="47.61495" lon="5.91859">
        <ele>236.39999389648</ele>
        <time>2014-02-02T09:55:49.000Z</time>
      </trkpt>
      <trkpt lat="47.61497" lon="5.91856">
        <ele>236</ele>
        <time>2014-02-02T09:55:50.000Z</time>
      </trkpt>
      <trkpt lat="47.615" lon="5.91852">
        <ele>235.60000610352</ele>
        <time>2014-02-02T09:55:51.000Z</time>
      </trkpt>
      <trkpt lat="47.61508" lon="5.91839">
        <ele>235.60000610352</ele>
        <time>2014-02-02T09:55:54.000Z</time>
      </trkpt>
      <trkpt lat="47.61524" lon="5.91809">
        <ele>235.19999694824</ele>
        <time>2014-02-02T09:55:59.000Z</time>
      </trkpt>
      <trkpt lat="47.61527" lon="5.91803">
        <ele>234.60000610352</ele>
        <time>2014-02-02T09:56:00.000Z</time>
      </trkpt>
      <trkpt lat="47.6153" lon="5.91798">
        <ele>234.19999694824</ele>
        <time>2014-02-02T09:56:01.000Z</time>
      </trkpt>
      <trkpt lat="47.61533" lon="5.91792">
        <ele>233.80000305176</ele>
        <time>2014-02-02T09:56:02.000Z</time>
      </trkpt>
      <trkpt lat="47.61537" lon="5.91787">
        <ele>233.39999389648</ele>
        <time>2014-02-02T09:56:03.000Z</time>
      </trkpt>
      <trkpt lat="47.61544" lon="5.91774">
        <ele>232.80000305176</ele>
        <time>2014-02-02T09:56:05.000Z</time>
      </trkpt>
      <trkpt lat="47.61549" lon="5.91769">
        <ele>232.39999389648</ele>
        <time>2014-02-02T09:56:06.000Z</time>
      </trkpt>
      <trkpt lat="47.61552" lon="5.91763">
        <ele>232</ele>
        <time>2014-02-02T09:56:07.000Z</time>
      </trkpt>
      <trkpt lat="47.61555" lon="5.91759">
        <ele>231.60000610352</ele>
        <time>2014-02-02T09:56:08.000Z</time>
      </trkpt>
      <trkpt lat="47.61559" lon="5.91753">
        <ele>231.19999694824</ele>
        <time>2014-02-02T09:56:09.000Z</time>
      </trkpt>
      <trkpt lat="47.61575" lon="5.91728">
        <ele>231.19999694824</ele>
        <time>2014-02-02T09:56:14.000Z</time>
      </trkpt>
      <trkpt lat="47.61591" lon="5.917">
        <ele>230</ele>
        <time>2014-02-02T09:56:18.000Z</time>
      </trkpt>
      <trkpt lat="47.61593" lon="5.91695">
        <ele>229.60000610352</ele>
        <time>2014-02-02T09:56:22.000Z</time>
      </trkpt>
      <trkpt lat="47.61596" lon="5.91691">
        <ele>229</ele>
        <time>2014-02-02T09:56:23.000Z</time>
      </trkpt>
      <trkpt lat="47.61598" lon="5.91687">
        <ele>229</ele>
        <time>2014-02-02T09:56:24.000Z</time>
      </trkpt>
      <trkpt lat="47.61613" lon="5.91655">
        <ele>229</ele>
        <time>2014-02-02T09:56:30.000Z</time>
      </trkpt>
      <trkpt lat="47.61629" lon="5.91616">
        <ele>229</ele>
        <time>2014-02-02T09:56:36.000Z</time>
      </trkpt>
      <trkpt lat="47.61632" lon="5.9161">
        <ele>229</ele>
        <time>2014-02-02T09:56:37.000Z</time>
      </trkpt>
      <trkpt lat="47.61647" lon="5.91574">
        <ele>229</ele>
        <time>2014-02-02T09:56:43.000Z</time>
      </trkpt>
      <trkpt lat="47.61668" lon="5.91522">
        <ele>229</ele>
        <time>2014-02-02T09:56:52.000Z</time>
      </trkpt>
      <trkpt lat="47.61673" lon="5.91509">
        <ele>229</ele>
        <time>2014-02-02T09:56:56.000Z</time>
      </trkpt>
      <trkpt lat="47.61673" lon="5.91506">
        <ele>229</ele>
        <time>2014-02-02T09:56:57.000Z</time>
      </trkpt>
      <trkpt lat="47.6167" lon="5.91502">
        <ele>228.60000610352</ele>
        <time>2014-02-02T09:56:59.000Z</time>
      </trkpt>
      <trkpt lat="47.61663" lon="5.91496">
        <ele>227.39999389648</ele>
        <time>2014-02-02T09:57:00.000Z</time>
      </trkpt>
      <trkpt lat="47.61663" lon="5.91496">
        <ele>227.39999389648</ele>
        <time>2014-02-02T09:57:02.000Z</time>
      </trkpt>
      <trkpt lat="47.61661" lon="5.91494">
        <ele>227</ele>
        <time>2014-02-02T09:57:03.000Z</time>
      </trkpt>
      <trkpt lat="47.61657" lon="5.91489">
        <ele>227</ele>
        <time>2014-02-02T09:57:05.000Z</time>
      </trkpt>
      <trkpt lat="47.61649" lon="5.91469">
        <ele>227</ele>
        <time>2014-02-02T09:57:11.000Z</time>
      </trkpt>
      <trkpt lat="47.61626" lon="5.91431">
        <ele>227</ele>
        <time>2014-02-02T09:57:17.000Z</time>
      </trkpt>
      <trkpt lat="47.61614" lon="5.91419">
        <ele>227</ele>
        <time>2014-02-02T09:57:20.000Z</time>
      </trkpt>
      <trkpt lat="47.61607" lon="5.91415">
        <ele>227</ele>
        <time>2014-02-02T09:57:24.000Z</time>
      </trkpt>
      <trkpt lat="47.61587" lon="5.9141">
        <ele>227</ele>
        <time>2014-02-02T09:57:30.000Z</time>
      </trkpt>
      <trkpt lat="47.61566" lon="5.91408">
        <ele>227</ele>
        <time>2014-02-02T09:57:36.000Z</time>
      </trkpt>
      <trkpt lat="47.61541" lon="5.91409">
        <ele>227</ele>
        <time>2014-02-02T09:57:43.000Z</time>
      </trkpt>
      <trkpt lat="47.61517" lon="5.9141">
        <ele>227</ele>
        <time>2014-02-02T09:57:51.000Z</time>
      </trkpt>
      <trkpt lat="47.61498" lon="5.91407">
        <ele>227</ele>
        <time>2014-02-02T09:57:57.000Z</time>
      </trkpt>
      <trkpt lat="47.61471" lon="5.914">
        <ele>227</ele>
        <time>2014-02-02T09:58:05.000Z</time>
      </trkpt>
      <trkpt lat="47.61459" lon="5.91394">
        <ele>227.60000610352</ele>
        <time>2014-02-02T09:58:09.000Z</time>
      </trkpt>
      <trkpt lat="47.61456" lon="5.91392">
        <ele>228.19999694824</ele>
        <time>2014-02-02T09:58:10.000Z</time>
      </trkpt>
      <trkpt lat="47.61453" lon="5.91391">
        <ele>228.80000305176</ele>
        <time>2014-02-02T09:58:11.000Z</time>
      </trkpt>
      <trkpt lat="47.6145" lon="5.91388">
        <ele>229.39999389648</ele>
        <time>2014-02-02T09:58:12.000Z</time>
      </trkpt>
      <trkpt lat="47.61447" lon="5.91386">
        <ele>230</ele>
        <time>2014-02-02T09:58:13.000Z</time>
      </trkpt>
      <trkpt lat="47.61433" lon="5.91374">
        <ele>230</ele>
        <time>2014-02-02T09:58:18.000Z</time>
      </trkpt>
      <trkpt lat="47.61413" lon="5.91355">
        <ele>230</ele>
        <time>2014-02-02T09:58:26.000Z</time>
      </trkpt>
      <trkpt lat="47.61393" lon="5.91335">
        <ele>230</ele>
        <time>2014-02-02T09:58:35.000Z</time>
      </trkpt>
      <trkpt lat="47.6138" lon="5.91323">
        <ele>230</ele>
        <time>2014-02-02T09:58:41.000Z</time>
      </trkpt>
      <trkpt lat="47.61376" lon="5.91319">
        <ele>230.39999389648</ele>
        <time>2014-02-02T09:58:43.000Z</time>
      </trkpt>
      <trkpt lat="47.61374" lon="5.91317">
        <ele>230.80000305176</ele>
        <time>2014-02-02T09:58:44.000Z</time>
      </trkpt>
      <trkpt lat="47.61371" lon="5.91316">
        <ele>231.39999389648</ele>
        <time>2014-02-02T09:58:45.000Z</time>
      </trkpt>
      <trkpt lat="47.61369" lon="5.91315">
        <ele>231.80000305176</ele>
        <time>2014-02-02T09:58:46.000Z</time>
      </trkpt>
      <trkpt lat="47.61366" lon="5.91314">
        <ele>232.19999694824</ele>
        <time>2014-02-02T09:58:47.000Z</time>
      </trkpt>
      <trkpt lat="47.61349" lon="5.91305">
        <ele>232.19999694824</ele>
        <time>2014-02-02T09:58:54.000Z</time>
      </trkpt>
      <trkpt lat="47.61342" lon="5.91301">
        <ele>232.60000610352</ele>
        <time>2014-02-02T09:58:57.000Z</time>
      </trkpt>
      <trkpt lat="47.6134" lon="5.913">
        <ele>233</ele>
        <time>2014-02-02T09:58:58.000Z</time>
      </trkpt>
      <trkpt lat="47.61338" lon="5.91298">
        <ele>233.39999389648</ele>
        <time>2014-02-02T09:58:59.000Z</time>
      </trkpt>
      <trkpt lat="47.61336" lon="5.91297">
        <ele>233.80000305176</ele>
        <time>2014-02-02T09:59:00.000Z</time>
      </trkpt>
      <trkpt lat="47.61334" lon="5.91296">
        <ele>234.19999694824</ele>
        <time>2014-02-02T09:59:01.000Z</time>
      </trkpt>
      <trkpt lat="47.61332" lon="5.91294">
        <ele>234.19999694824</ele>
        <time>2014-02-02T09:59:02.000Z</time>
      </trkpt>
      <trkpt lat="47.61318" lon="5.91287">
        <ele>234.60000610352</ele>
        <time>2014-02-02T09:59:09.000Z</time>
      </trkpt>
      <trkpt lat="47.61316" lon="5.91286">
        <ele>235</ele>
        <time>2014-02-02T09:59:10.000Z</time>
      </trkpt>
      <trkpt lat="47.61313" lon="5.91286">
        <ele>235.39999389648</ele>
        <time>2014-02-02T09:59:11.000Z</time>
      </trkpt>
      <trkpt lat="47.61311" lon="5.91285">
        <ele>235.80000305176</ele>
        <time>2014-02-02T09:59:12.000Z</time>
      </trkpt>
      <trkpt lat="47.61309" lon="5.91284">
        <ele>236.19999694824</ele>
        <time>2014-02-02T09:59:13.000Z</time>
      </trkpt>
      <trkpt lat="47.61297" lon="5.91279">
        <ele>236.19999694824</ele>
        <time>2014-02-02T09:59:19.000Z</time>
      </trkpt>
      <trkpt lat="47.61284" lon="5.91275">
        <ele>236.19999694824</ele>
        <time>2014-02-02T09:59:25.000Z</time>
      </trkpt>
      <trkpt lat="47.61276" lon="5.91272">
        <ele>236.19999694824</ele>
        <time>2014-02-02T09:59:31.000Z</time>
      </trkpt>
      <trkpt lat="47.61275" lon="5.91272">
        <ele>236.19999694824</ele>
        <time>2014-02-02T09:59:32.000Z</time>
      </trkpt>
      <trkpt lat="47.61272" lon="5.91271">
        <ele>236.19999694824</ele>
        <time>2014-02-02T09:59:35.000Z</time>
      </trkpt>
      <trkpt lat="47.61271" lon="5.9127">
        <ele>236.19999694824</ele>
        <time>2014-02-02T09:59:36.000Z</time>
      </trkpt>
      <trkpt lat="47.61259" lon="5.91267">
        <ele>238.19999694824</ele>
        <time>2014-02-02T09:59:47.000Z</time>
      </trkpt>
      <trkpt lat="47.61258" lon="5.91266">
        <ele>238.19999694824</ele>
        <time>2014-02-02T09:59:48.000Z</time>
      </trkpt>
      <trkpt lat="47.61256" lon="5.91265">
        <ele>238.19999694824</ele>
        <time>2014-02-02T09:59:49.000Z</time>
      </trkpt>
      <trkpt lat="47.61247" lon="5.91261">
        <ele>238.19999694824</ele>
        <time>2014-02-02T09:59:53.000Z</time>
      </trkpt>
      <trkpt lat="47.61241" lon="5.9126">
        <ele>238.19999694824</ele>
        <time>2014-02-02T09:59:55.000Z</time>
      </trkpt>
      <trkpt lat="47.61231" lon="5.91258">
        <ele>239</ele>
        <time>2014-02-02T09:59:58.000Z</time>
      </trkpt>
      <trkpt lat="47.61228" lon="5.91258">
        <ele>239.60000610352</ele>
        <time>2014-02-02T09:59:59.000Z</time>
      </trkpt>
      <trkpt lat="47.61225" lon="5.91257">
        <ele>240</ele>
        <time>2014-02-02T10:00:00.000Z</time>
      </trkpt>
      <trkpt lat="47.61223" lon="5.91257">
        <ele>240.39999389648</ele>
        <time>2014-02-02T10:00:01.000Z</time>
      </trkpt>
      <trkpt lat="47.61209" lon="5.91256">
        <ele>240.39999389648</ele>
        <time>2014-02-02T10:00:06.000Z</time>
      </trkpt>
      <trkpt lat="47.61195" lon="5.91252">
        <ele>240.39999389648</ele>
        <time>2014-02-02T10:00:12.000Z</time>
      </trkpt>
      <trkpt lat="47.6119" lon="5.91251">
        <ele>240.80000305176</ele>
        <time>2014-02-02T10:00:14.000Z</time>
      </trkpt>
      <trkpt lat="47.61188" lon="5.91251">
        <ele>241.19999694824</ele>
        <time>2014-02-02T10:00:15.000Z</time>
      </trkpt>
      <trkpt lat="47.61185" lon="5.9125">
        <ele>241.60000610352</ele>
        <time>2014-02-02T10:00:16.000Z</time>
      </trkpt>
      <trkpt lat="47.61183" lon="5.91249">
        <ele>242</ele>
        <time>2014-02-02T10:00:17.000Z</time>
      </trkpt>
      <trkpt lat="47.6118" lon="5.91248">
        <ele>242.39999389648</ele>
        <time>2014-02-02T10:00:18.000Z</time>
      </trkpt>
      <trkpt lat="47.61178" lon="5.91247">
        <ele>242.39999389648</ele>
        <time>2014-02-02T10:00:19.000Z</time>
      </trkpt>
      <trkpt lat="47.61164" lon="5.9124">
        <ele>242.39999389648</ele>
        <time>2014-02-02T10:00:25.000Z</time>
      </trkpt>
      <trkpt lat="47.61146" lon="5.91227">
        <ele>242.39999389648</ele>
        <time>2014-02-02T10:00:32.000Z</time>
      </trkpt>
      <trkpt lat="47.61142" lon="5.91224">
        <ele>242.80000305176</ele>
        <time>2014-02-02T10:00:34.000Z</time>
      </trkpt>
      <trkpt lat="47.6114" lon="5.91222">
        <ele>243.19999694824</ele>
        <time>2014-02-02T10:00:35.000Z</time>
      </trkpt>
      <trkpt lat="47.61137" lon="5.9122">
        <ele>243.60000610352</ele>
        <time>2014-02-02T10:00:36.000Z</time>
      </trkpt>
      <trkpt lat="47.61135" lon="5.91218">
        <ele>244</ele>
        <time>2014-02-02T10:00:37.000Z</time>
      </trkpt>
      <trkpt lat="47.61132" lon="5.91215">
        <ele>244.39999389648</ele>
        <time>2014-02-02T10:00:38.000Z</time>
      </trkpt>
      <trkpt lat="47.61115" lon="5.91203">
        <ele>244.39999389648</ele>
        <time>2014-02-02T10:00:44.000Z</time>
      </trkpt>
      <trkpt lat="47.611" lon="5.91194">
        <ele>244.39999389648</ele>
        <time>2014-02-02T10:00:49.000Z</time>
      </trkpt>
      <trkpt lat="47.61084" lon="5.91185">
        <ele>244.80000305176</ele>
        <time>2014-02-02T10:00:55.000Z</time>
      </trkpt>
      <trkpt lat="47.61082" lon="5.91183">
        <ele>245.19999694824</ele>
        <time>2014-02-02T10:00:56.000Z</time>
      </trkpt>
      <trkpt lat="47.61078" lon="5.91182">
        <ele>245.80000305176</ele>
        <time>2014-02-02T10:00:57.000Z</time>
      </trkpt>
      <trkpt lat="47.61075" lon="5.9118">
        <ele>246.19999694824</ele>
        <time>2014-02-02T10:00:58.000Z</time>
      </trkpt>
      <trkpt lat="47.61072" lon="5.91178">
        <ele>246.60000610352</ele>
        <time>2014-02-02T10:00:59.000Z</time>
      </trkpt>
      <trkpt lat="47.61057" lon="5.91171">
        <ele>246.60000610352</ele>
        <time>2014-02-02T10:01:04.000Z</time>
      </trkpt>
      <trkpt lat="47.61036" lon="5.91163">
        <ele>246.60000610352</ele>
        <time>2014-02-02T10:01:10.000Z</time>
      </trkpt>
      <trkpt lat="47.61032" lon="5.9116">
        <ele>246.60000610352</ele>
        <time>2014-02-02T10:01:11.000Z</time>
      </trkpt>
      <trkpt lat="47.61014" lon="5.91154">
        <ele>246.60000610352</ele>
        <time>2014-02-02T10:01:15.000Z</time>
      </trkpt>
      <trkpt lat="47.6098" lon="5.91148">
        <ele>246.60000610352</ele>
        <time>2014-02-02T10:01:22.000Z</time>
      </trkpt>
      <trkpt lat="47.60975" lon="5.91147">
        <ele>246.19999694824</ele>
        <time>2014-02-02T10:01:23.000Z</time>
      </trkpt>
      <trkpt lat="47.6097" lon="5.91147">
        <ele>245.60000610352</ele>
        <time>2014-02-02T10:01:24.000Z</time>
      </trkpt>
      <trkpt lat="47.60966" lon="5.91146">
        <ele>245.19999694824</ele>
        <time>2014-02-02T10:01:25.000Z</time>
      </trkpt>
      <trkpt lat="47.60961" lon="5.91145">
        <ele>244.80000305176</ele>
        <time>2014-02-02T10:01:26.000Z</time>
      </trkpt>
      <trkpt lat="47.60956" lon="5.91144">
        <ele>244.39999389648</ele>
        <time>2014-02-02T10:01:27.000Z</time>
      </trkpt>
      <trkpt lat="47.60952" lon="5.91142">
        <ele>244.39999389648</ele>
        <time>2014-02-02T10:01:28.000Z</time>
      </trkpt>
      <trkpt lat="47.60947" lon="5.9114">
        <ele>244.39999389648</ele>
        <time>2014-02-02T10:01:29.000Z</time>
      </trkpt>
      <trkpt lat="47.60942" lon="5.91138">
        <ele>244.39999389648</ele>
        <time>2014-02-02T10:01:30.000Z</time>
      </trkpt>
      <trkpt lat="47.60925" lon="5.91133">
        <ele>244</ele>
        <time>2014-02-02T10:01:33.000Z</time>
      </trkpt>
      <trkpt lat="47.60919" lon="5.91132">
        <ele>243.60000610352</ele>
        <time>2014-02-02T10:01:34.000Z</time>
      </trkpt>
      <trkpt lat="47.60913" lon="5.91131">
        <ele>243</ele>
        <time>2014-02-02T10:01:35.000Z</time>
      </trkpt>
      <trkpt lat="47.60907" lon="5.91129">
        <ele>242.19999694824</ele>
        <time>2014-02-02T10:01:36.000Z</time>
      </trkpt>
      <trkpt lat="47.60902" lon="5.91128">
        <ele>241.80000305176</ele>
        <time>2014-02-02T10:01:37.000Z</time>
      </trkpt>
      <trkpt lat="47.60896" lon="5.91127">
        <ele>241.39999389648</ele>
        <time>2014-02-02T10:01:38.000Z</time>
      </trkpt>
      <trkpt lat="47.60891" lon="5.91126">
        <ele>240.80000305176</ele>
        <time>2014-02-02T10:01:39.000Z</time>
      </trkpt>
      <trkpt lat="47.60885" lon="5.91126">
        <ele>240.39999389648</ele>
        <time>2014-02-02T10:01:40.000Z</time>
      </trkpt>
      <trkpt lat="47.6088" lon="5.91124">
        <ele>240</ele>
        <time>2014-02-02T10:01:41.000Z</time>
      </trkpt>
      <trkpt lat="47.60875" lon="5.91123">
        <ele>240</ele>
        <time>2014-02-02T10:01:42.000Z</time>
      </trkpt>
      <trkpt lat="47.60865" lon="5.91121">
        <ele>240</ele>
        <time>2014-02-02T10:01:44.000Z</time>
      </trkpt>
      <trkpt lat="47.6085" lon="5.91117">
        <ele>239.60000610352</ele>
        <time>2014-02-02T10:01:47.000Z</time>
      </trkpt>
      <trkpt lat="47.60845" lon="5.91116">
        <ele>239.19999694824</ele>
        <time>2014-02-02T10:01:48.000Z</time>
      </trkpt>
      <trkpt lat="47.6084" lon="5.91115">
        <ele>238.80000305176</ele>
        <time>2014-02-02T10:01:49.000Z</time>
      </trkpt>
      <trkpt lat="47.60835" lon="5.91114">
        <ele>238.39999389648</ele>
        <time>2014-02-02T10:01:50.000Z</time>
      </trkpt>
      <trkpt lat="47.6083" lon="5.91112">
        <ele>238</ele>
        <time>2014-02-02T10:01:51.000Z</time>
      </trkpt>
      <trkpt lat="47.6081" lon="5.91105">
        <ele>238</ele>
        <time>2014-02-02T10:01:55.000Z</time>
      </trkpt>
      <trkpt lat="47.60795" lon="5.91098">
        <ele>238</ele>
        <time>2014-02-02T10:01:58.000Z</time>
      </trkpt>
      <trkpt lat="47.60789" lon="5.91096">
        <ele>237.60000610352</ele>
        <time>2014-02-02T10:01:59.000Z</time>
      </trkpt>
      <trkpt lat="47.60784" lon="5.91093">
        <ele>237.19999694824</ele>
        <time>2014-02-02T10:02:00.000Z</time>
      </trkpt>
      <trkpt lat="47.60779" lon="5.91091">
        <ele>236.19999694824</ele>
        <time>2014-02-02T10:02:01.000Z</time>
      </trkpt>
      <trkpt lat="47.60773" lon="5.91089">
        <ele>235.80000305176</ele>
        <time>2014-02-02T10:02:02.000Z</time>
      </trkpt>
      <trkpt lat="47.60744" lon="5.91074">
        <ele>235.80000305176</ele>
        <time>2014-02-02T10:02:08.000Z</time>
      </trkpt>
      <trkpt lat="47.60739" lon="5.91071">
        <ele>235.39999389648</ele>
        <time>2014-02-02T10:02:09.000Z</time>
      </trkpt>
      <trkpt lat="47.60734" lon="5.91068">
        <ele>235</ele>
        <time>2014-02-02T10:02:10.000Z</time>
      </trkpt>
      <trkpt lat="47.60729" lon="5.91064">
        <ele>234.60000610352</ele>
        <time>2014-02-02T10:02:11.000Z</time>
      </trkpt>
      <trkpt lat="47.60723" lon="5.91062">
        <ele>234.19999694824</ele>
        <time>2014-02-02T10:02:12.000Z</time>
      </trkpt>
      <trkpt lat="47.60718" lon="5.91059">
        <ele>233.80000305176</ele>
        <time>2014-02-02T10:02:13.000Z</time>
      </trkpt>
      <trkpt lat="47.60713" lon="5.91056">
        <ele>233.80000305176</ele>
        <time>2014-02-02T10:02:14.000Z</time>
      </trkpt>
      <trkpt lat="47.60664" lon="5.91025">
        <ele>233.39999389648</ele>
        <time>2014-02-02T10:02:24.000Z</time>
      </trkpt>
      <trkpt lat="47.60659" lon="5.91022">
        <ele>233</ele>
        <time>2014-02-02T10:02:25.000Z</time>
      </trkpt>
      <trkpt lat="47.60654" lon="5.91019">
        <ele>232</ele>
        <time>2014-02-02T10:02:26.000Z</time>
      </trkpt>
      <trkpt lat="47.60649" lon="5.91017">
        <ele>231.60000610352</ele>
        <time>2014-02-02T10:02:27.000Z</time>
      </trkpt>
      <trkpt lat="47.60619" lon="5.91004">
        <ele>231.60000610352</ele>
        <time>2014-02-02T10:02:33.000Z</time>
      </trkpt>
      <trkpt lat="47.60613" lon="5.91003">
        <ele>231.60000610352</ele>
        <time>2014-02-02T10:02:34.000Z</time>
      </trkpt>
      <trkpt lat="47.60608" lon="5.91002">
        <ele>231.19999694824</ele>
        <time>2014-02-02T10:02:35.000Z</time>
      </trkpt>
      <trkpt lat="47.60602" lon="5.91">
        <ele>230.80000305176</ele>
        <time>2014-02-02T10:02:36.000Z</time>
      </trkpt>
      <trkpt lat="47.60596" lon="5.90999">
        <ele>230.39999389648</ele>
        <time>2014-02-02T10:02:37.000Z</time>
      </trkpt>
      <trkpt lat="47.60591" lon="5.90997">
        <ele>230</ele>
        <time>2014-02-02T10:02:38.000Z</time>
      </trkpt>
      <trkpt lat="47.60585" lon="5.90995">
        <ele>229.39999389648</ele>
        <time>2014-02-02T10:02:39.000Z</time>
      </trkpt>
      <trkpt lat="47.60571" lon="5.90988">
        <ele>229</ele>
        <time>2014-02-02T10:02:43.000Z</time>
      </trkpt>
      <trkpt lat="47.60571" lon="5.90988">
        <ele>228.39999389648</ele>
        <time>2014-02-02T10:02:44.000Z</time>
      </trkpt>
      <trkpt lat="47.6057" lon="5.90982">
        <ele>227</ele>
        <time>2014-02-02T10:02:47.000Z</time>
      </trkpt>
      <trkpt lat="47.60566" lon="5.90982">
        <ele>227</ele>
        <time>2014-02-02T10:02:49.000Z</time>
      </trkpt>
      <trkpt lat="47.60561" lon="5.90993">
        <ele>227</ele>
        <time>2014-02-02T10:02:53.000Z</time>
      </trkpt>
      <trkpt lat="47.6055" lon="5.91">
        <ele>227</ele>
        <time>2014-02-02T10:02:57.000Z</time>
      </trkpt>
      <trkpt lat="47.60546" lon="5.91003">
        <ele>227</ele>
        <time>2014-02-02T10:02:58.000Z</time>
      </trkpt>
      <trkpt lat="47.60535" lon="5.91012">
        <ele>227</ele>
        <time>2014-02-02T10:03:01.000Z</time>
      </trkpt>
      <trkpt lat="47.60526" lon="5.91013">
        <ele>226.60000610352</ele>
        <time>2014-02-02T10:03:03.000Z</time>
      </trkpt>
      <trkpt lat="47.60521" lon="5.9101">
        <ele>226.19999694824</ele>
        <time>2014-02-02T10:03:04.000Z</time>
      </trkpt>
      <trkpt lat="47.60516" lon="5.91006">
        <ele>225.80000305176</ele>
        <time>2014-02-02T10:03:05.000Z</time>
      </trkpt>
      <trkpt lat="47.60511" lon="5.91001">
        <ele>225.19999694824</ele>
        <time>2014-02-02T10:03:06.000Z</time>
      </trkpt>
      <trkpt lat="47.60506" lon="5.90994">
        <ele>224.80000305176</ele>
        <time>2014-02-02T10:03:07.000Z</time>
      </trkpt>
      <trkpt lat="47.60498" lon="5.90978">
        <ele>224.80000305176</ele>
        <time>2014-02-02T10:03:09.000Z</time>
      </trkpt>
      <trkpt lat="47.60493" lon="5.90961">
        <ele>224.39999389648</ele>
        <time>2014-02-02T10:03:11.000Z</time>
      </trkpt>
      <trkpt lat="47.6049" lon="5.90952">
        <ele>224</ele>
        <time>2014-02-02T10:03:12.000Z</time>
      </trkpt>
      <trkpt lat="47.60487" lon="5.90944">
        <ele>223.60000610352</ele>
        <time>2014-02-02T10:03:13.000Z</time>
      </trkpt>
      <trkpt lat="47.60484" lon="5.90936">
        <ele>223.19999694824</ele>
        <time>2014-02-02T10:03:14.000Z</time>
      </trkpt>
      <trkpt lat="47.6048" lon="5.90929">
        <ele>222.80000305176</ele>
        <time>2014-02-02T10:03:15.000Z</time>
      </trkpt>
      <trkpt lat="47.60467" lon="5.9091">
        <ele>222.80000305176</ele>
        <time>2014-02-02T10:03:18.000Z</time>
      </trkpt>
      <trkpt lat="47.6045" lon="5.90898">
        <ele>222.80000305176</ele>
        <time>2014-02-02T10:03:22.000Z</time>
      </trkpt>
      <trkpt lat="47.60446" lon="5.90896">
        <ele>222.80000305176</ele>
        <time>2014-02-02T10:03:23.000Z</time>
      </trkpt>
      <trkpt lat="47.60426" lon="5.90892">
        <ele>222.80000305176</ele>
        <time>2014-02-02T10:03:28.000Z</time>
      </trkpt>
      <trkpt lat="47.6041" lon="5.90885">
        <ele>222.80000305176</ele>
        <time>2014-02-02T10:03:34.000Z</time>
      </trkpt>
      <trkpt lat="47.60392" lon="5.9087">
        <ele>222.80000305176</ele>
        <time>2014-02-02T10:03:41.000Z</time>
      </trkpt>
      <trkpt lat="47.6038" lon="5.90853">
        <ele>222.80000305176</ele>
        <time>2014-02-02T10:03:47.000Z</time>
      </trkpt>
      <trkpt lat="47.6037" lon="5.90833">
        <ele>222.80000305176</ele>
        <time>2014-02-02T10:03:53.000Z</time>
      </trkpt>
      <trkpt lat="47.60355" lon="5.90807">
        <ele>222.80000305176</ele>
        <time>2014-02-02T10:04:00.000Z</time>
      </trkpt>
      <trkpt lat="47.60335" lon="5.90787">
        <ele>222.80000305176</ele>
        <time>2014-02-02T10:04:07.000Z</time>
      </trkpt>
      <trkpt lat="47.60317" lon="5.90775">
        <ele>222.80000305176</ele>
        <time>2014-02-02T10:04:13.000Z</time>
      </trkpt>
      <trkpt lat="47.60294" lon="5.90758">
        <ele>222.80000305176</ele>
        <time>2014-02-02T10:04:20.000Z</time>
      </trkpt>
      <trkpt lat="47.60275" lon="5.90737">
        <ele>222.80000305176</ele>
        <time>2014-02-02T10:04:27.000Z</time>
      </trkpt>
      <trkpt lat="47.60266" lon="5.90713">
        <ele>222.80000305176</ele>
        <time>2014-02-02T10:04:33.000Z</time>
      </trkpt>
      <trkpt lat="47.60259" lon="5.90685">
        <ele>222.80000305176</ele>
        <time>2014-02-02T10:04:40.000Z</time>
      </trkpt>
      <trkpt lat="47.60258" lon="5.90681">
        <ele>223.19999694824</ele>
        <time>2014-02-02T10:04:41.000Z</time>
      </trkpt>
      <trkpt lat="47.60257" lon="5.90677">
        <ele>223.60000610352</ele>
        <time>2014-02-02T10:04:42.000Z</time>
      </trkpt>
      <trkpt lat="47.60256" lon="5.90673">
        <ele>224</ele>
        <time>2014-02-02T10:04:43.000Z</time>
      </trkpt>
      <trkpt lat="47.60255" lon="5.90669">
        <ele>224.60000610352</ele>
        <time>2014-02-02T10:04:44.000Z</time>
      </trkpt>
      <trkpt lat="47.60254" lon="5.90665">
        <ele>225</ele>
        <time>2014-02-02T10:04:45.000Z</time>
      </trkpt>
      <trkpt lat="47.60252" lon="5.90658">
        <ele>225</ele>
        <time>2014-02-02T10:04:47.000Z</time>
      </trkpt>
      <trkpt lat="47.60246" lon="5.90635">
        <ele>225</ele>
        <time>2014-02-02T10:04:53.000Z</time>
      </trkpt>
      <trkpt lat="47.60244" lon="5.90626">
        <ele>225.39999389648</ele>
        <time>2014-02-02T10:04:55.000Z</time>
      </trkpt>
      <trkpt lat="47.60244" lon="5.90622">
        <ele>225.80000305176</ele>
        <time>2014-02-02T10:04:56.000Z</time>
      </trkpt>
      <trkpt lat="47.60243" lon="5.90618">
        <ele>226.19999694824</ele>
        <time>2014-02-02T10:04:57.000Z</time>
      </trkpt>
      <trkpt lat="47.60242" lon="5.90613">
        <ele>226.60000610352</ele>
        <time>2014-02-02T10:04:58.000Z</time>
      </trkpt>
      <trkpt lat="47.60242" lon="5.90609">
        <ele>227</ele>
        <time>2014-02-02T10:04:59.000Z</time>
      </trkpt>
      <trkpt lat="47.60241" lon="5.90604">
        <ele>227</ele>
        <time>2014-02-02T10:05:00.000Z</time>
      </trkpt>
      <trkpt lat="47.60234" lon="5.90575">
        <ele>227</ele>
        <time>2014-02-02T10:05:08.000Z</time>
      </trkpt>
      <trkpt lat="47.6023" lon="5.90556">
        <ele>227.39999389648</ele>
        <time>2014-02-02T10:05:13.000Z</time>
      </trkpt>
      <trkpt lat="47.60228" lon="5.90553">
        <ele>227.80000305176</ele>
        <time>2014-02-02T10:05:14.000Z</time>
      </trkpt>
      <trkpt lat="47.60228" lon="5.90549">
        <ele>228.19999694824</ele>
        <time>2014-02-02T10:05:15.000Z</time>
      </trkpt>
      <trkpt lat="47.60227" lon="5.90547">
        <ele>228.60000610352</ele>
        <time>2014-02-02T10:05:16.000Z</time>
      </trkpt>
      <trkpt lat="47.60227" lon="5.90544">
        <ele>229</ele>
        <time>2014-02-02T10:05:17.000Z</time>
      </trkpt>
      <trkpt lat="47.60226" lon="5.90537">
        <ele>229</ele>
        <time>2014-02-02T10:05:20.000Z</time>
      </trkpt>
      <trkpt lat="47.60225" lon="5.90534">
        <ele>229</ele>
        <time>2014-02-02T10:05:21.000Z</time>
      </trkpt>
      <trkpt lat="47.60221" lon="5.90513">
        <ele>229</ele>
        <time>2014-02-02T10:05:28.000Z</time>
      </trkpt>
      <trkpt lat="47.60214" lon="5.90491">
        <ele>229</ele>
        <time>2014-02-02T10:05:35.000Z</time>
      </trkpt>
      <trkpt lat="47.6021" lon="5.9047">
        <ele>229</ele>
        <time>2014-02-02T10:05:41.000Z</time>
      </trkpt>
      <trkpt lat="47.60209" lon="5.90467">
        <ele>229.39999389648</ele>
        <time>2014-02-02T10:05:42.000Z</time>
      </trkpt>
      <trkpt lat="47.60207" lon="5.90464">
        <ele>230.19999694824</ele>
        <time>2014-02-02T10:05:43.000Z</time>
      </trkpt>
      <trkpt lat="47.60207" lon="5.90461">
        <ele>230.60000610352</ele>
        <time>2014-02-02T10:05:44.000Z</time>
      </trkpt>
      <trkpt lat="47.60207" lon="5.90458">
        <ele>231.19999694824</ele>
        <time>2014-02-02T10:05:45.000Z</time>
      </trkpt>
      <trkpt lat="47.60204" lon="5.90448">
        <ele>231.19999694824</ele>
        <time>2014-02-02T10:05:48.000Z</time>
      </trkpt>
      <trkpt lat="47.60202" lon="5.90443">
        <ele>231.19999694824</ele>
        <time>2014-02-02T10:05:50.000Z</time>
      </trkpt>
      <trkpt lat="47.60198" lon="5.90427">
        <ele>231.19999694824</ele>
        <time>2014-02-02T10:05:55.000Z</time>
      </trkpt>
      <trkpt lat="47.6019" lon="5.90405">
        <ele>231.60000610352</ele>
        <time>2014-02-02T10:06:01.000Z</time>
      </trkpt>
      <trkpt lat="47.60189" lon="5.90401">
        <ele>232</ele>
        <time>2014-02-02T10:06:02.000Z</time>
      </trkpt>
      <trkpt lat="47.60187" lon="5.90398">
        <ele>232.39999389648</ele>
        <time>2014-02-02T10:06:03.000Z</time>
      </trkpt>
      <trkpt lat="47.60186" lon="5.90395">
        <ele>232.80000305176</ele>
        <time>2014-02-02T10:06:04.000Z</time>
      </trkpt>
      <trkpt lat="47.60185" lon="5.90391">
        <ele>233.19999694824</ele>
        <time>2014-02-02T10:06:05.000Z</time>
      </trkpt>
      <trkpt lat="47.60178" lon="5.90378">
        <ele>233.19999694824</ele>
        <time>2014-02-02T10:06:09.000Z</time>
      </trkpt>
      <trkpt lat="47.60172" lon="5.90352">
        <ele>233.19999694824</ele>
        <time>2014-02-02T10:06:16.000Z</time>
      </trkpt>
      <trkpt lat="47.6017" lon="5.90344">
        <ele>233.80000305176</ele>
        <time>2014-02-02T10:06:18.000Z</time>
      </trkpt>
      <trkpt lat="47.6017" lon="5.90341">
        <ele>234.19999694824</ele>
        <time>2014-02-02T10:06:19.000Z</time>
      </trkpt>
      <trkpt lat="47.60169" lon="5.90337">
        <ele>234.80000305176</ele>
        <time>2014-02-02T10:06:20.000Z</time>
      </trkpt>
      <trkpt lat="47.60168" lon="5.90334">
        <ele>235.39999389648</ele>
        <time>2014-02-02T10:06:21.000Z</time>
      </trkpt>
      <trkpt lat="47.60168" lon="5.9033">
        <ele>235.80000305176</ele>
        <time>2014-02-02T10:06:22.000Z</time>
      </trkpt>
      <trkpt lat="47.60166" lon="5.90312">
        <ele>235.80000305176</ele>
        <time>2014-02-02T10:06:27.000Z</time>
      </trkpt>
      <trkpt lat="47.60164" lon="5.90281">
        <ele>235.80000305176</ele>
        <time>2014-02-02T10:06:34.000Z</time>
      </trkpt>
      <trkpt lat="47.60161" lon="5.90252">
        <ele>235.80000305176</ele>
        <time>2014-02-02T10:06:41.000Z</time>
      </trkpt>
      <trkpt lat="47.60157" lon="5.90223">
        <ele>235.80000305176</ele>
        <time>2014-02-02T10:06:48.000Z</time>
      </trkpt>
      <trkpt lat="47.60153" lon="5.9019">
        <ele>235.80000305176</ele>
        <time>2014-02-02T10:06:56.000Z</time>
      </trkpt>
      <trkpt lat="47.60149" lon="5.90165">
        <ele>236.39999389648</ele>
        <time>2014-02-02T10:07:02.000Z</time>
      </trkpt>
      <trkpt lat="47.60148" lon="5.90161">
        <ele>236.80000305176</ele>
        <time>2014-02-02T10:07:03.000Z</time>
      </trkpt>
      <trkpt lat="47.60147" lon="5.90157">
        <ele>237.39999389648</ele>
        <time>2014-02-02T10:07:04.000Z</time>
      </trkpt>
      <trkpt lat="47.60147" lon="5.90153">
        <ele>237.80000305176</ele>
        <time>2014-02-02T10:07:05.000Z</time>
      </trkpt>
      <trkpt lat="47.60146" lon="5.90149">
        <ele>238.39999389648</ele>
        <time>2014-02-02T10:07:06.000Z</time>
      </trkpt>
      <trkpt lat="47.60142" lon="5.90121">
        <ele>238.39999389648</ele>
        <time>2014-02-02T10:07:13.000Z</time>
      </trkpt>
      <trkpt lat="47.60136" lon="5.90096">
        <ele>238.39999389648</ele>
        <time>2014-02-02T10:07:19.000Z</time>
      </trkpt>
      <trkpt lat="47.60127" lon="5.90063">
        <ele>238.39999389648</ele>
        <time>2014-02-02T10:07:27.000Z</time>
      </trkpt>
      <trkpt lat="47.60118" lon="5.90032">
        <ele>238.39999389648</ele>
        <time>2014-02-02T10:07:36.000Z</time>
      </trkpt>
      <trkpt lat="47.6011" lon="5.90007">
        <ele>238.39999389648</ele>
        <time>2014-02-02T10:07:43.000Z</time>
      </trkpt>
      <trkpt lat="47.60106" lon="5.89979">
        <ele>238.39999389648</ele>
        <time>2014-02-02T10:07:49.000Z</time>
      </trkpt>
      <trkpt lat="47.601" lon="5.89953">
        <ele>238.39999389648</ele>
        <time>2014-02-02T10:07:57.000Z</time>
      </trkpt>
      <trkpt lat="47.60092" lon="5.89931">
        <ele>238.39999389648</ele>
        <time>2014-02-02T10:08:02.000Z</time>
      </trkpt>
      <trkpt lat="47.60084" lon="5.89907">
        <ele>238.39999389648</ele>
        <time>2014-02-02T10:08:08.000Z</time>
      </trkpt>
      <trkpt lat="47.60073" lon="5.89878">
        <ele>238.39999389648</ele>
        <time>2014-02-02T10:08:15.000Z</time>
      </trkpt>
      <trkpt lat="47.6006" lon="5.89855">
        <ele>238.39999389648</ele>
        <time>2014-02-02T10:08:22.000Z</time>
      </trkpt>
      <trkpt lat="47.60045" lon="5.8983">
        <ele>238.39999389648</ele>
        <time>2014-02-02T10:08:29.000Z</time>
      </trkpt>
      <trkpt lat="47.60024" lon="5.898">
        <ele>238.39999389648</ele>
        <time>2014-02-02T10:08:35.000Z</time>
      </trkpt>
      <trkpt lat="47.60011" lon="5.89784">
        <ele>238.39999389648</ele>
        <time>2014-02-02T10:08:43.000Z</time>
      </trkpt>
      <trkpt lat="47.59989" lon="5.89763">
        <ele>238.39999389648</ele>
        <time>2014-02-02T10:08:50.000Z</time>
      </trkpt>
      <trkpt lat="47.59971" lon="5.89748">
        <ele>238.39999389648</ele>
        <time>2014-02-02T10:08:56.000Z</time>
      </trkpt>
      <trkpt lat="47.59941" lon="5.89728">
        <ele>238.39999389648</ele>
        <time>2014-02-02T10:09:05.000Z</time>
      </trkpt>
      <trkpt lat="47.59905" lon="5.89699">
        <ele>238.39999389648</ele>
        <time>2014-02-02T10:09:15.000Z</time>
      </trkpt>
      <trkpt lat="47.59888" lon="5.89688">
        <ele>238.39999389648</ele>
        <time>2014-02-02T10:09:21.000Z</time>
      </trkpt>
      <trkpt lat="47.59876" lon="5.89689">
        <ele>238.39999389648</ele>
        <time>2014-02-02T10:09:26.000Z</time>
      </trkpt>
      <trkpt lat="47.59868" lon="5.89696">
        <ele>238.39999389648</ele>
        <time>2014-02-02T10:09:28.000Z</time>
      </trkpt>
      <trkpt lat="47.59864" lon="5.89702">
        <ele>237.80000305176</ele>
        <time>2014-02-02T10:09:29.000Z</time>
      </trkpt>
      <trkpt lat="47.59859" lon="5.89707">
        <ele>237.39999389648</ele>
        <time>2014-02-02T10:09:30.000Z</time>
      </trkpt>
      <trkpt lat="47.59855" lon="5.89712">
        <ele>237</ele>
        <time>2014-02-02T10:09:31.000Z</time>
      </trkpt>
      <trkpt lat="47.59851" lon="5.89716">
        <ele>236.60000610352</ele>
        <time>2014-02-02T10:09:32.000Z</time>
      </trkpt>
      <trkpt lat="47.59847" lon="5.8972">
        <ele>236.19999694824</ele>
        <time>2014-02-02T10:09:33.000Z</time>
      </trkpt>
      <trkpt lat="47.59822" lon="5.89748">
        <ele>236.19999694824</ele>
        <time>2014-02-02T10:09:40.000Z</time>
      </trkpt>
      <trkpt lat="47.59814" lon="5.89755">
        <ele>235.80000305176</ele>
        <time>2014-02-02T10:09:42.000Z</time>
      </trkpt>
      <trkpt lat="47.5981" lon="5.89758">
        <ele>235.39999389648</ele>
        <time>2014-02-02T10:09:43.000Z</time>
      </trkpt>
      <trkpt lat="47.59806" lon="5.89762">
        <ele>235</ele>
        <time>2014-02-02T10:09:44.000Z</time>
      </trkpt>
      <trkpt lat="47.59801" lon="5.89765">
        <ele>234.39999389648</ele>
        <time>2014-02-02T10:09:45.000Z</time>
      </trkpt>
      <trkpt lat="47.59797" lon="5.89769">
        <ele>234</ele>
        <time>2014-02-02T10:09:46.000Z</time>
      </trkpt>
      <trkpt lat="47.59789" lon="5.89775">
        <ele>234</ele>
        <time>2014-02-02T10:09:48.000Z</time>
      </trkpt>
      <trkpt lat="47.59764" lon="5.89796">
        <ele>234</ele>
        <time>2014-02-02T10:09:52.000Z</time>
      </trkpt>
      <trkpt lat="47.5976" lon="5.898">
        <ele>234</ele>
        <time>2014-02-02T10:09:55.000Z</time>
      </trkpt>
      <trkpt lat="47.59754" lon="5.8981">
        <ele>233.60000610352</ele>
        <time>2014-02-02T10:09:57.000Z</time>
      </trkpt>
      <trkpt lat="47.59751" lon="5.89815">
        <ele>233.19999694824</ele>
        <time>2014-02-02T10:09:58.000Z</time>
      </trkpt>
      <trkpt lat="47.59748" lon="5.8982">
        <ele>232.80000305176</ele>
        <time>2014-02-02T10:09:59.000Z</time>
      </trkpt>
      <trkpt lat="47.59745" lon="5.89825">
        <ele>232.39999389648</ele>
        <time>2014-02-02T10:10:00.000Z</time>
      </trkpt>
      <trkpt lat="47.59735" lon="5.89839">
        <ele>231.80000305176</ele>
        <time>2014-02-02T10:10:01.000Z</time>
      </trkpt>
      <trkpt lat="47.59729" lon="5.89847">
        <ele>231.80000305176</ele>
        <time>2014-02-02T10:10:05.000Z</time>
      </trkpt>
      <trkpt lat="47.59716" lon="5.89866">
        <ele>231.80000305176</ele>
        <time>2014-02-02T10:10:09.000Z</time>
      </trkpt>
      <trkpt lat="47.59713" lon="5.8987">
        <ele>231.80000305176</ele>
        <time>2014-02-02T10:10:10.000Z</time>
      </trkpt>
      <trkpt lat="47.59698" lon="5.89894">
        <ele>231.80000305176</ele>
        <time>2014-02-02T10:10:16.000Z</time>
      </trkpt>
      <trkpt lat="47.59693" lon="5.89902">
        <ele>231.39999389648</ele>
        <time>2014-02-02T10:10:18.000Z</time>
      </trkpt>
      <trkpt lat="47.59691" lon="5.89907">
        <ele>231</ele>
        <time>2014-02-02T10:10:19.000Z</time>
      </trkpt>
      <trkpt lat="47.59688" lon="5.89911">
        <ele>230.60000610352</ele>
        <time>2014-02-02T10:10:20.000Z</time>
      </trkpt>
      <trkpt lat="47.59686" lon="5.89915">
        <ele>230.19999694824</ele>
        <time>2014-02-02T10:10:21.000Z</time>
      </trkpt>
      <trkpt lat="47.59684" lon="5.8992">
        <ele>229.80000305176</ele>
        <time>2014-02-02T10:10:22.000Z</time>
      </trkpt>
      <trkpt lat="47.59667" lon="5.89945">
        <ele>229.80000305176</ele>
        <time>2014-02-02T10:10:28.000Z</time>
      </trkpt>
      <trkpt lat="47.59654" lon="5.89958">
        <ele>229.80000305176</ele>
        <time>2014-02-02T10:10:33.000Z</time>
      </trkpt>
      <trkpt lat="47.59641" lon="5.8997">
        <ele>229.80000305176</ele>
        <time>2014-02-02T10:10:38.000Z</time>
      </trkpt>
      <trkpt lat="47.59637" lon="5.89971">
        <ele>229.39999389648</ele>
        <time>2014-02-02T10:10:39.000Z</time>
      </trkpt>
      <trkpt lat="47.59636" lon="5.89974">
        <ele>228.60000610352</ele>
        <time>2014-02-02T10:10:40.000Z</time>
      </trkpt>
      <trkpt lat="47.59634" lon="5.89977">
        <ele>228.19999694824</ele>
        <time>2014-02-02T10:10:41.000Z</time>
      </trkpt>
      <trkpt lat="47.59633" lon="5.89979">
        <ele>227.80000305176</ele>
        <time>2014-02-02T10:10:42.000Z</time>
      </trkpt>
      <trkpt lat="47.59628" lon="5.89991">
        <ele>227.80000305176</ele>
        <time>2014-02-02T10:10:47.000Z</time>
      </trkpt>
      <trkpt lat="47.59619" lon="5.90011">
        <ele>227.80000305176</ele>
        <time>2014-02-02T10:10:53.000Z</time>
      </trkpt>
      <trkpt lat="47.59601" lon="5.9003">
        <ele>227.80000305176</ele>
        <time>2014-02-02T10:10:59.000Z</time>
      </trkpt>
      <trkpt lat="47.59578" lon="5.90055">
        <ele>227.80000305176</ele>
        <time>2014-02-02T10:11:06.000Z</time>
      </trkpt>
      <trkpt lat="47.59553" lon="5.90081">
        <ele>227.80000305176</ele>
        <time>2014-02-02T10:11:14.000Z</time>
      </trkpt>
      <trkpt lat="47.59523" lon="5.90111">
        <ele>227.80000305176</ele>
        <time>2014-02-02T10:11:23.000Z</time>
      </trkpt>
      <trkpt lat="47.595" lon="5.9013">
        <ele>227.39999389648</ele>
        <time>2014-02-02T10:11:29.000Z</time>
      </trkpt>
      <trkpt lat="47.59496" lon="5.90133">
        <ele>227</ele>
        <time>2014-02-02T10:11:30.000Z</time>
      </trkpt>
      <trkpt lat="47.59492" lon="5.90135">
        <ele>226.60000610352</ele>
        <time>2014-02-02T10:11:31.000Z</time>
      </trkpt>
      <trkpt lat="47.59488" lon="5.90139">
        <ele>226.19999694824</ele>
        <time>2014-02-02T10:11:32.000Z</time>
      </trkpt>
      <trkpt lat="47.59485" lon="5.90142">
        <ele>225.80000305176</ele>
        <time>2014-02-02T10:11:33.000Z</time>
      </trkpt>
      <trkpt lat="47.59481" lon="5.90143">
        <ele>225.80000305176</ele>
        <time>2014-02-02T10:11:34.000Z</time>
      </trkpt>
      <trkpt lat="47.59472" lon="5.90145">
        <ele>225.80000305176</ele>
        <time>2014-02-02T10:11:36.000Z</time>
      </trkpt>
      <trkpt lat="47.59468" lon="5.90145">
        <ele>225.80000305176</ele>
        <time>2014-02-02T10:11:37.000Z</time>
      </trkpt>
      <trkpt lat="47.59455" lon="5.90145">
        <ele>225.80000305176</ele>
        <time>2014-02-02T10:11:41.000Z</time>
      </trkpt>
      <trkpt lat="47.59444" lon="5.90142">
        <ele>225.39999389648</ele>
        <time>2014-02-02T10:11:42.000Z</time>
      </trkpt>
      <trkpt lat="47.59444" lon="5.90142">
        <ele>225.39999389648</ele>
        <time>2014-02-02T10:11:44.000Z</time>
      </trkpt>
      <trkpt lat="47.59441" lon="5.90141">
        <ele>225</ele>
        <time>2014-02-02T10:11:45.000Z</time>
      </trkpt>
      <trkpt lat="47.59437" lon="5.90141">
        <ele>224.60000610352</ele>
        <time>2014-02-02T10:11:46.000Z</time>
      </trkpt>
      <trkpt lat="47.59434" lon="5.9014">
        <ele>224.19999694824</ele>
        <time>2014-02-02T10:11:47.000Z</time>
      </trkpt>
      <trkpt lat="47.59431" lon="5.90139">
        <ele>223.80000305176</ele>
        <time>2014-02-02T10:11:48.000Z</time>
      </trkpt>
      <trkpt lat="47.59418" lon="5.90136">
        <ele>223.80000305176</ele>
        <time>2014-02-02T10:11:52.000Z</time>
      </trkpt>
      <trkpt lat="47.59405" lon="5.90134">
        <ele>223.80000305176</ele>
        <time>2014-02-02T10:12:00.000Z</time>
      </trkpt>
      <trkpt lat="47.59394" lon="5.90129">
        <ele>223.80000305176</ele>
        <time>2014-02-02T10:12:06.000Z</time>
      </trkpt>
      <trkpt lat="47.59389" lon="5.90126">
        <ele>224.19999694824</ele>
        <time>2014-02-02T10:12:08.000Z</time>
      </trkpt>
      <trkpt lat="47.59387" lon="5.90125">
        <ele>224.60000610352</ele>
        <time>2014-02-02T10:12:09.000Z</time>
      </trkpt>
      <trkpt lat="47.59385" lon="5.90125">
        <ele>225</ele>
        <time>2014-02-02T10:12:10.000Z</time>
      </trkpt>
      <trkpt lat="47.59382" lon="5.90125">
        <ele>225.39999389648</ele>
        <time>2014-02-02T10:12:11.000Z</time>
      </trkpt>
      <trkpt lat="47.59379" lon="5.90124">
        <ele>225.80000305176</ele>
        <time>2014-02-02T10:12:12.000Z</time>
      </trkpt>
      <trkpt lat="47.59373" lon="5.90122">
        <ele>225.80000305176</ele>
        <time>2014-02-02T10:12:16.000Z</time>
      </trkpt>
      <trkpt lat="47.59371" lon="5.90121">
        <ele>225.80000305176</ele>
        <time>2014-02-02T10:12:18.000Z</time>
      </trkpt>
      <trkpt lat="47.59368" lon="5.90109">
        <ele>225.80000305176</ele>
        <time>2014-02-02T10:12:23.000Z</time>
      </trkpt>
      <trkpt lat="47.59348" lon="5.90093">
        <ele>225.80000305176</ele>
        <time>2014-02-02T10:12:34.000Z</time>
      </trkpt>
      <trkpt lat="47.59335" lon="5.90081">
        <ele>225.80000305176</ele>
        <time>2014-02-02T10:12:41.000Z</time>
      </trkpt>
      <trkpt lat="47.59327" lon="5.90072">
        <ele>226.19999694824</ele>
        <time>2014-02-02T10:12:44.000Z</time>
      </trkpt>
      <trkpt lat="47.59326" lon="5.9007">
        <ele>226.60000610352</ele>
        <time>2014-02-02T10:12:45.000Z</time>
      </trkpt>
      <trkpt lat="47.59324" lon="5.90067">
        <ele>227</ele>
        <time>2014-02-02T10:12:46.000Z</time>
      </trkpt>
      <trkpt lat="47.59322" lon="5.90066">
        <ele>227.39999389648</ele>
        <time>2014-02-02T10:12:47.000Z</time>
      </trkpt>
      <trkpt lat="47.59321" lon="5.90064">
        <ele>227.80000305176</ele>
        <time>2014-02-02T10:12:48.000Z</time>
      </trkpt>
      <trkpt lat="47.59314" lon="5.90056">
        <ele>227.80000305176</ele>
        <time>2014-02-02T10:12:53.000Z</time>
      </trkpt>
      <trkpt lat="47.59305" lon="5.90045">
        <ele>227.80000305176</ele>
        <time>2014-02-02T10:12:59.000Z</time>
      </trkpt>
      <trkpt lat="47.59293" lon="5.90034">
        <ele>227.80000305176</ele>
        <time>2014-02-02T10:13:06.000Z</time>
      </trkpt>
      <trkpt lat="47.59279" lon="5.90019">
        <ele>227.80000305176</ele>
        <time>2014-02-02T10:13:12.000Z</time>
      </trkpt>
      <trkpt lat="47.59267" lon="5.90003">
        <ele>227.80000305176</ele>
        <time>2014-02-02T10:13:18.000Z</time>
      </trkpt>
      <trkpt lat="47.59258" lon="5.89994">
        <ele>227.80000305176</ele>
        <time>2014-02-02T10:13:23.000Z</time>
      </trkpt>
      <trkpt lat="47.59246" lon="5.89987">
        <ele>227.80000305176</ele>
        <time>2014-02-02T10:13:28.000Z</time>
      </trkpt>
      <trkpt lat="47.59227" lon="5.89963">
        <ele>227.80000305176</ele>
        <time>2014-02-02T10:13:36.000Z</time>
      </trkpt>
      <trkpt lat="47.59215" lon="5.89952">
        <ele>227.80000305176</ele>
        <time>2014-02-02T10:13:42.000Z</time>
      </trkpt>
      <trkpt lat="47.59202" lon="5.8994">
        <ele>227.80000305176</ele>
        <time>2014-02-02T10:13:48.000Z</time>
      </trkpt>
      <trkpt lat="47.59192" lon="5.8993">
        <ele>227.80000305176</ele>
        <time>2014-02-02T10:13:53.000Z</time>
      </trkpt>
      <trkpt lat="47.59181" lon="5.89919">
        <ele>227.80000305176</ele>
        <time>2014-02-02T10:13:58.000Z</time>
      </trkpt>
      <trkpt lat="47.59164" lon="5.89903">
        <ele>227.80000305176</ele>
        <time>2014-02-02T10:14:05.000Z</time>
      </trkpt>
      <trkpt lat="47.59157" lon="5.89897">
        <ele>227.80000305176</ele>
        <time>2014-02-02T10:14:09.000Z</time>
      </trkpt>
      <trkpt lat="47.5914" lon="5.89885">
        <ele>227.80000305176</ele>
        <time>2014-02-02T10:14:15.000Z</time>
      </trkpt>
      <trkpt lat="47.59135" lon="5.89884">
        <ele>227.80000305176</ele>
        <time>2014-02-02T10:14:17.000Z</time>
      </trkpt>
      <trkpt lat="47.5913" lon="5.89889">
        <ele>227.80000305176</ele>
        <time>2014-02-02T10:14:19.000Z</time>
      </trkpt>
      <trkpt lat="47.5912" lon="5.89904">
        <ele>227.80000305176</ele>
        <time>2014-02-02T10:14:24.000Z</time>
      </trkpt>
      <trkpt lat="47.59117" lon="5.89905">
        <ele>227.80000305176</ele>
        <time>2014-02-02T10:14:25.000Z</time>
      </trkpt>
      <trkpt lat="47.59114" lon="5.89903">
        <ele>227.80000305176</ele>
        <time>2014-02-02T10:14:27.000Z</time>
      </trkpt>
      <trkpt lat="47.591" lon="5.89889">
        <ele>227.80000305176</ele>
        <time>2014-02-02T10:14:35.000Z</time>
      </trkpt>
      <trkpt lat="47.59089" lon="5.8988">
        <ele>227.80000305176</ele>
        <time>2014-02-02T10:14:41.000Z</time>
      </trkpt>
      <trkpt lat="47.5908" lon="5.89874">
        <ele>227.80000305176</ele>
        <time>2014-02-02T10:14:46.000Z</time>
      </trkpt>
      <trkpt lat="47.59078" lon="5.89873">
        <ele>227.80000305176</ele>
        <time>2014-02-02T10:14:47.000Z</time>
      </trkpt>
      <trkpt lat="47.59077" lon="5.89872">
        <ele>227.80000305176</ele>
        <time>2014-02-02T10:14:48.000Z</time>
      </trkpt>
      <trkpt lat="47.59063" lon="5.8986">
        <ele>227.80000305176</ele>
        <time>2014-02-02T10:14:56.000Z</time>
      </trkpt>
      <trkpt lat="47.59048" lon="5.89848">
        <ele>227.80000305176</ele>
        <time>2014-02-02T10:15:04.000Z</time>
      </trkpt>
      <trkpt lat="47.59036" lon="5.89834">
        <ele>227.80000305176</ele>
        <time>2014-02-02T10:15:10.000Z</time>
      </trkpt>
      <trkpt lat="47.59024" lon="5.89821">
        <ele>227.80000305176</ele>
        <time>2014-02-02T10:15:16.000Z</time>
      </trkpt>
      <trkpt lat="47.59011" lon="5.89811">
        <ele>227.80000305176</ele>
        <time>2014-02-02T10:15:22.000Z</time>
      </trkpt>
      <trkpt lat="47.58993" lon="5.89796">
        <ele>227.80000305176</ele>
        <time>2014-02-02T10:15:28.000Z</time>
      </trkpt>
      <trkpt lat="47.58973" lon="5.89784">
        <ele>227.80000305176</ele>
        <time>2014-02-02T10:15:38.000Z</time>
      </trkpt>
      <trkpt lat="47.58954" lon="5.89768">
        <ele>227.80000305176</ele>
        <time>2014-02-02T10:15:45.000Z</time>
      </trkpt>
      <trkpt lat="47.58947" lon="5.89763">
        <ele>227.80000305176</ele>
        <time>2014-02-02T10:15:48.000Z</time>
      </trkpt>
      <trkpt lat="47.58943" lon="5.89758">
        <ele>227.80000305176</ele>
        <time>2014-02-02T10:15:50.000Z</time>
      </trkpt>
      <trkpt lat="47.58938" lon="5.89751">
        <ele>227.80000305176</ele>
        <time>2014-02-02T10:15:52.000Z</time>
      </trkpt>
      <trkpt lat="47.58924" lon="5.89739">
        <ele>227.80000305176</ele>
        <time>2014-02-02T10:15:57.000Z</time>
      </trkpt>
      <trkpt lat="47.58909" lon="5.89727">
        <ele>227.80000305176</ele>
        <time>2014-02-02T10:16:03.000Z</time>
      </trkpt>
      <trkpt lat="47.58907" lon="5.89725">
        <ele>228.19999694824</ele>
        <time>2014-02-02T10:16:04.000Z</time>
      </trkpt>
      <trkpt lat="47.58904" lon="5.89723">
        <ele>228.60000610352</ele>
        <time>2014-02-02T10:16:05.000Z</time>
      </trkpt>
      <trkpt lat="47.58902" lon="5.89721">
        <ele>229</ele>
        <time>2014-02-02T10:16:06.000Z</time>
      </trkpt>
      <trkpt lat="47.589" lon="5.8972">
        <ele>229.39999389648</ele>
        <time>2014-02-02T10:16:07.000Z</time>
      </trkpt>
      <trkpt lat="47.58898" lon="5.89718">
        <ele>229.80000305176</ele>
        <time>2014-02-02T10:16:08.000Z</time>
      </trkpt>
      <trkpt lat="47.58896" lon="5.89717">
        <ele>229.80000305176</ele>
        <time>2014-02-02T10:16:09.000Z</time>
      </trkpt>
      <trkpt lat="47.58882" lon="5.89703">
        <ele>229.80000305176</ele>
        <time>2014-02-02T10:16:15.000Z</time>
      </trkpt>
      <trkpt lat="47.58862" lon="5.89697">
        <ele>229.80000305176</ele>
        <time>2014-02-02T10:16:21.000Z</time>
      </trkpt>
      <trkpt lat="47.5886" lon="5.89697">
        <ele>229.80000305176</ele>
        <time>2014-02-02T10:16:22.000Z</time>
      </trkpt>
      <trkpt lat="47.58858" lon="5.89699">
        <ele>229.80000305176</ele>
        <time>2014-02-02T10:19:58.000Z</time>
      </trkpt>
      <trkpt lat="47.58857" lon="5.897">
        <ele>229.80000305176</ele>
        <time>2014-02-02T10:19:59.000Z</time>
      </trkpt>
      <trkpt lat="47.58852" lon="5.89718">
        <ele>229.80000305176</ele>
        <time>2014-02-02T10:20:04.000Z</time>
      </trkpt>
      <trkpt lat="47.58851" lon="5.89719">
        <ele>229.80000305176</ele>
        <time>2014-02-02T10:20:07.000Z</time>
      </trkpt>
      <trkpt lat="47.58849" lon="5.89721">
        <ele>229.80000305176</ele>
        <time>2014-02-02T10:20:09.000Z</time>
      </trkpt>
      <trkpt lat="47.58845" lon="5.89722">
        <ele>229.80000305176</ele>
        <time>2014-02-02T10:20:11.000Z</time>
      </trkpt>
      <trkpt lat="47.58839" lon="5.89722">
        <ele>229.39999389648</ele>
        <time>2014-02-02T10:20:14.000Z</time>
      </trkpt>
      <trkpt lat="47.58836" lon="5.89721">
        <ele>229</ele>
        <time>2014-02-02T10:20:15.000Z</time>
      </trkpt>
      <trkpt lat="47.58834" lon="5.8972">
        <ele>228.60000610352</ele>
        <time>2014-02-02T10:20:16.000Z</time>
      </trkpt>
      <trkpt lat="47.58826" lon="5.89716">
        <ele>227.60000610352</ele>
        <time>2014-02-02T10:20:17.000Z</time>
      </trkpt>
      <trkpt lat="47.58803" lon="5.89701">
        <ele>227.60000610352</ele>
        <time>2014-02-02T10:20:25.000Z</time>
      </trkpt>
      <trkpt lat="47.58784" lon="5.89687">
        <ele>227.60000610352</ele>
        <time>2014-02-02T10:20:33.000Z</time>
      </trkpt>
      <trkpt lat="47.58771" lon="5.89677">
        <ele>227.60000610352</ele>
        <time>2014-02-02T10:20:37.000Z</time>
      </trkpt>
      <trkpt lat="47.58747" lon="5.89661">
        <ele>227.60000610352</ele>
        <time>2014-02-02T10:20:44.000Z</time>
      </trkpt>
      <trkpt lat="47.58729" lon="5.89649">
        <ele>227.60000610352</ele>
        <time>2014-02-02T10:20:50.000Z</time>
      </trkpt>
      <trkpt lat="47.58703" lon="5.89634">
        <ele>227.60000610352</ele>
        <time>2014-02-02T10:20:59.000Z</time>
      </trkpt>
      <trkpt lat="47.58683" lon="5.8962">
        <ele>227.60000610352</ele>
        <time>2014-02-02T10:21:06.000Z</time>
      </trkpt>
      <trkpt lat="47.58659" lon="5.89604">
        <ele>227.60000610352</ele>
        <time>2014-02-02T10:21:14.000Z</time>
      </trkpt>
      <trkpt lat="47.58635" lon="5.89589">
        <ele>227.60000610352</ele>
        <time>2014-02-02T10:21:22.000Z</time>
      </trkpt>
      <trkpt lat="47.58605" lon="5.89569">
        <ele>227.60000610352</ele>
        <time>2014-02-02T10:21:32.000Z</time>
      </trkpt>
      <trkpt lat="47.58573" lon="5.89551">
        <ele>227.60000610352</ele>
        <time>2014-02-02T10:21:42.000Z</time>
      </trkpt>
      <trkpt lat="47.5854" lon="5.89535">
        <ele>227.60000610352</ele>
        <time>2014-02-02T10:21:52.000Z</time>
      </trkpt>
      <trkpt lat="47.5852" lon="5.89525">
        <ele>227.60000610352</ele>
        <time>2014-02-02T10:21:59.000Z</time>
      </trkpt>
      <trkpt lat="47.58498" lon="5.89516">
        <ele>227.60000610352</ele>
        <time>2014-02-02T10:22:06.000Z</time>
      </trkpt>
      <trkpt lat="47.58478" lon="5.89505">
        <ele>227.60000610352</ele>
        <time>2014-02-02T10:22:13.000Z</time>
      </trkpt>
      <trkpt lat="47.58456" lon="5.89495">
        <ele>227.60000610352</ele>
        <time>2014-02-02T10:22:20.000Z</time>
      </trkpt>
      <trkpt lat="47.5843" lon="5.89482">
        <ele>227.60000610352</ele>
        <time>2014-02-02T10:22:27.000Z</time>
      </trkpt>
      <trkpt lat="47.5841" lon="5.89473">
        <ele>227.60000610352</ele>
        <time>2014-02-02T10:22:33.000Z</time>
      </trkpt>
      <trkpt lat="47.58386" lon="5.89461">
        <ele>227.60000610352</ele>
        <time>2014-02-02T10:22:40.000Z</time>
      </trkpt>
      <trkpt lat="47.58357" lon="5.89449">
        <ele>227.60000610352</ele>
        <time>2014-02-02T10:22:48.000Z</time>
      </trkpt>
      <trkpt lat="47.58325" lon="5.89433">
        <ele>227.60000610352</ele>
        <time>2014-02-02T10:22:55.000Z</time>
      </trkpt>
      <trkpt lat="47.58287" lon="5.89416">
        <ele>227.60000610352</ele>
        <time>2014-02-02T10:23:08.000Z</time>
      </trkpt>
      <trkpt lat="47.5825" lon="5.89398">
        <ele>227.60000610352</ele>
        <time>2014-02-02T10:23:18.000Z</time>
      </trkpt>
      <trkpt lat="47.58229" lon="5.89388">
        <ele>227.60000610352</ele>
        <time>2014-02-02T10:23:25.000Z</time>
      </trkpt>
      <trkpt lat="47.58209" lon="5.89379">
        <ele>227.60000610352</ele>
        <time>2014-02-02T10:23:31.000Z</time>
      </trkpt>
      <trkpt lat="47.58177" lon="5.89364">
        <ele>227.60000610352</ele>
        <time>2014-02-02T10:23:41.000Z</time>
      </trkpt>
      <trkpt lat="47.5816" lon="5.89354">
        <ele>227.60000610352</ele>
        <time>2014-02-02T10:23:47.000Z</time>
      </trkpt>
      <trkpt lat="47.58139" lon="5.89347">
        <ele>227.60000610352</ele>
        <time>2014-02-02T10:23:54.000Z</time>
      </trkpt>
      <trkpt lat="47.58114" lon="5.89336">
        <ele>227.60000610352</ele>
        <time>2014-02-02T10:24:02.000Z</time>
      </trkpt>
      <trkpt lat="47.58085" lon="5.89321">
        <ele>227.60000610352</ele>
        <time>2014-02-02T10:24:11.000Z</time>
      </trkpt>
      <trkpt lat="47.58061" lon="5.8931">
        <ele>227.60000610352</ele>
        <time>2014-02-02T10:24:18.000Z</time>
      </trkpt>
      <trkpt lat="47.58043" lon="5.89301">
        <ele>227.60000610352</ele>
        <time>2014-02-02T10:24:24.000Z</time>
      </trkpt>
      <trkpt lat="47.58022" lon="5.89292">
        <ele>227.60000610352</ele>
        <time>2014-02-02T10:24:31.000Z</time>
      </trkpt>
      <trkpt lat="47.58" lon="5.89282">
        <ele>227.60000610352</ele>
        <time>2014-02-02T10:24:38.000Z</time>
      </trkpt>
      <trkpt lat="47.57979" lon="5.89271">
        <ele>227.60000610352</ele>
        <time>2014-02-02T10:24:45.000Z</time>
      </trkpt>
      <trkpt lat="47.57957" lon="5.89262">
        <ele>227.60000610352</ele>
        <time>2014-02-02T10:24:52.000Z</time>
      </trkpt>
      <trkpt lat="47.57932" lon="5.89255">
        <ele>227.60000610352</ele>
        <time>2014-02-02T10:25:00.000Z</time>
      </trkpt>
      <trkpt lat="47.57915" lon="5.89258">
        <ele>227.60000610352</ele>
        <time>2014-02-02T10:25:05.000Z</time>
      </trkpt>
      <trkpt lat="47.57891" lon="5.89263">
        <ele>227.60000610352</ele>
        <time>2014-02-02T10:25:12.000Z</time>
      </trkpt>
      <trkpt lat="47.57867" lon="5.89269">
        <ele>227.60000610352</ele>
        <time>2014-02-02T10:25:19.000Z</time>
      </trkpt>
      <trkpt lat="47.57835" lon="5.89276">
        <ele>227.60000610352</ele>
        <time>2014-02-02T10:25:28.000Z</time>
      </trkpt>
      <trkpt lat="47.57802" lon="5.89283">
        <ele>227.60000610352</ele>
        <time>2014-02-02T10:25:37.000Z</time>
      </trkpt>
      <trkpt lat="47.57785" lon="5.89287">
        <ele>227.60000610352</ele>
        <time>2014-02-02T10:25:42.000Z</time>
      </trkpt>
      <trkpt lat="47.57781" lon="5.89288">
        <ele>228</ele>
        <time>2014-02-02T10:25:43.000Z</time>
      </trkpt>
      <trkpt lat="47.57778" lon="5.89289">
        <ele>228.39999389648</ele>
        <time>2014-02-02T10:25:44.000Z</time>
      </trkpt>
      <trkpt lat="47.57774" lon="5.89289">
        <ele>228.80000305176</ele>
        <time>2014-02-02T10:25:45.000Z</time>
      </trkpt>
      <trkpt lat="47.57771" lon="5.8929">
        <ele>229.19999694824</ele>
        <time>2014-02-02T10:25:46.000Z</time>
      </trkpt>
      <trkpt lat="47.57767" lon="5.89291">
        <ele>229.60000610352</ele>
        <time>2014-02-02T10:25:47.000Z</time>
      </trkpt>
      <trkpt lat="47.57761" lon="5.89292">
        <ele>229.60000610352</ele>
        <time>2014-02-02T10:25:49.000Z</time>
      </trkpt>
      <trkpt lat="47.57732" lon="5.89299">
        <ele>229.60000610352</ele>
        <time>2014-02-02T10:25:57.000Z</time>
      </trkpt>
      <trkpt lat="47.57718" lon="5.89309">
        <ele>229.60000610352</ele>
        <time>2014-02-02T10:26:01.000Z</time>
      </trkpt>
      <trkpt lat="47.57711" lon="5.89315">
        <ele>229.60000610352</ele>
        <time>2014-02-02T10:26:03.000Z</time>
      </trkpt>
      <trkpt lat="47.57681" lon="5.89338">
        <ele>229.60000610352</ele>
        <time>2014-02-02T10:26:12.000Z</time>
      </trkpt>
      <trkpt lat="47.57654" lon="5.89356">
        <ele>229.60000610352</ele>
        <time>2014-02-02T10:26:20.000Z</time>
      </trkpt>
      <trkpt lat="47.57633" lon="5.89377">
        <ele>229.60000610352</ele>
        <time>2014-02-02T10:26:27.000Z</time>
      </trkpt>
      <trkpt lat="47.5761" lon="5.894">
        <ele>229.60000610352</ele>
        <time>2014-02-02T10:26:35.000Z</time>
      </trkpt>
      <trkpt lat="47.57588" lon="5.89419">
        <ele>229.60000610352</ele>
        <time>2014-02-02T10:26:42.000Z</time>
      </trkpt>
      <trkpt lat="47.5756" lon="5.89444">
        <ele>229.60000610352</ele>
        <time>2014-02-02T10:26:52.000Z</time>
      </trkpt>
      <trkpt lat="47.57541" lon="5.8946">
        <ele>229.60000610352</ele>
        <time>2014-02-02T10:26:59.000Z</time>
      </trkpt>
      <trkpt lat="47.57517" lon="5.89466">
        <ele>229.60000610352</ele>
        <time>2014-02-02T10:27:06.000Z</time>
      </trkpt>
      <trkpt lat="47.57501" lon="5.89458">
        <ele>229.60000610352</ele>
        <time>2014-02-02T10:27:12.000Z</time>
      </trkpt>
      <trkpt lat="47.57489" lon="5.8945">
        <ele>230.19999694824</ele>
        <time>2014-02-02T10:27:17.000Z</time>
      </trkpt>
      <trkpt lat="47.57486" lon="5.89449">
        <ele>230.60000610352</ele>
        <time>2014-02-02T10:27:18.000Z</time>
      </trkpt>
      <trkpt lat="47.57483" lon="5.89448">
        <ele>231</ele>
        <time>2014-02-02T10:27:19.000Z</time>
      </trkpt>
      <trkpt lat="47.5748" lon="5.89446">
        <ele>231.39999389648</ele>
        <time>2014-02-02T10:27:20.000Z</time>
      </trkpt>
      <trkpt lat="47.57476" lon="5.89445">
        <ele>231.80000305176</ele>
        <time>2014-02-02T10:27:21.000Z</time>
      </trkpt>
      <trkpt lat="47.5747" lon="5.89446">
        <ele>231.80000305176</ele>
        <time>2014-02-02T10:27:23.000Z</time>
      </trkpt>
      <trkpt lat="47.57464" lon="5.89458">
        <ele>231.80000305176</ele>
        <time>2014-02-02T10:27:27.000Z</time>
      </trkpt>
      <trkpt lat="47.57465" lon="5.89473">
        <ele>231.80000305176</ele>
        <time>2014-02-02T10:27:32.000Z</time>
      </trkpt>
      <trkpt lat="47.57466" lon="5.89474">
        <ele>231.80000305176</ele>
        <time>2014-02-02T10:27:33.000Z</time>
      </trkpt>
      <trkpt lat="47.57469" lon="5.89478">
        <ele>231.80000305176</ele>
        <time>2014-02-02T10:28:31.000Z</time>
      </trkpt>
      <trkpt lat="47.57474" lon="5.89483">
        <ele>231.80000305176</ele>
        <time>2014-02-02T10:28:34.000Z</time>
      </trkpt>
      <trkpt lat="47.57478" lon="5.89485">
        <ele>231.80000305176</ele>
        <time>2014-02-02T10:28:37.000Z</time>
      </trkpt>
      <trkpt lat="47.5748" lon="5.89492">
        <ele>231.80000305176</ele>
        <time>2014-02-02T10:30:28.000Z</time>
      </trkpt>
      <trkpt lat="47.57491" lon="5.89514">
        <ele>231.80000305176</ele>
        <time>2014-02-02T10:30:32.000Z</time>
      </trkpt>
      <trkpt lat="47.57491" lon="5.89514">
        <ele>231.80000305176</ele>
        <time>2014-02-02T10:30:34.000Z</time>
      </trkpt>
      <trkpt lat="47.57498" lon="5.89533">
        <ele>231.80000305176</ele>
        <time>2014-02-02T10:30:38.000Z</time>
      </trkpt>
      <trkpt lat="47.57501" lon="5.89545">
        <ele>231.80000305176</ele>
        <time>2014-02-02T10:30:40.000Z</time>
      </trkpt>
      <trkpt lat="47.57502" lon="5.89577">
        <ele>231.80000305176</ele>
        <time>2014-02-02T10:30:45.000Z</time>
      </trkpt>
      <trkpt lat="47.57501" lon="5.8959">
        <ele>231.80000305176</ele>
        <time>2014-02-02T10:30:47.000Z</time>
      </trkpt>
      <trkpt lat="47.57495" lon="5.89614">
        <ele>231.80000305176</ele>
        <time>2014-02-02T10:30:51.000Z</time>
      </trkpt>
      <trkpt lat="47.57485" lon="5.89653">
        <ele>231.80000305176</ele>
        <time>2014-02-02T10:30:58.000Z</time>
      </trkpt>
      <trkpt lat="47.57483" lon="5.89665">
        <ele>231.80000305176</ele>
        <time>2014-02-02T10:31:00.000Z</time>
      </trkpt>
      <trkpt lat="47.57472" lon="5.89711">
        <ele>231.80000305176</ele>
        <time>2014-02-02T10:31:08.000Z</time>
      </trkpt>
      <trkpt lat="47.57468" lon="5.89739">
        <ele>231.80000305176</ele>
        <time>2014-02-02T10:31:13.000Z</time>
      </trkpt>
      <trkpt lat="47.57462" lon="5.89789">
        <ele>231.80000305176</ele>
        <time>2014-02-02T10:31:22.000Z</time>
      </trkpt>
      <trkpt lat="47.57463" lon="5.89822">
        <ele>231.80000305176</ele>
        <time>2014-02-02T10:31:28.000Z</time>
      </trkpt>
      <trkpt lat="47.57464" lon="5.89827">
        <ele>231.80000305176</ele>
        <time>2014-02-02T10:31:29.000Z</time>
      </trkpt>
      <trkpt lat="47.57467" lon="5.89832">
        <ele>231.39999389648</ele>
        <time>2014-02-02T10:31:30.000Z</time>
      </trkpt>
      <trkpt lat="47.5747" lon="5.89836">
        <ele>231</ele>
        <time>2014-02-02T10:31:31.000Z</time>
      </trkpt>
      <trkpt lat="47.57473" lon="5.8984">
        <ele>230.60000610352</ele>
        <time>2014-02-02T10:31:32.000Z</time>
      </trkpt>
      <trkpt lat="47.57476" lon="5.89843">
        <ele>230.19999694824</ele>
        <time>2014-02-02T10:31:33.000Z</time>
      </trkpt>
      <trkpt lat="47.5748" lon="5.89846">
        <ele>229.80000305176</ele>
        <time>2014-02-02T10:31:34.000Z</time>
      </trkpt>
      <trkpt lat="47.57495" lon="5.89857">
        <ele>229.80000305176</ele>
        <time>2014-02-02T10:31:38.000Z</time>
      </trkpt>
      <trkpt lat="47.57499" lon="5.89859">
        <ele>229.80000305176</ele>
        <time>2014-02-02T10:31:39.000Z</time>
      </trkpt>
      <trkpt lat="47.57514" lon="5.8987">
        <ele>229.80000305176</ele>
        <time>2014-02-02T10:31:43.000Z</time>
      </trkpt>
      <trkpt lat="47.57544" lon="5.89894">
        <ele>229.80000305176</ele>
        <time>2014-02-02T10:31:51.000Z</time>
      </trkpt>
      <trkpt lat="47.5758" lon="5.89921">
        <ele>229.80000305176</ele>
        <time>2014-02-02T10:32:00.000Z</time>
      </trkpt>
      <trkpt lat="47.57607" lon="5.89941">
        <ele>229.80000305176</ele>
        <time>2014-02-02T10:32:07.000Z</time>
      </trkpt>
      <trkpt lat="47.57631" lon="5.89956">
        <ele>229.80000305176</ele>
        <time>2014-02-02T10:32:13.000Z</time>
      </trkpt>
      <trkpt lat="47.57634" lon="5.89959">
        <ele>229.80000305176</ele>
        <time>2014-02-02T10:32:14.000Z</time>
      </trkpt>
      <trkpt lat="47.57646" lon="5.89967">
        <ele>229.80000305176</ele>
        <time>2014-02-02T10:32:17.000Z</time>
      </trkpt>
      <trkpt lat="47.57658" lon="5.89977">
        <ele>229.80000305176</ele>
        <time>2014-02-02T10:32:20.000Z</time>
      </trkpt>
      <trkpt lat="47.57685" lon="5.90001">
        <ele>229.80000305176</ele>
        <time>2014-02-02T10:32:27.000Z</time>
      </trkpt>
      <trkpt lat="47.5771" lon="5.90018">
        <ele>229.80000305176</ele>
        <time>2014-02-02T10:32:33.000Z</time>
      </trkpt>
      <trkpt lat="47.57717" lon="5.90024">
        <ele>229.39999389648</ele>
        <time>2014-02-02T10:32:35.000Z</time>
      </trkpt>
      <trkpt lat="47.5772" lon="5.90027">
        <ele>229</ele>
        <time>2014-02-02T10:32:36.000Z</time>
      </trkpt>
      <trkpt lat="47.57724" lon="5.9003">
        <ele>228.60000610352</ele>
        <time>2014-02-02T10:32:37.000Z</time>
      </trkpt>
      <trkpt lat="47.57728" lon="5.90033">
        <ele>228.19999694824</ele>
        <time>2014-02-02T10:32:38.000Z</time>
      </trkpt>
      <trkpt lat="47.57732" lon="5.90036">
        <ele>227.80000305176</ele>
        <time>2014-02-02T10:32:39.000Z</time>
      </trkpt>
      <trkpt lat="47.5777" lon="5.90064">
        <ele>227.80000305176</ele>
        <time>2014-02-02T10:32:48.000Z</time>
      </trkpt>
      <trkpt lat="47.578" lon="5.90088">
        <ele>227.80000305176</ele>
        <time>2014-02-02T10:32:55.000Z</time>
      </trkpt>
      <trkpt lat="47.57826" lon="5.90106">
        <ele>227.80000305176</ele>
        <time>2014-02-02T10:33:01.000Z</time>
      </trkpt>
      <trkpt lat="47.5785" lon="5.90122">
        <ele>227.80000305176</ele>
        <time>2014-02-02T10:33:07.000Z</time>
      </trkpt>
      <trkpt lat="47.57876" lon="5.90142">
        <ele>227.80000305176</ele>
        <time>2014-02-02T10:33:14.000Z</time>
      </trkpt>
      <trkpt lat="47.57897" lon="5.90162">
        <ele>227.80000305176</ele>
        <time>2014-02-02T10:33:20.000Z</time>
      </trkpt>
      <trkpt lat="47.57924" lon="5.90182">
        <ele>227.80000305176</ele>
        <time>2014-02-02T10:33:27.000Z</time>
      </trkpt>
      <trkpt lat="47.57956" lon="5.90205">
        <ele>227.80000305176</ele>
        <time>2014-02-02T10:33:35.000Z</time>
      </trkpt>
      <trkpt lat="47.57985" lon="5.90221">
        <ele>227.80000305176</ele>
        <time>2014-02-02T10:33:42.000Z</time>
      </trkpt>
      <trkpt lat="47.58011" lon="5.90239">
        <ele>227.80000305176</ele>
        <time>2014-02-02T10:33:48.000Z</time>
      </trkpt>
      <trkpt lat="47.58047" lon="5.90264">
        <ele>227.80000305176</ele>
        <time>2014-02-02T10:33:56.000Z</time>
      </trkpt>
      <trkpt lat="47.58072" lon="5.90282">
        <ele>226.19999694824</ele>
        <time>2014-02-02T10:34:00.000Z</time>
      </trkpt>
      <trkpt lat="47.58076" lon="5.90286">
        <ele>225.60000610352</ele>
        <time>2014-02-02T10:34:04.000Z</time>
      </trkpt>
      <trkpt lat="47.58088" lon="5.90295">
        <ele>225</ele>
        <time>2014-02-02T10:34:05.000Z</time>
      </trkpt>
      <trkpt lat="47.58121" lon="5.90322">
        <ele>225</ele>
        <time>2014-02-02T10:34:15.000Z</time>
      </trkpt>
      <trkpt lat="47.58152" lon="5.90348">
        <ele>225</ele>
        <time>2014-02-02T10:34:23.000Z</time>
      </trkpt>
      <trkpt lat="47.58175" lon="5.9037">
        <ele>225</ele>
        <time>2014-02-02T10:34:30.000Z</time>
      </trkpt>
      <trkpt lat="47.58181" lon="5.90382">
        <ele>225</ele>
        <time>2014-02-02T10:34:33.000Z</time>
      </trkpt>
      <trkpt lat="47.58182" lon="5.90387">
        <ele>225</ele>
        <time>2014-02-02T10:34:34.000Z</time>
      </trkpt>
      <trkpt lat="47.58181" lon="5.90405">
        <ele>225</ele>
        <time>2014-02-02T10:34:37.000Z</time>
      </trkpt>
      <trkpt lat="47.5817" lon="5.90441">
        <ele>225</ele>
        <time>2014-02-02T10:34:43.000Z</time>
      </trkpt>
      <trkpt lat="47.58154" lon="5.90484">
        <ele>225</ele>
        <time>2014-02-02T10:34:50.000Z</time>
      </trkpt>
      <trkpt lat="47.58143" lon="5.90511">
        <ele>225</ele>
        <time>2014-02-02T10:34:55.000Z</time>
      </trkpt>
      <trkpt lat="47.58134" lon="5.90538">
        <ele>225</ele>
        <time>2014-02-02T10:35:01.000Z</time>
      </trkpt>
      <trkpt lat="47.58126" lon="5.90565">
        <ele>225</ele>
        <time>2014-02-02T10:35:07.000Z</time>
      </trkpt>
      <trkpt lat="47.58119" lon="5.9059">
        <ele>225</ele>
        <time>2014-02-02T10:35:13.000Z</time>
      </trkpt>
      <trkpt lat="47.5811" lon="5.90613">
        <ele>225</ele>
        <time>2014-02-02T10:35:19.000Z</time>
      </trkpt>
      <trkpt lat="47.58102" lon="5.9064">
        <ele>225</ele>
        <time>2014-02-02T10:35:25.000Z</time>
      </trkpt>
      <trkpt lat="47.58092" lon="5.90662">
        <ele>225</ele>
        <time>2014-02-02T10:35:30.000Z</time>
      </trkpt>
      <trkpt lat="47.58083" lon="5.9069">
        <ele>225</ele>
        <time>2014-02-02T10:35:35.000Z</time>
      </trkpt>
      <trkpt lat="47.58069" lon="5.90724">
        <ele>225.39999389648</ele>
        <time>2014-02-02T10:35:41.000Z</time>
      </trkpt>
      <trkpt lat="47.58068" lon="5.9073">
        <ele>225.80000305176</ele>
        <time>2014-02-02T10:35:42.000Z</time>
      </trkpt>
      <trkpt lat="47.58066" lon="5.90735">
        <ele>226.39999389648</ele>
        <time>2014-02-02T10:35:43.000Z</time>
      </trkpt>
      <trkpt lat="47.58065" lon="5.9074">
        <ele>226.80000305176</ele>
        <time>2014-02-02T10:35:44.000Z</time>
      </trkpt>
      <trkpt lat="47.58063" lon="5.90745">
        <ele>227.19999694824</ele>
        <time>2014-02-02T10:35:45.000Z</time>
      </trkpt>
      <trkpt lat="47.58058" lon="5.90759">
        <ele>227.19999694824</ele>
        <time>2014-02-02T10:35:49.000Z</time>
      </trkpt>
      <trkpt lat="47.58052" lon="5.90773">
        <ele>227.19999694824</ele>
        <time>2014-02-02T10:35:54.000Z</time>
      </trkpt>
      <trkpt lat="47.58042" lon="5.90794">
        <ele>227.19999694824</ele>
        <time>2014-02-02T10:36:00.000Z</time>
      </trkpt>
      <trkpt lat="47.58027" lon="5.90832">
        <ele>227.19999694824</ele>
        <time>2014-02-02T10:36:07.000Z</time>
      </trkpt>
      <trkpt lat="47.58017" lon="5.90863">
        <ele>227.19999694824</ele>
        <time>2014-02-02T10:36:13.000Z</time>
      </trkpt>
      <trkpt lat="47.58009" lon="5.9089">
        <ele>227.19999694824</ele>
        <time>2014-02-02T10:36:18.000Z</time>
      </trkpt>
      <trkpt lat="47.57996" lon="5.9093">
        <ele>227.19999694824</ele>
        <time>2014-02-02T10:36:26.000Z</time>
      </trkpt>
      <trkpt lat="47.57992" lon="5.90941">
        <ele>227.60000610352</ele>
        <time>2014-02-02T10:36:28.000Z</time>
      </trkpt>
      <trkpt lat="47.57991" lon="5.90946">
        <ele>228</ele>
        <time>2014-02-02T10:36:29.000Z</time>
      </trkpt>
      <trkpt lat="47.57989" lon="5.90951">
        <ele>228.39999389648</ele>
        <time>2014-02-02T10:36:30.000Z</time>
      </trkpt>
      <trkpt lat="47.57988" lon="5.90956">
        <ele>228.80000305176</ele>
        <time>2014-02-02T10:36:31.000Z</time>
      </trkpt>
      <trkpt lat="47.57986" lon="5.90961">
        <ele>229.19999694824</ele>
        <time>2014-02-02T10:36:32.000Z</time>
      </trkpt>
      <trkpt lat="47.57984" lon="5.90967">
        <ele>229.19999694824</ele>
        <time>2014-02-02T10:36:33.000Z</time>
      </trkpt>
      <trkpt lat="47.57977" lon="5.90994">
        <ele>229.19999694824</ele>
        <time>2014-02-02T10:36:38.000Z</time>
      </trkpt>
      <trkpt lat="47.57967" lon="5.9102">
        <ele>229.19999694824</ele>
        <time>2014-02-02T10:36:45.000Z</time>
      </trkpt>
      <trkpt lat="47.57958" lon="5.91049">
        <ele>229.19999694824</ele>
        <time>2014-02-02T10:36:51.000Z</time>
      </trkpt>
      <trkpt lat="47.57948" lon="5.91076">
        <ele>229.19999694824</ele>
        <time>2014-02-02T10:36:57.000Z</time>
      </trkpt>
      <trkpt lat="47.57935" lon="5.91109">
        <ele>229.19999694824</ele>
        <time>2014-02-02T10:37:05.000Z</time>
      </trkpt>
      <trkpt lat="47.57926" lon="5.91136">
        <ele>229.19999694824</ele>
        <time>2014-02-02T10:37:11.000Z</time>
      </trkpt>
      <trkpt lat="47.57916" lon="5.91164">
        <ele>229.19999694824</ele>
        <time>2014-02-02T10:37:17.000Z</time>
      </trkpt>
      <trkpt lat="47.57912" lon="5.9118">
        <ele>229.19999694824</ele>
        <time>2014-02-02T10:37:21.000Z</time>
      </trkpt>
      <trkpt lat="47.57898" lon="5.91216">
        <ele>229.19999694824</ele>
        <time>2014-02-02T10:37:29.000Z</time>
      </trkpt>
      <trkpt lat="47.5789" lon="5.91243">
        <ele>229.19999694824</ele>
        <time>2014-02-02T10:37:37.000Z</time>
      </trkpt>
      <trkpt lat="47.57884" lon="5.91265">
        <ele>229.19999694824</ele>
        <time>2014-02-02T10:37:43.000Z</time>
      </trkpt>
      <trkpt lat="47.5788" lon="5.91276">
        <ele>229.60000610352</ele>
        <time>2014-02-02T10:37:46.000Z</time>
      </trkpt>
      <trkpt lat="47.57879" lon="5.9128">
        <ele>230</ele>
        <time>2014-02-02T10:37:47.000Z</time>
      </trkpt>
      <trkpt lat="47.57877" lon="5.91285">
        <ele>230.39999389648</ele>
        <time>2014-02-02T10:37:48.000Z</time>
      </trkpt>
      <trkpt lat="47.57876" lon="5.91289">
        <ele>230.80000305176</ele>
        <time>2014-02-02T10:37:49.000Z</time>
      </trkpt>
      <trkpt lat="47.57875" lon="5.91293">
        <ele>231.19999694824</ele>
        <time>2014-02-02T10:37:50.000Z</time>
      </trkpt>
      <trkpt lat="47.57872" lon="5.91302">
        <ele>231.19999694824</ele>
        <time>2014-02-02T10:37:52.000Z</time>
      </trkpt>
      <trkpt lat="47.57865" lon="5.91327">
        <ele>231.19999694824</ele>
        <time>2014-02-02T10:37:58.000Z</time>
      </trkpt>
      <trkpt lat="47.57855" lon="5.91359">
        <ele>231.19999694824</ele>
        <time>2014-02-02T10:38:06.000Z</time>
      </trkpt>
      <trkpt lat="47.57844" lon="5.91389">
        <ele>231.19999694824</ele>
        <time>2014-02-02T10:38:14.000Z</time>
      </trkpt>
      <trkpt lat="47.57835" lon="5.91418">
        <ele>231.19999694824</ele>
        <time>2014-02-02T10:38:22.000Z</time>
      </trkpt>
      <trkpt lat="47.57824" lon="5.91444">
        <ele>231.60000610352</ele>
        <time>2014-02-02T10:38:29.000Z</time>
      </trkpt>
      <trkpt lat="47.57823" lon="5.91447">
        <ele>232</ele>
        <time>2014-02-02T10:38:30.000Z</time>
      </trkpt>
      <trkpt lat="47.57821" lon="5.9145">
        <ele>232.39999389648</ele>
        <time>2014-02-02T10:38:31.000Z</time>
      </trkpt>
      <trkpt lat="47.57819" lon="5.91453">
        <ele>233</ele>
        <time>2014-02-02T10:38:32.000Z</time>
      </trkpt>
      <trkpt lat="47.57817" lon="5.91455">
        <ele>233.39999389648</ele>
        <time>2014-02-02T10:38:33.000Z</time>
      </trkpt>
      <trkpt lat="47.57806" lon="5.91461">
        <ele>233.39999389648</ele>
        <time>2014-02-02T10:38:38.000Z</time>
      </trkpt>
      <trkpt lat="47.57801" lon="5.91457">
        <ele>233.39999389648</ele>
        <time>2014-02-02T10:38:41.000Z</time>
      </trkpt>
      <trkpt lat="47.578" lon="5.91455">
        <ele>233.39999389648</ele>
        <time>2014-02-02T10:38:42.000Z</time>
      </trkpt>
      <trkpt lat="47.57793" lon="5.91444">
        <ele>233.39999389648</ele>
        <time>2014-02-02T10:38:48.000Z</time>
      </trkpt>
      <trkpt lat="47.5779" lon="5.9144">
        <ele>233.39999389648</ele>
        <time>2014-02-02T10:38:50.000Z</time>
      </trkpt>
      <trkpt lat="47.57783" lon="5.91427">
        <ele>233.39999389648</ele>
        <time>2014-02-02T10:38:55.000Z</time>
      </trkpt>
      <trkpt lat="47.57772" lon="5.91412">
        <ele>233.39999389648</ele>
        <time>2014-02-02T10:39:02.000Z</time>
      </trkpt>
      <trkpt lat="47.57766" lon="5.91405">
        <ele>233.80000305176</ele>
        <time>2014-02-02T10:39:06.000Z</time>
      </trkpt>
      <trkpt lat="47.57765" lon="5.91404">
        <ele>234.19999694824</ele>
        <time>2014-02-02T10:39:07.000Z</time>
      </trkpt>
      <trkpt lat="47.57764" lon="5.91402">
        <ele>234.60000610352</ele>
        <time>2014-02-02T10:39:08.000Z</time>
      </trkpt>
      <trkpt lat="47.57762" lon="5.91401">
        <ele>235</ele>
        <time>2014-02-02T10:39:09.000Z</time>
      </trkpt>
      <trkpt lat="47.57761" lon="5.91399">
        <ele>235.39999389648</ele>
        <time>2014-02-02T10:39:10.000Z</time>
      </trkpt>
      <trkpt lat="47.57759" lon="5.91397">
        <ele>235.39999389648</ele>
        <time>2014-02-02T10:39:12.000Z</time>
      </trkpt>
      <trkpt lat="47.57751" lon="5.91389">
        <ele>236.19999694824</ele>
        <time>2014-02-02T10:39:19.000Z</time>
      </trkpt>
      <trkpt lat="47.5775" lon="5.91389">
        <ele>236.60000610352</ele>
        <time>2014-02-02T10:39:20.000Z</time>
      </trkpt>
      <trkpt lat="47.57749" lon="5.91388">
        <ele>237</ele>
        <time>2014-02-02T10:39:21.000Z</time>
      </trkpt>
      <trkpt lat="47.57744" lon="5.91384">
        <ele>237.39999389648</ele>
        <time>2014-02-02T10:39:23.000Z</time>
      </trkpt>
      <trkpt lat="47.57744" lon="5.91384">
        <ele>237.39999389648</ele>
        <time>2014-02-02T10:39:25.000Z</time>
      </trkpt>
      <trkpt lat="47.57737" lon="5.91376">
        <ele>238.80000305176</ele>
        <time>2014-02-02T10:39:28.000Z</time>
      </trkpt>
      <trkpt lat="47.57737" lon="5.91376">
        <ele>238.80000305176</ele>
        <time>2014-02-02T10:39:29.000Z</time>
      </trkpt>
      <trkpt lat="47.57734" lon="5.91375">
        <ele>239.19999694824</ele>
        <time>2014-02-02T10:39:30.000Z</time>
      </trkpt>
      <trkpt lat="47.57732" lon="5.91373">
        <ele>239.60000610352</ele>
        <time>2014-02-02T10:39:31.000Z</time>
      </trkpt>
      <trkpt lat="47.5772" lon="5.91361">
        <ele>240</ele>
        <time>2014-02-02T10:39:37.000Z</time>
      </trkpt>
      <trkpt lat="47.57718" lon="5.9136">
        <ele>240.80000305176</ele>
        <time>2014-02-02T10:39:38.000Z</time>
      </trkpt>
      <trkpt lat="47.57716" lon="5.91358">
        <ele>241.19999694824</ele>
        <time>2014-02-02T10:39:39.000Z</time>
      </trkpt>
      <trkpt lat="47.57714" lon="5.91357">
        <ele>241.80000305176</ele>
        <time>2014-02-02T10:39:40.000Z</time>
      </trkpt>
      <trkpt lat="47.5771" lon="5.91354">
        <ele>241.80000305176</ele>
        <time>2014-02-02T10:39:42.000Z</time>
      </trkpt>
      <trkpt lat="47.57709" lon="5.91347">
        <ele>241.80000305176</ele>
        <time>2014-02-02T10:40:40.000Z</time>
      </trkpt>
      <trkpt lat="47.57709" lon="5.91344">
        <ele>241.80000305176</ele>
        <time>2014-02-02T10:40:41.000Z</time>
      </trkpt>
      <trkpt lat="47.57707" lon="5.91342">
        <ele>241.80000305176</ele>
        <time>2014-02-02T10:40:42.000Z</time>
      </trkpt>
      <trkpt lat="47.57703" lon="5.91331">
        <ele>241.80000305176</ele>
        <time>2014-02-02T10:40:47.000Z</time>
      </trkpt>
      <trkpt lat="47.577" lon="5.91325">
        <ele>241.80000305176</ele>
        <time>2014-02-02T10:40:51.000Z</time>
      </trkpt>
      <trkpt lat="47.57696" lon="5.9132">
        <ele>241.80000305176</ele>
        <time>2014-02-02T10:40:54.000Z</time>
      </trkpt>
      <trkpt lat="47.57692" lon="5.91317">
        <ele>241.80000305176</ele>
        <time>2014-02-02T10:40:56.000Z</time>
      </trkpt>
      <trkpt lat="47.57691" lon="5.91316">
        <ele>242.19999694824</ele>
        <time>2014-02-02T10:40:57.000Z</time>
      </trkpt>
      <trkpt lat="47.57689" lon="5.91313">
        <ele>242.60000610352</ele>
        <time>2014-02-02T10:40:58.000Z</time>
      </trkpt>
      <trkpt lat="47.57688" lon="5.91311">
        <ele>243</ele>
        <time>2014-02-02T10:40:59.000Z</time>
      </trkpt>
      <trkpt lat="47.57686" lon="5.91309">
        <ele>243.39999389648</ele>
        <time>2014-02-02T10:41:00.000Z</time>
      </trkpt>
      <trkpt lat="47.57685" lon="5.91307">
        <ele>243.80000305176</ele>
        <time>2014-02-02T10:41:01.000Z</time>
      </trkpt>
      <trkpt lat="47.5768" lon="5.913">
        <ele>243.80000305176</ele>
        <time>2014-02-02T10:41:04.000Z</time>
      </trkpt>
      <trkpt lat="47.57677" lon="5.91297">
        <ele>243.80000305176</ele>
        <time>2014-02-02T10:41:06.000Z</time>
      </trkpt>
      <trkpt lat="47.57676" lon="5.91292">
        <ele>243.80000305176</ele>
        <time>2014-02-02T10:43:03.000Z</time>
      </trkpt>
      <trkpt lat="47.57674" lon="5.91286">
        <ele>243.80000305176</ele>
        <time>2014-02-02T10:43:05.000Z</time>
      </trkpt>
      <trkpt lat="47.57669" lon="5.91275">
        <ele>243.80000305176</ele>
        <time>2014-02-02T10:43:09.000Z</time>
      </trkpt>
      <trkpt lat="47.57667" lon="5.91272">
        <ele>243.80000305176</ele>
        <time>2014-02-02T10:43:10.000Z</time>
      </trkpt>
      <trkpt lat="47.57658" lon="5.91255">
        <ele>243.80000305176</ele>
        <time>2014-02-02T10:43:16.000Z</time>
      </trkpt>
      <trkpt lat="47.57655" lon="5.91252">
        <ele>243.80000305176</ele>
        <time>2014-02-02T10:43:18.000Z</time>
      </trkpt>
      <trkpt lat="47.57649" lon="5.91246">
        <ele>244.19999694824</ele>
        <time>2014-02-02T10:43:20.000Z</time>
      </trkpt>
      <trkpt lat="47.57646" lon="5.91241">
        <ele>245</ele>
        <time>2014-02-02T10:43:21.000Z</time>
      </trkpt>
      <trkpt lat="47.57643" lon="5.91236">
        <ele>245.39999389648</ele>
        <time>2014-02-02T10:43:22.000Z</time>
      </trkpt>
      <trkpt lat="47.5764" lon="5.91232">
        <ele>245.80000305176</ele>
        <time>2014-02-02T10:43:23.000Z</time>
      </trkpt>
      <trkpt lat="47.57623" lon="5.91214">
        <ele>245.80000305176</ele>
        <time>2014-02-02T10:43:28.000Z</time>
      </trkpt>
      <trkpt lat="47.57606" lon="5.91198">
        <ele>246.19999694824</ele>
        <time>2014-02-02T10:43:33.000Z</time>
      </trkpt>
      <trkpt lat="47.57603" lon="5.91195">
        <ele>246.60000610352</ele>
        <time>2014-02-02T10:43:34.000Z</time>
      </trkpt>
      <trkpt lat="47.576" lon="5.91193">
        <ele>247.19999694824</ele>
        <time>2014-02-02T10:43:35.000Z</time>
      </trkpt>
      <trkpt lat="47.57596" lon="5.91189">
        <ele>247.60000610352</ele>
        <time>2014-02-02T10:43:36.000Z</time>
      </trkpt>
      <trkpt lat="47.57593" lon="5.91186">
        <ele>248</ele>
        <time>2014-02-02T10:43:37.000Z</time>
      </trkpt>
      <trkpt lat="47.57576" lon="5.91171">
        <ele>248</ele>
        <time>2014-02-02T10:43:42.000Z</time>
      </trkpt>
      <trkpt lat="47.57568" lon="5.91163">
        <ele>248</ele>
        <time>2014-02-02T10:43:47.000Z</time>
      </trkpt>
      <trkpt lat="47.57555" lon="5.91148">
        <ele>248</ele>
        <time>2014-02-02T10:43:56.000Z</time>
      </trkpt>
      <trkpt lat="47.57543" lon="5.91136">
        <ele>248</ele>
        <time>2014-02-02T10:44:02.000Z</time>
      </trkpt>
      <trkpt lat="47.57542" lon="5.91135">
        <ele>248</ele>
        <time>2014-02-02T10:44:03.000Z</time>
      </trkpt>
      <trkpt lat="47.57536" lon="5.9113">
        <ele>248</ele>
        <time>2014-02-02T10:44:06.000Z</time>
      </trkpt>
      <trkpt lat="47.57524" lon="5.9112">
        <ele>248</ele>
        <time>2014-02-02T10:44:12.000Z</time>
      </trkpt>
      <trkpt lat="47.5751" lon="5.91111">
        <ele>248</ele>
        <time>2014-02-02T10:44:19.000Z</time>
      </trkpt>
      <trkpt lat="47.57498" lon="5.911">
        <ele>248</ele>
        <time>2014-02-02T10:44:25.000Z</time>
      </trkpt>
      <trkpt lat="47.57488" lon="5.91088">
        <ele>248</ele>
        <time>2014-02-02T10:44:31.000Z</time>
      </trkpt>
      <trkpt lat="47.57487" lon="5.91088">
        <ele>248</ele>
        <time>2014-02-02T10:44:32.000Z</time>
      </trkpt>
      <trkpt lat="47.57485" lon="5.91084">
        <ele>248</ele>
        <time>2014-02-02T10:44:55.000Z</time>
      </trkpt>
      <trkpt lat="47.57482" lon="5.91079">
        <ele>248</ele>
        <time>2014-02-02T10:44:57.000Z</time>
      </trkpt>
      <trkpt lat="47.57468" lon="5.91062">
        <ele>248</ele>
        <time>2014-02-02T10:45:04.000Z</time>
      </trkpt>
      <trkpt lat="47.57455" lon="5.91047">
        <ele>248</ele>
        <time>2014-02-02T10:45:09.000Z</time>
      </trkpt>
      <trkpt lat="47.57438" lon="5.91026">
        <ele>248</ele>
        <time>2014-02-02T10:45:14.000Z</time>
      </trkpt>
      <trkpt lat="47.57427" lon="5.91007">
        <ele>248</ele>
        <time>2014-02-02T10:45:19.000Z</time>
      </trkpt>
      <trkpt lat="47.57419" lon="5.90992">
        <ele>248</ele>
        <time>2014-02-02T10:45:24.000Z</time>
      </trkpt>
      <trkpt lat="47.57411" lon="5.90987">
        <ele>247.60000610352</ele>
        <time>2014-02-02T10:45:27.000Z</time>
      </trkpt>
      <trkpt lat="47.57408" lon="5.90986">
        <ele>247.19999694824</ele>
        <time>2014-02-02T10:45:28.000Z</time>
      </trkpt>
      <trkpt lat="47.57405" lon="5.90984">
        <ele>246.80000305176</ele>
        <time>2014-02-02T10:45:29.000Z</time>
      </trkpt>
      <trkpt lat="47.57402" lon="5.90982">
        <ele>246.39999389648</ele>
        <time>2014-02-02T10:45:30.000Z</time>
      </trkpt>
      <trkpt lat="47.57398" lon="5.90982">
        <ele>246</ele>
        <time>2014-02-02T10:45:31.000Z</time>
      </trkpt>
      <trkpt lat="47.57388" lon="5.9098">
        <ele>246</ele>
        <time>2014-02-02T10:45:34.000Z</time>
      </trkpt>
      <trkpt lat="47.57369" lon="5.90979">
        <ele>246</ele>
        <time>2014-02-02T10:45:40.000Z</time>
      </trkpt>
      <trkpt lat="47.5735" lon="5.90977">
        <ele>246</ele>
        <time>2014-02-02T10:45:46.000Z</time>
      </trkpt>
      <trkpt lat="47.57334" lon="5.90979">
        <ele>246</ele>
        <time>2014-02-02T10:45:52.000Z</time>
      </trkpt>
      <trkpt lat="47.57318" lon="5.90979">
        <ele>246</ele>
        <time>2014-02-02T10:45:57.000Z</time>
      </trkpt>
      <trkpt lat="47.57299" lon="5.9098">
        <ele>246</ele>
        <time>2014-02-02T10:46:02.000Z</time>
      </trkpt>
      <trkpt lat="47.57276" lon="5.9098">
        <ele>246</ele>
        <time>2014-02-02T10:46:08.000Z</time>
      </trkpt>
      <trkpt lat="47.57269" lon="5.90982">
        <ele>245.39999389648</ele>
        <time>2014-02-02T10:46:10.000Z</time>
      </trkpt>
      <trkpt lat="47.57266" lon="5.90983">
        <ele>245</ele>
        <time>2014-02-02T10:46:11.000Z</time>
      </trkpt>
      <trkpt lat="47.57263" lon="5.90983">
        <ele>244.60000610352</ele>
        <time>2014-02-02T10:46:12.000Z</time>
      </trkpt>
      <trkpt lat="47.5726" lon="5.90984">
        <ele>244</ele>
        <time>2014-02-02T10:46:13.000Z</time>
      </trkpt>
      <trkpt lat="47.57258" lon="5.90986">
        <ele>243.60000610352</ele>
        <time>2014-02-02T10:46:14.000Z</time>
      </trkpt>
      <trkpt lat="47.57256" lon="5.9099">
        <ele>243.60000610352</ele>
        <time>2014-02-02T10:46:15.000Z</time>
      </trkpt>
      <trkpt lat="47.57256" lon="5.90996">
        <ele>243.19999694824</ele>
        <time>2014-02-02T10:46:16.000Z</time>
      </trkpt>
      <trkpt lat="47.57255" lon="5.91001">
        <ele>242.80000305176</ele>
        <time>2014-02-02T10:46:17.000Z</time>
      </trkpt>
      <trkpt lat="47.57255" lon="5.91007">
        <ele>242.39999389648</ele>
        <time>2014-02-02T10:46:18.000Z</time>
      </trkpt>
      <trkpt lat="47.57254" lon="5.91014">
        <ele>242</ele>
        <time>2014-02-02T10:46:19.000Z</time>
      </trkpt>
      <trkpt lat="47.57254" lon="5.9102">
        <ele>241.60000610352</ele>
        <time>2014-02-02T10:46:20.000Z</time>
      </trkpt>
      <trkpt lat="47.57253" lon="5.91025">
        <ele>241.60000610352</ele>
        <time>2014-02-02T10:46:21.000Z</time>
      </trkpt>
      <trkpt lat="47.57248" lon="5.91048">
        <ele>241.60000610352</ele>
        <time>2014-02-02T10:46:26.000Z</time>
      </trkpt>
      <trkpt lat="47.57244" lon="5.91073">
        <ele>241.60000610352</ele>
        <time>2014-02-02T10:46:31.000Z</time>
      </trkpt>
      <trkpt lat="47.57237" lon="5.91104">
        <ele>241.60000610352</ele>
        <time>2014-02-02T10:46:38.000Z</time>
      </trkpt>
      <trkpt lat="47.57229" lon="5.91136">
        <ele>241.60000610352</ele>
        <time>2014-02-02T10:46:46.000Z</time>
      </trkpt>
      <trkpt lat="47.5722" lon="5.91163">
        <ele>241.60000610352</ele>
        <time>2014-02-02T10:46:54.000Z</time>
      </trkpt>
      <trkpt lat="47.57216" lon="5.91184">
        <ele>241.60000610352</ele>
        <time>2014-02-02T10:47:00.000Z</time>
      </trkpt>
      <trkpt lat="47.57212" lon="5.912">
        <ele>241.60000610352</ele>
        <time>2014-02-02T10:47:05.000Z</time>
      </trkpt>
      <trkpt lat="47.57207" lon="5.91214">
        <ele>241.60000610352</ele>
        <time>2014-02-02T10:47:10.000Z</time>
      </trkpt>
      <trkpt lat="47.57199" lon="5.91236">
        <ele>241.60000610352</ele>
        <time>2014-02-02T10:47:16.000Z</time>
      </trkpt>
      <trkpt lat="47.57193" lon="5.91263">
        <ele>241.60000610352</ele>
        <time>2014-02-02T10:47:23.000Z</time>
      </trkpt>
      <trkpt lat="47.57186" lon="5.91276">
        <ele>241.60000610352</ele>
        <time>2014-02-02T10:47:28.000Z</time>
      </trkpt>
      <trkpt lat="47.57181" lon="5.91284">
        <ele>242</ele>
        <time>2014-02-02T10:47:32.000Z</time>
      </trkpt>
      <trkpt lat="47.57179" lon="5.91285">
        <ele>242.39999389648</ele>
        <time>2014-02-02T10:47:33.000Z</time>
      </trkpt>
      <trkpt lat="47.57178" lon="5.91288">
        <ele>242.80000305176</ele>
        <time>2014-02-02T10:47:34.000Z</time>
      </trkpt>
      <trkpt lat="47.57176" lon="5.9129">
        <ele>243.39999389648</ele>
        <time>2014-02-02T10:47:35.000Z</time>
      </trkpt>
      <trkpt lat="47.57174" lon="5.91292">
        <ele>243.80000305176</ele>
        <time>2014-02-02T10:47:36.000Z</time>
      </trkpt>
      <trkpt lat="47.57166" lon="5.91299">
        <ele>243.80000305176</ele>
        <time>2014-02-02T10:47:40.000Z</time>
      </trkpt>
      <trkpt lat="47.57154" lon="5.91312">
        <ele>243.80000305176</ele>
        <time>2014-02-02T10:47:47.000Z</time>
      </trkpt>
      <trkpt lat="47.57143" lon="5.91323">
        <ele>244.60000610352</ele>
        <time>2014-02-02T10:47:53.000Z</time>
      </trkpt>
      <trkpt lat="47.57141" lon="5.91325">
        <ele>245</ele>
        <time>2014-02-02T10:47:54.000Z</time>
      </trkpt>
      <trkpt lat="47.57138" lon="5.91327">
        <ele>245.39999389648</ele>
        <time>2014-02-02T10:47:55.000Z</time>
      </trkpt>
      <trkpt lat="47.57137" lon="5.91329">
        <ele>245.80000305176</ele>
        <time>2014-02-02T10:47:56.000Z</time>
      </trkpt>
      <trkpt lat="47.57131" lon="5.91334">
        <ele>245.80000305176</ele>
        <time>2014-02-02T10:47:59.000Z</time>
      </trkpt>
      <trkpt lat="47.57119" lon="5.91349">
        <ele>245.80000305176</ele>
        <time>2014-02-02T10:48:06.000Z</time>
      </trkpt>
      <trkpt lat="47.57108" lon="5.91364">
        <ele>245.80000305176</ele>
        <time>2014-02-02T10:48:12.000Z</time>
      </trkpt>
      <trkpt lat="47.57103" lon="5.91373">
        <ele>245.80000305176</ele>
        <time>2014-02-02T10:48:15.000Z</time>
      </trkpt>
      <trkpt lat="47.571" lon="5.91379">
        <ele>245.80000305176</ele>
        <time>2014-02-02T10:48:17.000Z</time>
      </trkpt>
      <trkpt lat="47.57097" lon="5.91386">
        <ele>245.80000305176</ele>
        <time>2014-02-02T10:48:19.000Z</time>
      </trkpt>
      <trkpt lat="47.57084" lon="5.91411">
        <ele>245.80000305176</ele>
        <time>2014-02-02T10:48:26.000Z</time>
      </trkpt>
      <trkpt lat="47.57067" lon="5.91443">
        <ele>245.80000305176</ele>
        <time>2014-02-02T10:48:34.000Z</time>
      </trkpt>
      <trkpt lat="47.57055" lon="5.91468">
        <ele>245.80000305176</ele>
        <time>2014-02-02T10:48:41.000Z</time>
      </trkpt>
      <trkpt lat="47.57041" lon="5.91496">
        <ele>245.80000305176</ele>
        <time>2014-02-02T10:48:49.000Z</time>
      </trkpt>
      <trkpt lat="47.57033" lon="5.9152">
        <ele>245.80000305176</ele>
        <time>2014-02-02T10:48:55.000Z</time>
      </trkpt>
      <trkpt lat="47.57028" lon="5.91539">
        <ele>245.80000305176</ele>
        <time>2014-02-02T10:48:59.000Z</time>
      </trkpt>
      <trkpt lat="47.5702" lon="5.9156">
        <ele>245.80000305176</ele>
        <time>2014-02-02T10:49:04.000Z</time>
      </trkpt>
      <trkpt lat="47.57014" lon="5.91574">
        <ele>245.80000305176</ele>
        <time>2014-02-02T10:49:09.000Z</time>
      </trkpt>
      <trkpt lat="47.57008" lon="5.91591">
        <ele>245.80000305176</ele>
        <time>2014-02-02T10:49:15.000Z</time>
      </trkpt>
      <trkpt lat="47.56998" lon="5.91618">
        <ele>245.80000305176</ele>
        <time>2014-02-02T10:49:23.000Z</time>
      </trkpt>
      <trkpt lat="47.56991" lon="5.91639">
        <ele>245.80000305176</ele>
        <time>2014-02-02T10:49:29.000Z</time>
      </trkpt>
      <trkpt lat="47.56981" lon="5.91663">
        <ele>245.80000305176</ele>
        <time>2014-02-02T10:49:36.000Z</time>
      </trkpt>
      <trkpt lat="47.56973" lon="5.91683">
        <ele>245.80000305176</ele>
        <time>2014-02-02T10:49:42.000Z</time>
      </trkpt>
      <trkpt lat="47.56966" lon="5.91702">
        <ele>245.80000305176</ele>
        <time>2014-02-02T10:49:48.000Z</time>
      </trkpt>
      <trkpt lat="47.5696" lon="5.91715">
        <ele>245.80000305176</ele>
        <time>2014-02-02T10:49:55.000Z</time>
      </trkpt>
      <trkpt lat="47.56954" lon="5.91727">
        <ele>245.80000305176</ele>
        <time>2014-02-02T10:50:03.000Z</time>
      </trkpt>
      <trkpt lat="47.56954" lon="5.91728">
        <ele>245.80000305176</ele>
        <time>2014-02-02T10:50:04.000Z</time>
      </trkpt>
      <trkpt lat="47.56952" lon="5.91733">
        <ele>245.80000305176</ele>
        <time>2014-02-02T10:50:07.000Z</time>
      </trkpt>
      <trkpt lat="47.5695" lon="5.91737">
        <ele>245.80000305176</ele>
        <time>2014-02-02T10:50:10.000Z</time>
      </trkpt>
      <trkpt lat="47.56946" lon="5.91744">
        <ele>245.80000305176</ele>
        <time>2014-02-02T10:50:14.000Z</time>
      </trkpt>
      <trkpt lat="47.56946" lon="5.91746">
        <ele>245.80000305176</ele>
        <time>2014-02-02T10:50:15.000Z</time>
      </trkpt>
      <trkpt lat="47.56944" lon="5.9175">
        <ele>245.80000305176</ele>
        <time>2014-02-02T10:50:17.000Z</time>
      </trkpt>
      <trkpt lat="47.56934" lon="5.91768">
        <ele>245.80000305176</ele>
        <time>2014-02-02T10:50:26.000Z</time>
      </trkpt>
      <trkpt lat="47.56931" lon="5.91775">
        <ele>245.80000305176</ele>
        <time>2014-02-02T10:50:30.000Z</time>
      </trkpt>
      <trkpt lat="47.5693" lon="5.91778">
        <ele>245.80000305176</ele>
        <time>2014-02-02T10:50:32.000Z</time>
      </trkpt>
      <trkpt lat="47.56929" lon="5.91781">
        <ele>245.80000305176</ele>
        <time>2014-02-02T10:50:33.000Z</time>
      </trkpt>
      <trkpt lat="47.56922" lon="5.91804">
        <ele>245.80000305176</ele>
        <time>2014-02-02T10:50:40.000Z</time>
      </trkpt>
      <trkpt lat="47.56918" lon="5.91821">
        <ele>246.19999694824</ele>
        <time>2014-02-02T10:50:47.000Z</time>
      </trkpt>
      <trkpt lat="47.56918" lon="5.91824">
        <ele>246.60000610352</ele>
        <time>2014-02-02T10:50:48.000Z</time>
      </trkpt>
      <trkpt lat="47.56917" lon="5.91827">
        <ele>247</ele>
        <time>2014-02-02T10:50:49.000Z</time>
      </trkpt>
      <trkpt lat="47.56917" lon="5.91829">
        <ele>247.39999389648</ele>
        <time>2014-02-02T10:50:50.000Z</time>
      </trkpt>
      <trkpt lat="47.56917" lon="5.91832">
        <ele>247.80000305176</ele>
        <time>2014-02-02T10:50:51.000Z</time>
      </trkpt>
      <trkpt lat="47.56916" lon="5.91846">
        <ele>247.80000305176</ele>
        <time>2014-02-02T10:50:56.000Z</time>
      </trkpt>
      <trkpt lat="47.56911" lon="5.91871">
        <ele>247.80000305176</ele>
        <time>2014-02-02T10:51:06.000Z</time>
      </trkpt>
      <trkpt lat="47.56909" lon="5.91887">
        <ele>247.80000305176</ele>
        <time>2014-02-02T10:51:13.000Z</time>
      </trkpt>
      <trkpt lat="47.56909" lon="5.91889">
        <ele>247.80000305176</ele>
        <time>2014-02-02T10:51:14.000Z</time>
      </trkpt>
      <trkpt lat="47.56908" lon="5.91897">
        <ele>248.39999389648</ele>
        <time>2014-02-02T10:51:17.000Z</time>
      </trkpt>
      <trkpt lat="47.56908" lon="5.919">
        <ele>248.80000305176</ele>
        <time>2014-02-02T10:51:18.000Z</time>
      </trkpt>
      <trkpt lat="47.56907" lon="5.91902">
        <ele>249.19999694824</ele>
        <time>2014-02-02T10:51:19.000Z</time>
      </trkpt>
      <trkpt lat="47.56907" lon="5.91904">
        <ele>249.60000610352</ele>
        <time>2014-02-02T10:51:20.000Z</time>
      </trkpt>
      <trkpt lat="47.56906" lon="5.91907">
        <ele>250</ele>
        <time>2014-02-02T10:51:21.000Z</time>
      </trkpt>
      <trkpt lat="47.56906" lon="5.91909">
        <ele>250</ele>
        <time>2014-02-02T10:51:22.000Z</time>
      </trkpt>
      <trkpt lat="47.56902" lon="5.91925">
        <ele>250</ele>
        <time>2014-02-02T10:51:29.000Z</time>
      </trkpt>
      <trkpt lat="47.56899" lon="5.91938">
        <ele>250</ele>
        <time>2014-02-02T10:51:35.000Z</time>
      </trkpt>
      <trkpt lat="47.56898" lon="5.9194">
        <ele>250</ele>
        <time>2014-02-02T10:51:36.000Z</time>
      </trkpt>
      <trkpt lat="47.56896" lon="5.9195">
        <ele>250.39999389648</ele>
        <time>2014-02-02T10:51:40.000Z</time>
      </trkpt>
      <trkpt lat="47.56895" lon="5.91953">
        <ele>250.80000305176</ele>
        <time>2014-02-02T10:51:41.000Z</time>
      </trkpt>
      <trkpt lat="47.56894" lon="5.91956">
        <ele>251.19999694824</ele>
        <time>2014-02-02T10:51:42.000Z</time>
      </trkpt>
      <trkpt lat="47.56894" lon="5.9196">
        <ele>251.60000610352</ele>
        <time>2014-02-02T10:51:43.000Z</time>
      </trkpt>
      <trkpt lat="47.56893" lon="5.91963">
        <ele>252</ele>
        <time>2014-02-02T10:51:44.000Z</time>
      </trkpt>
      <trkpt lat="47.56889" lon="5.9198">
        <ele>252</ele>
        <time>2014-02-02T10:51:50.000Z</time>
      </trkpt>
      <trkpt lat="47.56885" lon="5.91995">
        <ele>252</ele>
        <time>2014-02-02T10:51:56.000Z</time>
      </trkpt>
      <trkpt lat="47.56881" lon="5.9202">
        <ele>252</ele>
        <time>2014-02-02T10:52:04.000Z</time>
      </trkpt>
      <trkpt lat="47.56876" lon="5.92039">
        <ele>252</ele>
        <time>2014-02-02T10:52:11.000Z</time>
      </trkpt>
      <trkpt lat="47.56873" lon="5.92056">
        <ele>252</ele>
        <time>2014-02-02T10:52:17.000Z</time>
      </trkpt>
      <trkpt lat="47.56869" lon="5.92077">
        <ele>252</ele>
        <time>2014-02-02T10:52:24.000Z</time>
      </trkpt>
      <trkpt lat="47.56868" lon="5.92084">
        <ele>252</ele>
        <time>2014-02-02T10:52:26.000Z</time>
      </trkpt>
      <trkpt lat="47.56864" lon="5.92104">
        <ele>252</ele>
        <time>2014-02-02T10:52:33.000Z</time>
      </trkpt>
      <trkpt lat="47.56862" lon="5.92123">
        <ele>252</ele>
        <time>2014-02-02T10:52:40.000Z</time>
      </trkpt>
      <trkpt lat="47.56864" lon="5.9214">
        <ele>252</ele>
        <time>2014-02-02T10:52:47.000Z</time>
      </trkpt>
      <trkpt lat="47.56863" lon="5.92149">
        <ele>252.39999389648</ele>
        <time>2014-02-02T10:52:50.000Z</time>
      </trkpt>
      <trkpt lat="47.56863" lon="5.92152">
        <ele>252.80000305176</ele>
        <time>2014-02-02T10:52:51.000Z</time>
      </trkpt>
      <trkpt lat="47.56863" lon="5.92154">
        <ele>253.19999694824</ele>
        <time>2014-02-02T10:52:52.000Z</time>
      </trkpt>
      <trkpt lat="47.56864" lon="5.92156">
        <ele>253.60000610352</ele>
        <time>2014-02-02T10:52:53.000Z</time>
      </trkpt>
      <trkpt lat="47.56864" lon="5.92159">
        <ele>254</ele>
        <time>2014-02-02T10:52:54.000Z</time>
      </trkpt>
      <trkpt lat="47.56865" lon="5.92176">
        <ele>254</ele>
        <time>2014-02-02T10:53:00.000Z</time>
      </trkpt>
      <trkpt lat="47.56864" lon="5.9219">
        <ele>254</ele>
        <time>2014-02-02T10:53:06.000Z</time>
      </trkpt>
      <trkpt lat="47.56865" lon="5.92202">
        <ele>254.39999389648</ele>
        <time>2014-02-02T10:53:10.000Z</time>
      </trkpt>
      <trkpt lat="47.56865" lon="5.92205">
        <ele>255</ele>
        <time>2014-02-02T10:53:11.000Z</time>
      </trkpt>
      <trkpt lat="47.56865" lon="5.92208">
        <ele>255.39999389648</ele>
        <time>2014-02-02T10:53:12.000Z</time>
      </trkpt>
      <trkpt lat="47.56865" lon="5.9221">
        <ele>255.80000305176</ele>
        <time>2014-02-02T10:53:13.000Z</time>
      </trkpt>
      <trkpt lat="47.56865" lon="5.92213">
        <ele>256.20001220703</ele>
        <time>2014-02-02T10:53:14.000Z</time>
      </trkpt>
      <trkpt lat="47.56865" lon="5.9222">
        <ele>256.20001220703</ele>
        <time>2014-02-02T10:53:16.000Z</time>
      </trkpt>
      <trkpt lat="47.56866" lon="5.92227">
        <ele>256.20001220703</ele>
        <time>2014-02-02T10:53:18.000Z</time>
      </trkpt>
      <trkpt lat="47.56869" lon="5.92247">
        <ele>256.20001220703</ele>
        <time>2014-02-02T10:53:25.000Z</time>
      </trkpt>
      <trkpt lat="47.56872" lon="5.92267">
        <ele>256.20001220703</ele>
        <time>2014-02-02T10:53:33.000Z</time>
      </trkpt>
      <trkpt lat="47.56877" lon="5.92284">
        <ele>256.20001220703</ele>
        <time>2014-02-02T10:53:40.000Z</time>
      </trkpt>
      <trkpt lat="47.5688" lon="5.92297">
        <ele>256.20001220703</ele>
        <time>2014-02-02T10:53:46.000Z</time>
      </trkpt>
      <trkpt lat="47.56883" lon="5.92301">
        <ele>256.60000610352</ele>
        <time>2014-02-02T10:53:48.000Z</time>
      </trkpt>
      <trkpt lat="47.56885" lon="5.92307">
        <ele>257.79998779297</ele>
        <time>2014-02-02T10:53:49.000Z</time>
      </trkpt>
      <trkpt lat="47.56886" lon="5.92309">
        <ele>258.20001220703</ele>
        <time>2014-02-02T10:53:53.000Z</time>
      </trkpt>
      <trkpt lat="47.56887" lon="5.92313">
        <ele>258.20001220703</ele>
        <time>2014-02-02T10:53:55.000Z</time>
      </trkpt>
      <trkpt lat="47.56892" lon="5.92325">
        <ele>258.20001220703</ele>
        <time>2014-02-02T10:54:01.000Z</time>
      </trkpt>
      <trkpt lat="47.56901" lon="5.9234">
        <ele>258.20001220703</ele>
        <time>2014-02-02T10:54:09.000Z</time>
      </trkpt>
      <trkpt lat="47.56906" lon="5.92351">
        <ele>258.60000610352</ele>
        <time>2014-02-02T10:54:16.000Z</time>
      </trkpt>
      <trkpt lat="47.56908" lon="5.92352">
        <ele>259</ele>
        <time>2014-02-02T10:54:17.000Z</time>
      </trkpt>
      <trkpt lat="47.56909" lon="5.92354">
        <ele>259.39999389648</ele>
        <time>2014-02-02T10:54:18.000Z</time>
      </trkpt>
      <trkpt lat="47.5691" lon="5.92355">
        <ele>259.79998779297</ele>
        <time>2014-02-02T10:54:19.000Z</time>
      </trkpt>
      <trkpt lat="47.56911" lon="5.92356">
        <ele>260.39999389648</ele>
        <time>2014-02-02T10:54:20.000Z</time>
      </trkpt>
      <trkpt lat="47.56917" lon="5.92363">
        <ele>260.39999389648</ele>
        <time>2014-02-02T10:54:25.000Z</time>
      </trkpt>
      <trkpt lat="47.56919" lon="5.92365">
        <ele>260.39999389648</ele>
        <time>2014-02-02T10:54:27.000Z</time>
      </trkpt>
      <trkpt lat="47.56921" lon="5.92368">
        <ele>260.39999389648</ele>
        <time>2014-02-02T10:54:29.000Z</time>
      </trkpt>
      <trkpt lat="47.56929" lon="5.92376">
        <ele>260.39999389648</ele>
        <time>2014-02-02T10:54:33.000Z</time>
      </trkpt>
      <trkpt lat="47.56937" lon="5.92387">
        <ele>260.79998779297</ele>
        <time>2014-02-02T10:54:42.000Z</time>
      </trkpt>
      <trkpt lat="47.56938" lon="5.9239">
        <ele>261.20001220703</ele>
        <time>2014-02-02T10:54:43.000Z</time>
      </trkpt>
      <trkpt lat="47.56939" lon="5.92392">
        <ele>261.60000610352</ele>
        <time>2014-02-02T10:54:44.000Z</time>
      </trkpt>
      <trkpt lat="47.5694" lon="5.92394">
        <ele>262</ele>
        <time>2014-02-02T10:54:45.000Z</time>
      </trkpt>
      <trkpt lat="47.56941" lon="5.92397">
        <ele>262.39999389648</ele>
        <time>2014-02-02T10:54:46.000Z</time>
      </trkpt>
      <trkpt lat="47.56947" lon="5.92408">
        <ele>262.39999389648</ele>
        <time>2014-02-02T10:54:51.000Z</time>
      </trkpt>
      <trkpt lat="47.56953" lon="5.92421">
        <ele>262.39999389648</ele>
        <time>2014-02-02T10:54:58.000Z</time>
      </trkpt>
      <trkpt lat="47.5696" lon="5.92434">
        <ele>262.39999389648</ele>
        <time>2014-02-02T10:55:05.000Z</time>
      </trkpt>
      <trkpt lat="47.56967" lon="5.92451">
        <ele>262.39999389648</ele>
        <time>2014-02-02T10:55:13.000Z</time>
      </trkpt>
      <trkpt lat="47.56971" lon="5.92459">
        <ele>262.79998779297</ele>
        <time>2014-02-02T10:55:17.000Z</time>
      </trkpt>
      <trkpt lat="47.56972" lon="5.92461">
        <ele>263.20001220703</ele>
        <time>2014-02-02T10:55:18.000Z</time>
      </trkpt>
      <trkpt lat="47.56973" lon="5.92462">
        <ele>263.60000610352</ele>
        <time>2014-02-02T10:55:19.000Z</time>
      </trkpt>
      <trkpt lat="47.56974" lon="5.92464">
        <ele>264</ele>
        <time>2014-02-02T10:55:20.000Z</time>
      </trkpt>
      <trkpt lat="47.56975" lon="5.92466">
        <ele>264.39999389648</ele>
        <time>2014-02-02T10:55:21.000Z</time>
      </trkpt>
      <trkpt lat="47.56978" lon="5.9247">
        <ele>264.39999389648</ele>
        <time>2014-02-02T10:55:23.000Z</time>
      </trkpt>
      <trkpt lat="47.56979" lon="5.92471">
        <ele>264.39999389648</ele>
        <time>2014-02-02T10:55:24.000Z</time>
      </trkpt>
      <trkpt lat="47.56983" lon="5.92479">
        <ele>264.39999389648</ele>
        <time>2014-02-02T10:55:28.000Z</time>
      </trkpt>
      <trkpt lat="47.56984" lon="5.9248">
        <ele>264.39999389648</ele>
        <time>2014-02-02T10:55:29.000Z</time>
      </trkpt>
      <trkpt lat="47.56985" lon="5.92482">
        <ele>264.39999389648</ele>
        <time>2014-02-02T10:55:30.000Z</time>
      </trkpt>
      <trkpt lat="47.56989" lon="5.92489">
        <ele>264.39999389648</ele>
        <time>2014-02-02T10:55:34.000Z</time>
      </trkpt>
      <trkpt lat="47.56995" lon="5.92504">
        <ele>264.39999389648</ele>
        <time>2014-02-02T10:55:38.000Z</time>
      </trkpt>
      <trkpt lat="47.56996" lon="5.92507">
        <ele>264.39999389648</ele>
        <time>2014-02-02T10:55:42.000Z</time>
      </trkpt>
      <trkpt lat="47.57001" lon="5.9252">
        <ele>264.39999389648</ele>
        <time>2014-02-02T10:55:47.000Z</time>
      </trkpt>
      <trkpt lat="47.57007" lon="5.9253">
        <ele>264.79998779297</ele>
        <time>2014-02-02T10:55:52.000Z</time>
      </trkpt>
      <trkpt lat="47.57011" lon="5.92535">
        <ele>266.39999389648</ele>
        <time>2014-02-02T10:55:56.000Z</time>
      </trkpt>
      <trkpt lat="47.57012" lon="5.92536">
        <ele>266.39999389648</ele>
        <time>2014-02-02T10:55:57.000Z</time>
      </trkpt>
      <trkpt lat="47.57021" lon="5.92552">
        <ele>266.39999389648</ele>
        <time>2014-02-02T10:56:05.000Z</time>
      </trkpt>
      <trkpt lat="47.57026" lon="5.92566">
        <ele>266.39999389648</ele>
        <time>2014-02-02T10:56:12.000Z</time>
      </trkpt>
      <trkpt lat="47.57035" lon="5.92582">
        <ele>266.79998779297</ele>
        <time>2014-02-02T10:56:21.000Z</time>
      </trkpt>
      <trkpt lat="47.57036" lon="5.92584">
        <ele>267.20001220703</ele>
        <time>2014-02-02T10:56:22.000Z</time>
      </trkpt>
      <trkpt lat="47.57037" lon="5.92586">
        <ele>267.60000610352</ele>
        <time>2014-02-02T10:56:23.000Z</time>
      </trkpt>
      <trkpt lat="47.57038" lon="5.92587">
        <ele>268</ele>
        <time>2014-02-02T10:56:24.000Z</time>
      </trkpt>
      <trkpt lat="47.57039" lon="5.92589">
        <ele>268.39999389648</ele>
        <time>2014-02-02T10:56:25.000Z</time>
      </trkpt>
      <trkpt lat="47.57043" lon="5.92597">
        <ele>268.39999389648</ele>
        <time>2014-02-02T10:56:29.000Z</time>
      </trkpt>
      <trkpt lat="47.57049" lon="5.92609">
        <ele>268.39999389648</ele>
        <time>2014-02-02T10:56:36.000Z</time>
      </trkpt>
      <trkpt lat="47.57051" lon="5.92612">
        <ele>268.39999389648</ele>
        <time>2014-02-02T10:56:38.000Z</time>
      </trkpt>
      <trkpt lat="47.5706" lon="5.92628">
        <ele>268.39999389648</ele>
        <time>2014-02-02T10:56:48.000Z</time>
      </trkpt>
      <trkpt lat="47.57065" lon="5.92638">
        <ele>268.79998779297</ele>
        <time>2014-02-02T10:56:53.000Z</time>
      </trkpt>
      <trkpt lat="47.57065" lon="5.92641">
        <ele>269.20001220703</ele>
        <time>2014-02-02T10:56:54.000Z</time>
      </trkpt>
      <trkpt lat="47.57066" lon="5.92643">
        <ele>269.60000610352</ele>
        <time>2014-02-02T10:56:55.000Z</time>
      </trkpt>
      <trkpt lat="47.57066" lon="5.92647">
        <ele>270.20001220703</ele>
        <time>2014-02-02T10:56:56.000Z</time>
      </trkpt>
      <trkpt lat="47.57067" lon="5.92649">
        <ele>270.60000610352</ele>
        <time>2014-02-02T10:56:57.000Z</time>
      </trkpt>
      <trkpt lat="47.57072" lon="5.92662">
        <ele>270.60000610352</ele>
        <time>2014-02-02T10:57:02.000Z</time>
      </trkpt>
      <trkpt lat="47.57073" lon="5.92664">
        <ele>270.60000610352</ele>
        <time>2014-02-02T10:57:03.000Z</time>
      </trkpt>
      <trkpt lat="47.57074" lon="5.92666">
        <ele>270.60000610352</ele>
        <time>2014-02-02T10:57:04.000Z</time>
      </trkpt>
      <trkpt lat="47.57078" lon="5.92676">
        <ele>270.60000610352</ele>
        <time>2014-02-02T10:57:08.000Z</time>
      </trkpt>
      <trkpt lat="47.57083" lon="5.92689">
        <ele>270.60000610352</ele>
        <time>2014-02-02T10:57:14.000Z</time>
      </trkpt>
      <trkpt lat="47.5709" lon="5.92703">
        <ele>271</ele>
        <time>2014-02-02T10:57:22.000Z</time>
      </trkpt>
      <trkpt lat="47.57091" lon="5.92705">
        <ele>271.39999389648</ele>
        <time>2014-02-02T10:57:23.000Z</time>
      </trkpt>
      <trkpt lat="47.57091" lon="5.92707">
        <ele>272.20001220703</ele>
        <time>2014-02-02T10:57:24.000Z</time>
      </trkpt>
      <trkpt lat="47.57092" lon="5.92708">
        <ele>272.60000610352</ele>
        <time>2014-02-02T10:57:25.000Z</time>
      </trkpt>
      <trkpt lat="47.57094" lon="5.92714">
        <ele>272.60000610352</ele>
        <time>2014-02-02T10:57:29.000Z</time>
      </trkpt>
      <trkpt lat="47.57097" lon="5.92722">
        <ele>272.60000610352</ele>
        <time>2014-02-02T10:57:31.000Z</time>
      </trkpt>
      <trkpt lat="47.57097" lon="5.92722">
        <ele>272.60000610352</ele>
        <time>2014-02-02T10:57:34.000Z</time>
      </trkpt>
      <trkpt lat="47.57104" lon="5.92741">
        <ele>272.60000610352</ele>
        <time>2014-02-02T10:57:41.000Z</time>
      </trkpt>
      <trkpt lat="47.57111" lon="5.92757">
        <ele>272.60000610352</ele>
        <time>2014-02-02T10:57:47.000Z</time>
      </trkpt>
      <trkpt lat="47.57116" lon="5.92771">
        <ele>272.60000610352</ele>
        <time>2014-02-02T10:57:53.000Z</time>
      </trkpt>
      <trkpt lat="47.5712" lon="5.92784">
        <ele>272.60000610352</ele>
        <time>2014-02-02T10:57:58.000Z</time>
      </trkpt>
      <trkpt lat="47.57119" lon="5.92801">
        <ele>275.20001220703</ele>
        <time>2014-02-02T10:58:41.000Z</time>
      </trkpt>
      <trkpt lat="47.57119" lon="5.92815">
        <ele>275.20001220703</ele>
        <time>2014-02-02T10:58:46.000Z</time>
      </trkpt>
      <trkpt lat="47.5712" lon="5.92817">
        <ele>275.20001220703</ele>
        <time>2014-02-02T10:58:47.000Z</time>
      </trkpt>
      <trkpt lat="47.57125" lon="5.9284">
        <ele>275.20001220703</ele>
        <time>2014-02-02T10:58:53.000Z</time>
      </trkpt>
      <trkpt lat="47.57123" lon="5.92866">
        <ele>274.79998779297</ele>
        <time>2014-02-02T10:58:57.000Z</time>
      </trkpt>
      <trkpt lat="47.57122" lon="5.92874">
        <ele>274.39999389648</ele>
        <time>2014-02-02T10:58:58.000Z</time>
      </trkpt>
      <trkpt lat="47.57121" lon="5.92882">
        <ele>274</ele>
        <time>2014-02-02T10:58:59.000Z</time>
      </trkpt>
      <trkpt lat="47.57121" lon="5.92891">
        <ele>273.60000610352</ele>
        <time>2014-02-02T10:59:00.000Z</time>
      </trkpt>
      <trkpt lat="47.57121" lon="5.92898">
        <ele>273.20001220703</ele>
        <time>2014-02-02T10:59:01.000Z</time>
      </trkpt>
      <trkpt lat="47.57122" lon="5.92914">
        <ele>273.20001220703</ele>
        <time>2014-02-02T10:59:03.000Z</time>
      </trkpt>
      <trkpt lat="47.57123" lon="5.92941">
        <ele>272.60000610352</ele>
        <time>2014-02-02T10:59:06.000Z</time>
      </trkpt>
      <trkpt lat="47.57123" lon="5.92951">
        <ele>272.20001220703</ele>
        <time>2014-02-02T10:59:07.000Z</time>
      </trkpt>
      <trkpt lat="47.57123" lon="5.92961">
        <ele>271.79998779297</ele>
        <time>2014-02-02T10:59:08.000Z</time>
      </trkpt>
      <trkpt lat="47.57123" lon="5.92973">
        <ele>271.39999389648</ele>
        <time>2014-02-02T10:59:09.000Z</time>
      </trkpt>
      <trkpt lat="47.57123" lon="5.92985">
        <ele>271</ele>
        <time>2014-02-02T10:59:10.000Z</time>
      </trkpt>
      <trkpt lat="47.57121" lon="5.93023">
        <ele>270.39999389648</ele>
        <time>2014-02-02T10:59:13.000Z</time>
      </trkpt>
      <trkpt lat="47.5712" lon="5.93036">
        <ele>270</ele>
        <time>2014-02-02T10:59:14.000Z</time>
      </trkpt>
      <trkpt lat="47.5712" lon="5.93049">
        <ele>269.60000610352</ele>
        <time>2014-02-02T10:59:15.000Z</time>
      </trkpt>
      <trkpt lat="47.5712" lon="5.93063">
        <ele>269.20001220703</ele>
        <time>2014-02-02T10:59:16.000Z</time>
      </trkpt>
      <trkpt lat="47.5712" lon="5.93076">
        <ele>268.60000610352</ele>
        <time>2014-02-02T10:59:17.000Z</time>
      </trkpt>
      <trkpt lat="47.5712" lon="5.93089">
        <ele>268</ele>
        <time>2014-02-02T10:59:18.000Z</time>
      </trkpt>
      <trkpt lat="47.5712" lon="5.93102">
        <ele>267.60000610352</ele>
        <time>2014-02-02T10:59:19.000Z</time>
      </trkpt>
      <trkpt lat="47.57119" lon="5.93115">
        <ele>267</ele>
        <time>2014-02-02T10:59:20.000Z</time>
      </trkpt>
      <trkpt lat="47.57118" lon="5.93129">
        <ele>266.39999389648</ele>
        <time>2014-02-02T10:59:21.000Z</time>
      </trkpt>
      <trkpt lat="47.57116" lon="5.93166">
        <ele>266</ele>
        <time>2014-02-02T10:59:24.000Z</time>
      </trkpt>
      <trkpt lat="47.57115" lon="5.93179">
        <ele>265.39999389648</ele>
        <time>2014-02-02T10:59:25.000Z</time>
      </trkpt>
      <trkpt lat="47.57114" lon="5.93192">
        <ele>265</ele>
        <time>2014-02-02T10:59:26.000Z</time>
      </trkpt>
      <trkpt lat="47.57112" lon="5.93204">
        <ele>264</ele>
        <time>2014-02-02T10:59:27.000Z</time>
      </trkpt>
      <trkpt lat="47.57108" lon="5.9325">
        <ele>263.60000610352</ele>
        <time>2014-02-02T10:59:31.000Z</time>
      </trkpt>
      <trkpt lat="47.57106" lon="5.93261">
        <ele>263</ele>
        <time>2014-02-02T10:59:32.000Z</time>
      </trkpt>
      <trkpt lat="47.57105" lon="5.93271">
        <ele>262.60000610352</ele>
        <time>2014-02-02T10:59:33.000Z</time>
      </trkpt>
      <trkpt lat="47.57104" lon="5.93282">
        <ele>262.20001220703</ele>
        <time>2014-02-02T10:59:34.000Z</time>
      </trkpt>
      <trkpt lat="47.57104" lon="5.93292">
        <ele>261.79998779297</ele>
        <time>2014-02-02T10:59:35.000Z</time>
      </trkpt>
      <trkpt lat="47.57101" lon="5.93344">
        <ele>261.79998779297</ele>
        <time>2014-02-02T10:59:40.000Z</time>
      </trkpt>
      <trkpt lat="47.57098" lon="5.93383">
        <ele>261.39999389648</ele>
        <time>2014-02-02T10:59:44.000Z</time>
      </trkpt>
      <trkpt lat="47.57097" lon="5.93391">
        <ele>260.79998779297</ele>
        <time>2014-02-02T10:59:45.000Z</time>
      </trkpt>
      <trkpt lat="47.57096" lon="5.93401">
        <ele>260.39999389648</ele>
        <time>2014-02-02T10:59:46.000Z</time>
      </trkpt>
      <trkpt lat="47.57096" lon="5.93409">
        <ele>260</ele>
        <time>2014-02-02T10:59:47.000Z</time>
      </trkpt>
      <trkpt lat="47.57095" lon="5.93418">
        <ele>259.60000610352</ele>
        <time>2014-02-02T10:59:48.000Z</time>
      </trkpt>
      <trkpt lat="47.57092" lon="5.93477">
        <ele>259.60000610352</ele>
        <time>2014-02-02T10:59:55.000Z</time>
      </trkpt>
      <trkpt lat="47.57088" lon="5.93537">
        <ele>259.60000610352</ele>
        <time>2014-02-02T11:00:03.000Z</time>
      </trkpt>
      <trkpt lat="47.57086" lon="5.93562">
        <ele>259.60000610352</ele>
        <time>2014-02-02T11:00:08.000Z</time>
      </trkpt>
      <trkpt lat="47.57086" lon="5.93598">
        <ele>259.60000610352</ele>
        <time>2014-02-02T11:00:15.000Z</time>
      </trkpt>
      <trkpt lat="47.5709" lon="5.93645">
        <ele>259.60000610352</ele>
        <time>2014-02-02T11:00:23.000Z</time>
      </trkpt>
      <trkpt lat="47.57097" lon="5.93698">
        <ele>259.60000610352</ele>
        <time>2014-02-02T11:00:31.000Z</time>
      </trkpt>
      <trkpt lat="47.57105" lon="5.93748">
        <ele>259.60000610352</ele>
        <time>2014-02-02T11:00:39.000Z</time>
      </trkpt>
      <trkpt lat="47.57114" lon="5.93797">
        <ele>259.60000610352</ele>
        <time>2014-02-02T11:00:48.000Z</time>
      </trkpt>
      <trkpt lat="47.57125" lon="5.93854">
        <ele>259.60000610352</ele>
        <time>2014-02-02T11:00:58.000Z</time>
      </trkpt>
      <trkpt lat="47.57131" lon="5.93892">
        <ele>259.60000610352</ele>
        <time>2014-02-02T11:01:05.000Z</time>
      </trkpt>
      <trkpt lat="47.57136" lon="5.9393">
        <ele>259.60000610352</ele>
        <time>2014-02-02T11:01:12.000Z</time>
      </trkpt>
      <trkpt lat="47.57136" lon="5.93961">
        <ele>259.60000610352</ele>
        <time>2014-02-02T11:01:18.000Z</time>
      </trkpt>
      <trkpt lat="47.57132" lon="5.93988">
        <ele>259.60000610352</ele>
        <time>2014-02-02T11:01:24.000Z</time>
      </trkpt>
      <trkpt lat="47.57128" lon="5.94004">
        <ele>260</ele>
        <time>2014-02-02T11:01:28.000Z</time>
      </trkpt>
      <trkpt lat="47.57127" lon="5.94007">
        <ele>260.39999389648</ele>
        <time>2014-02-02T11:01:29.000Z</time>
      </trkpt>
      <trkpt lat="47.57127" lon="5.9401">
        <ele>260.79998779297</ele>
        <time>2014-02-02T11:01:30.000Z</time>
      </trkpt>
      <trkpt lat="47.57126" lon="5.94013">
        <ele>261.60000610352</ele>
        <time>2014-02-02T11:01:31.000Z</time>
      </trkpt>
      <trkpt lat="47.57124" lon="5.94019">
        <ele>261.60000610352</ele>
        <time>2014-02-02T11:01:33.000Z</time>
      </trkpt>
      <trkpt lat="47.57119" lon="5.94042">
        <ele>261.60000610352</ele>
        <time>2014-02-02T11:01:41.000Z</time>
      </trkpt>
      <trkpt lat="47.57115" lon="5.94056">
        <ele>262</ele>
        <time>2014-02-02T11:01:47.000Z</time>
      </trkpt>
      <trkpt lat="47.57114" lon="5.9406">
        <ele>262.39999389648</ele>
        <time>2014-02-02T11:01:48.000Z</time>
      </trkpt>
      <trkpt lat="47.57114" lon="5.94064">
        <ele>262.79998779297</ele>
        <time>2014-02-02T11:01:49.000Z</time>
      </trkpt>
      <trkpt lat="47.57113" lon="5.94067">
        <ele>263.20001220703</ele>
        <time>2014-02-02T11:01:50.000Z</time>
      </trkpt>
      <trkpt lat="47.57112" lon="5.94071">
        <ele>263.60000610352</ele>
        <time>2014-02-02T11:01:51.000Z</time>
      </trkpt>
      <trkpt lat="47.57107" lon="5.941">
        <ele>263.60000610352</ele>
        <time>2014-02-02T11:01:59.000Z</time>
      </trkpt>
      <trkpt lat="47.57102" lon="5.9412">
        <ele>264</ele>
        <time>2014-02-02T11:02:04.000Z</time>
      </trkpt>
      <trkpt lat="47.57102" lon="5.94124">
        <ele>264.39999389648</ele>
        <time>2014-02-02T11:02:05.000Z</time>
      </trkpt>
      <trkpt lat="47.57101" lon="5.94129">
        <ele>265</ele>
        <time>2014-02-02T11:02:06.000Z</time>
      </trkpt>
      <trkpt lat="47.57101" lon="5.94134">
        <ele>265.39999389648</ele>
        <time>2014-02-02T11:02:07.000Z</time>
      </trkpt>
      <trkpt lat="47.571" lon="5.94139">
        <ele>265.79998779297</ele>
        <time>2014-02-02T11:02:08.000Z</time>
      </trkpt>
      <trkpt lat="47.57096" lon="5.94161">
        <ele>265.79998779297</ele>
        <time>2014-02-02T11:02:12.000Z</time>
      </trkpt>
      <trkpt lat="47.57092" lon="5.94185">
        <ele>266.20001220703</ele>
        <time>2014-02-02T11:02:17.000Z</time>
      </trkpt>
      <trkpt lat="47.57092" lon="5.9419">
        <ele>266.60000610352</ele>
        <time>2014-02-02T11:02:18.000Z</time>
      </trkpt>
      <trkpt lat="47.57091" lon="5.94195">
        <ele>267</ele>
        <time>2014-02-02T11:02:19.000Z</time>
      </trkpt>
      <trkpt lat="47.57091" lon="5.942">
        <ele>267.79998779297</ele>
        <time>2014-02-02T11:02:20.000Z</time>
      </trkpt>
      <trkpt lat="47.57088" lon="5.9423">
        <ele>267.79998779297</ele>
        <time>2014-02-02T11:02:25.000Z</time>
      </trkpt>
      <trkpt lat="47.57086" lon="5.94249">
        <ele>267.79998779297</ele>
        <time>2014-02-02T11:02:28.000Z</time>
      </trkpt>
      <trkpt lat="47.57086" lon="5.9427">
        <ele>267.79998779297</ele>
        <time>2014-02-02T11:02:31.000Z</time>
      </trkpt>
      <trkpt lat="47.57083" lon="5.94297">
        <ele>267.79998779297</ele>
        <time>2014-02-02T11:02:35.000Z</time>
      </trkpt>
      <trkpt lat="47.57082" lon="5.94304">
        <ele>267.39999389648</ele>
        <time>2014-02-02T11:02:36.000Z</time>
      </trkpt>
      <trkpt lat="47.57082" lon="5.94312">
        <ele>267</ele>
        <time>2014-02-02T11:02:37.000Z</time>
      </trkpt>
      <trkpt lat="47.57081" lon="5.94319">
        <ele>266.60000610352</ele>
        <time>2014-02-02T11:02:38.000Z</time>
      </trkpt>
      <trkpt lat="47.57081" lon="5.94325">
        <ele>266.20001220703</ele>
        <time>2014-02-02T11:02:39.000Z</time>
      </trkpt>
      <trkpt lat="47.57081" lon="5.94331">
        <ele>265.79998779297</ele>
        <time>2014-02-02T11:02:40.000Z</time>
      </trkpt>
      <trkpt lat="47.57079" lon="5.9436">
        <ele>265.79998779297</ele>
        <time>2014-02-02T11:02:44.000Z</time>
      </trkpt>
      <trkpt lat="47.57077" lon="5.94403">
        <ele>265.79998779297</ele>
        <time>2014-02-02T11:02:50.000Z</time>
      </trkpt>
      <trkpt lat="47.57076" lon="5.94418">
        <ele>265.79998779297</ele>
        <time>2014-02-02T11:02:52.000Z</time>
      </trkpt>
      <trkpt lat="47.57074" lon="5.94442">
        <ele>265.39999389648</ele>
        <time>2014-02-02T11:02:55.000Z</time>
      </trkpt>
      <trkpt lat="47.57072" lon="5.9445">
        <ele>265</ele>
        <time>2014-02-02T11:02:56.000Z</time>
      </trkpt>
      <trkpt lat="47.57071" lon="5.94459">
        <ele>264.39999389648</ele>
        <time>2014-02-02T11:02:57.000Z</time>
      </trkpt>
      <trkpt lat="47.5707" lon="5.94468">
        <ele>264</ele>
        <time>2014-02-02T11:02:58.000Z</time>
      </trkpt>
      <trkpt lat="47.57069" lon="5.94477">
        <ele>263.60000610352</ele>
        <time>2014-02-02T11:02:59.000Z</time>
      </trkpt>
      <trkpt lat="47.57059" lon="5.94532">
        <ele>263.60000610352</ele>
        <time>2014-02-02T11:03:05.000Z</time>
      </trkpt>
      <trkpt lat="47.57057" lon="5.94541">
        <ele>263.20001220703</ele>
        <time>2014-02-02T11:03:06.000Z</time>
      </trkpt>
      <trkpt lat="47.57056" lon="5.9455">
        <ele>262.79998779297</ele>
        <time>2014-02-02T11:03:07.000Z</time>
      </trkpt>
      <trkpt lat="47.57054" lon="5.94559">
        <ele>262.20001220703</ele>
        <time>2014-02-02T11:03:08.000Z</time>
      </trkpt>
      <trkpt lat="47.57052" lon="5.94569">
        <ele>261.39999389648</ele>
        <time>2014-02-02T11:03:09.000Z</time>
      </trkpt>
      <trkpt lat="47.57048" lon="5.946">
        <ele>261.39999389648</ele>
        <time>2014-02-02T11:03:12.000Z</time>
      </trkpt>
      <trkpt lat="47.57047" lon="5.9461">
        <ele>260.79998779297</ele>
        <time>2014-02-02T11:03:13.000Z</time>
      </trkpt>
      <trkpt lat="47.57046" lon="5.94621">
        <ele>260.39999389648</ele>
        <time>2014-02-02T11:03:14.000Z</time>
      </trkpt>
      <trkpt lat="47.57045" lon="5.94632">
        <ele>259.79998779297</ele>
        <time>2014-02-02T11:03:15.000Z</time>
      </trkpt>
      <trkpt lat="47.57044" lon="5.94643">
        <ele>259.39999389648</ele>
        <time>2014-02-02T11:03:16.000Z</time>
      </trkpt>
      <trkpt lat="47.57044" lon="5.94654">
        <ele>258.79998779297</ele>
        <time>2014-02-02T11:03:17.000Z</time>
      </trkpt>
      <trkpt lat="47.57044" lon="5.94665">
        <ele>258.39999389648</ele>
        <time>2014-02-02T11:03:18.000Z</time>
      </trkpt>
      <trkpt lat="47.57044" lon="5.94676">
        <ele>257.79998779297</ele>
        <time>2014-02-02T11:03:19.000Z</time>
      </trkpt>
      <trkpt lat="47.57045" lon="5.94687">
        <ele>257.39999389648</ele>
        <time>2014-02-02T11:03:20.000Z</time>
      </trkpt>
      <trkpt lat="47.57046" lon="5.94698">
        <ele>257</ele>
        <time>2014-02-02T11:03:21.000Z</time>
      </trkpt>
      <trkpt lat="47.57048" lon="5.94708">
        <ele>256.60000610352</ele>
        <time>2014-02-02T11:03:22.000Z</time>
      </trkpt>
      <trkpt lat="47.5705" lon="5.94718">
        <ele>256.60000610352</ele>
        <time>2014-02-02T11:03:23.000Z</time>
      </trkpt>
      <trkpt lat="47.57059" lon="5.94764">
        <ele>256.20001220703</ele>
        <time>2014-02-02T11:03:28.000Z</time>
      </trkpt>
      <trkpt lat="47.5706" lon="5.94772">
        <ele>255.60000610352</ele>
        <time>2014-02-02T11:03:29.000Z</time>
      </trkpt>
      <trkpt lat="47.57061" lon="5.94781">
        <ele>255.19999694824</ele>
        <time>2014-02-02T11:03:30.000Z</time>
      </trkpt>
      <trkpt lat="47.57062" lon="5.94789">
        <ele>254.80000305176</ele>
        <time>2014-02-02T11:03:31.000Z</time>
      </trkpt>
      <trkpt lat="47.57062" lon="5.94797">
        <ele>254.39999389648</ele>
        <time>2014-02-02T11:03:32.000Z</time>
      </trkpt>
      <trkpt lat="47.57063" lon="5.94812">
        <ele>254.39999389648</ele>
        <time>2014-02-02T11:03:34.000Z</time>
      </trkpt>
      <trkpt lat="47.57064" lon="5.94826">
        <ele>254.39999389648</ele>
        <time>2014-02-02T11:03:36.000Z</time>
      </trkpt>
      <trkpt lat="47.57063" lon="5.94839">
        <ele>254.39999389648</ele>
        <time>2014-02-02T11:03:38.000Z</time>
      </trkpt>
      <trkpt lat="47.57062" lon="5.94852">
        <ele>254.39999389648</ele>
        <time>2014-02-02T11:03:40.000Z</time>
      </trkpt>
      <trkpt lat="47.5706" lon="5.94869">
        <ele>254.39999389648</ele>
        <time>2014-02-02T11:03:44.000Z</time>
      </trkpt>
      <trkpt lat="47.5706" lon="5.9487">
        <ele>254.39999389648</ele>
        <time>2014-02-02T11:03:52.000Z</time>
      </trkpt>
      <trkpt lat="47.57057" lon="5.94878">
        <ele>254.39999389648</ele>
        <time>2014-02-02T11:03:55.000Z</time>
      </trkpt>
      <trkpt lat="47.57053" lon="5.94896">
        <ele>254</ele>
        <time>2014-02-02T11:04:00.000Z</time>
      </trkpt>
      <trkpt lat="47.57054" lon="5.949">
        <ele>253.60000610352</ele>
        <time>2014-02-02T11:04:01.000Z</time>
      </trkpt>
      <trkpt lat="47.57055" lon="5.94904">
        <ele>253</ele>
        <time>2014-02-02T11:04:02.000Z</time>
      </trkpt>
      <trkpt lat="47.57056" lon="5.94909">
        <ele>252.60000610352</ele>
        <time>2014-02-02T11:04:03.000Z</time>
      </trkpt>
      <trkpt lat="47.57058" lon="5.94914">
        <ele>252.19999694824</ele>
        <time>2014-02-02T11:04:04.000Z</time>
      </trkpt>
      <trkpt lat="47.5706" lon="5.9492">
        <ele>252.19999694824</ele>
        <time>2014-02-02T11:04:05.000Z</time>
      </trkpt>
      <trkpt lat="47.57068" lon="5.94944">
        <ele>252.19999694824</ele>
        <time>2014-02-02T11:04:09.000Z</time>
      </trkpt>
      <trkpt lat="47.57072" lon="5.94958">
        <ele>252.19999694824</ele>
        <time>2014-02-02T11:04:11.000Z</time>
      </trkpt>
      <trkpt lat="47.57075" lon="5.94971">
        <ele>251.80000305176</ele>
        <time>2014-02-02T11:04:14.000Z</time>
      </trkpt>
      <trkpt lat="47.57074" lon="5.94974">
        <ele>251.19999694824</ele>
        <time>2014-02-02T11:04:15.000Z</time>
      </trkpt>
      <trkpt lat="47.57072" lon="5.94976">
        <ele>250.80000305176</ele>
        <time>2014-02-02T11:04:16.000Z</time>
      </trkpt>
      <trkpt lat="47.57069" lon="5.94978">
        <ele>250.39999389648</ele>
        <time>2014-02-02T11:04:17.000Z</time>
      </trkpt>
      <trkpt lat="47.57066" lon="5.94979">
        <ele>250</ele>
        <time>2014-02-02T11:04:18.000Z</time>
      </trkpt>
      <trkpt lat="47.57062" lon="5.9498">
        <ele>250</ele>
        <time>2014-02-02T11:04:19.000Z</time>
      </trkpt>
      <trkpt lat="47.57054" lon="5.94985">
        <ele>250</ele>
        <time>2014-02-02T11:04:21.000Z</time>
      </trkpt>
      <trkpt lat="47.57044" lon="5.94994">
        <ele>250</ele>
        <time>2014-02-02T11:04:23.000Z</time>
      </trkpt>
      <trkpt lat="47.57033" lon="5.95002">
        <ele>249.39999389648</ele>
        <time>2014-02-02T11:04:25.000Z</time>
      </trkpt>
      <trkpt lat="47.57028" lon="5.95007">
        <ele>249</ele>
        <time>2014-02-02T11:04:26.000Z</time>
      </trkpt>
      <trkpt lat="47.57022" lon="5.95012">
        <ele>248.39999389648</ele>
        <time>2014-02-02T11:04:27.000Z</time>
      </trkpt>
      <trkpt lat="47.57017" lon="5.95017">
        <ele>247.80000305176</ele>
        <time>2014-02-02T11:04:28.000Z</time>
      </trkpt>
      <trkpt lat="47.57013" lon="5.95022">
        <ele>247.19999694824</ele>
        <time>2014-02-02T11:04:29.000Z</time>
      </trkpt>
      <trkpt lat="47.57009" lon="5.95026">
        <ele>246.39999389648</ele>
        <time>2014-02-02T11:04:30.000Z</time>
      </trkpt>
      <trkpt lat="47.57005" lon="5.9503">
        <ele>245.80000305176</ele>
        <time>2014-02-02T11:04:31.000Z</time>
      </trkpt>
      <trkpt lat="47.57001" lon="5.95034">
        <ele>245.19999694824</ele>
        <time>2014-02-02T11:04:32.000Z</time>
      </trkpt>
      <trkpt lat="47.56998" lon="5.95038">
        <ele>244.80000305176</ele>
        <time>2014-02-02T11:04:33.000Z</time>
      </trkpt>
      <trkpt lat="47.56995" lon="5.95041">
        <ele>244.39999389648</ele>
        <time>2014-02-02T11:04:34.000Z</time>
      </trkpt>
      <trkpt lat="47.56993" lon="5.95045">
        <ele>243.80000305176</ele>
        <time>2014-02-02T11:04:35.000Z</time>
      </trkpt>
      <trkpt lat="47.56992" lon="5.95051">
        <ele>243.39999389648</ele>
        <time>2014-02-02T11:04:36.000Z</time>
      </trkpt>
      <trkpt lat="47.5699" lon="5.95056">
        <ele>243</ele>
        <time>2014-02-02T11:04:37.000Z</time>
      </trkpt>
      <trkpt lat="47.56979" lon="5.95087">
        <ele>243</ele>
        <time>2014-02-02T11:04:43.000Z</time>
      </trkpt>
      <trkpt lat="47.5697" lon="5.95086">
        <ele>243</ele>
        <time>2014-02-02T11:04:45.000Z</time>
      </trkpt>
      <trkpt lat="47.56966" lon="5.95084">
        <ele>243</ele>
        <time>2014-02-02T11:04:46.000Z</time>
      </trkpt>
      <trkpt lat="47.56959" lon="5.95077">
        <ele>243</ele>
        <time>2014-02-02T11:04:48.000Z</time>
      </trkpt>
      <trkpt lat="47.56955" lon="5.95074">
        <ele>243</ele>
        <time>2014-02-02T11:04:49.000Z</time>
      </trkpt>
      <trkpt lat="47.56951" lon="5.95065">
        <ele>243</ele>
        <time>2014-02-02T11:04:51.000Z</time>
      </trkpt>
      <trkpt lat="47.56943" lon="5.95039">
        <ele>243</ele>
        <time>2014-02-02T11:04:57.000Z</time>
      </trkpt>
      <trkpt lat="47.56941" lon="5.95036">
        <ele>243.39999389648</ele>
        <time>2014-02-02T11:04:58.000Z</time>
      </trkpt>
      <trkpt lat="47.5694" lon="5.95033">
        <ele>243.80000305176</ele>
        <time>2014-02-02T11:04:59.000Z</time>
      </trkpt>
      <trkpt lat="47.56939" lon="5.95031">
        <ele>244.19999694824</ele>
        <time>2014-02-02T11:05:00.000Z</time>
      </trkpt>
      <trkpt lat="47.56937" lon="5.95028">
        <ele>244.60000610352</ele>
        <time>2014-02-02T11:05:01.000Z</time>
      </trkpt>
      <trkpt lat="47.56936" lon="5.95027">
        <ele>245</ele>
        <time>2014-02-02T11:05:02.000Z</time>
      </trkpt>
      <trkpt lat="47.56935" lon="5.95027">
        <ele>245</ele>
        <time>2014-02-02T11:05:03.000Z</time>
      </trkpt>
    </trkseg>
  </trk>
</gpx>